<?xml version="1.0" encoding="UTF-8" standalone="no" ?>
<gpx xmlns="http://www.topografix.com/GPX/1/1" xmlns:xsi="http://www.w3.org/2001/XMLSchema-instance" xsi:schemaLocation="http://www.topografix.com/GPX/1/1 http://www.topografix.com/GPX/1/1/gpx.xsd" version="1.1" creator="VisuGPX - https://www.visugpx.com">
  <metadata>
    <name>Pornichet 01/10/2020</name>
    <desc><![CDATA[Sortie VTT du jeudi 01 octobre 2020]]></desc>
  </metadata>
  <trk>
    <name><![CDATA[Pornichet Cyclisme]]></name>
    <trkseg>
      <trkpt lat="47.26365" lon="-2.31572">
        <ele>44</ele>
        <time>2020-10-01T07:01:35.000Z</time>
      </trkpt>
      <trkpt lat="47.26365" lon="-2.31591">
        <ele>44</ele>
        <time>2020-10-01T07:01:39.000Z</time>
      </trkpt>
      <trkpt lat="47.26365" lon="-2.31597">
        <ele>43.799999237061</ele>
        <time>2020-10-01T07:01:40.000Z</time>
      </trkpt>
      <trkpt lat="47.26364" lon="-2.31631">
        <ele>43.799999237061</ele>
        <time>2020-10-01T07:01:46.000Z</time>
      </trkpt>
      <trkpt lat="47.2637" lon="-2.31669">
        <ele>43.799999237061</ele>
        <time>2020-10-01T07:01:52.000Z</time>
      </trkpt>
      <trkpt lat="47.26369" lon="-2.31675">
        <ele>43.799999237061</ele>
        <time>2020-10-01T07:01:54.000Z</time>
      </trkpt>
      <trkpt lat="47.26364" lon="-2.31679">
        <ele>43.799999237061</ele>
        <time>2020-10-01T07:01:56.000Z</time>
      </trkpt>
      <trkpt lat="47.26358" lon="-2.31683">
        <ele>43.799999237061</ele>
        <time>2020-10-01T07:01:58.000Z</time>
      </trkpt>
      <trkpt lat="47.26346" lon="-2.31692">
        <ele>43.799999237061</ele>
        <time>2020-10-01T07:02:01.000Z</time>
      </trkpt>
      <trkpt lat="47.26338" lon="-2.31698">
        <ele>43.799999237061</ele>
        <time>2020-10-01T07:02:03.000Z</time>
      </trkpt>
      <trkpt lat="47.26318" lon="-2.31707">
        <ele>43</ele>
        <time>2020-10-01T07:02:07.000Z</time>
      </trkpt>
      <trkpt lat="47.26315" lon="-2.31709">
        <ele>42.599998474121</ele>
        <time>2020-10-01T07:02:08.000Z</time>
      </trkpt>
      <trkpt lat="47.26311" lon="-2.31711">
        <ele>42.200000762939</ele>
        <time>2020-10-01T07:02:09.000Z</time>
      </trkpt>
      <trkpt lat="47.26308" lon="-2.31714">
        <ele>41.799999237061</ele>
        <time>2020-10-01T07:02:10.000Z</time>
      </trkpt>
      <trkpt lat="47.26297" lon="-2.31717">
        <ele>41.799999237061</ele>
        <time>2020-10-01T07:02:13.000Z</time>
      </trkpt>
      <trkpt lat="47.26292" lon="-2.31719">
        <ele>41.400001525879</ele>
        <time>2020-10-01T07:02:15.000Z</time>
      </trkpt>
      <trkpt lat="47.26289" lon="-2.3172">
        <ele>41</ele>
        <time>2020-10-01T07:02:16.000Z</time>
      </trkpt>
      <trkpt lat="47.26286" lon="-2.31721">
        <ele>40.599998474121</ele>
        <time>2020-10-01T07:02:17.000Z</time>
      </trkpt>
      <trkpt lat="47.26284" lon="-2.31721">
        <ele>40.200000762939</ele>
        <time>2020-10-01T07:02:18.000Z</time>
      </trkpt>
      <trkpt lat="47.26281" lon="-2.31722">
        <ele>39.799999237061</ele>
        <time>2020-10-01T07:02:19.000Z</time>
      </trkpt>
      <trkpt lat="47.26271" lon="-2.31722">
        <ele>39.799999237061</ele>
        <time>2020-10-01T07:02:22.000Z</time>
      </trkpt>
      <trkpt lat="47.26269" lon="-2.31721">
        <ele>39.799999237061</ele>
        <time>2020-10-01T07:02:23.000Z</time>
      </trkpt>
      <trkpt lat="47.26261" lon="-2.31712">
        <ele>39.799999237061</ele>
        <time>2020-10-01T07:02:26.000Z</time>
      </trkpt>
      <trkpt lat="47.26258" lon="-2.31707">
        <ele>39.799999237061</ele>
        <time>2020-10-01T07:02:27.000Z</time>
      </trkpt>
      <trkpt lat="47.26238" lon="-2.31671">
        <ele>39.799999237061</ele>
        <time>2020-10-01T07:02:34.000Z</time>
      </trkpt>
      <trkpt lat="47.26222" lon="-2.31634">
        <ele>39.799999237061</ele>
        <time>2020-10-01T07:02:41.000Z</time>
      </trkpt>
      <trkpt lat="47.26216" lon="-2.31624">
        <ele>39.799999237061</ele>
        <time>2020-10-01T07:02:43.000Z</time>
      </trkpt>
      <trkpt lat="47.26203" lon="-2.31616">
        <ele>39.799999237061</ele>
        <time>2020-10-01T07:02:46.000Z</time>
      </trkpt>
      <trkpt lat="47.26198" lon="-2.31614">
        <ele>39.799999237061</ele>
        <time>2020-10-01T07:02:47.000Z</time>
      </trkpt>
      <trkpt lat="47.26182" lon="-2.3161">
        <ele>39.799999237061</ele>
        <time>2020-10-01T07:02:50.000Z</time>
      </trkpt>
      <trkpt lat="47.26176" lon="-2.3161">
        <ele>39.799999237061</ele>
        <time>2020-10-01T07:02:51.000Z</time>
      </trkpt>
      <trkpt lat="47.26135" lon="-2.31617">
        <ele>39.799999237061</ele>
        <time>2020-10-01T07:02:59.000Z</time>
      </trkpt>
      <trkpt lat="47.26106" lon="-2.31624">
        <ele>39.799999237061</ele>
        <time>2020-10-01T07:03:05.000Z</time>
      </trkpt>
      <trkpt lat="47.26102" lon="-2.31625">
        <ele>39.799999237061</ele>
        <time>2020-10-01T07:03:06.000Z</time>
      </trkpt>
      <trkpt lat="47.26079" lon="-2.31625">
        <ele>39.799999237061</ele>
        <time>2020-10-01T07:03:11.000Z</time>
      </trkpt>
      <trkpt lat="47.26075" lon="-2.31623">
        <ele>39.799999237061</ele>
        <time>2020-10-01T07:03:12.000Z</time>
      </trkpt>
      <trkpt lat="47.26057" lon="-2.31603">
        <ele>39.799999237061</ele>
        <time>2020-10-01T07:03:17.000Z</time>
      </trkpt>
      <trkpt lat="47.26043" lon="-2.31588">
        <ele>39.799999237061</ele>
        <time>2020-10-01T07:03:22.000Z</time>
      </trkpt>
      <trkpt lat="47.26035" lon="-2.31576">
        <ele>39.799999237061</ele>
        <time>2020-10-01T07:03:25.000Z</time>
      </trkpt>
      <trkpt lat="47.26033" lon="-2.3157">
        <ele>39.799999237061</ele>
        <time>2020-10-01T07:03:26.000Z</time>
      </trkpt>
      <trkpt lat="47.2603" lon="-2.31565">
        <ele>39.799999237061</ele>
        <time>2020-10-01T07:03:27.000Z</time>
      </trkpt>
      <trkpt lat="47.26023" lon="-2.3155">
        <ele>39.799999237061</ele>
        <time>2020-10-01T07:03:30.000Z</time>
      </trkpt>
      <trkpt lat="47.2602" lon="-2.31545">
        <ele>39.799999237061</ele>
        <time>2020-10-01T07:03:31.000Z</time>
      </trkpt>
      <trkpt lat="47.26005" lon="-2.31521">
        <ele>39.799999237061</ele>
        <time>2020-10-01T07:03:36.000Z</time>
      </trkpt>
      <trkpt lat="47.25999" lon="-2.31519">
        <ele>39.799999237061</ele>
        <time>2020-10-01T07:03:38.000Z</time>
      </trkpt>
      <trkpt lat="47.25996" lon="-2.31522">
        <ele>39.799999237061</ele>
        <time>2020-10-01T07:03:39.000Z</time>
      </trkpt>
      <trkpt lat="47.25989" lon="-2.31541">
        <ele>39.799999237061</ele>
        <time>2020-10-01T07:03:43.000Z</time>
      </trkpt>
      <trkpt lat="47.25987" lon="-2.31545">
        <ele>39.799999237061</ele>
        <time>2020-10-01T07:03:44.000Z</time>
      </trkpt>
      <trkpt lat="47.25978" lon="-2.31562">
        <ele>39.799999237061</ele>
        <time>2020-10-01T07:03:48.000Z</time>
      </trkpt>
      <trkpt lat="47.25972" lon="-2.31565">
        <ele>39.799999237061</ele>
        <time>2020-10-01T07:03:50.000Z</time>
      </trkpt>
      <trkpt lat="47.2597" lon="-2.31564">
        <ele>39.799999237061</ele>
        <time>2020-10-01T07:03:51.000Z</time>
      </trkpt>
      <trkpt lat="47.25959" lon="-2.3155">
        <ele>39.799999237061</ele>
        <time>2020-10-01T07:03:55.000Z</time>
      </trkpt>
      <trkpt lat="47.25938" lon="-2.31511">
        <ele>39.799999237061</ele>
        <time>2020-10-01T07:04:03.000Z</time>
      </trkpt>
      <trkpt lat="47.25919" lon="-2.31477">
        <ele>39.799999237061</ele>
        <time>2020-10-01T07:04:10.000Z</time>
      </trkpt>
      <trkpt lat="47.25897" lon="-2.31458">
        <ele>39.799999237061</ele>
        <time>2020-10-01T07:04:16.000Z</time>
      </trkpt>
      <trkpt lat="47.25886" lon="-2.3146">
        <ele>39.799999237061</ele>
        <time>2020-10-01T07:04:19.000Z</time>
      </trkpt>
      <trkpt lat="47.25883" lon="-2.31465">
        <ele>39.799999237061</ele>
        <time>2020-10-01T07:04:20.000Z</time>
      </trkpt>
      <trkpt lat="47.25875" lon="-2.31483">
        <ele>39.799999237061</ele>
        <time>2020-10-01T07:04:24.000Z</time>
      </trkpt>
      <trkpt lat="47.25874" lon="-2.31487">
        <ele>39.799999237061</ele>
        <time>2020-10-01T07:04:25.000Z</time>
      </trkpt>
      <trkpt lat="47.25871" lon="-2.31495">
        <ele>40.200000762939</ele>
        <time>2020-10-01T07:04:27.000Z</time>
      </trkpt>
      <trkpt lat="47.25869" lon="-2.31499">
        <ele>40.599998474121</ele>
        <time>2020-10-01T07:04:28.000Z</time>
      </trkpt>
      <trkpt lat="47.25868" lon="-2.31502">
        <ele>41</ele>
        <time>2020-10-01T07:04:29.000Z</time>
      </trkpt>
      <trkpt lat="47.25867" lon="-2.31504">
        <ele>41.400001525879</ele>
        <time>2020-10-01T07:04:30.000Z</time>
      </trkpt>
      <trkpt lat="47.25866" lon="-2.31505">
        <ele>41.799999237061</ele>
        <time>2020-10-01T07:04:31.000Z</time>
      </trkpt>
      <trkpt lat="47.25869" lon="-2.31508">
        <ele>41.799999237061</ele>
        <time>2020-10-01T07:04:35.000Z</time>
      </trkpt>
      <trkpt lat="47.25869" lon="-2.31511">
        <ele>41.799999237061</ele>
        <time>2020-10-01T07:04:36.000Z</time>
      </trkpt>
      <trkpt lat="47.25861" lon="-2.31529">
        <ele>41.799999237061</ele>
        <time>2020-10-01T07:04:41.000Z</time>
      </trkpt>
      <trkpt lat="47.25858" lon="-2.31541">
        <ele>41.799999237061</ele>
        <time>2020-10-01T07:04:43.000Z</time>
      </trkpt>
      <trkpt lat="47.25854" lon="-2.31556">
        <ele>41.799999237061</ele>
        <time>2020-10-01T07:04:46.000Z</time>
      </trkpt>
      <trkpt lat="47.25846" lon="-2.31575">
        <ele>42.200000762939</ele>
        <time>2020-10-01T07:04:50.000Z</time>
      </trkpt>
      <trkpt lat="47.25844" lon="-2.31579">
        <ele>42.599998474121</ele>
        <time>2020-10-01T07:04:51.000Z</time>
      </trkpt>
      <trkpt lat="47.25842" lon="-2.31583">
        <ele>43</ele>
        <time>2020-10-01T07:04:52.000Z</time>
      </trkpt>
      <trkpt lat="47.2584" lon="-2.31586">
        <ele>43.400001525879</ele>
        <time>2020-10-01T07:04:53.000Z</time>
      </trkpt>
      <trkpt lat="47.25838" lon="-2.31589">
        <ele>43.799999237061</ele>
        <time>2020-10-01T07:04:54.000Z</time>
      </trkpt>
      <trkpt lat="47.25824" lon="-2.31605">
        <ele>43.799999237061</ele>
        <time>2020-10-01T07:04:59.000Z</time>
      </trkpt>
      <trkpt lat="47.25813" lon="-2.31616">
        <ele>44.200000762939</ele>
        <time>2020-10-01T07:05:03.000Z</time>
      </trkpt>
      <trkpt lat="47.25804" lon="-2.31625">
        <ele>45.400001525879</ele>
        <time>2020-10-01T07:05:04.000Z</time>
      </trkpt>
      <trkpt lat="47.258" lon="-2.31628">
        <ele>45.799999237061</ele>
        <time>2020-10-01T07:05:07.000Z</time>
      </trkpt>
      <trkpt lat="47.25797" lon="-2.31631">
        <ele>45.799999237061</ele>
        <time>2020-10-01T07:05:08.000Z</time>
      </trkpt>
      <trkpt lat="47.25774" lon="-2.31651">
        <ele>45.799999237061</ele>
        <time>2020-10-01T07:05:14.000Z</time>
      </trkpt>
      <trkpt lat="47.25747" lon="-2.31674">
        <ele>45.799999237061</ele>
        <time>2020-10-01T07:05:21.000Z</time>
      </trkpt>
      <trkpt lat="47.25723" lon="-2.31698">
        <ele>45.799999237061</ele>
        <time>2020-10-01T07:05:28.000Z</time>
      </trkpt>
      <trkpt lat="47.2572" lon="-2.317">
        <ele>45.400001525879</ele>
        <time>2020-10-01T07:05:29.000Z</time>
      </trkpt>
      <trkpt lat="47.25718" lon="-2.31704">
        <ele>45</ele>
        <time>2020-10-01T07:05:30.000Z</time>
      </trkpt>
      <trkpt lat="47.25715" lon="-2.31706">
        <ele>44.599998474121</ele>
        <time>2020-10-01T07:05:31.000Z</time>
      </trkpt>
      <trkpt lat="47.25712" lon="-2.31707">
        <ele>44.200000762939</ele>
        <time>2020-10-01T07:05:32.000Z</time>
      </trkpt>
      <trkpt lat="47.25709" lon="-2.31707">
        <ele>43.799999237061</ele>
        <time>2020-10-01T07:05:33.000Z</time>
      </trkpt>
      <trkpt lat="47.25692" lon="-2.31693">
        <ele>43.799999237061</ele>
        <time>2020-10-01T07:05:38.000Z</time>
      </trkpt>
      <trkpt lat="47.25667" lon="-2.31681">
        <ele>43.799999237061</ele>
        <time>2020-10-01T07:05:44.000Z</time>
      </trkpt>
      <trkpt lat="47.2566" lon="-2.31681">
        <ele>43.799999237061</ele>
        <time>2020-10-01T07:05:48.000Z</time>
      </trkpt>
      <trkpt lat="47.25648" lon="-2.31688">
        <ele>43.799999237061</ele>
        <time>2020-10-01T07:05:53.000Z</time>
      </trkpt>
      <trkpt lat="47.25645" lon="-2.3169">
        <ele>43.799999237061</ele>
        <time>2020-10-01T07:05:56.000Z</time>
      </trkpt>
      <trkpt lat="47.25643" lon="-2.31695">
        <ele>43.799999237061</ele>
        <time>2020-10-01T07:05:58.000Z</time>
      </trkpt>
      <trkpt lat="47.25639" lon="-2.31703">
        <ele>44.200000762939</ele>
        <time>2020-10-01T07:06:00.000Z</time>
      </trkpt>
      <trkpt lat="47.25635" lon="-2.31707">
        <ele>44.599998474121</ele>
        <time>2020-10-01T07:06:01.000Z</time>
      </trkpt>
      <trkpt lat="47.25632" lon="-2.3171">
        <ele>45</ele>
        <time>2020-10-01T07:06:02.000Z</time>
      </trkpt>
      <trkpt lat="47.25629" lon="-2.31714">
        <ele>45.400001525879</ele>
        <time>2020-10-01T07:06:03.000Z</time>
      </trkpt>
      <trkpt lat="47.25625" lon="-2.31718">
        <ele>45.799999237061</ele>
        <time>2020-10-01T07:06:04.000Z</time>
      </trkpt>
      <trkpt lat="47.2562" lon="-2.31728">
        <ele>45.799999237061</ele>
        <time>2020-10-01T07:06:06.000Z</time>
      </trkpt>
      <trkpt lat="47.25618" lon="-2.31734">
        <ele>45.799999237061</ele>
        <time>2020-10-01T07:06:07.000Z</time>
      </trkpt>
      <trkpt lat="47.25617" lon="-2.31741">
        <ele>46.200000762939</ele>
        <time>2020-10-01T07:06:08.000Z</time>
      </trkpt>
      <trkpt lat="47.25616" lon="-2.31748">
        <ele>46.599998474121</ele>
        <time>2020-10-01T07:06:09.000Z</time>
      </trkpt>
      <trkpt lat="47.25614" lon="-2.31755">
        <ele>47.200000762939</ele>
        <time>2020-10-01T07:06:10.000Z</time>
      </trkpt>
      <trkpt lat="47.25612" lon="-2.31761">
        <ele>47.599998474121</ele>
        <time>2020-10-01T07:06:11.000Z</time>
      </trkpt>
      <trkpt lat="47.25609" lon="-2.31766">
        <ele>48</ele>
        <time>2020-10-01T07:06:12.000Z</time>
      </trkpt>
      <trkpt lat="47.25595" lon="-2.31773">
        <ele>48</ele>
        <time>2020-10-01T07:06:15.000Z</time>
      </trkpt>
      <trkpt lat="47.25586" lon="-2.31773">
        <ele>48</ele>
        <time>2020-10-01T07:06:17.000Z</time>
      </trkpt>
      <trkpt lat="47.25576" lon="-2.31775">
        <ele>48</ele>
        <time>2020-10-01T07:06:19.000Z</time>
      </trkpt>
      <trkpt lat="47.25572" lon="-2.31777">
        <ele>48</ele>
        <time>2020-10-01T07:06:20.000Z</time>
      </trkpt>
      <trkpt lat="47.25564" lon="-2.31781">
        <ele>48</ele>
        <time>2020-10-01T07:06:22.000Z</time>
      </trkpt>
      <trkpt lat="47.25556" lon="-2.31793">
        <ele>48</ele>
        <time>2020-10-01T07:06:25.000Z</time>
      </trkpt>
      <trkpt lat="47.25553" lon="-2.31802">
        <ele>48.400001525879</ele>
        <time>2020-10-01T07:06:27.000Z</time>
      </trkpt>
      <trkpt lat="47.2555" lon="-2.31805">
        <ele>48.799999237061</ele>
        <time>2020-10-01T07:06:28.000Z</time>
      </trkpt>
      <trkpt lat="47.25547" lon="-2.31806">
        <ele>49.200000762939</ele>
        <time>2020-10-01T07:06:29.000Z</time>
      </trkpt>
      <trkpt lat="47.25543" lon="-2.31807">
        <ele>49.599998474121</ele>
        <time>2020-10-01T07:06:30.000Z</time>
      </trkpt>
      <trkpt lat="47.2554" lon="-2.31808">
        <ele>50</ele>
        <time>2020-10-01T07:06:31.000Z</time>
      </trkpt>
      <trkpt lat="47.25523" lon="-2.3181">
        <ele>50</ele>
        <time>2020-10-01T07:06:36.000Z</time>
      </trkpt>
      <trkpt lat="47.25503" lon="-2.3182">
        <ele>50</ele>
        <time>2020-10-01T07:06:43.000Z</time>
      </trkpt>
      <trkpt lat="47.25502" lon="-2.31823">
        <ele>50</ele>
        <time>2020-10-01T07:06:44.000Z</time>
      </trkpt>
      <trkpt lat="47.25503" lon="-2.3183">
        <ele>50</ele>
        <time>2020-10-01T07:06:46.000Z</time>
      </trkpt>
      <trkpt lat="47.25509" lon="-2.31832">
        <ele>50</ele>
        <time>2020-10-01T07:06:49.000Z</time>
      </trkpt>
      <trkpt lat="47.25514" lon="-2.3183">
        <ele>50</ele>
        <time>2020-10-01T07:06:51.000Z</time>
      </trkpt>
      <trkpt lat="47.25516" lon="-2.31829">
        <ele>50</ele>
        <time>2020-10-01T07:06:52.000Z</time>
      </trkpt>
      <trkpt lat="47.25521" lon="-2.3183">
        <ele>50</ele>
        <time>2020-10-01T07:06:55.000Z</time>
      </trkpt>
      <trkpt lat="47.25521" lon="-2.31831">
        <ele>50</ele>
        <time>2020-10-01T07:06:57.000Z</time>
      </trkpt>
      <trkpt lat="47.25522" lon="-2.31837">
        <ele>44</ele>
        <time>2020-10-01T07:12:28.000Z</time>
      </trkpt>
      <trkpt lat="47.25522" lon="-2.31838">
        <ele>44</ele>
        <time>2020-10-01T07:12:29.000Z</time>
      </trkpt>
      <trkpt lat="47.25518" lon="-2.31836">
        <ele>44</ele>
        <time>2020-10-01T07:12:33.000Z</time>
      </trkpt>
      <trkpt lat="47.25518" lon="-2.31834">
        <ele>44</ele>
        <time>2020-10-01T07:12:34.000Z</time>
      </trkpt>
      <trkpt lat="47.25514" lon="-2.31833">
        <ele>44</ele>
        <time>2020-10-01T07:12:38.000Z</time>
      </trkpt>
      <trkpt lat="47.25504" lon="-2.31829">
        <ele>44</ele>
        <time>2020-10-01T07:12:44.000Z</time>
      </trkpt>
      <trkpt lat="47.25487" lon="-2.3183">
        <ele>44</ele>
        <time>2020-10-01T07:12:50.000Z</time>
      </trkpt>
      <trkpt lat="47.25468" lon="-2.31844">
        <ele>44</ele>
        <time>2020-10-01T07:12:57.000Z</time>
      </trkpt>
      <trkpt lat="47.25459" lon="-2.3186">
        <ele>44</ele>
        <time>2020-10-01T07:13:02.000Z</time>
      </trkpt>
      <trkpt lat="47.25459" lon="-2.31887">
        <ele>44</ele>
        <time>2020-10-01T07:13:07.000Z</time>
      </trkpt>
      <trkpt lat="47.25456" lon="-2.31913">
        <ele>44</ele>
        <time>2020-10-01T07:13:12.000Z</time>
      </trkpt>
      <trkpt lat="47.25455" lon="-2.31923">
        <ele>44</ele>
        <time>2020-10-01T07:13:14.000Z</time>
      </trkpt>
      <trkpt lat="47.25443" lon="-2.31953">
        <ele>44</ele>
        <time>2020-10-01T07:13:20.000Z</time>
      </trkpt>
      <trkpt lat="47.25439" lon="-2.31957">
        <ele>44</ele>
        <time>2020-10-01T07:13:21.000Z</time>
      </trkpt>
      <trkpt lat="47.25424" lon="-2.31979">
        <ele>44</ele>
        <time>2020-10-01T07:13:26.000Z</time>
      </trkpt>
      <trkpt lat="47.25409" lon="-2.31997">
        <ele>43.599998474121</ele>
        <time>2020-10-01T07:13:30.000Z</time>
      </trkpt>
      <trkpt lat="47.25405" lon="-2.32001">
        <ele>43.200000762939</ele>
        <time>2020-10-01T07:13:31.000Z</time>
      </trkpt>
      <trkpt lat="47.254" lon="-2.32006">
        <ele>42.799999237061</ele>
        <time>2020-10-01T07:13:32.000Z</time>
      </trkpt>
      <trkpt lat="47.25396" lon="-2.32011">
        <ele>42.400001525879</ele>
        <time>2020-10-01T07:13:33.000Z</time>
      </trkpt>
      <trkpt lat="47.25392" lon="-2.32016">
        <ele>42</ele>
        <time>2020-10-01T07:13:34.000Z</time>
      </trkpt>
      <trkpt lat="47.25372" lon="-2.32042">
        <ele>42</ele>
        <time>2020-10-01T07:13:39.000Z</time>
      </trkpt>
      <trkpt lat="47.25368" lon="-2.32046">
        <ele>41.599998474121</ele>
        <time>2020-10-01T07:13:40.000Z</time>
      </trkpt>
      <trkpt lat="47.25365" lon="-2.3205">
        <ele>41</ele>
        <time>2020-10-01T07:13:41.000Z</time>
      </trkpt>
      <trkpt lat="47.25362" lon="-2.32054">
        <ele>40.599998474121</ele>
        <time>2020-10-01T07:13:42.000Z</time>
      </trkpt>
      <trkpt lat="47.2536" lon="-2.32056">
        <ele>40.200000762939</ele>
        <time>2020-10-01T07:13:43.000Z</time>
      </trkpt>
      <trkpt lat="47.25359" lon="-2.32057">
        <ele>39.799999237061</ele>
        <time>2020-10-01T07:13:44.000Z</time>
      </trkpt>
      <trkpt lat="47.25357" lon="-2.32062">
        <ele>39.799999237061</ele>
        <time>2020-10-01T07:13:47.000Z</time>
      </trkpt>
      <trkpt lat="47.25355" lon="-2.32066">
        <ele>39.799999237061</ele>
        <time>2020-10-01T07:13:49.000Z</time>
      </trkpt>
      <trkpt lat="47.25352" lon="-2.32082">
        <ele>39.799999237061</ele>
        <time>2020-10-01T07:13:54.000Z</time>
      </trkpt>
      <trkpt lat="47.25339" lon="-2.32102">
        <ele>39.799999237061</ele>
        <time>2020-10-01T07:14:00.000Z</time>
      </trkpt>
      <trkpt lat="47.25327" lon="-2.3211">
        <ele>39.799999237061</ele>
        <time>2020-10-01T07:14:04.000Z</time>
      </trkpt>
      <trkpt lat="47.25315" lon="-2.32121">
        <ele>39.799999237061</ele>
        <time>2020-10-01T07:14:09.000Z</time>
      </trkpt>
      <trkpt lat="47.25305" lon="-2.32125">
        <ele>39.799999237061</ele>
        <time>2020-10-01T07:14:15.000Z</time>
      </trkpt>
      <trkpt lat="47.25303" lon="-2.32126">
        <ele>39.799999237061</ele>
        <time>2020-10-01T07:14:19.000Z</time>
      </trkpt>
      <trkpt lat="47.25305" lon="-2.32126">
        <ele>39.799999237061</ele>
        <time>2020-10-01T07:14:27.000Z</time>
      </trkpt>
      <trkpt lat="47.25315" lon="-2.3212">
        <ele>39.799999237061</ele>
        <time>2020-10-01T07:14:32.000Z</time>
      </trkpt>
      <trkpt lat="47.25327" lon="-2.32109">
        <ele>39.799999237061</ele>
        <time>2020-10-01T07:14:38.000Z</time>
      </trkpt>
      <trkpt lat="47.2533" lon="-2.32109">
        <ele>39.799999237061</ele>
        <time>2020-10-01T07:14:39.000Z</time>
      </trkpt>
      <trkpt lat="47.25336" lon="-2.32104">
        <ele>39.799999237061</ele>
        <time>2020-10-01T07:14:42.000Z</time>
      </trkpt>
      <trkpt lat="47.25343" lon="-2.32089">
        <ele>39.799999237061</ele>
        <time>2020-10-01T07:14:46.000Z</time>
      </trkpt>
      <trkpt lat="47.25345" lon="-2.32085">
        <ele>39.400001525879</ele>
        <time>2020-10-01T07:14:47.000Z</time>
      </trkpt>
      <trkpt lat="47.25347" lon="-2.3208">
        <ele>39</ele>
        <time>2020-10-01T07:14:48.000Z</time>
      </trkpt>
      <trkpt lat="47.25349" lon="-2.32075">
        <ele>38.599998474121</ele>
        <time>2020-10-01T07:14:49.000Z</time>
      </trkpt>
      <trkpt lat="47.2535" lon="-2.3207">
        <ele>38.200000762939</ele>
        <time>2020-10-01T07:14:50.000Z</time>
      </trkpt>
      <trkpt lat="47.2535" lon="-2.32065">
        <ele>37.799999237061</ele>
        <time>2020-10-01T07:14:51.000Z</time>
      </trkpt>
      <trkpt lat="47.25348" lon="-2.3206">
        <ele>37.799999237061</ele>
        <time>2020-10-01T07:14:52.000Z</time>
      </trkpt>
      <trkpt lat="47.25346" lon="-2.32057">
        <ele>37.799999237061</ele>
        <time>2020-10-01T07:14:53.000Z</time>
      </trkpt>
      <trkpt lat="47.25341" lon="-2.32051">
        <ele>37.799999237061</ele>
        <time>2020-10-01T07:14:55.000Z</time>
      </trkpt>
      <trkpt lat="47.25323" lon="-2.32028">
        <ele>37.799999237061</ele>
        <time>2020-10-01T07:15:02.000Z</time>
      </trkpt>
      <trkpt lat="47.25307" lon="-2.32003">
        <ele>37.799999237061</ele>
        <time>2020-10-01T07:15:08.000Z</time>
      </trkpt>
      <trkpt lat="47.25291" lon="-2.31971">
        <ele>37.799999237061</ele>
        <time>2020-10-01T07:15:15.000Z</time>
      </trkpt>
      <trkpt lat="47.25289" lon="-2.31966">
        <ele>38.200000762939</ele>
        <time>2020-10-01T07:15:16.000Z</time>
      </trkpt>
      <trkpt lat="47.25287" lon="-2.31962">
        <ele>38.599998474121</ele>
        <time>2020-10-01T07:15:17.000Z</time>
      </trkpt>
      <trkpt lat="47.25285" lon="-2.31957">
        <ele>39.200000762939</ele>
        <time>2020-10-01T07:15:18.000Z</time>
      </trkpt>
      <trkpt lat="47.25282" lon="-2.31952">
        <ele>39.599998474121</ele>
        <time>2020-10-01T07:15:19.000Z</time>
      </trkpt>
      <trkpt lat="47.2528" lon="-2.31948">
        <ele>40</ele>
        <time>2020-10-01T07:15:20.000Z</time>
      </trkpt>
      <trkpt lat="47.25269" lon="-2.3193">
        <ele>40</ele>
        <time>2020-10-01T07:15:24.000Z</time>
      </trkpt>
      <trkpt lat="47.25247" lon="-2.31888">
        <ele>40</ele>
        <time>2020-10-01T07:15:33.000Z</time>
      </trkpt>
      <trkpt lat="47.25231" lon="-2.31857">
        <ele>40</ele>
        <time>2020-10-01T07:15:40.000Z</time>
      </trkpt>
      <trkpt lat="47.25226" lon="-2.31849">
        <ele>40.400001525879</ele>
        <time>2020-10-01T07:15:42.000Z</time>
      </trkpt>
      <trkpt lat="47.25223" lon="-2.31845">
        <ele>40.799999237061</ele>
        <time>2020-10-01T07:15:43.000Z</time>
      </trkpt>
      <trkpt lat="47.25221" lon="-2.3184">
        <ele>41.200000762939</ele>
        <time>2020-10-01T07:15:44.000Z</time>
      </trkpt>
      <trkpt lat="47.25219" lon="-2.31835">
        <ele>41.599998474121</ele>
        <time>2020-10-01T07:15:45.000Z</time>
      </trkpt>
      <trkpt lat="47.25216" lon="-2.31831">
        <ele>42</ele>
        <time>2020-10-01T07:15:46.000Z</time>
      </trkpt>
      <trkpt lat="47.25199" lon="-2.31801">
        <ele>42</ele>
        <time>2020-10-01T07:15:53.000Z</time>
      </trkpt>
      <trkpt lat="47.25179" lon="-2.31764">
        <ele>42</ele>
        <time>2020-10-01T07:16:01.000Z</time>
      </trkpt>
      <trkpt lat="47.25165" lon="-2.3174">
        <ele>42.400001525879</ele>
        <time>2020-10-01T07:16:06.000Z</time>
      </trkpt>
      <trkpt lat="47.25163" lon="-2.31736">
        <ele>43</ele>
        <time>2020-10-01T07:16:07.000Z</time>
      </trkpt>
      <trkpt lat="47.2516" lon="-2.31731">
        <ele>43.400001525879</ele>
        <time>2020-10-01T07:16:08.000Z</time>
      </trkpt>
      <trkpt lat="47.25157" lon="-2.31726">
        <ele>43.799999237061</ele>
        <time>2020-10-01T07:16:09.000Z</time>
      </trkpt>
      <trkpt lat="47.25155" lon="-2.31721">
        <ele>44.200000762939</ele>
        <time>2020-10-01T07:16:10.000Z</time>
      </trkpt>
      <trkpt lat="47.25152" lon="-2.31717">
        <ele>44.200000762939</ele>
        <time>2020-10-01T07:16:11.000Z</time>
      </trkpt>
      <trkpt lat="47.25131" lon="-2.31679">
        <ele>44.200000762939</ele>
        <time>2020-10-01T07:16:19.000Z</time>
      </trkpt>
      <trkpt lat="47.25114" lon="-2.31646">
        <ele>44.200000762939</ele>
        <time>2020-10-01T07:16:26.000Z</time>
      </trkpt>
      <trkpt lat="47.251" lon="-2.31614">
        <ele>44.200000762939</ele>
        <time>2020-10-01T07:16:33.000Z</time>
      </trkpt>
      <trkpt lat="47.25092" lon="-2.3159">
        <ele>44.200000762939</ele>
        <time>2020-10-01T07:16:40.000Z</time>
      </trkpt>
      <trkpt lat="47.25083" lon="-2.31558">
        <ele>44.200000762939</ele>
        <time>2020-10-01T07:16:47.000Z</time>
      </trkpt>
      <trkpt lat="47.25074" lon="-2.31525">
        <ele>44.200000762939</ele>
        <time>2020-10-01T07:16:54.000Z</time>
      </trkpt>
      <trkpt lat="47.25065" lon="-2.31495">
        <ele>44.200000762939</ele>
        <time>2020-10-01T07:17:00.000Z</time>
      </trkpt>
      <trkpt lat="47.25054" lon="-2.3146">
        <ele>44.200000762939</ele>
        <time>2020-10-01T07:17:07.000Z</time>
      </trkpt>
      <trkpt lat="47.25046" lon="-2.31433">
        <ele>44.200000762939</ele>
        <time>2020-10-01T07:17:12.000Z</time>
      </trkpt>
      <trkpt lat="47.25045" lon="-2.31428">
        <ele>44.200000762939</ele>
        <time>2020-10-01T07:17:13.000Z</time>
      </trkpt>
      <trkpt lat="47.25041" lon="-2.31412">
        <ele>44.200000762939</ele>
        <time>2020-10-01T07:17:16.000Z</time>
      </trkpt>
      <trkpt lat="47.25036" lon="-2.31397">
        <ele>44.200000762939</ele>
        <time>2020-10-01T07:17:19.000Z</time>
      </trkpt>
      <trkpt lat="47.25034" lon="-2.31392">
        <ele>45</ele>
        <time>2020-10-01T07:17:20.000Z</time>
      </trkpt>
      <trkpt lat="47.25032" lon="-2.31387">
        <ele>45.400001525879</ele>
        <time>2020-10-01T07:17:21.000Z</time>
      </trkpt>
      <trkpt lat="47.2503" lon="-2.31382">
        <ele>45.799999237061</ele>
        <time>2020-10-01T07:17:22.000Z</time>
      </trkpt>
      <trkpt lat="47.25029" lon="-2.31376">
        <ele>46.200000762939</ele>
        <time>2020-10-01T07:17:23.000Z</time>
      </trkpt>
      <trkpt lat="47.25025" lon="-2.31361">
        <ele>46.200000762939</ele>
        <time>2020-10-01T07:17:26.000Z</time>
      </trkpt>
      <trkpt lat="47.25017" lon="-2.3132">
        <ele>46.200000762939</ele>
        <time>2020-10-01T07:17:33.000Z</time>
      </trkpt>
      <trkpt lat="47.25014" lon="-2.31289">
        <ele>46.200000762939</ele>
        <time>2020-10-01T07:17:38.000Z</time>
      </trkpt>
      <trkpt lat="47.25014" lon="-2.31276">
        <ele>46.200000762939</ele>
        <time>2020-10-01T07:17:40.000Z</time>
      </trkpt>
      <trkpt lat="47.25016" lon="-2.31262">
        <ele>46.200000762939</ele>
        <time>2020-10-01T07:17:42.000Z</time>
      </trkpt>
      <trkpt lat="47.25021" lon="-2.31228">
        <ele>46.200000762939</ele>
        <time>2020-10-01T07:17:47.000Z</time>
      </trkpt>
      <trkpt lat="47.25024" lon="-2.31191">
        <ele>46.200000762939</ele>
        <time>2020-10-01T07:17:53.000Z</time>
      </trkpt>
      <trkpt lat="47.25022" lon="-2.31139">
        <ele>46.200000762939</ele>
        <time>2020-10-01T07:18:02.000Z</time>
      </trkpt>
      <trkpt lat="47.25011" lon="-2.31093">
        <ele>46.200000762939</ele>
        <time>2020-10-01T07:18:10.000Z</time>
      </trkpt>
      <trkpt lat="47.25007" lon="-2.31069">
        <ele>46.200000762939</ele>
        <time>2020-10-01T07:18:14.000Z</time>
      </trkpt>
      <trkpt lat="47.25004" lon="-2.31053">
        <ele>46.200000762939</ele>
        <time>2020-10-01T07:18:17.000Z</time>
      </trkpt>
      <trkpt lat="47.24991" lon="-2.30999">
        <ele>46.200000762939</ele>
        <time>2020-10-01T07:18:27.000Z</time>
      </trkpt>
      <trkpt lat="47.24983" lon="-2.30972">
        <ele>46.200000762939</ele>
        <time>2020-10-01T07:18:33.000Z</time>
      </trkpt>
      <trkpt lat="47.24973" lon="-2.30936">
        <ele>46.200000762939</ele>
        <time>2020-10-01T07:18:40.000Z</time>
      </trkpt>
      <trkpt lat="47.24955" lon="-2.30881">
        <ele>46.200000762939</ele>
        <time>2020-10-01T07:18:50.000Z</time>
      </trkpt>
      <trkpt lat="47.2494" lon="-2.30844">
        <ele>46.200000762939</ele>
        <time>2020-10-01T07:18:58.000Z</time>
      </trkpt>
      <trkpt lat="47.24922" lon="-2.30812">
        <ele>46.200000762939</ele>
        <time>2020-10-01T07:19:05.000Z</time>
      </trkpt>
      <trkpt lat="47.24918" lon="-2.30802">
        <ele>46.200000762939</ele>
        <time>2020-10-01T07:19:07.000Z</time>
      </trkpt>
      <trkpt lat="47.24907" lon="-2.30779">
        <ele>46.200000762939</ele>
        <time>2020-10-01T07:19:12.000Z</time>
      </trkpt>
      <trkpt lat="47.24895" lon="-2.30774">
        <ele>46.200000762939</ele>
        <time>2020-10-01T07:19:15.000Z</time>
      </trkpt>
      <trkpt lat="47.2489" lon="-2.30773">
        <ele>46.200000762939</ele>
        <time>2020-10-01T07:19:16.000Z</time>
      </trkpt>
      <trkpt lat="47.24875" lon="-2.30773">
        <ele>46.200000762939</ele>
        <time>2020-10-01T07:19:19.000Z</time>
      </trkpt>
      <trkpt lat="47.2486" lon="-2.3077">
        <ele>46.200000762939</ele>
        <time>2020-10-01T07:19:22.000Z</time>
      </trkpt>
      <trkpt lat="47.24828" lon="-2.30766">
        <ele>46.200000762939</ele>
        <time>2020-10-01T07:19:28.000Z</time>
      </trkpt>
      <trkpt lat="47.2479" lon="-2.30751">
        <ele>46.200000762939</ele>
        <time>2020-10-01T07:19:35.000Z</time>
      </trkpt>
      <trkpt lat="47.24762" lon="-2.30735">
        <ele>46.200000762939</ele>
        <time>2020-10-01T07:19:41.000Z</time>
      </trkpt>
      <trkpt lat="47.24754" lon="-2.30728">
        <ele>46.200000762939</ele>
        <time>2020-10-01T07:19:43.000Z</time>
      </trkpt>
      <trkpt lat="47.24725" lon="-2.30702">
        <ele>46.200000762939</ele>
        <time>2020-10-01T07:19:50.000Z</time>
      </trkpt>
      <trkpt lat="47.24704" lon="-2.30684">
        <ele>46.200000762939</ele>
        <time>2020-10-01T07:19:55.000Z</time>
      </trkpt>
      <trkpt lat="47.24696" lon="-2.30678">
        <ele>46.200000762939</ele>
        <time>2020-10-01T07:19:57.000Z</time>
      </trkpt>
      <trkpt lat="47.24661" lon="-2.30648">
        <ele>46.200000762939</ele>
        <time>2020-10-01T07:20:06.000Z</time>
      </trkpt>
      <trkpt lat="47.24628" lon="-2.30624">
        <ele>46.200000762939</ele>
        <time>2020-10-01T07:20:14.000Z</time>
      </trkpt>
      <trkpt lat="47.24592" lon="-2.30597">
        <ele>46.200000762939</ele>
        <time>2020-10-01T07:20:22.000Z</time>
      </trkpt>
      <trkpt lat="47.24579" lon="-2.30584">
        <ele>45.799999237061</ele>
        <time>2020-10-01T07:20:25.000Z</time>
      </trkpt>
      <trkpt lat="47.24575" lon="-2.30578">
        <ele>45.400001525879</ele>
        <time>2020-10-01T07:20:26.000Z</time>
      </trkpt>
      <trkpt lat="47.24571" lon="-2.30572">
        <ele>44.799999237061</ele>
        <time>2020-10-01T07:20:27.000Z</time>
      </trkpt>
      <trkpt lat="47.24568" lon="-2.30565">
        <ele>44.400001525879</ele>
        <time>2020-10-01T07:20:28.000Z</time>
      </trkpt>
      <trkpt lat="47.24564" lon="-2.30559">
        <ele>44</ele>
        <time>2020-10-01T07:20:29.000Z</time>
      </trkpt>
      <trkpt lat="47.24545" lon="-2.30528">
        <ele>44</ele>
        <time>2020-10-01T07:20:34.000Z</time>
      </trkpt>
      <trkpt lat="47.24535" lon="-2.30516">
        <ele>43.599998474121</ele>
        <time>2020-10-01T07:20:36.000Z</time>
      </trkpt>
      <trkpt lat="47.2453" lon="-2.3051">
        <ele>43.200000762939</ele>
        <time>2020-10-01T07:20:37.000Z</time>
      </trkpt>
      <trkpt lat="47.24525" lon="-2.30505">
        <ele>42.400001525879</ele>
        <time>2020-10-01T07:20:38.000Z</time>
      </trkpt>
      <trkpt lat="47.24519" lon="-2.305">
        <ele>41.799999237061</ele>
        <time>2020-10-01T07:20:39.000Z</time>
      </trkpt>
      <trkpt lat="47.24508" lon="-2.30491">
        <ele>41.400001525879</ele>
        <time>2020-10-01T07:20:41.000Z</time>
      </trkpt>
      <trkpt lat="47.24502" lon="-2.30488">
        <ele>41</ele>
        <time>2020-10-01T07:20:42.000Z</time>
      </trkpt>
      <trkpt lat="47.24496" lon="-2.30486">
        <ele>40.599998474121</ele>
        <time>2020-10-01T07:20:43.000Z</time>
      </trkpt>
      <trkpt lat="47.24491" lon="-2.30485">
        <ele>40.200000762939</ele>
        <time>2020-10-01T07:20:44.000Z</time>
      </trkpt>
      <trkpt lat="47.24486" lon="-2.30487">
        <ele>39.799999237061</ele>
        <time>2020-10-01T07:20:45.000Z</time>
      </trkpt>
      <trkpt lat="47.24482" lon="-2.30491">
        <ele>39.400001525879</ele>
        <time>2020-10-01T07:20:46.000Z</time>
      </trkpt>
      <trkpt lat="47.24479" lon="-2.30496">
        <ele>39</ele>
        <time>2020-10-01T07:20:47.000Z</time>
      </trkpt>
      <trkpt lat="47.24477" lon="-2.30503">
        <ele>38.599998474121</ele>
        <time>2020-10-01T07:20:48.000Z</time>
      </trkpt>
      <trkpt lat="47.24475" lon="-2.30511">
        <ele>38.200000762939</ele>
        <time>2020-10-01T07:20:49.000Z</time>
      </trkpt>
      <trkpt lat="47.24474" lon="-2.30518">
        <ele>37.799999237061</ele>
        <time>2020-10-01T07:20:50.000Z</time>
      </trkpt>
      <trkpt lat="47.24474" lon="-2.30525">
        <ele>37.799999237061</ele>
        <time>2020-10-01T07:20:51.000Z</time>
      </trkpt>
      <trkpt lat="47.24465" lon="-2.30542">
        <ele>37.799999237061</ele>
        <time>2020-10-01T07:20:55.000Z</time>
      </trkpt>
      <trkpt lat="47.24455" lon="-2.30552">
        <ele>37.799999237061</ele>
        <time>2020-10-01T07:20:58.000Z</time>
      </trkpt>
      <trkpt lat="47.24447" lon="-2.30559">
        <ele>37.799999237061</ele>
        <time>2020-10-01T07:21:00.000Z</time>
      </trkpt>
      <trkpt lat="47.24437" lon="-2.30566">
        <ele>37.799999237061</ele>
        <time>2020-10-01T07:21:02.000Z</time>
      </trkpt>
      <trkpt lat="47.24432" lon="-2.30569">
        <ele>37.400001525879</ele>
        <time>2020-10-01T07:21:03.000Z</time>
      </trkpt>
      <trkpt lat="47.24426" lon="-2.30573">
        <ele>37</ele>
        <time>2020-10-01T07:21:04.000Z</time>
      </trkpt>
      <trkpt lat="47.24422" lon="-2.30575">
        <ele>36.599998474121</ele>
        <time>2020-10-01T07:21:05.000Z</time>
      </trkpt>
      <trkpt lat="47.24417" lon="-2.30578">
        <ele>36.200000762939</ele>
        <time>2020-10-01T07:21:06.000Z</time>
      </trkpt>
      <trkpt lat="47.24413" lon="-2.30579">
        <ele>35.799999237061</ele>
        <time>2020-10-01T07:21:07.000Z</time>
      </trkpt>
      <trkpt lat="47.24403" lon="-2.30579">
        <ele>35.799999237061</ele>
        <time>2020-10-01T07:21:09.000Z</time>
      </trkpt>
      <trkpt lat="47.24394" lon="-2.30576">
        <ele>35.799999237061</ele>
        <time>2020-10-01T07:21:11.000Z</time>
      </trkpt>
      <trkpt lat="47.2439" lon="-2.30574">
        <ele>35.400001525879</ele>
        <time>2020-10-01T07:21:12.000Z</time>
      </trkpt>
      <trkpt lat="47.24386" lon="-2.30572">
        <ele>35</ele>
        <time>2020-10-01T07:21:13.000Z</time>
      </trkpt>
      <trkpt lat="47.24382" lon="-2.30568">
        <ele>34.599998474121</ele>
        <time>2020-10-01T07:21:14.000Z</time>
      </trkpt>
      <trkpt lat="47.24378" lon="-2.30564">
        <ele>34.200000762939</ele>
        <time>2020-10-01T07:21:15.000Z</time>
      </trkpt>
      <trkpt lat="47.24374" lon="-2.30559">
        <ele>33.599998474121</ele>
        <time>2020-10-01T07:21:16.000Z</time>
      </trkpt>
      <trkpt lat="47.2437" lon="-2.30544">
        <ele>33.599998474121</ele>
        <time>2020-10-01T07:21:18.000Z</time>
      </trkpt>
      <trkpt lat="47.24364" lon="-2.30528">
        <ele>33.599998474121</ele>
        <time>2020-10-01T07:21:21.000Z</time>
      </trkpt>
      <trkpt lat="47.24362" lon="-2.30521">
        <ele>33.599998474121</ele>
        <time>2020-10-01T07:21:23.000Z</time>
      </trkpt>
      <trkpt lat="47.24361" lon="-2.30513">
        <ele>33.599998474121</ele>
        <time>2020-10-01T07:21:26.000Z</time>
      </trkpt>
      <trkpt lat="47.24365" lon="-2.30498">
        <ele>34.200000762939</ele>
        <time>2020-10-01T07:21:30.000Z</time>
      </trkpt>
      <trkpt lat="47.24366" lon="-2.30495">
        <ele>34.599998474121</ele>
        <time>2020-10-01T07:21:31.000Z</time>
      </trkpt>
      <trkpt lat="47.24368" lon="-2.3049">
        <ele>35</ele>
        <time>2020-10-01T07:21:32.000Z</time>
      </trkpt>
      <trkpt lat="47.2437" lon="-2.30486">
        <ele>35.400001525879</ele>
        <time>2020-10-01T07:21:33.000Z</time>
      </trkpt>
      <trkpt lat="47.24371" lon="-2.30482">
        <ele>36</ele>
        <time>2020-10-01T07:21:34.000Z</time>
      </trkpt>
      <trkpt lat="47.24374" lon="-2.30473">
        <ele>36</ele>
        <time>2020-10-01T07:21:36.000Z</time>
      </trkpt>
      <trkpt lat="47.24377" lon="-2.3046">
        <ele>36.400001525879</ele>
        <time>2020-10-01T07:21:39.000Z</time>
      </trkpt>
      <trkpt lat="47.24378" lon="-2.30458">
        <ele>36.799999237061</ele>
        <time>2020-10-01T07:21:40.000Z</time>
      </trkpt>
      <trkpt lat="47.24379" lon="-2.30455">
        <ele>37.200000762939</ele>
        <time>2020-10-01T07:21:41.000Z</time>
      </trkpt>
      <trkpt lat="47.24377" lon="-2.30453">
        <ele>37.599998474121</ele>
        <time>2020-10-01T07:21:42.000Z</time>
      </trkpt>
      <trkpt lat="47.24375" lon="-2.30453">
        <ele>38</ele>
        <time>2020-10-01T07:21:43.000Z</time>
      </trkpt>
      <trkpt lat="47.24368" lon="-2.30454">
        <ele>38</ele>
        <time>2020-10-01T07:21:45.000Z</time>
      </trkpt>
      <trkpt lat="47.24352" lon="-2.30451">
        <ele>38</ele>
        <time>2020-10-01T07:21:50.000Z</time>
      </trkpt>
      <trkpt lat="47.24338" lon="-2.30442">
        <ele>38.400001525879</ele>
        <time>2020-10-01T07:21:54.000Z</time>
      </trkpt>
      <trkpt lat="47.24334" lon="-2.30439">
        <ele>38.799999237061</ele>
        <time>2020-10-01T07:21:55.000Z</time>
      </trkpt>
      <trkpt lat="47.2433" lon="-2.30437">
        <ele>39.200000762939</ele>
        <time>2020-10-01T07:21:56.000Z</time>
      </trkpt>
      <trkpt lat="47.24326" lon="-2.30436">
        <ele>39.599998474121</ele>
        <time>2020-10-01T07:21:57.000Z</time>
      </trkpt>
      <trkpt lat="47.24324" lon="-2.30433">
        <ele>40</ele>
        <time>2020-10-01T07:21:58.000Z</time>
      </trkpt>
      <trkpt lat="47.24321" lon="-2.30431">
        <ele>40</ele>
        <time>2020-10-01T07:21:59.000Z</time>
      </trkpt>
      <trkpt lat="47.24309" lon="-2.30422">
        <ele>40</ele>
        <time>2020-10-01T07:22:04.000Z</time>
      </trkpt>
      <trkpt lat="47.24289" lon="-2.30409">
        <ele>40</ele>
        <time>2020-10-01T07:22:09.000Z</time>
      </trkpt>
      <trkpt lat="47.24286" lon="-2.30406">
        <ele>40</ele>
        <time>2020-10-01T07:22:10.000Z</time>
      </trkpt>
      <trkpt lat="47.24269" lon="-2.30384">
        <ele>40</ele>
        <time>2020-10-01T07:22:15.000Z</time>
      </trkpt>
      <trkpt lat="47.24251" lon="-2.30355">
        <ele>40</ele>
        <time>2020-10-01T07:22:22.000Z</time>
      </trkpt>
      <trkpt lat="47.2424" lon="-2.30331">
        <ele>40</ele>
        <time>2020-10-01T07:22:27.000Z</time>
      </trkpt>
      <trkpt lat="47.24229" lon="-2.30326">
        <ele>40</ele>
        <time>2020-10-01T07:22:30.000Z</time>
      </trkpt>
      <trkpt lat="47.24225" lon="-2.30328">
        <ele>40</ele>
        <time>2020-10-01T07:22:31.000Z</time>
      </trkpt>
      <trkpt lat="47.24213" lon="-2.30334">
        <ele>40</ele>
        <time>2020-10-01T07:22:34.000Z</time>
      </trkpt>
      <trkpt lat="47.24204" lon="-2.30336">
        <ele>39.400001525879</ele>
        <time>2020-10-01T07:22:36.000Z</time>
      </trkpt>
      <trkpt lat="47.242" lon="-2.30335">
        <ele>39</ele>
        <time>2020-10-01T07:22:37.000Z</time>
      </trkpt>
      <trkpt lat="47.24195" lon="-2.30332">
        <ele>38.400001525879</ele>
        <time>2020-10-01T07:22:38.000Z</time>
      </trkpt>
      <trkpt lat="47.24196" lon="-2.30323">
        <ele>38</ele>
        <time>2020-10-01T07:22:39.000Z</time>
      </trkpt>
      <trkpt lat="47.24196" lon="-2.30314">
        <ele>37.400001525879</ele>
        <time>2020-10-01T07:22:40.000Z</time>
      </trkpt>
      <trkpt lat="47.24195" lon="-2.30303">
        <ele>36.599998474121</ele>
        <time>2020-10-01T07:22:41.000Z</time>
      </trkpt>
      <trkpt lat="47.24194" lon="-2.30296">
        <ele>36.200000762939</ele>
        <time>2020-10-01T07:22:42.000Z</time>
      </trkpt>
      <trkpt lat="47.24193" lon="-2.30288">
        <ele>35.799999237061</ele>
        <time>2020-10-01T07:22:43.000Z</time>
      </trkpt>
      <trkpt lat="47.24192" lon="-2.30279">
        <ele>35.400001525879</ele>
        <time>2020-10-01T07:22:44.000Z</time>
      </trkpt>
      <trkpt lat="47.2419" lon="-2.30257">
        <ele>35.400001525879</ele>
        <time>2020-10-01T07:22:47.000Z</time>
      </trkpt>
      <trkpt lat="47.2419" lon="-2.30251">
        <ele>35.400001525879</ele>
        <time>2020-10-01T07:22:48.000Z</time>
      </trkpt>
      <trkpt lat="47.24189" lon="-2.30237">
        <ele>35.400001525879</ele>
        <time>2020-10-01T07:22:52.000Z</time>
      </trkpt>
      <trkpt lat="47.24187" lon="-2.30236">
        <ele>35.400001525879</ele>
        <time>2020-10-01T07:22:53.000Z</time>
      </trkpt>
      <trkpt lat="47.24185" lon="-2.30239">
        <ele>35.400001525879</ele>
        <time>2020-10-01T07:22:55.000Z</time>
      </trkpt>
      <trkpt lat="47.24172" lon="-2.30244">
        <ele>35.400001525879</ele>
        <time>2020-10-01T07:22:59.000Z</time>
      </trkpt>
      <trkpt lat="47.2416" lon="-2.30231">
        <ele>35.400001525879</ele>
        <time>2020-10-01T07:23:03.000Z</time>
      </trkpt>
      <trkpt lat="47.24148" lon="-2.30207">
        <ele>35.400001525879</ele>
        <time>2020-10-01T07:23:09.000Z</time>
      </trkpt>
      <trkpt lat="47.2414" lon="-2.30187">
        <ele>35.400001525879</ele>
        <time>2020-10-01T07:23:14.000Z</time>
      </trkpt>
      <trkpt lat="47.24135" lon="-2.30172">
        <ele>35.799999237061</ele>
        <time>2020-10-01T07:23:18.000Z</time>
      </trkpt>
      <trkpt lat="47.24134" lon="-2.3017">
        <ele>36.200000762939</ele>
        <time>2020-10-01T07:23:19.000Z</time>
      </trkpt>
      <trkpt lat="47.24133" lon="-2.30168">
        <ele>36.599998474121</ele>
        <time>2020-10-01T07:23:20.000Z</time>
      </trkpt>
      <trkpt lat="47.24132" lon="-2.30167">
        <ele>37</ele>
        <time>2020-10-01T07:23:21.000Z</time>
      </trkpt>
      <trkpt lat="47.24131" lon="-2.30165">
        <ele>37.400001525879</ele>
        <time>2020-10-01T07:23:22.000Z</time>
      </trkpt>
      <trkpt lat="47.24129" lon="-2.30164">
        <ele>37.799999237061</ele>
        <time>2020-10-01T07:23:23.000Z</time>
      </trkpt>
      <trkpt lat="47.24128" lon="-2.30163">
        <ele>38.200000762939</ele>
        <time>2020-10-01T07:23:24.000Z</time>
      </trkpt>
      <trkpt lat="47.24126" lon="-2.30162">
        <ele>38.799999237061</ele>
        <time>2020-10-01T07:23:25.000Z</time>
      </trkpt>
      <trkpt lat="47.24125" lon="-2.30162">
        <ele>39.200000762939</ele>
        <time>2020-10-01T07:23:26.000Z</time>
      </trkpt>
      <trkpt lat="47.24124" lon="-2.30163">
        <ele>39.599998474121</ele>
        <time>2020-10-01T07:23:27.000Z</time>
      </trkpt>
      <trkpt lat="47.24122" lon="-2.30164">
        <ele>39.599998474121</ele>
        <time>2020-10-01T07:23:31.000Z</time>
      </trkpt>
      <trkpt lat="47.24115" lon="-2.30168">
        <ele>39.599998474121</ele>
        <time>2020-10-01T07:23:39.000Z</time>
      </trkpt>
      <trkpt lat="47.24101" lon="-2.30164">
        <ele>40</ele>
        <time>2020-10-01T07:23:47.000Z</time>
      </trkpt>
      <trkpt lat="47.24099" lon="-2.30164">
        <ele>40.400001525879</ele>
        <time>2020-10-01T07:23:48.000Z</time>
      </trkpt>
      <trkpt lat="47.24097" lon="-2.30164">
        <ele>40.799999237061</ele>
        <time>2020-10-01T07:23:49.000Z</time>
      </trkpt>
      <trkpt lat="47.24095" lon="-2.30165">
        <ele>41.200000762939</ele>
        <time>2020-10-01T07:23:50.000Z</time>
      </trkpt>
      <trkpt lat="47.24093" lon="-2.30166">
        <ele>41.599998474121</ele>
        <time>2020-10-01T07:23:51.000Z</time>
      </trkpt>
      <trkpt lat="47.24092" lon="-2.30167">
        <ele>41.599998474121</ele>
        <time>2020-10-01T07:23:52.000Z</time>
      </trkpt>
      <trkpt lat="47.24071" lon="-2.30175">
        <ele>41.599998474121</ele>
        <time>2020-10-01T07:23:58.000Z</time>
      </trkpt>
      <trkpt lat="47.2405" lon="-2.30188">
        <ele>41.599998474121</ele>
        <time>2020-10-01T07:24:03.000Z</time>
      </trkpt>
      <trkpt lat="47.24037" lon="-2.30185">
        <ele>41.599998474121</ele>
        <time>2020-10-01T07:24:07.000Z</time>
      </trkpt>
      <trkpt lat="47.24024" lon="-2.30167">
        <ele>41.599998474121</ele>
        <time>2020-10-01T07:24:13.000Z</time>
      </trkpt>
      <trkpt lat="47.24019" lon="-2.30155">
        <ele>41.599998474121</ele>
        <time>2020-10-01T07:24:18.000Z</time>
      </trkpt>
      <trkpt lat="47.24019" lon="-2.30141">
        <ele>41.599998474121</ele>
        <time>2020-10-01T07:24:25.000Z</time>
      </trkpt>
      <trkpt lat="47.24019" lon="-2.3014">
        <ele>41.599998474121</ele>
        <time>2020-10-01T07:24:26.000Z</time>
      </trkpt>
      <trkpt lat="47.24013" lon="-2.30124">
        <ele>41.599998474121</ele>
        <time>2020-10-01T07:24:33.000Z</time>
      </trkpt>
      <trkpt lat="47.24008" lon="-2.30105">
        <ele>41.599998474121</ele>
        <time>2020-10-01T07:24:39.000Z</time>
      </trkpt>
      <trkpt lat="47.24013" lon="-2.30087">
        <ele>41.599998474121</ele>
        <time>2020-10-01T07:24:43.000Z</time>
      </trkpt>
      <trkpt lat="47.24014" lon="-2.30084">
        <ele>41.599998474121</ele>
        <time>2020-10-01T07:24:44.000Z</time>
      </trkpt>
      <trkpt lat="47.24023" lon="-2.30066">
        <ele>41.599998474121</ele>
        <time>2020-10-01T07:24:49.000Z</time>
      </trkpt>
      <trkpt lat="47.24026" lon="-2.30044">
        <ele>41.599998474121</ele>
        <time>2020-10-01T07:24:55.000Z</time>
      </trkpt>
      <trkpt lat="47.24018" lon="-2.30041">
        <ele>41.599998474121</ele>
        <time>2020-10-01T07:24:59.000Z</time>
      </trkpt>
      <trkpt lat="47.24017" lon="-2.3004">
        <ele>41.599998474121</ele>
        <time>2020-10-01T07:25:00.000Z</time>
      </trkpt>
      <trkpt lat="47.24011" lon="-2.30033">
        <ele>41.599998474121</ele>
        <time>2020-10-01T07:25:03.000Z</time>
      </trkpt>
      <trkpt lat="47.24008" lon="-2.30024">
        <ele>41.599998474121</ele>
        <time>2020-10-01T07:25:05.000Z</time>
      </trkpt>
      <trkpt lat="47.24007" lon="-2.30019">
        <ele>41.599998474121</ele>
        <time>2020-10-01T07:25:07.000Z</time>
      </trkpt>
      <trkpt lat="47.24006" lon="-2.29999">
        <ele>41.599998474121</ele>
        <time>2020-10-01T07:25:11.000Z</time>
      </trkpt>
      <trkpt lat="47.24006" lon="-2.29992">
        <ele>41.599998474121</ele>
        <time>2020-10-01T07:25:13.000Z</time>
      </trkpt>
      <trkpt lat="47.2401" lon="-2.29979">
        <ele>41.599998474121</ele>
        <time>2020-10-01T07:25:16.000Z</time>
      </trkpt>
      <trkpt lat="47.24005" lon="-2.29962">
        <ele>41.599998474121</ele>
        <time>2020-10-01T07:25:20.000Z</time>
      </trkpt>
      <trkpt lat="47.24004" lon="-2.29959">
        <ele>41.599998474121</ele>
        <time>2020-10-01T07:25:21.000Z</time>
      </trkpt>
      <trkpt lat="47.24" lon="-2.29936">
        <ele>41.599998474121</ele>
        <time>2020-10-01T07:25:26.000Z</time>
      </trkpt>
      <trkpt lat="47.24006" lon="-2.2991">
        <ele>41.599998474121</ele>
        <time>2020-10-01T07:25:31.000Z</time>
      </trkpt>
      <trkpt lat="47.24007" lon="-2.29905">
        <ele>42</ele>
        <time>2020-10-01T07:25:32.000Z</time>
      </trkpt>
      <trkpt lat="47.24009" lon="-2.299">
        <ele>42.400001525879</ele>
        <time>2020-10-01T07:25:33.000Z</time>
      </trkpt>
      <trkpt lat="47.2401" lon="-2.29895">
        <ele>43.200000762939</ele>
        <time>2020-10-01T07:25:34.000Z</time>
      </trkpt>
      <trkpt lat="47.24012" lon="-2.2989">
        <ele>43.599998474121</ele>
        <time>2020-10-01T07:25:35.000Z</time>
      </trkpt>
      <trkpt lat="47.24014" lon="-2.29881">
        <ele>43.599998474121</ele>
        <time>2020-10-01T07:25:37.000Z</time>
      </trkpt>
      <trkpt lat="47.24022" lon="-2.29852">
        <ele>43.599998474121</ele>
        <time>2020-10-01T07:25:43.000Z</time>
      </trkpt>
      <trkpt lat="47.24019" lon="-2.2982">
        <ele>43.599998474121</ele>
        <time>2020-10-01T07:25:48.000Z</time>
      </trkpt>
      <trkpt lat="47.24014" lon="-2.29765">
        <ele>43.599998474121</ele>
        <time>2020-10-01T07:25:56.000Z</time>
      </trkpt>
      <trkpt lat="47.2401" lon="-2.29704">
        <ele>43.599998474121</ele>
        <time>2020-10-01T07:26:04.000Z</time>
      </trkpt>
      <trkpt lat="47.24008" lon="-2.29669">
        <ele>43.599998474121</ele>
        <time>2020-10-01T07:26:09.000Z</time>
      </trkpt>
      <trkpt lat="47.24004" lon="-2.29622">
        <ele>43.599998474121</ele>
        <time>2020-10-01T07:26:15.000Z</time>
      </trkpt>
      <trkpt lat="47.24" lon="-2.29569">
        <ele>43.599998474121</ele>
        <time>2020-10-01T07:26:21.000Z</time>
      </trkpt>
      <trkpt lat="47.23998" lon="-2.29543">
        <ele>43.599998474121</ele>
        <time>2020-10-01T07:26:25.000Z</time>
      </trkpt>
      <trkpt lat="47.23994" lon="-2.29507">
        <ele>43.599998474121</ele>
        <time>2020-10-01T07:26:32.000Z</time>
      </trkpt>
      <trkpt lat="47.23991" lon="-2.2949">
        <ele>43.599998474121</ele>
        <time>2020-10-01T07:26:35.000Z</time>
      </trkpt>
      <trkpt lat="47.23988" lon="-2.29484">
        <ele>43.599998474121</ele>
        <time>2020-10-01T07:26:36.000Z</time>
      </trkpt>
      <trkpt lat="47.23972" lon="-2.29455">
        <ele>43.599998474121</ele>
        <time>2020-10-01T07:26:41.000Z</time>
      </trkpt>
      <trkpt lat="47.23952" lon="-2.29416">
        <ele>43.599998474121</ele>
        <time>2020-10-01T07:26:47.000Z</time>
      </trkpt>
      <trkpt lat="47.23931" lon="-2.29376">
        <ele>43.200000762939</ele>
        <time>2020-10-01T07:26:53.000Z</time>
      </trkpt>
      <trkpt lat="47.23928" lon="-2.2937">
        <ele>42.799999237061</ele>
        <time>2020-10-01T07:26:54.000Z</time>
      </trkpt>
      <trkpt lat="47.23925" lon="-2.29364">
        <ele>42.400001525879</ele>
        <time>2020-10-01T07:26:55.000Z</time>
      </trkpt>
      <trkpt lat="47.23922" lon="-2.29358">
        <ele>42</ele>
        <time>2020-10-01T07:26:56.000Z</time>
      </trkpt>
      <trkpt lat="47.2392" lon="-2.29353">
        <ele>41.599998474121</ele>
        <time>2020-10-01T07:26:57.000Z</time>
      </trkpt>
      <trkpt lat="47.23914" lon="-2.29342">
        <ele>41.599998474121</ele>
        <time>2020-10-01T07:26:59.000Z</time>
      </trkpt>
      <trkpt lat="47.23912" lon="-2.29337">
        <ele>41.599998474121</ele>
        <time>2020-10-01T07:27:00.000Z</time>
      </trkpt>
      <trkpt lat="47.23902" lon="-2.2933">
        <ele>41.599998474121</ele>
        <time>2020-10-01T07:27:03.000Z</time>
      </trkpt>
      <trkpt lat="47.23892" lon="-2.2933">
        <ele>41.599998474121</ele>
        <time>2020-10-01T07:27:06.000Z</time>
      </trkpt>
      <trkpt lat="47.23884" lon="-2.29331">
        <ele>41.599998474121</ele>
        <time>2020-10-01T07:27:08.000Z</time>
      </trkpt>
      <trkpt lat="47.23868" lon="-2.29341">
        <ele>41.599998474121</ele>
        <time>2020-10-01T07:27:12.000Z</time>
      </trkpt>
      <trkpt lat="47.23862" lon="-2.29352">
        <ele>41.599998474121</ele>
        <time>2020-10-01T07:27:14.000Z</time>
      </trkpt>
      <trkpt lat="47.23853" lon="-2.2937">
        <ele>41.599998474121</ele>
        <time>2020-10-01T07:27:17.000Z</time>
      </trkpt>
      <trkpt lat="47.23832" lon="-2.29415">
        <ele>41.599998474121</ele>
        <time>2020-10-01T07:27:24.000Z</time>
      </trkpt>
      <trkpt lat="47.23823" lon="-2.2944">
        <ele>41.599998474121</ele>
        <time>2020-10-01T07:27:29.000Z</time>
      </trkpt>
      <trkpt lat="47.23822" lon="-2.29444">
        <ele>41.200000762939</ele>
        <time>2020-10-01T07:27:30.000Z</time>
      </trkpt>
      <trkpt lat="47.23821" lon="-2.29449">
        <ele>40.799999237061</ele>
        <time>2020-10-01T07:27:31.000Z</time>
      </trkpt>
      <trkpt lat="47.23821" lon="-2.29456">
        <ele>40.200000762939</ele>
        <time>2020-10-01T07:27:32.000Z</time>
      </trkpt>
      <trkpt lat="47.23821" lon="-2.29462">
        <ele>39.799999237061</ele>
        <time>2020-10-01T07:27:33.000Z</time>
      </trkpt>
      <trkpt lat="47.23821" lon="-2.29469">
        <ele>39.400001525879</ele>
        <time>2020-10-01T07:27:34.000Z</time>
      </trkpt>
      <trkpt lat="47.23821" lon="-2.29491">
        <ele>39.400001525879</ele>
        <time>2020-10-01T07:27:37.000Z</time>
      </trkpt>
      <trkpt lat="47.2382" lon="-2.29513">
        <ele>39.400001525879</ele>
        <time>2020-10-01T07:27:40.000Z</time>
      </trkpt>
      <trkpt lat="47.2382" lon="-2.29519">
        <ele>39.400001525879</ele>
        <time>2020-10-01T07:27:41.000Z</time>
      </trkpt>
      <trkpt lat="47.23819" lon="-2.29547">
        <ele>39.400001525879</ele>
        <time>2020-10-01T07:27:45.000Z</time>
      </trkpt>
      <trkpt lat="47.23819" lon="-2.2956">
        <ele>39.400001525879</ele>
        <time>2020-10-01T07:27:47.000Z</time>
      </trkpt>
      <trkpt lat="47.23818" lon="-2.29589">
        <ele>39.400001525879</ele>
        <time>2020-10-01T07:27:51.000Z</time>
      </trkpt>
      <trkpt lat="47.23817" lon="-2.29603">
        <ele>39.400001525879</ele>
        <time>2020-10-01T07:27:53.000Z</time>
      </trkpt>
      <trkpt lat="47.23813" lon="-2.29628">
        <ele>39.400001525879</ele>
        <time>2020-10-01T07:27:57.000Z</time>
      </trkpt>
      <trkpt lat="47.23812" lon="-2.29675">
        <ele>39.400001525879</ele>
        <time>2020-10-01T07:28:03.000Z</time>
      </trkpt>
      <trkpt lat="47.2381" lon="-2.29717">
        <ele>39.400001525879</ele>
        <time>2020-10-01T07:28:08.000Z</time>
      </trkpt>
      <trkpt lat="47.2381" lon="-2.29733">
        <ele>39.400001525879</ele>
        <time>2020-10-01T07:28:10.000Z</time>
      </trkpt>
      <trkpt lat="47.23811" lon="-2.29764">
        <ele>39.400001525879</ele>
        <time>2020-10-01T07:28:14.000Z</time>
      </trkpt>
      <trkpt lat="47.2381" lon="-2.29787">
        <ele>39.400001525879</ele>
        <time>2020-10-01T07:28:17.000Z</time>
      </trkpt>
      <trkpt lat="47.2381" lon="-2.29841">
        <ele>39.400001525879</ele>
        <time>2020-10-01T07:28:24.000Z</time>
      </trkpt>
      <trkpt lat="47.23812" lon="-2.29857">
        <ele>39.400001525879</ele>
        <time>2020-10-01T07:28:26.000Z</time>
      </trkpt>
      <trkpt lat="47.23819" lon="-2.29895">
        <ele>39.400001525879</ele>
        <time>2020-10-01T07:28:31.000Z</time>
      </trkpt>
      <trkpt lat="47.2382" lon="-2.29903">
        <ele>39.400001525879</ele>
        <time>2020-10-01T07:28:32.000Z</time>
      </trkpt>
      <trkpt lat="47.23827" lon="-2.29937">
        <ele>39.400001525879</ele>
        <time>2020-10-01T07:28:36.000Z</time>
      </trkpt>
      <trkpt lat="47.23839" lon="-2.29995">
        <ele>39.400001525879</ele>
        <time>2020-10-01T07:28:43.000Z</time>
      </trkpt>
      <trkpt lat="47.23841" lon="-2.3001">
        <ele>39</ele>
        <time>2020-10-01T07:28:45.000Z</time>
      </trkpt>
      <trkpt lat="47.23842" lon="-2.30017">
        <ele>38.599998474121</ele>
        <time>2020-10-01T07:28:46.000Z</time>
      </trkpt>
      <trkpt lat="47.23844" lon="-2.30025">
        <ele>38.200000762939</ele>
        <time>2020-10-01T07:28:47.000Z</time>
      </trkpt>
      <trkpt lat="47.23845" lon="-2.30032">
        <ele>37.799999237061</ele>
        <time>2020-10-01T07:28:48.000Z</time>
      </trkpt>
      <trkpt lat="47.23846" lon="-2.30038">
        <ele>37.400001525879</ele>
        <time>2020-10-01T07:28:49.000Z</time>
      </trkpt>
      <trkpt lat="47.23846" lon="-2.30048">
        <ele>37</ele>
        <time>2020-10-01T07:28:51.000Z</time>
      </trkpt>
      <trkpt lat="47.23844" lon="-2.30052">
        <ele>36</ele>
        <time>2020-10-01T07:28:52.000Z</time>
      </trkpt>
      <trkpt lat="47.2384" lon="-2.30056">
        <ele>35.599998474121</ele>
        <time>2020-10-01T07:28:53.000Z</time>
      </trkpt>
      <trkpt lat="47.23836" lon="-2.30058">
        <ele>35.200000762939</ele>
        <time>2020-10-01T07:28:54.000Z</time>
      </trkpt>
      <trkpt lat="47.2383" lon="-2.30061">
        <ele>35.200000762939</ele>
        <time>2020-10-01T07:28:55.000Z</time>
      </trkpt>
      <trkpt lat="47.2382" lon="-2.30067">
        <ele>35.200000762939</ele>
        <time>2020-10-01T07:28:57.000Z</time>
      </trkpt>
      <trkpt lat="47.23803" lon="-2.30078">
        <ele>35.200000762939</ele>
        <time>2020-10-01T07:29:00.000Z</time>
      </trkpt>
      <trkpt lat="47.23784" lon="-2.30077">
        <ele>35.200000762939</ele>
        <time>2020-10-01T07:29:03.000Z</time>
      </trkpt>
      <trkpt lat="47.23778" lon="-2.30075">
        <ele>35.200000762939</ele>
        <time>2020-10-01T07:29:04.000Z</time>
      </trkpt>
      <trkpt lat="47.23762" lon="-2.30067">
        <ele>34.599998474121</ele>
        <time>2020-10-01T07:29:07.000Z</time>
      </trkpt>
      <trkpt lat="47.23758" lon="-2.30063">
        <ele>34.200000762939</ele>
        <time>2020-10-01T07:29:08.000Z</time>
      </trkpt>
      <trkpt lat="47.23753" lon="-2.3006">
        <ele>33.799999237061</ele>
        <time>2020-10-01T07:29:09.000Z</time>
      </trkpt>
      <trkpt lat="47.23748" lon="-2.30056">
        <ele>33.200000762939</ele>
        <time>2020-10-01T07:29:10.000Z</time>
      </trkpt>
      <trkpt lat="47.23744" lon="-2.30052">
        <ele>32.799999237061</ele>
        <time>2020-10-01T07:29:11.000Z</time>
      </trkpt>
      <trkpt lat="47.23739" lon="-2.30049">
        <ele>32.799999237061</ele>
        <time>2020-10-01T07:29:12.000Z</time>
      </trkpt>
      <trkpt lat="47.2373" lon="-2.30044">
        <ele>32.799999237061</ele>
        <time>2020-10-01T07:29:14.000Z</time>
      </trkpt>
      <trkpt lat="47.23721" lon="-2.3004">
        <ele>32.799999237061</ele>
        <time>2020-10-01T07:29:16.000Z</time>
      </trkpt>
      <trkpt lat="47.23713" lon="-2.30039">
        <ele>32.799999237061</ele>
        <time>2020-10-01T07:29:18.000Z</time>
      </trkpt>
      <trkpt lat="47.23709" lon="-2.3004">
        <ele>32.400001525879</ele>
        <time>2020-10-01T07:29:19.000Z</time>
      </trkpt>
      <trkpt lat="47.23706" lon="-2.30042">
        <ele>32</ele>
        <time>2020-10-01T07:29:20.000Z</time>
      </trkpt>
      <trkpt lat="47.23703" lon="-2.30044">
        <ele>31.39999961853</ele>
        <time>2020-10-01T07:29:21.000Z</time>
      </trkpt>
      <trkpt lat="47.237" lon="-2.30045">
        <ele>31</ele>
        <time>2020-10-01T07:29:22.000Z</time>
      </trkpt>
      <trkpt lat="47.23697" lon="-2.30045">
        <ele>30.60000038147</ele>
        <time>2020-10-01T07:29:23.000Z</time>
      </trkpt>
      <trkpt lat="47.23693" lon="-2.30045">
        <ele>30.60000038147</ele>
        <time>2020-10-01T07:29:24.000Z</time>
      </trkpt>
      <trkpt lat="47.23689" lon="-2.30044">
        <ele>30.60000038147</ele>
        <time>2020-10-01T07:29:25.000Z</time>
      </trkpt>
      <trkpt lat="47.23683" lon="-2.30037">
        <ele>30.60000038147</ele>
        <time>2020-10-01T07:29:27.000Z</time>
      </trkpt>
      <trkpt lat="47.23679" lon="-2.30027">
        <ele>30.60000038147</ele>
        <time>2020-10-01T07:29:29.000Z</time>
      </trkpt>
      <trkpt lat="47.2367" lon="-2.30006">
        <ele>30.60000038147</ele>
        <time>2020-10-01T07:29:33.000Z</time>
      </trkpt>
      <trkpt lat="47.23655" lon="-2.29968">
        <ele>30.60000038147</ele>
        <time>2020-10-01T07:29:40.000Z</time>
      </trkpt>
      <trkpt lat="47.23651" lon="-2.29958">
        <ele>31.39999961853</ele>
        <time>2020-10-01T07:29:42.000Z</time>
      </trkpt>
      <trkpt lat="47.2365" lon="-2.29953">
        <ele>31.799999237061</ele>
        <time>2020-10-01T07:29:43.000Z</time>
      </trkpt>
      <trkpt lat="47.23648" lon="-2.29947">
        <ele>32.200000762939</ele>
        <time>2020-10-01T07:29:44.000Z</time>
      </trkpt>
      <trkpt lat="47.23646" lon="-2.29942">
        <ele>32.599998474121</ele>
        <time>2020-10-01T07:29:45.000Z</time>
      </trkpt>
      <trkpt lat="47.23642" lon="-2.2993">
        <ele>32.599998474121</ele>
        <time>2020-10-01T07:29:47.000Z</time>
      </trkpt>
      <trkpt lat="47.23626" lon="-2.29886">
        <ele>33</ele>
        <time>2020-10-01T07:29:54.000Z</time>
      </trkpt>
      <trkpt lat="47.23624" lon="-2.29879">
        <ele>33.400001525879</ele>
        <time>2020-10-01T07:29:55.000Z</time>
      </trkpt>
      <trkpt lat="47.23621" lon="-2.29872">
        <ele>33.799999237061</ele>
        <time>2020-10-01T07:29:56.000Z</time>
      </trkpt>
      <trkpt lat="47.23618" lon="-2.29864">
        <ele>34.400001525879</ele>
        <time>2020-10-01T07:29:57.000Z</time>
      </trkpt>
      <trkpt lat="47.23616" lon="-2.29857">
        <ele>34.799999237061</ele>
        <time>2020-10-01T07:29:58.000Z</time>
      </trkpt>
      <trkpt lat="47.23604" lon="-2.29818">
        <ele>34.799999237061</ele>
        <time>2020-10-01T07:30:03.000Z</time>
      </trkpt>
      <trkpt lat="47.23595" lon="-2.29781">
        <ele>34.799999237061</ele>
        <time>2020-10-01T07:30:07.000Z</time>
      </trkpt>
      <trkpt lat="47.23594" lon="-2.29771">
        <ele>34.799999237061</ele>
        <time>2020-10-01T07:30:08.000Z</time>
      </trkpt>
      <trkpt lat="47.23593" lon="-2.2976">
        <ele>34.200000762939</ele>
        <time>2020-10-01T07:30:09.000Z</time>
      </trkpt>
      <trkpt lat="47.23592" lon="-2.2975">
        <ele>33.799999237061</ele>
        <time>2020-10-01T07:30:10.000Z</time>
      </trkpt>
      <trkpt lat="47.23592" lon="-2.2974">
        <ele>33.400001525879</ele>
        <time>2020-10-01T07:30:11.000Z</time>
      </trkpt>
      <trkpt lat="47.23591" lon="-2.29729">
        <ele>33</ele>
        <time>2020-10-01T07:30:12.000Z</time>
      </trkpt>
      <trkpt lat="47.23591" lon="-2.29718">
        <ele>32.599998474121</ele>
        <time>2020-10-01T07:30:13.000Z</time>
      </trkpt>
      <trkpt lat="47.23591" lon="-2.29707">
        <ele>32.599998474121</ele>
        <time>2020-10-01T07:30:14.000Z</time>
      </trkpt>
      <trkpt lat="47.23592" lon="-2.29683">
        <ele>32.200000762939</ele>
        <time>2020-10-01T07:30:16.000Z</time>
      </trkpt>
      <trkpt lat="47.23592" lon="-2.29671">
        <ele>31.799999237061</ele>
        <time>2020-10-01T07:30:17.000Z</time>
      </trkpt>
      <trkpt lat="47.23592" lon="-2.29659">
        <ele>31.39999961853</ele>
        <time>2020-10-01T07:30:18.000Z</time>
      </trkpt>
      <trkpt lat="47.23592" lon="-2.29648">
        <ele>31</ele>
        <time>2020-10-01T07:30:19.000Z</time>
      </trkpt>
      <trkpt lat="47.23592" lon="-2.29638">
        <ele>30.60000038147</ele>
        <time>2020-10-01T07:30:20.000Z</time>
      </trkpt>
      <trkpt lat="47.23592" lon="-2.29631">
        <ele>30.200000762939</ele>
        <time>2020-10-01T07:30:21.000Z</time>
      </trkpt>
      <trkpt lat="47.23592" lon="-2.29624">
        <ele>29.60000038147</ele>
        <time>2020-10-01T07:30:22.000Z</time>
      </trkpt>
      <trkpt lat="47.23592" lon="-2.29617">
        <ele>29.200000762939</ele>
        <time>2020-10-01T07:30:23.000Z</time>
      </trkpt>
      <trkpt lat="47.23592" lon="-2.2961">
        <ele>28.799999237061</ele>
        <time>2020-10-01T07:30:24.000Z</time>
      </trkpt>
      <trkpt lat="47.23592" lon="-2.29602">
        <ele>28.200000762939</ele>
        <time>2020-10-01T07:30:25.000Z</time>
      </trkpt>
      <trkpt lat="47.23592" lon="-2.29595">
        <ele>27.799999237061</ele>
        <time>2020-10-01T07:30:26.000Z</time>
      </trkpt>
      <trkpt lat="47.23592" lon="-2.29587">
        <ele>27.39999961853</ele>
        <time>2020-10-01T07:30:27.000Z</time>
      </trkpt>
      <trkpt lat="47.23593" lon="-2.2958">
        <ele>27</ele>
        <time>2020-10-01T07:30:28.000Z</time>
      </trkpt>
      <trkpt lat="47.23594" lon="-2.29573">
        <ele>26.60000038147</ele>
        <time>2020-10-01T07:30:29.000Z</time>
      </trkpt>
      <trkpt lat="47.23594" lon="-2.29565">
        <ele>26.200000762939</ele>
        <time>2020-10-01T07:30:30.000Z</time>
      </trkpt>
      <trkpt lat="47.23593" lon="-2.29538">
        <ele>26.200000762939</ele>
        <time>2020-10-01T07:30:33.000Z</time>
      </trkpt>
      <trkpt lat="47.23593" lon="-2.29485">
        <ele>26.200000762939</ele>
        <time>2020-10-01T07:30:39.000Z</time>
      </trkpt>
      <trkpt lat="47.23593" lon="-2.29437">
        <ele>26.200000762939</ele>
        <time>2020-10-01T07:30:45.000Z</time>
      </trkpt>
      <trkpt lat="47.23593" lon="-2.2943">
        <ele>26.200000762939</ele>
        <time>2020-10-01T07:30:46.000Z</time>
      </trkpt>
      <trkpt lat="47.23592" lon="-2.29416">
        <ele>26.200000762939</ele>
        <time>2020-10-01T07:30:48.000Z</time>
      </trkpt>
      <trkpt lat="47.23593" lon="-2.29409">
        <ele>26.200000762939</ele>
        <time>2020-10-01T07:30:49.000Z</time>
      </trkpt>
      <trkpt lat="47.23593" lon="-2.29382">
        <ele>26.200000762939</ele>
        <time>2020-10-01T07:30:52.000Z</time>
      </trkpt>
      <trkpt lat="47.2359" lon="-2.29324">
        <ele>26.200000762939</ele>
        <time>2020-10-01T07:30:58.000Z</time>
      </trkpt>
      <trkpt lat="47.23588" lon="-2.29269">
        <ele>26.200000762939</ele>
        <time>2020-10-01T07:31:03.000Z</time>
      </trkpt>
      <trkpt lat="47.23588" lon="-2.29259">
        <ele>26.200000762939</ele>
        <time>2020-10-01T07:31:04.000Z</time>
      </trkpt>
      <trkpt lat="47.2359" lon="-2.29236">
        <ele>26.200000762939</ele>
        <time>2020-10-01T07:31:07.000Z</time>
      </trkpt>
      <trkpt lat="47.23599" lon="-2.29215">
        <ele>26.200000762939</ele>
        <time>2020-10-01T07:31:11.000Z</time>
      </trkpt>
      <trkpt lat="47.2362" lon="-2.29203">
        <ele>26.200000762939</ele>
        <time>2020-10-01T07:31:16.000Z</time>
      </trkpt>
      <trkpt lat="47.2365" lon="-2.29195">
        <ele>26.200000762939</ele>
        <time>2020-10-01T07:31:22.000Z</time>
      </trkpt>
      <trkpt lat="47.23659" lon="-2.29192">
        <ele>26.799999237061</ele>
        <time>2020-10-01T07:31:24.000Z</time>
      </trkpt>
      <trkpt lat="47.23664" lon="-2.29191">
        <ele>27.200000762939</ele>
        <time>2020-10-01T07:31:25.000Z</time>
      </trkpt>
      <trkpt lat="47.23668" lon="-2.29189">
        <ele>27.60000038147</ele>
        <time>2020-10-01T07:31:26.000Z</time>
      </trkpt>
      <trkpt lat="47.23673" lon="-2.29187">
        <ele>28</ele>
        <time>2020-10-01T07:31:27.000Z</time>
      </trkpt>
      <trkpt lat="47.23678" lon="-2.29185">
        <ele>28.39999961853</ele>
        <time>2020-10-01T07:31:28.000Z</time>
      </trkpt>
      <trkpt lat="47.23693" lon="-2.29183">
        <ele>28.39999961853</ele>
        <time>2020-10-01T07:31:31.000Z</time>
      </trkpt>
      <trkpt lat="47.23697" lon="-2.29182">
        <ele>28.39999961853</ele>
        <time>2020-10-01T07:31:32.000Z</time>
      </trkpt>
      <trkpt lat="47.23714" lon="-2.29178">
        <ele>28.39999961853</ele>
        <time>2020-10-01T07:31:37.000Z</time>
      </trkpt>
      <trkpt lat="47.23727" lon="-2.29175">
        <ele>28.39999961853</ele>
        <time>2020-10-01T07:31:42.000Z</time>
      </trkpt>
      <trkpt lat="47.23738" lon="-2.29169">
        <ele>28.799999237061</ele>
        <time>2020-10-01T07:31:47.000Z</time>
      </trkpt>
      <trkpt lat="47.2374" lon="-2.29168">
        <ele>29.200000762939</ele>
        <time>2020-10-01T07:31:48.000Z</time>
      </trkpt>
      <trkpt lat="47.23742" lon="-2.29167">
        <ele>29.60000038147</ele>
        <time>2020-10-01T07:31:49.000Z</time>
      </trkpt>
      <trkpt lat="47.23744" lon="-2.29166">
        <ele>30</ele>
        <time>2020-10-01T07:31:50.000Z</time>
      </trkpt>
      <trkpt lat="47.23746" lon="-2.29165">
        <ele>30.39999961853</ele>
        <time>2020-10-01T07:31:51.000Z</time>
      </trkpt>
      <trkpt lat="47.23757" lon="-2.29161">
        <ele>30.39999961853</ele>
        <time>2020-10-01T07:31:57.000Z</time>
      </trkpt>
      <trkpt lat="47.23763" lon="-2.29158">
        <ele>30.39999961853</ele>
        <time>2020-10-01T07:32:04.000Z</time>
      </trkpt>
      <trkpt lat="47.23775" lon="-2.29154">
        <ele>30.39999961853</ele>
        <time>2020-10-01T07:32:11.000Z</time>
      </trkpt>
      <trkpt lat="47.2378" lon="-2.29153">
        <ele>30.39999961853</ele>
        <time>2020-10-01T07:32:15.000Z</time>
      </trkpt>
      <trkpt lat="47.23782" lon="-2.29155">
        <ele>30.39999961853</ele>
        <time>2020-10-01T07:32:17.000Z</time>
      </trkpt>
      <trkpt lat="47.23784" lon="-2.29164">
        <ele>30.39999961853</ele>
        <time>2020-10-01T07:32:21.000Z</time>
      </trkpt>
      <trkpt lat="47.23786" lon="-2.29164">
        <ele>30.39999961853</ele>
        <time>2020-10-01T07:32:23.000Z</time>
      </trkpt>
      <trkpt lat="47.23786" lon="-2.29162">
        <ele>30.39999961853</ele>
        <time>2020-10-01T07:32:24.000Z</time>
      </trkpt>
      <trkpt lat="47.23787" lon="-2.2915">
        <ele>30.39999961853</ele>
        <time>2020-10-01T07:32:27.000Z</time>
      </trkpt>
      <trkpt lat="47.23787" lon="-2.29117">
        <ele>30.39999961853</ele>
        <time>2020-10-01T07:32:33.000Z</time>
      </trkpt>
      <trkpt lat="47.2379" lon="-2.29107">
        <ele>30.39999961853</ele>
        <time>2020-10-01T07:32:37.000Z</time>
      </trkpt>
      <trkpt lat="47.23791" lon="-2.29106">
        <ele>30.39999961853</ele>
        <time>2020-10-01T07:32:38.000Z</time>
      </trkpt>
      <trkpt lat="47.23792" lon="-2.29101">
        <ele>30.39999961853</ele>
        <time>2020-10-01T07:33:28.000Z</time>
      </trkpt>
      <trkpt lat="47.23793" lon="-2.29097">
        <ele>30.39999961853</ele>
        <time>2020-10-01T07:33:30.000Z</time>
      </trkpt>
      <trkpt lat="47.23796" lon="-2.29082">
        <ele>30.39999961853</ele>
        <time>2020-10-01T07:33:36.000Z</time>
      </trkpt>
      <trkpt lat="47.23801" lon="-2.29054">
        <ele>30.39999961853</ele>
        <time>2020-10-01T07:33:42.000Z</time>
      </trkpt>
      <trkpt lat="47.23804" lon="-2.29">
        <ele>30.39999961853</ele>
        <time>2020-10-01T07:33:50.000Z</time>
      </trkpt>
      <trkpt lat="47.23805" lon="-2.28994">
        <ele>30</ele>
        <time>2020-10-01T07:33:51.000Z</time>
      </trkpt>
      <trkpt lat="47.23806" lon="-2.28988">
        <ele>29.60000038147</ele>
        <time>2020-10-01T07:33:52.000Z</time>
      </trkpt>
      <trkpt lat="47.23806" lon="-2.28983">
        <ele>29.200000762939</ele>
        <time>2020-10-01T07:33:53.000Z</time>
      </trkpt>
      <trkpt lat="47.23807" lon="-2.28978">
        <ele>28.799999237061</ele>
        <time>2020-10-01T07:33:54.000Z</time>
      </trkpt>
      <trkpt lat="47.23807" lon="-2.28973">
        <ele>28.39999961853</ele>
        <time>2020-10-01T07:33:55.000Z</time>
      </trkpt>
      <trkpt lat="47.23808" lon="-2.28968">
        <ele>28.39999961853</ele>
        <time>2020-10-01T07:33:56.000Z</time>
      </trkpt>
      <trkpt lat="47.23815" lon="-2.28933">
        <ele>28.39999961853</ele>
        <time>2020-10-01T07:34:03.000Z</time>
      </trkpt>
      <trkpt lat="47.23825" lon="-2.28891">
        <ele>28.39999961853</ele>
        <time>2020-10-01T07:34:10.000Z</time>
      </trkpt>
      <trkpt lat="47.23836" lon="-2.28845">
        <ele>28.39999961853</ele>
        <time>2020-10-01T07:34:17.000Z</time>
      </trkpt>
      <trkpt lat="47.23849" lon="-2.28789">
        <ele>28.39999961853</ele>
        <time>2020-10-01T07:34:26.000Z</time>
      </trkpt>
      <trkpt lat="47.2385" lon="-2.28771">
        <ele>28.39999961853</ele>
        <time>2020-10-01T07:34:29.000Z</time>
      </trkpt>
      <trkpt lat="47.23849" lon="-2.28759">
        <ele>28.39999961853</ele>
        <time>2020-10-01T07:34:31.000Z</time>
      </trkpt>
      <trkpt lat="47.23843" lon="-2.28741">
        <ele>28.39999961853</ele>
        <time>2020-10-01T07:34:34.000Z</time>
      </trkpt>
      <trkpt lat="47.23838" lon="-2.2873">
        <ele>28.39999961853</ele>
        <time>2020-10-01T07:34:36.000Z</time>
      </trkpt>
      <trkpt lat="47.23833" lon="-2.28712">
        <ele>28.39999961853</ele>
        <time>2020-10-01T07:34:39.000Z</time>
      </trkpt>
      <trkpt lat="47.23831" lon="-2.28692">
        <ele>27.799999237061</ele>
        <time>2020-10-01T07:34:42.000Z</time>
      </trkpt>
      <trkpt lat="47.2383" lon="-2.28686">
        <ele>27.39999961853</ele>
        <time>2020-10-01T07:34:43.000Z</time>
      </trkpt>
      <trkpt lat="47.2383" lon="-2.28679">
        <ele>27</ele>
        <time>2020-10-01T07:34:44.000Z</time>
      </trkpt>
      <trkpt lat="47.23829" lon="-2.28673">
        <ele>26.60000038147</ele>
        <time>2020-10-01T07:34:45.000Z</time>
      </trkpt>
      <trkpt lat="47.23828" lon="-2.28666">
        <ele>26.200000762939</ele>
        <time>2020-10-01T07:34:46.000Z</time>
      </trkpt>
      <trkpt lat="47.23827" lon="-2.28634">
        <ele>26.200000762939</ele>
        <time>2020-10-01T07:34:51.000Z</time>
      </trkpt>
      <trkpt lat="47.23826" lon="-2.28619">
        <ele>26.200000762939</ele>
        <time>2020-10-01T07:34:55.000Z</time>
      </trkpt>
      <trkpt lat="47.23826" lon="-2.28617">
        <ele>25.799999237061</ele>
        <time>2020-10-01T07:34:56.000Z</time>
      </trkpt>
      <trkpt lat="47.23826" lon="-2.28615">
        <ele>25.39999961853</ele>
        <time>2020-10-01T07:34:57.000Z</time>
      </trkpt>
      <trkpt lat="47.23826" lon="-2.28614">
        <ele>24.799999237061</ele>
        <time>2020-10-01T07:34:58.000Z</time>
      </trkpt>
      <trkpt lat="47.23825" lon="-2.28612">
        <ele>24.39999961853</ele>
        <time>2020-10-01T07:34:59.000Z</time>
      </trkpt>
      <trkpt lat="47.23825" lon="-2.2861">
        <ele>24</ele>
        <time>2020-10-01T07:35:00.000Z</time>
      </trkpt>
      <trkpt lat="47.23825" lon="-2.28608">
        <ele>24</ele>
        <time>2020-10-01T07:35:01.000Z</time>
      </trkpt>
      <trkpt lat="47.23823" lon="-2.28592">
        <ele>24</ele>
        <time>2020-10-01T07:35:05.000Z</time>
      </trkpt>
      <trkpt lat="47.23818" lon="-2.28559">
        <ele>24</ele>
        <time>2020-10-01T07:35:11.000Z</time>
      </trkpt>
      <trkpt lat="47.2382" lon="-2.2851">
        <ele>24</ele>
        <time>2020-10-01T07:35:19.000Z</time>
      </trkpt>
      <trkpt lat="47.23818" lon="-2.28477">
        <ele>24</ele>
        <time>2020-10-01T07:35:25.000Z</time>
      </trkpt>
      <trkpt lat="47.23817" lon="-2.28467">
        <ele>23.60000038147</ele>
        <time>2020-10-01T07:35:28.000Z</time>
      </trkpt>
      <trkpt lat="47.23816" lon="-2.28464">
        <ele>23.200000762939</ele>
        <time>2020-10-01T07:35:29.000Z</time>
      </trkpt>
      <trkpt lat="47.23815" lon="-2.28461">
        <ele>22.799999237061</ele>
        <time>2020-10-01T07:35:30.000Z</time>
      </trkpt>
      <trkpt lat="47.23813" lon="-2.28458">
        <ele>22.39999961853</ele>
        <time>2020-10-01T07:35:31.000Z</time>
      </trkpt>
      <trkpt lat="47.23812" lon="-2.28454">
        <ele>21.799999237061</ele>
        <time>2020-10-01T07:35:32.000Z</time>
      </trkpt>
      <trkpt lat="47.23812" lon="-2.28449">
        <ele>21.799999237061</ele>
        <time>2020-10-01T07:35:33.000Z</time>
      </trkpt>
      <trkpt lat="47.23815" lon="-2.28422">
        <ele>21.799999237061</ele>
        <time>2020-10-01T07:35:38.000Z</time>
      </trkpt>
      <trkpt lat="47.23816" lon="-2.28386">
        <ele>21.39999961853</ele>
        <time>2020-10-01T07:35:44.000Z</time>
      </trkpt>
      <trkpt lat="47.23816" lon="-2.28382">
        <ele>21</ele>
        <time>2020-10-01T07:35:45.000Z</time>
      </trkpt>
      <trkpt lat="47.23815" lon="-2.28378">
        <ele>20.60000038147</ele>
        <time>2020-10-01T07:35:46.000Z</time>
      </trkpt>
      <trkpt lat="47.23815" lon="-2.28373">
        <ele>20.200000762939</ele>
        <time>2020-10-01T07:35:47.000Z</time>
      </trkpt>
      <trkpt lat="47.23815" lon="-2.28369">
        <ele>19.799999237061</ele>
        <time>2020-10-01T07:35:48.000Z</time>
      </trkpt>
      <trkpt lat="47.23813" lon="-2.28359">
        <ele>19.799999237061</ele>
        <time>2020-10-01T07:35:50.000Z</time>
      </trkpt>
      <trkpt lat="47.23809" lon="-2.28347">
        <ele>19.799999237061</ele>
        <time>2020-10-01T07:35:52.000Z</time>
      </trkpt>
      <trkpt lat="47.23807" lon="-2.28331">
        <ele>19.799999237061</ele>
        <time>2020-10-01T07:35:54.000Z</time>
      </trkpt>
      <trkpt lat="47.23807" lon="-2.28323">
        <ele>19.39999961853</ele>
        <time>2020-10-01T07:35:55.000Z</time>
      </trkpt>
      <trkpt lat="47.23807" lon="-2.28317">
        <ele>19</ele>
        <time>2020-10-01T07:35:56.000Z</time>
      </trkpt>
      <trkpt lat="47.23807" lon="-2.28312">
        <ele>18.60000038147</ele>
        <time>2020-10-01T07:35:57.000Z</time>
      </trkpt>
      <trkpt lat="47.23806" lon="-2.28309">
        <ele>18.200000762939</ele>
        <time>2020-10-01T07:35:58.000Z</time>
      </trkpt>
      <trkpt lat="47.23806" lon="-2.28305">
        <ele>17.799999237061</ele>
        <time>2020-10-01T07:35:59.000Z</time>
      </trkpt>
      <trkpt lat="47.23801" lon="-2.28295">
        <ele>17.799999237061</ele>
        <time>2020-10-01T07:36:04.000Z</time>
      </trkpt>
      <trkpt lat="47.23801" lon="-2.28295">
        <ele>17.799999237061</ele>
        <time>2020-10-01T07:36:05.000Z</time>
      </trkpt>
      <trkpt lat="47.23806" lon="-2.28287">
        <ele>15.800000190735</ele>
        <time>2020-10-01T07:37:08.000Z</time>
      </trkpt>
      <trkpt lat="47.23809" lon="-2.28287">
        <ele>15.800000190735</ele>
        <time>2020-10-01T07:37:10.000Z</time>
      </trkpt>
      <trkpt lat="47.2382" lon="-2.28279">
        <ele>15.800000190735</ele>
        <time>2020-10-01T07:37:15.000Z</time>
      </trkpt>
      <trkpt lat="47.23823" lon="-2.28263">
        <ele>15.800000190735</ele>
        <time>2020-10-01T07:37:19.000Z</time>
      </trkpt>
      <trkpt lat="47.23823" lon="-2.28254">
        <ele>15.800000190735</ele>
        <time>2020-10-01T07:37:21.000Z</time>
      </trkpt>
      <trkpt lat="47.23823" lon="-2.28242">
        <ele>15.800000190735</ele>
        <time>2020-10-01T07:37:24.000Z</time>
      </trkpt>
      <trkpt lat="47.23817" lon="-2.28212">
        <ele>15.800000190735</ele>
        <time>2020-10-01T07:37:32.000Z</time>
      </trkpt>
      <trkpt lat="47.23819" lon="-2.2819">
        <ele>15.39999961853</ele>
        <time>2020-10-01T07:37:37.000Z</time>
      </trkpt>
      <trkpt lat="47.23819" lon="-2.28186">
        <ele>15</ele>
        <time>2020-10-01T07:37:38.000Z</time>
      </trkpt>
      <trkpt lat="47.23819" lon="-2.28182">
        <ele>14.60000038147</ele>
        <time>2020-10-01T07:37:39.000Z</time>
      </trkpt>
      <trkpt lat="47.23819" lon="-2.28177">
        <ele>14.199999809265</ele>
        <time>2020-10-01T07:37:40.000Z</time>
      </trkpt>
      <trkpt lat="47.23818" lon="-2.28172">
        <ele>13.800000190735</ele>
        <time>2020-10-01T07:37:41.000Z</time>
      </trkpt>
      <trkpt lat="47.23818" lon="-2.28157">
        <ele>13.800000190735</ele>
        <time>2020-10-01T07:37:44.000Z</time>
      </trkpt>
      <trkpt lat="47.2382" lon="-2.28135">
        <ele>13.800000190735</ele>
        <time>2020-10-01T07:37:50.000Z</time>
      </trkpt>
      <trkpt lat="47.23822" lon="-2.28121">
        <ele>13.800000190735</ele>
        <time>2020-10-01T07:37:56.000Z</time>
      </trkpt>
      <trkpt lat="47.23822" lon="-2.28119">
        <ele>13.39999961853</ele>
        <time>2020-10-01T07:37:57.000Z</time>
      </trkpt>
      <trkpt lat="47.23823" lon="-2.28117">
        <ele>13</ele>
        <time>2020-10-01T07:37:58.000Z</time>
      </trkpt>
      <trkpt lat="47.23824" lon="-2.28116">
        <ele>12.60000038147</ele>
        <time>2020-10-01T07:37:59.000Z</time>
      </trkpt>
      <trkpt lat="47.23826" lon="-2.28113">
        <ele>12.199999809265</ele>
        <time>2020-10-01T07:38:00.000Z</time>
      </trkpt>
      <trkpt lat="47.23828" lon="-2.28109">
        <ele>11.800000190735</ele>
        <time>2020-10-01T07:38:01.000Z</time>
      </trkpt>
      <trkpt lat="47.23829" lon="-2.28091">
        <ele>11.800000190735</ele>
        <time>2020-10-01T07:38:05.000Z</time>
      </trkpt>
      <trkpt lat="47.23829" lon="-2.28066">
        <ele>11.800000190735</ele>
        <time>2020-10-01T07:38:10.000Z</time>
      </trkpt>
      <trkpt lat="47.23829" lon="-2.2806">
        <ele>11.800000190735</ele>
        <time>2020-10-01T07:38:11.000Z</time>
      </trkpt>
      <trkpt lat="47.23831" lon="-2.28043">
        <ele>11.199999809265</ele>
        <time>2020-10-01T07:38:14.000Z</time>
      </trkpt>
      <trkpt lat="47.23831" lon="-2.28037">
        <ele>10.800000190735</ele>
        <time>2020-10-01T07:38:15.000Z</time>
      </trkpt>
      <trkpt lat="47.23832" lon="-2.28032">
        <ele>10.39999961853</ele>
        <time>2020-10-01T07:38:16.000Z</time>
      </trkpt>
      <trkpt lat="47.23832" lon="-2.28028">
        <ele>10</ele>
        <time>2020-10-01T07:38:17.000Z</time>
      </trkpt>
      <trkpt lat="47.23833" lon="-2.28023">
        <ele>9.6000003814697</ele>
        <time>2020-10-01T07:38:18.000Z</time>
      </trkpt>
      <trkpt lat="47.23835" lon="-2.28007">
        <ele>9</ele>
        <time>2020-10-01T07:38:21.000Z</time>
      </trkpt>
      <trkpt lat="47.23837" lon="-2.28002">
        <ele>8.6000003814697</ele>
        <time>2020-10-01T07:38:22.000Z</time>
      </trkpt>
      <trkpt lat="47.23838" lon="-2.27995">
        <ele>8.1999998092651</ele>
        <time>2020-10-01T07:38:23.000Z</time>
      </trkpt>
      <trkpt lat="47.23839" lon="-2.27989">
        <ele>7.5999999046326</ele>
        <time>2020-10-01T07:38:24.000Z</time>
      </trkpt>
      <trkpt lat="47.23839" lon="-2.27985">
        <ele>7.1999998092651</ele>
        <time>2020-10-01T07:38:25.000Z</time>
      </trkpt>
      <trkpt lat="47.23841" lon="-2.27982">
        <ele>7.1999998092651</ele>
        <time>2020-10-01T07:38:26.000Z</time>
      </trkpt>
      <trkpt lat="47.23845" lon="-2.27972">
        <ele>7.1999998092651</ele>
        <time>2020-10-01T07:38:30.000Z</time>
      </trkpt>
      <trkpt lat="47.23846" lon="-2.2797">
        <ele>7.1999998092651</ele>
        <time>2020-10-01T07:38:31.000Z</time>
      </trkpt>
      <trkpt lat="47.23847" lon="-2.27968">
        <ele>6.8000001907349</ele>
        <time>2020-10-01T07:38:32.000Z</time>
      </trkpt>
      <trkpt lat="47.23848" lon="-2.27967">
        <ele>6.4000000953674</ele>
        <time>2020-10-01T07:38:33.000Z</time>
      </trkpt>
      <trkpt lat="47.23848" lon="-2.27964">
        <ele>6</ele>
        <time>2020-10-01T07:38:34.000Z</time>
      </trkpt>
      <trkpt lat="47.23849" lon="-2.27961">
        <ele>5.5999999046326</ele>
        <time>2020-10-01T07:38:35.000Z</time>
      </trkpt>
      <trkpt lat="47.23849" lon="-2.27958">
        <ele>5.1999998092651</ele>
        <time>2020-10-01T07:38:36.000Z</time>
      </trkpt>
      <trkpt lat="47.2385" lon="-2.27955">
        <ele>5.1999998092651</ele>
        <time>2020-10-01T07:38:37.000Z</time>
      </trkpt>
      <trkpt lat="47.23848" lon="-2.27951">
        <ele>5.1999998092651</ele>
        <time>2020-10-01T07:38:40.000Z</time>
      </trkpt>
      <trkpt lat="47.23845" lon="-2.27951">
        <ele>5.1999998092651</ele>
        <time>2020-10-01T07:38:42.000Z</time>
      </trkpt>
      <trkpt lat="47.23839" lon="-2.27949">
        <ele>5.1999998092651</ele>
        <time>2020-10-01T07:38:45.000Z</time>
      </trkpt>
      <trkpt lat="47.23833" lon="-2.27935">
        <ele>5.1999998092651</ele>
        <time>2020-10-01T07:38:50.000Z</time>
      </trkpt>
      <trkpt lat="47.23833" lon="-2.27931">
        <ele>5.1999998092651</ele>
        <time>2020-10-01T07:38:51.000Z</time>
      </trkpt>
      <trkpt lat="47.23831" lon="-2.27921">
        <ele>5.1999998092651</ele>
        <time>2020-10-01T07:38:54.000Z</time>
      </trkpt>
      <trkpt lat="47.23828" lon="-2.27919">
        <ele>5.1999998092651</ele>
        <time>2020-10-01T07:38:56.000Z</time>
      </trkpt>
      <trkpt lat="47.23816" lon="-2.27918">
        <ele>5.1999998092651</ele>
        <time>2020-10-01T07:39:02.000Z</time>
      </trkpt>
      <trkpt lat="47.23808" lon="-2.27915">
        <ele>5.1999998092651</ele>
        <time>2020-10-01T07:39:07.000Z</time>
      </trkpt>
      <trkpt lat="47.23814" lon="-2.27912">
        <ele>5.1999998092651</ele>
        <time>2020-10-01T07:39:11.000Z</time>
      </trkpt>
      <trkpt lat="47.23827" lon="-2.27916">
        <ele>5.1999998092651</ele>
        <time>2020-10-01T07:39:15.000Z</time>
      </trkpt>
      <trkpt lat="47.23835" lon="-2.27924">
        <ele>5.1999998092651</ele>
        <time>2020-10-01T07:39:18.000Z</time>
      </trkpt>
      <trkpt lat="47.23836" lon="-2.27928">
        <ele>5.1999998092651</ele>
        <time>2020-10-01T07:39:19.000Z</time>
      </trkpt>
      <trkpt lat="47.2384" lon="-2.27951">
        <ele>5.1999998092651</ele>
        <time>2020-10-01T07:39:25.000Z</time>
      </trkpt>
      <trkpt lat="47.2384" lon="-2.27964">
        <ele>5.1999998092651</ele>
        <time>2020-10-01T07:39:29.000Z</time>
      </trkpt>
      <trkpt lat="47.23836" lon="-2.27971">
        <ele>5.1999998092651</ele>
        <time>2020-10-01T07:39:31.000Z</time>
      </trkpt>
      <trkpt lat="47.23831" lon="-2.27979">
        <ele>5.1999998092651</ele>
        <time>2020-10-01T07:39:33.000Z</time>
      </trkpt>
      <trkpt lat="47.23826" lon="-2.27988">
        <ele>4.8000001907349</ele>
        <time>2020-10-01T07:39:35.000Z</time>
      </trkpt>
      <trkpt lat="47.23824" lon="-2.27992">
        <ele>4.1999998092651</ele>
        <time>2020-10-01T07:39:36.000Z</time>
      </trkpt>
      <trkpt lat="47.23821" lon="-2.27996">
        <ele>3.7999999523163</ele>
        <time>2020-10-01T07:39:37.000Z</time>
      </trkpt>
      <trkpt lat="47.23818" lon="-2.27999">
        <ele>3.4000000953674</ele>
        <time>2020-10-01T07:39:38.000Z</time>
      </trkpt>
      <trkpt lat="47.23815" lon="-2.28002">
        <ele>3</ele>
        <time>2020-10-01T07:39:39.000Z</time>
      </trkpt>
      <trkpt lat="47.2381" lon="-2.28008">
        <ele>3</ele>
        <time>2020-10-01T07:39:42.000Z</time>
      </trkpt>
      <trkpt lat="47.23807" lon="-2.28012">
        <ele>3</ele>
        <time>2020-10-01T07:39:45.000Z</time>
      </trkpt>
      <trkpt lat="47.23804" lon="-2.28011">
        <ele>3</ele>
        <time>2020-10-01T07:39:47.000Z</time>
      </trkpt>
      <trkpt lat="47.23804" lon="-2.2801">
        <ele>3</ele>
        <time>2020-10-01T07:39:50.000Z</time>
      </trkpt>
      <trkpt lat="47.23806" lon="-2.28">
        <ele>3</ele>
        <time>2020-10-01T07:39:59.000Z</time>
      </trkpt>
      <trkpt lat="47.23803" lon="-2.27982">
        <ele>3</ele>
        <time>2020-10-01T07:40:04.000Z</time>
      </trkpt>
      <trkpt lat="47.23801" lon="-2.2795">
        <ele>3</ele>
        <time>2020-10-01T07:40:10.000Z</time>
      </trkpt>
      <trkpt lat="47.23803" lon="-2.27921">
        <ele>3</ele>
        <time>2020-10-01T07:40:15.000Z</time>
      </trkpt>
      <trkpt lat="47.23797" lon="-2.27872">
        <ele>3</ele>
        <time>2020-10-01T07:40:23.000Z</time>
      </trkpt>
      <trkpt lat="47.23794" lon="-2.27834">
        <ele>3</ele>
        <time>2020-10-01T07:40:30.000Z</time>
      </trkpt>
      <trkpt lat="47.23795" lon="-2.2783">
        <ele>3</ele>
        <time>2020-10-01T07:40:31.000Z</time>
      </trkpt>
      <trkpt lat="47.23799" lon="-2.27824">
        <ele>3</ele>
        <time>2020-10-01T07:40:33.000Z</time>
      </trkpt>
      <trkpt lat="47.23804" lon="-2.27816">
        <ele>3</ele>
        <time>2020-10-01T07:40:38.000Z</time>
      </trkpt>
      <trkpt lat="47.23804" lon="-2.27816">
        <ele>3</ele>
        <time>2020-10-01T07:40:39.000Z</time>
      </trkpt>
      <trkpt lat="47.2378" lon="-2.27772">
        <ele>13.199999809265</ele>
        <time>2020-10-01T07:42:23.000Z</time>
      </trkpt>
      <trkpt lat="47.2378" lon="-2.2777">
        <ele>13.199999809265</ele>
        <time>2020-10-01T07:42:24.000Z</time>
      </trkpt>
      <trkpt lat="47.23784" lon="-2.27762">
        <ele>13.199999809265</ele>
        <time>2020-10-01T07:42:29.000Z</time>
      </trkpt>
      <trkpt lat="47.23781" lon="-2.27748">
        <ele>13.199999809265</ele>
        <time>2020-10-01T07:42:34.000Z</time>
      </trkpt>
      <trkpt lat="47.23778" lon="-2.27732">
        <ele>13.199999809265</ele>
        <time>2020-10-01T07:42:39.000Z</time>
      </trkpt>
      <trkpt lat="47.2378" lon="-2.27711">
        <ele>13.199999809265</ele>
        <time>2020-10-01T07:42:45.000Z</time>
      </trkpt>
      <trkpt lat="47.23786" lon="-2.27702">
        <ele>13.60000038147</ele>
        <time>2020-10-01T07:42:49.000Z</time>
      </trkpt>
      <trkpt lat="47.23787" lon="-2.27699">
        <ele>14</ele>
        <time>2020-10-01T07:42:50.000Z</time>
      </trkpt>
      <trkpt lat="47.23789" lon="-2.27695">
        <ele>14.800000190735</ele>
        <time>2020-10-01T07:42:51.000Z</time>
      </trkpt>
      <trkpt lat="47.2379" lon="-2.27689">
        <ele>15.199999809265</ele>
        <time>2020-10-01T07:42:52.000Z</time>
      </trkpt>
      <trkpt lat="47.23791" lon="-2.27683">
        <ele>15.199999809265</ele>
        <time>2020-10-01T07:42:53.000Z</time>
      </trkpt>
      <trkpt lat="47.23794" lon="-2.27668">
        <ele>15.199999809265</ele>
        <time>2020-10-01T07:42:55.000Z</time>
      </trkpt>
      <trkpt lat="47.23801" lon="-2.27659">
        <ele>15.199999809265</ele>
        <time>2020-10-01T07:42:57.000Z</time>
      </trkpt>
      <trkpt lat="47.23813" lon="-2.27654">
        <ele>15.199999809265</ele>
        <time>2020-10-01T07:43:00.000Z</time>
      </trkpt>
      <trkpt lat="47.23816" lon="-2.27653">
        <ele>15.199999809265</ele>
        <time>2020-10-01T07:43:01.000Z</time>
      </trkpt>
      <trkpt lat="47.23833" lon="-2.27648">
        <ele>15.199999809265</ele>
        <time>2020-10-01T07:43:06.000Z</time>
      </trkpt>
      <trkpt lat="47.23847" lon="-2.27644">
        <ele>15.199999809265</ele>
        <time>2020-10-01T07:43:12.000Z</time>
      </trkpt>
      <trkpt lat="47.23863" lon="-2.27636">
        <ele>15.199999809265</ele>
        <time>2020-10-01T07:43:19.000Z</time>
      </trkpt>
      <trkpt lat="47.23871" lon="-2.27631">
        <ele>15.199999809265</ele>
        <time>2020-10-01T07:43:24.000Z</time>
      </trkpt>
      <trkpt lat="47.23886" lon="-2.27628">
        <ele>15.199999809265</ele>
        <time>2020-10-01T07:43:29.000Z</time>
      </trkpt>
      <trkpt lat="47.23905" lon="-2.27629">
        <ele>15.199999809265</ele>
        <time>2020-10-01T07:43:35.000Z</time>
      </trkpt>
      <trkpt lat="47.23916" lon="-2.27642">
        <ele>15.199999809265</ele>
        <time>2020-10-01T07:43:40.000Z</time>
      </trkpt>
      <trkpt lat="47.23931" lon="-2.27655">
        <ele>15.199999809265</ele>
        <time>2020-10-01T07:43:46.000Z</time>
      </trkpt>
      <trkpt lat="47.2395" lon="-2.27664">
        <ele>15.199999809265</ele>
        <time>2020-10-01T07:43:52.000Z</time>
      </trkpt>
      <trkpt lat="47.23971" lon="-2.27674">
        <ele>15.199999809265</ele>
        <time>2020-10-01T07:43:59.000Z</time>
      </trkpt>
      <trkpt lat="47.23983" lon="-2.27669">
        <ele>15.199999809265</ele>
        <time>2020-10-01T07:44:04.000Z</time>
      </trkpt>
      <trkpt lat="47.24002" lon="-2.27651">
        <ele>15.199999809265</ele>
        <time>2020-10-01T07:44:11.000Z</time>
      </trkpt>
      <trkpt lat="47.24026" lon="-2.27646">
        <ele>15.199999809265</ele>
        <time>2020-10-01T07:44:16.000Z</time>
      </trkpt>
      <trkpt lat="47.24031" lon="-2.27646">
        <ele>14.800000190735</ele>
        <time>2020-10-01T07:44:17.000Z</time>
      </trkpt>
      <trkpt lat="47.24034" lon="-2.27645">
        <ele>14.39999961853</ele>
        <time>2020-10-01T07:44:18.000Z</time>
      </trkpt>
      <trkpt lat="47.24038" lon="-2.27643">
        <ele>14</ele>
        <time>2020-10-01T07:44:19.000Z</time>
      </trkpt>
      <trkpt lat="47.2404" lon="-2.2764">
        <ele>13.60000038147</ele>
        <time>2020-10-01T07:44:20.000Z</time>
      </trkpt>
      <trkpt lat="47.2404" lon="-2.27637">
        <ele>13.199999809265</ele>
        <time>2020-10-01T07:44:21.000Z</time>
      </trkpt>
      <trkpt lat="47.24038" lon="-2.2763">
        <ele>13.199999809265</ele>
        <time>2020-10-01T07:44:23.000Z</time>
      </trkpt>
      <trkpt lat="47.24035" lon="-2.27626">
        <ele>13.199999809265</ele>
        <time>2020-10-01T07:44:24.000Z</time>
      </trkpt>
      <trkpt lat="47.2403" lon="-2.2761">
        <ele>13.199999809265</ele>
        <time>2020-10-01T07:44:27.000Z</time>
      </trkpt>
      <trkpt lat="47.2403" lon="-2.27604">
        <ele>13.199999809265</ele>
        <time>2020-10-01T07:44:28.000Z</time>
      </trkpt>
      <trkpt lat="47.24029" lon="-2.27591">
        <ele>13.199999809265</ele>
        <time>2020-10-01T07:44:30.000Z</time>
      </trkpt>
      <trkpt lat="47.24031" lon="-2.27572">
        <ele>13.199999809265</ele>
        <time>2020-10-01T07:44:33.000Z</time>
      </trkpt>
      <trkpt lat="47.24035" lon="-2.2754">
        <ele>13.199999809265</ele>
        <time>2020-10-01T07:44:39.000Z</time>
      </trkpt>
      <trkpt lat="47.24039" lon="-2.27503">
        <ele>13.199999809265</ele>
        <time>2020-10-01T07:44:46.000Z</time>
      </trkpt>
      <trkpt lat="47.2405" lon="-2.27456">
        <ele>13.199999809265</ele>
        <time>2020-10-01T07:44:53.000Z</time>
      </trkpt>
      <trkpt lat="47.24064" lon="-2.27429">
        <ele>13.199999809265</ele>
        <time>2020-10-01T07:44:57.000Z</time>
      </trkpt>
      <trkpt lat="47.24068" lon="-2.27422">
        <ele>13.199999809265</ele>
        <time>2020-10-01T07:44:58.000Z</time>
      </trkpt>
      <trkpt lat="47.24077" lon="-2.27407">
        <ele>12.800000190735</ele>
        <time>2020-10-01T07:45:00.000Z</time>
      </trkpt>
      <trkpt lat="47.2408" lon="-2.27399">
        <ele>12.39999961853</ele>
        <time>2020-10-01T07:45:01.000Z</time>
      </trkpt>
      <trkpt lat="47.24084" lon="-2.2739">
        <ele>11.800000190735</ele>
        <time>2020-10-01T07:45:02.000Z</time>
      </trkpt>
      <trkpt lat="47.24087" lon="-2.2738">
        <ele>11.39999961853</ele>
        <time>2020-10-01T07:45:03.000Z</time>
      </trkpt>
      <trkpt lat="47.24089" lon="-2.27368">
        <ele>11</ele>
        <time>2020-10-01T07:45:04.000Z</time>
      </trkpt>
      <trkpt lat="47.24093" lon="-2.27333">
        <ele>10.60000038147</ele>
        <time>2020-10-01T07:45:07.000Z</time>
      </trkpt>
      <trkpt lat="47.24094" lon="-2.27322">
        <ele>10.199999809265</ele>
        <time>2020-10-01T07:45:08.000Z</time>
      </trkpt>
      <trkpt lat="47.24096" lon="-2.27311">
        <ele>9.8000001907349</ele>
        <time>2020-10-01T07:45:09.000Z</time>
      </trkpt>
      <trkpt lat="47.24096" lon="-2.27301">
        <ele>9.3999996185303</ele>
        <time>2020-10-01T07:45:10.000Z</time>
      </trkpt>
      <trkpt lat="47.24096" lon="-2.27291">
        <ele>9</ele>
        <time>2020-10-01T07:45:11.000Z</time>
      </trkpt>
      <trkpt lat="47.24096" lon="-2.27281">
        <ele>9</ele>
        <time>2020-10-01T07:45:12.000Z</time>
      </trkpt>
      <trkpt lat="47.24097" lon="-2.27236">
        <ele>9</ele>
        <time>2020-10-01T07:45:17.000Z</time>
      </trkpt>
      <trkpt lat="47.24097" lon="-2.27228">
        <ele>9</ele>
        <time>2020-10-01T07:45:18.000Z</time>
      </trkpt>
      <trkpt lat="47.24097" lon="-2.2722">
        <ele>9.3999996185303</ele>
        <time>2020-10-01T07:45:19.000Z</time>
      </trkpt>
      <trkpt lat="47.24097" lon="-2.27212">
        <ele>10.199999809265</ele>
        <time>2020-10-01T07:45:20.000Z</time>
      </trkpt>
      <trkpt lat="47.24098" lon="-2.27205">
        <ele>10.800000190735</ele>
        <time>2020-10-01T07:45:21.000Z</time>
      </trkpt>
      <trkpt lat="47.24098" lon="-2.27198">
        <ele>11.199999809265</ele>
        <time>2020-10-01T07:45:22.000Z</time>
      </trkpt>
      <trkpt lat="47.241" lon="-2.27187">
        <ele>11.199999809265</ele>
        <time>2020-10-01T07:45:24.000Z</time>
      </trkpt>
      <trkpt lat="47.24099" lon="-2.27177">
        <ele>11.199999809265</ele>
        <time>2020-10-01T07:45:26.000Z</time>
      </trkpt>
      <trkpt lat="47.24099" lon="-2.27172">
        <ele>11.60000038147</ele>
        <time>2020-10-01T07:45:27.000Z</time>
      </trkpt>
      <trkpt lat="47.24099" lon="-2.27166">
        <ele>12</ele>
        <time>2020-10-01T07:45:28.000Z</time>
      </trkpt>
      <trkpt lat="47.24099" lon="-2.27161">
        <ele>12.39999961853</ele>
        <time>2020-10-01T07:45:29.000Z</time>
      </trkpt>
      <trkpt lat="47.24099" lon="-2.27155">
        <ele>12.800000190735</ele>
        <time>2020-10-01T07:45:30.000Z</time>
      </trkpt>
      <trkpt lat="47.241" lon="-2.2715">
        <ele>13.199999809265</ele>
        <time>2020-10-01T07:45:31.000Z</time>
      </trkpt>
      <trkpt lat="47.24101" lon="-2.27123">
        <ele>13.199999809265</ele>
        <time>2020-10-01T07:45:36.000Z</time>
      </trkpt>
      <trkpt lat="47.24102" lon="-2.2708">
        <ele>13.199999809265</ele>
        <time>2020-10-01T07:45:43.000Z</time>
      </trkpt>
      <trkpt lat="47.241" lon="-2.27027">
        <ele>13.199999809265</ele>
        <time>2020-10-01T07:45:49.000Z</time>
      </trkpt>
      <trkpt lat="47.241" lon="-2.26966">
        <ele>13.199999809265</ele>
        <time>2020-10-01T07:45:56.000Z</time>
      </trkpt>
      <trkpt lat="47.24099" lon="-2.26944">
        <ele>13.199999809265</ele>
        <time>2020-10-01T07:45:59.000Z</time>
      </trkpt>
      <trkpt lat="47.24098" lon="-2.26918">
        <ele>13.199999809265</ele>
        <time>2020-10-01T07:46:03.000Z</time>
      </trkpt>
      <trkpt lat="47.24098" lon="-2.26893">
        <ele>13.60000038147</ele>
        <time>2020-10-01T07:46:08.000Z</time>
      </trkpt>
      <trkpt lat="47.24098" lon="-2.26888">
        <ele>14.60000038147</ele>
        <time>2020-10-01T07:46:09.000Z</time>
      </trkpt>
      <trkpt lat="47.24099" lon="-2.26883">
        <ele>15</ele>
        <time>2020-10-01T07:46:10.000Z</time>
      </trkpt>
      <trkpt lat="47.24099" lon="-2.26878">
        <ele>15.39999961853</ele>
        <time>2020-10-01T07:46:11.000Z</time>
      </trkpt>
      <trkpt lat="47.24102" lon="-2.26852">
        <ele>15.800000190735</ele>
        <time>2020-10-01T07:46:17.000Z</time>
      </trkpt>
      <trkpt lat="47.24102" lon="-2.26848">
        <ele>16.200000762939</ele>
        <time>2020-10-01T07:46:18.000Z</time>
      </trkpt>
      <trkpt lat="47.24102" lon="-2.26844">
        <ele>16.60000038147</ele>
        <time>2020-10-01T07:46:19.000Z</time>
      </trkpt>
      <trkpt lat="47.24101" lon="-2.26841">
        <ele>17</ele>
        <time>2020-10-01T07:46:20.000Z</time>
      </trkpt>
      <trkpt lat="47.24099" lon="-2.26837">
        <ele>17.39999961853</ele>
        <time>2020-10-01T07:46:21.000Z</time>
      </trkpt>
      <trkpt lat="47.24097" lon="-2.26836">
        <ele>17.39999961853</ele>
        <time>2020-10-01T07:46:22.000Z</time>
      </trkpt>
      <trkpt lat="47.24089" lon="-2.26837">
        <ele>17.39999961853</ele>
        <time>2020-10-01T07:46:25.000Z</time>
      </trkpt>
      <trkpt lat="47.24066" lon="-2.26839">
        <ele>17.39999961853</ele>
        <time>2020-10-01T07:46:32.000Z</time>
      </trkpt>
      <trkpt lat="47.24047" lon="-2.26831">
        <ele>17.39999961853</ele>
        <time>2020-10-01T07:46:39.000Z</time>
      </trkpt>
      <trkpt lat="47.24031" lon="-2.26818">
        <ele>17.39999961853</ele>
        <time>2020-10-01T07:46:46.000Z</time>
      </trkpt>
      <trkpt lat="47.24021" lon="-2.2681">
        <ele>17.39999961853</ele>
        <time>2020-10-01T07:46:51.000Z</time>
      </trkpt>
      <trkpt lat="47.24" lon="-2.26794">
        <ele>17.39999961853</ele>
        <time>2020-10-01T07:46:58.000Z</time>
      </trkpt>
      <trkpt lat="47.23994" lon="-2.26789">
        <ele>17.39999961853</ele>
        <time>2020-10-01T07:47:01.000Z</time>
      </trkpt>
      <trkpt lat="47.23993" lon="-2.26787">
        <ele>17.39999961853</ele>
        <time>2020-10-01T07:47:02.000Z</time>
      </trkpt>
      <trkpt lat="47.23993" lon="-2.26784">
        <ele>17.39999961853</ele>
        <time>2020-10-01T07:47:05.000Z</time>
      </trkpt>
      <trkpt lat="47.23992" lon="-2.26779">
        <ele>17.39999961853</ele>
        <time>2020-10-01T07:49:35.000Z</time>
      </trkpt>
      <trkpt lat="47.23992" lon="-2.2677">
        <ele>17</ele>
        <time>2020-10-01T07:49:40.000Z</time>
      </trkpt>
      <trkpt lat="47.23992" lon="-2.26769">
        <ele>16.60000038147</ele>
        <time>2020-10-01T07:49:41.000Z</time>
      </trkpt>
      <trkpt lat="47.23992" lon="-2.26769">
        <ele>16.200000762939</ele>
        <time>2020-10-01T07:49:42.000Z</time>
      </trkpt>
      <trkpt lat="47.23988" lon="-2.26766">
        <ele>15.39999961853</ele>
        <time>2020-10-01T07:49:56.000Z</time>
      </trkpt>
      <trkpt lat="47.23983" lon="-2.26765">
        <ele>15.39999961853</ele>
        <time>2020-10-01T07:49:59.000Z</time>
      </trkpt>
      <trkpt lat="47.23982" lon="-2.26765">
        <ele>15.39999961853</ele>
        <time>2020-10-01T07:50:01.000Z</time>
      </trkpt>
      <trkpt lat="47.23976" lon="-2.26761">
        <ele>13.199999809265</ele>
        <time>2020-10-01T07:50:14.000Z</time>
      </trkpt>
      <trkpt lat="47.23975" lon="-2.2676">
        <ele>13.199999809265</ele>
        <time>2020-10-01T07:50:15.000Z</time>
      </trkpt>
      <trkpt lat="47.23966" lon="-2.26753">
        <ele>13.199999809265</ele>
        <time>2020-10-01T07:50:19.000Z</time>
      </trkpt>
      <trkpt lat="47.23953" lon="-2.26741">
        <ele>12.800000190735</ele>
        <time>2020-10-01T07:50:24.000Z</time>
      </trkpt>
      <trkpt lat="47.23949" lon="-2.2674">
        <ele>12.39999961853</ele>
        <time>2020-10-01T07:50:25.000Z</time>
      </trkpt>
      <trkpt lat="47.23946" lon="-2.26741">
        <ele>12</ele>
        <time>2020-10-01T07:50:26.000Z</time>
      </trkpt>
      <trkpt lat="47.23942" lon="-2.26743">
        <ele>11.60000038147</ele>
        <time>2020-10-01T07:50:27.000Z</time>
      </trkpt>
      <trkpt lat="47.23939" lon="-2.26745">
        <ele>11.199999809265</ele>
        <time>2020-10-01T07:50:28.000Z</time>
      </trkpt>
      <trkpt lat="47.23918" lon="-2.26752">
        <ele>10.800000190735</ele>
        <time>2020-10-01T07:50:34.000Z</time>
      </trkpt>
      <trkpt lat="47.23916" lon="-2.26753">
        <ele>10.39999961853</ele>
        <time>2020-10-01T07:50:35.000Z</time>
      </trkpt>
      <trkpt lat="47.23914" lon="-2.26755">
        <ele>9.8000001907349</ele>
        <time>2020-10-01T07:50:36.000Z</time>
      </trkpt>
      <trkpt lat="47.23912" lon="-2.26756">
        <ele>9.3999996185303</ele>
        <time>2020-10-01T07:50:37.000Z</time>
      </trkpt>
      <trkpt lat="47.2391" lon="-2.26758">
        <ele>9</ele>
        <time>2020-10-01T07:50:38.000Z</time>
      </trkpt>
      <trkpt lat="47.23906" lon="-2.26762">
        <ele>9</ele>
        <time>2020-10-01T07:50:40.000Z</time>
      </trkpt>
      <trkpt lat="47.23896" lon="-2.26773">
        <ele>9</ele>
        <time>2020-10-01T07:50:47.000Z</time>
      </trkpt>
      <trkpt lat="47.23896" lon="-2.26774">
        <ele>9</ele>
        <time>2020-10-01T07:50:49.000Z</time>
      </trkpt>
      <trkpt lat="47.23897" lon="-2.26766">
        <ele>9</ele>
        <time>2020-10-01T07:51:21.000Z</time>
      </trkpt>
      <trkpt lat="47.23898" lon="-2.26764">
        <ele>9</ele>
        <time>2020-10-01T07:51:22.000Z</time>
      </trkpt>
      <trkpt lat="47.23908" lon="-2.26757">
        <ele>9</ele>
        <time>2020-10-01T07:51:27.000Z</time>
      </trkpt>
      <trkpt lat="47.23917" lon="-2.26751">
        <ele>9</ele>
        <time>2020-10-01T07:51:32.000Z</time>
      </trkpt>
      <trkpt lat="47.23932" lon="-2.2675">
        <ele>9</ele>
        <time>2020-10-01T07:51:38.000Z</time>
      </trkpt>
      <trkpt lat="47.23942" lon="-2.26743">
        <ele>9</ele>
        <time>2020-10-01T07:51:43.000Z</time>
      </trkpt>
      <trkpt lat="47.23961" lon="-2.26736">
        <ele>9</ele>
        <time>2020-10-01T07:51:50.000Z</time>
      </trkpt>
      <trkpt lat="47.23971" lon="-2.26737">
        <ele>9.8000001907349</ele>
        <time>2020-10-01T07:51:54.000Z</time>
      </trkpt>
      <trkpt lat="47.23973" lon="-2.26737">
        <ele>10.199999809265</ele>
        <time>2020-10-01T07:51:55.000Z</time>
      </trkpt>
      <trkpt lat="47.23974" lon="-2.26737">
        <ele>10.60000038147</ele>
        <time>2020-10-01T07:51:56.000Z</time>
      </trkpt>
      <trkpt lat="47.23975" lon="-2.26737">
        <ele>11.199999809265</ele>
        <time>2020-10-01T07:51:57.000Z</time>
      </trkpt>
      <trkpt lat="47.23981" lon="-2.26736">
        <ele>11.199999809265</ele>
        <time>2020-10-01T07:52:02.000Z</time>
      </trkpt>
      <trkpt lat="47.23986" lon="-2.26737">
        <ele>11.199999809265</ele>
        <time>2020-10-01T07:52:05.000Z</time>
      </trkpt>
      <trkpt lat="47.23993" lon="-2.26737">
        <ele>11.199999809265</ele>
        <time>2020-10-01T07:52:08.000Z</time>
      </trkpt>
      <trkpt lat="47.24007" lon="-2.26739">
        <ele>11.199999809265</ele>
        <time>2020-10-01T07:52:15.000Z</time>
      </trkpt>
      <trkpt lat="47.24015" lon="-2.26737">
        <ele>11.60000038147</ele>
        <time>2020-10-01T07:52:18.000Z</time>
      </trkpt>
      <trkpt lat="47.24017" lon="-2.26737">
        <ele>12.39999961853</ele>
        <time>2020-10-01T07:52:19.000Z</time>
      </trkpt>
      <trkpt lat="47.2402" lon="-2.26736">
        <ele>12.800000190735</ele>
        <time>2020-10-01T07:52:20.000Z</time>
      </trkpt>
      <trkpt lat="47.24022" lon="-2.26736">
        <ele>13.199999809265</ele>
        <time>2020-10-01T07:52:21.000Z</time>
      </trkpt>
      <trkpt lat="47.24037" lon="-2.26728">
        <ele>13.199999809265</ele>
        <time>2020-10-01T07:52:27.000Z</time>
      </trkpt>
      <trkpt lat="47.24051" lon="-2.2672">
        <ele>13.199999809265</ele>
        <time>2020-10-01T07:52:32.000Z</time>
      </trkpt>
      <trkpt lat="47.24056" lon="-2.26714">
        <ele>13.60000038147</ele>
        <time>2020-10-01T07:52:34.000Z</time>
      </trkpt>
      <trkpt lat="47.24058" lon="-2.26712">
        <ele>14</ele>
        <time>2020-10-01T07:52:35.000Z</time>
      </trkpt>
      <trkpt lat="47.2406" lon="-2.26709">
        <ele>14.39999961853</ele>
        <time>2020-10-01T07:52:36.000Z</time>
      </trkpt>
      <trkpt lat="47.24062" lon="-2.26707">
        <ele>14.800000190735</ele>
        <time>2020-10-01T07:52:37.000Z</time>
      </trkpt>
      <trkpt lat="47.24064" lon="-2.26704">
        <ele>15.199999809265</ele>
        <time>2020-10-01T07:52:38.000Z</time>
      </trkpt>
      <trkpt lat="47.24071" lon="-2.26695">
        <ele>15.60000038147</ele>
        <time>2020-10-01T07:52:42.000Z</time>
      </trkpt>
      <trkpt lat="47.24073" lon="-2.26692">
        <ele>16</ele>
        <time>2020-10-01T07:52:43.000Z</time>
      </trkpt>
      <trkpt lat="47.24075" lon="-2.26688">
        <ele>17</ele>
        <time>2020-10-01T07:52:44.000Z</time>
      </trkpt>
      <trkpt lat="47.24078" lon="-2.26684">
        <ele>17.39999961853</ele>
        <time>2020-10-01T07:52:45.000Z</time>
      </trkpt>
      <trkpt lat="47.24084" lon="-2.26669">
        <ele>17.39999961853</ele>
        <time>2020-10-01T07:52:49.000Z</time>
      </trkpt>
      <trkpt lat="47.24096" lon="-2.26651">
        <ele>17.39999961853</ele>
        <time>2020-10-01T07:52:56.000Z</time>
      </trkpt>
      <trkpt lat="47.24097" lon="-2.26652">
        <ele>17.39999961853</ele>
        <time>2020-10-01T07:52:57.000Z</time>
      </trkpt>
      <trkpt lat="47.24103" lon="-2.26654">
        <ele>17.39999961853</ele>
        <time>2020-10-01T07:53:01.000Z</time>
      </trkpt>
      <trkpt lat="47.24108" lon="-2.2665">
        <ele>17.39999961853</ele>
        <time>2020-10-01T07:53:04.000Z</time>
      </trkpt>
      <trkpt lat="47.24109" lon="-2.26645">
        <ele>17.39999961853</ele>
        <time>2020-10-01T07:53:07.000Z</time>
      </trkpt>
      <trkpt lat="47.24111" lon="-2.26641">
        <ele>17.39999961853</ele>
        <time>2020-10-01T07:53:10.000Z</time>
      </trkpt>
      <trkpt lat="47.24113" lon="-2.26638">
        <ele>17.39999961853</ele>
        <time>2020-10-01T07:53:12.000Z</time>
      </trkpt>
      <trkpt lat="47.24118" lon="-2.26641">
        <ele>17.39999961853</ele>
        <time>2020-10-01T07:53:15.000Z</time>
      </trkpt>
      <trkpt lat="47.2412" lon="-2.26633">
        <ele>17.39999961853</ele>
        <time>2020-10-01T07:53:18.000Z</time>
      </trkpt>
      <trkpt lat="47.24125" lon="-2.26617">
        <ele>17.39999961853</ele>
        <time>2020-10-01T07:53:21.000Z</time>
      </trkpt>
      <trkpt lat="47.24127" lon="-2.26611">
        <ele>17.39999961853</ele>
        <time>2020-10-01T07:53:22.000Z</time>
      </trkpt>
      <trkpt lat="47.24129" lon="-2.26606">
        <ele>17</ele>
        <time>2020-10-01T07:53:23.000Z</time>
      </trkpt>
      <trkpt lat="47.2413" lon="-2.26601">
        <ele>16.39999961853</ele>
        <time>2020-10-01T07:53:24.000Z</time>
      </trkpt>
      <trkpt lat="47.24132" lon="-2.26597">
        <ele>16</ele>
        <time>2020-10-01T07:53:25.000Z</time>
      </trkpt>
      <trkpt lat="47.24134" lon="-2.26595">
        <ele>15.60000038147</ele>
        <time>2020-10-01T07:53:26.000Z</time>
      </trkpt>
      <trkpt lat="47.24136" lon="-2.26593">
        <ele>15.199999809265</ele>
        <time>2020-10-01T07:53:27.000Z</time>
      </trkpt>
      <trkpt lat="47.24136" lon="-2.26584">
        <ele>15.199999809265</ele>
        <time>2020-10-01T07:53:30.000Z</time>
      </trkpt>
      <trkpt lat="47.24137" lon="-2.26579">
        <ele>15.199999809265</ele>
        <time>2020-10-01T07:53:32.000Z</time>
      </trkpt>
      <trkpt lat="47.24138" lon="-2.26577">
        <ele>14.39999961853</ele>
        <time>2020-10-01T07:53:33.000Z</time>
      </trkpt>
      <trkpt lat="47.2414" lon="-2.26576">
        <ele>14</ele>
        <time>2020-10-01T07:53:34.000Z</time>
      </trkpt>
      <trkpt lat="47.24142" lon="-2.26576">
        <ele>13.60000038147</ele>
        <time>2020-10-01T07:53:35.000Z</time>
      </trkpt>
      <trkpt lat="47.24144" lon="-2.26576">
        <ele>13.199999809265</ele>
        <time>2020-10-01T07:53:36.000Z</time>
      </trkpt>
      <trkpt lat="47.24156" lon="-2.26579">
        <ele>13.199999809265</ele>
        <time>2020-10-01T07:53:41.000Z</time>
      </trkpt>
      <trkpt lat="47.24159" lon="-2.26581">
        <ele>13.60000038147</ele>
        <time>2020-10-01T07:53:45.000Z</time>
      </trkpt>
      <trkpt lat="47.2416" lon="-2.26583">
        <ele>14</ele>
        <time>2020-10-01T07:53:46.000Z</time>
      </trkpt>
      <trkpt lat="47.2416" lon="-2.26585">
        <ele>14.39999961853</ele>
        <time>2020-10-01T07:53:47.000Z</time>
      </trkpt>
      <trkpt lat="47.24161" lon="-2.26587">
        <ele>14.800000190735</ele>
        <time>2020-10-01T07:53:48.000Z</time>
      </trkpt>
      <trkpt lat="47.2416" lon="-2.2659">
        <ele>15.199999809265</ele>
        <time>2020-10-01T07:53:49.000Z</time>
      </trkpt>
      <trkpt lat="47.2416" lon="-2.26595">
        <ele>15.199999809265</ele>
        <time>2020-10-01T07:53:51.000Z</time>
      </trkpt>
      <trkpt lat="47.2416" lon="-2.26599">
        <ele>15.199999809265</ele>
        <time>2020-10-01T07:53:53.000Z</time>
      </trkpt>
      <trkpt lat="47.24159" lon="-2.26604">
        <ele>15.60000038147</ele>
        <time>2020-10-01T07:53:55.000Z</time>
      </trkpt>
      <trkpt lat="47.24158" lon="-2.26607">
        <ele>16.200000762939</ele>
        <time>2020-10-01T07:53:56.000Z</time>
      </trkpt>
      <trkpt lat="47.24158" lon="-2.26611">
        <ele>16.60000038147</ele>
        <time>2020-10-01T07:53:57.000Z</time>
      </trkpt>
      <trkpt lat="47.24158" lon="-2.26612">
        <ele>17.39999961853</ele>
        <time>2020-10-01T07:53:58.000Z</time>
      </trkpt>
      <trkpt lat="47.24163" lon="-2.26614">
        <ele>17.39999961853</ele>
        <time>2020-10-01T07:54:00.000Z</time>
      </trkpt>
      <trkpt lat="47.24176" lon="-2.26612">
        <ele>17.39999961853</ele>
        <time>2020-10-01T07:54:04.000Z</time>
      </trkpt>
      <trkpt lat="47.24182" lon="-2.26614">
        <ele>17.39999961853</ele>
        <time>2020-10-01T07:54:06.000Z</time>
      </trkpt>
      <trkpt lat="47.24193" lon="-2.26617">
        <ele>17.39999961853</ele>
        <time>2020-10-01T07:54:09.000Z</time>
      </trkpt>
      <trkpt lat="47.24203" lon="-2.26621">
        <ele>17.799999237061</ele>
        <time>2020-10-01T07:54:12.000Z</time>
      </trkpt>
      <trkpt lat="47.24206" lon="-2.26622">
        <ele>18.200000762939</ele>
        <time>2020-10-01T07:54:13.000Z</time>
      </trkpt>
      <trkpt lat="47.24209" lon="-2.26624">
        <ele>18.60000038147</ele>
        <time>2020-10-01T07:54:14.000Z</time>
      </trkpt>
      <trkpt lat="47.24212" lon="-2.26626">
        <ele>19</ele>
        <time>2020-10-01T07:54:15.000Z</time>
      </trkpt>
      <trkpt lat="47.24215" lon="-2.26627">
        <ele>19.39999961853</ele>
        <time>2020-10-01T07:54:16.000Z</time>
      </trkpt>
      <trkpt lat="47.24226" lon="-2.26621">
        <ele>19.39999961853</ele>
        <time>2020-10-01T07:54:20.000Z</time>
      </trkpt>
      <trkpt lat="47.24243" lon="-2.26603">
        <ele>19.39999961853</ele>
        <time>2020-10-01T07:54:27.000Z</time>
      </trkpt>
      <trkpt lat="47.24262" lon="-2.26583">
        <ele>19.39999961853</ele>
        <time>2020-10-01T07:54:34.000Z</time>
      </trkpt>
      <trkpt lat="47.24284" lon="-2.26568">
        <ele>19.39999961853</ele>
        <time>2020-10-01T07:54:41.000Z</time>
      </trkpt>
      <trkpt lat="47.24309" lon="-2.26546">
        <ele>19.39999961853</ele>
        <time>2020-10-01T07:54:49.000Z</time>
      </trkpt>
      <trkpt lat="47.24331" lon="-2.26524">
        <ele>19.39999961853</ele>
        <time>2020-10-01T07:54:56.000Z</time>
      </trkpt>
      <trkpt lat="47.24351" lon="-2.26508">
        <ele>19.39999961853</ele>
        <time>2020-10-01T07:55:01.000Z</time>
      </trkpt>
      <trkpt lat="47.24367" lon="-2.26495">
        <ele>19.39999961853</ele>
        <time>2020-10-01T07:55:05.000Z</time>
      </trkpt>
      <trkpt lat="47.24391" lon="-2.26479">
        <ele>19.39999961853</ele>
        <time>2020-10-01T07:55:12.000Z</time>
      </trkpt>
      <trkpt lat="47.2441" lon="-2.26473">
        <ele>19.39999961853</ele>
        <time>2020-10-01T07:55:18.000Z</time>
      </trkpt>
      <trkpt lat="47.24429" lon="-2.26461">
        <ele>19.39999961853</ele>
        <time>2020-10-01T07:55:24.000Z</time>
      </trkpt>
      <trkpt lat="47.24452" lon="-2.26446">
        <ele>19.39999961853</ele>
        <time>2020-10-01T07:55:31.000Z</time>
      </trkpt>
      <trkpt lat="47.24475" lon="-2.26432">
        <ele>19.39999961853</ele>
        <time>2020-10-01T07:55:38.000Z</time>
      </trkpt>
      <trkpt lat="47.24489" lon="-2.26425">
        <ele>19.39999961853</ele>
        <time>2020-10-01T07:55:44.000Z</time>
      </trkpt>
      <trkpt lat="47.2449" lon="-2.26425">
        <ele>19.39999961853</ele>
        <time>2020-10-01T07:55:46.000Z</time>
      </trkpt>
      <trkpt lat="47.24495" lon="-2.26424">
        <ele>19.39999961853</ele>
        <time>2020-10-01T07:55:52.000Z</time>
      </trkpt>
      <trkpt lat="47.24497" lon="-2.26423">
        <ele>19.39999961853</ele>
        <time>2020-10-01T07:55:53.000Z</time>
      </trkpt>
      <trkpt lat="47.24511" lon="-2.26417">
        <ele>19.39999961853</ele>
        <time>2020-10-01T07:55:59.000Z</time>
      </trkpt>
      <trkpt lat="47.24524" lon="-2.26406">
        <ele>19.39999961853</ele>
        <time>2020-10-01T07:56:04.000Z</time>
      </trkpt>
      <trkpt lat="47.24546" lon="-2.26397">
        <ele>19.39999961853</ele>
        <time>2020-10-01T07:56:10.000Z</time>
      </trkpt>
      <trkpt lat="47.24571" lon="-2.26386">
        <ele>19.39999961853</ele>
        <time>2020-10-01T07:56:16.000Z</time>
      </trkpt>
      <trkpt lat="47.24595" lon="-2.26378">
        <ele>19.39999961853</ele>
        <time>2020-10-01T07:56:22.000Z</time>
      </trkpt>
      <trkpt lat="47.24623" lon="-2.26379">
        <ele>19.39999961853</ele>
        <time>2020-10-01T07:56:29.000Z</time>
      </trkpt>
      <trkpt lat="47.24654" lon="-2.26388">
        <ele>19.39999961853</ele>
        <time>2020-10-01T07:56:37.000Z</time>
      </trkpt>
      <trkpt lat="47.24684" lon="-2.264">
        <ele>19.39999961853</ele>
        <time>2020-10-01T07:56:45.000Z</time>
      </trkpt>
      <trkpt lat="47.24711" lon="-2.26411">
        <ele>19.39999961853</ele>
        <time>2020-10-01T07:56:52.000Z</time>
      </trkpt>
      <trkpt lat="47.24742" lon="-2.26427">
        <ele>19.39999961853</ele>
        <time>2020-10-01T07:57:00.000Z</time>
      </trkpt>
      <trkpt lat="47.24746" lon="-2.26429">
        <ele>19.39999961853</ele>
        <time>2020-10-01T07:57:01.000Z</time>
      </trkpt>
      <trkpt lat="47.24779" lon="-2.26443">
        <ele>19.39999961853</ele>
        <time>2020-10-01T07:57:09.000Z</time>
      </trkpt>
      <trkpt lat="47.2481" lon="-2.26454">
        <ele>19.39999961853</ele>
        <time>2020-10-01T07:57:16.000Z</time>
      </trkpt>
      <trkpt lat="47.24842" lon="-2.26453">
        <ele>19.39999961853</ele>
        <time>2020-10-01T07:57:23.000Z</time>
      </trkpt>
      <trkpt lat="47.24864" lon="-2.26448">
        <ele>19.799999237061</ele>
        <time>2020-10-01T07:57:28.000Z</time>
      </trkpt>
      <trkpt lat="47.24867" lon="-2.26446">
        <ele>20.39999961853</ele>
        <time>2020-10-01T07:57:29.000Z</time>
      </trkpt>
      <trkpt lat="47.24871" lon="-2.26445">
        <ele>20.799999237061</ele>
        <time>2020-10-01T07:57:30.000Z</time>
      </trkpt>
      <trkpt lat="47.24875" lon="-2.26445">
        <ele>21.200000762939</ele>
        <time>2020-10-01T07:57:31.000Z</time>
      </trkpt>
      <trkpt lat="47.24879" lon="-2.26444">
        <ele>21.60000038147</ele>
        <time>2020-10-01T07:57:32.000Z</time>
      </trkpt>
      <trkpt lat="47.24907" lon="-2.26435">
        <ele>21.60000038147</ele>
        <time>2020-10-01T07:57:39.000Z</time>
      </trkpt>
      <trkpt lat="47.24934" lon="-2.26422">
        <ele>21.60000038147</ele>
        <time>2020-10-01T07:57:46.000Z</time>
      </trkpt>
      <trkpt lat="47.24948" lon="-2.26424">
        <ele>21.60000038147</ele>
        <time>2020-10-01T07:57:50.000Z</time>
      </trkpt>
      <trkpt lat="47.24952" lon="-2.26424">
        <ele>21.60000038147</ele>
        <time>2020-10-01T07:57:51.000Z</time>
      </trkpt>
      <trkpt lat="47.2496" lon="-2.26422">
        <ele>21.60000038147</ele>
        <time>2020-10-01T07:57:53.000Z</time>
      </trkpt>
      <trkpt lat="47.24965" lon="-2.26413">
        <ele>21.60000038147</ele>
        <time>2020-10-01T07:57:55.000Z</time>
      </trkpt>
      <trkpt lat="47.24971" lon="-2.26395">
        <ele>21.60000038147</ele>
        <time>2020-10-01T07:57:58.000Z</time>
      </trkpt>
      <trkpt lat="47.24989" lon="-2.2638">
        <ele>21.60000038147</ele>
        <time>2020-10-01T07:58:02.000Z</time>
      </trkpt>
      <trkpt lat="47.24994" lon="-2.26376">
        <ele>21.60000038147</ele>
        <time>2020-10-01T07:58:03.000Z</time>
      </trkpt>
      <trkpt lat="47.25021" lon="-2.26359">
        <ele>21.60000038147</ele>
        <time>2020-10-01T07:58:08.000Z</time>
      </trkpt>
      <trkpt lat="47.25028" lon="-2.26356">
        <ele>21.200000762939</ele>
        <time>2020-10-01T07:58:09.000Z</time>
      </trkpt>
      <trkpt lat="47.25033" lon="-2.26353">
        <ele>20.799999237061</ele>
        <time>2020-10-01T07:58:10.000Z</time>
      </trkpt>
      <trkpt lat="47.25039" lon="-2.2635">
        <ele>20.39999961853</ele>
        <time>2020-10-01T07:58:11.000Z</time>
      </trkpt>
      <trkpt lat="47.25044" lon="-2.26346">
        <ele>20</ele>
        <time>2020-10-01T07:58:12.000Z</time>
      </trkpt>
      <trkpt lat="47.25049" lon="-2.26341">
        <ele>19.60000038147</ele>
        <time>2020-10-01T07:58:13.000Z</time>
      </trkpt>
      <trkpt lat="47.25051" lon="-2.26334">
        <ele>19.60000038147</ele>
        <time>2020-10-01T07:58:14.000Z</time>
      </trkpt>
      <trkpt lat="47.25053" lon="-2.2631">
        <ele>19.60000038147</ele>
        <time>2020-10-01T07:58:17.000Z</time>
      </trkpt>
      <trkpt lat="47.25056" lon="-2.26276">
        <ele>19.60000038147</ele>
        <time>2020-10-01T07:58:21.000Z</time>
      </trkpt>
      <trkpt lat="47.25061" lon="-2.26259">
        <ele>19.60000038147</ele>
        <time>2020-10-01T07:58:23.000Z</time>
      </trkpt>
      <trkpt lat="47.25067" lon="-2.26245">
        <ele>19.60000038147</ele>
        <time>2020-10-01T07:58:25.000Z</time>
      </trkpt>
      <trkpt lat="47.25072" lon="-2.26232">
        <ele>19.60000038147</ele>
        <time>2020-10-01T07:58:27.000Z</time>
      </trkpt>
      <trkpt lat="47.25075" lon="-2.26227">
        <ele>19.60000038147</ele>
        <time>2020-10-01T07:58:28.000Z</time>
      </trkpt>
      <trkpt lat="47.25078" lon="-2.26208">
        <ele>19.60000038147</ele>
        <time>2020-10-01T07:58:31.000Z</time>
      </trkpt>
      <trkpt lat="47.25079" lon="-2.26201">
        <ele>19.60000038147</ele>
        <time>2020-10-01T07:58:32.000Z</time>
      </trkpt>
      <trkpt lat="47.25081" lon="-2.26166">
        <ele>19.60000038147</ele>
        <time>2020-10-01T07:58:37.000Z</time>
      </trkpt>
      <trkpt lat="47.2508" lon="-2.2616">
        <ele>19.200000762939</ele>
        <time>2020-10-01T07:58:38.000Z</time>
      </trkpt>
      <trkpt lat="47.25079" lon="-2.26156">
        <ele>18.799999237061</ele>
        <time>2020-10-01T07:58:39.000Z</time>
      </trkpt>
      <trkpt lat="47.25078" lon="-2.26152">
        <ele>18.200000762939</ele>
        <time>2020-10-01T07:58:40.000Z</time>
      </trkpt>
      <trkpt lat="47.25077" lon="-2.26149">
        <ele>17.799999237061</ele>
        <time>2020-10-01T07:58:41.000Z</time>
      </trkpt>
      <trkpt lat="47.25077" lon="-2.26148">
        <ele>17.39999961853</ele>
        <time>2020-10-01T07:58:42.000Z</time>
      </trkpt>
      <trkpt lat="47.25071" lon="-2.26145">
        <ele>17.39999961853</ele>
        <time>2020-10-01T07:58:46.000Z</time>
      </trkpt>
      <trkpt lat="47.25064" lon="-2.26142">
        <ele>17.39999961853</ele>
        <time>2020-10-01T07:58:49.000Z</time>
      </trkpt>
      <trkpt lat="47.25062" lon="-2.26136">
        <ele>17.39999961853</ele>
        <time>2020-10-01T07:58:50.000Z</time>
      </trkpt>
      <trkpt lat="47.25059" lon="-2.2613">
        <ele>17</ele>
        <time>2020-10-01T07:58:51.000Z</time>
      </trkpt>
      <trkpt lat="47.25057" lon="-2.26125">
        <ele>16.60000038147</ele>
        <time>2020-10-01T07:58:52.000Z</time>
      </trkpt>
      <trkpt lat="47.25056" lon="-2.26119">
        <ele>16.200000762939</ele>
        <time>2020-10-01T07:58:53.000Z</time>
      </trkpt>
      <trkpt lat="47.25056" lon="-2.26111">
        <ele>15.39999961853</ele>
        <time>2020-10-01T07:58:54.000Z</time>
      </trkpt>
      <trkpt lat="47.25056" lon="-2.26104">
        <ele>15.39999961853</ele>
        <time>2020-10-01T07:58:55.000Z</time>
      </trkpt>
      <trkpt lat="47.25055" lon="-2.26097">
        <ele>15</ele>
        <time>2020-10-01T07:58:56.000Z</time>
      </trkpt>
      <trkpt lat="47.25055" lon="-2.26089">
        <ele>14.60000038147</ele>
        <time>2020-10-01T07:58:57.000Z</time>
      </trkpt>
      <trkpt lat="47.25056" lon="-2.26081">
        <ele>14.199999809265</ele>
        <time>2020-10-01T07:58:58.000Z</time>
      </trkpt>
      <trkpt lat="47.25056" lon="-2.26073">
        <ele>13.800000190735</ele>
        <time>2020-10-01T07:58:59.000Z</time>
      </trkpt>
      <trkpt lat="47.25056" lon="-2.26066">
        <ele>13.39999961853</ele>
        <time>2020-10-01T07:59:00.000Z</time>
      </trkpt>
      <trkpt lat="47.25057" lon="-2.26061">
        <ele>13.39999961853</ele>
        <time>2020-10-01T07:59:01.000Z</time>
      </trkpt>
      <trkpt lat="47.25059" lon="-2.26055">
        <ele>12.800000190735</ele>
        <time>2020-10-01T07:59:02.000Z</time>
      </trkpt>
      <trkpt lat="47.2506" lon="-2.26048">
        <ele>12.39999961853</ele>
        <time>2020-10-01T07:59:03.000Z</time>
      </trkpt>
      <trkpt lat="47.25062" lon="-2.26042">
        <ele>12</ele>
        <time>2020-10-01T07:59:04.000Z</time>
      </trkpt>
      <trkpt lat="47.25063" lon="-2.26034">
        <ele>11.60000038147</ele>
        <time>2020-10-01T07:59:05.000Z</time>
      </trkpt>
      <trkpt lat="47.25063" lon="-2.26029">
        <ele>11.199999809265</ele>
        <time>2020-10-01T07:59:06.000Z</time>
      </trkpt>
      <trkpt lat="47.25064" lon="-2.26023">
        <ele>11.199999809265</ele>
        <time>2020-10-01T07:59:07.000Z</time>
      </trkpt>
      <trkpt lat="47.25063" lon="-2.26015">
        <ele>11.199999809265</ele>
        <time>2020-10-01T07:59:08.000Z</time>
      </trkpt>
      <trkpt lat="47.25062" lon="-2.26007">
        <ele>10.800000190735</ele>
        <time>2020-10-01T07:59:09.000Z</time>
      </trkpt>
      <trkpt lat="47.25062" lon="-2.26001">
        <ele>10.39999961853</ele>
        <time>2020-10-01T07:59:10.000Z</time>
      </trkpt>
      <trkpt lat="47.25062" lon="-2.25995">
        <ele>10</ele>
        <time>2020-10-01T07:59:11.000Z</time>
      </trkpt>
      <trkpt lat="47.25062" lon="-2.2599">
        <ele>9.6000003814697</ele>
        <time>2020-10-01T07:59:12.000Z</time>
      </trkpt>
      <trkpt lat="47.25062" lon="-2.25986">
        <ele>9.1999998092651</ele>
        <time>2020-10-01T07:59:13.000Z</time>
      </trkpt>
      <trkpt lat="47.25062" lon="-2.25979">
        <ele>8.8000001907349</ele>
        <time>2020-10-01T07:59:16.000Z</time>
      </trkpt>
      <trkpt lat="47.25062" lon="-2.25976">
        <ele>8.3999996185303</ele>
        <time>2020-10-01T07:59:17.000Z</time>
      </trkpt>
      <trkpt lat="47.25063" lon="-2.25974">
        <ele>8</ele>
        <time>2020-10-01T07:59:18.000Z</time>
      </trkpt>
      <trkpt lat="47.25063" lon="-2.25972">
        <ele>7</ele>
        <time>2020-10-01T07:59:19.000Z</time>
      </trkpt>
      <trkpt lat="47.25063" lon="-2.25967">
        <ele>7</ele>
        <time>2020-10-01T07:59:21.000Z</time>
      </trkpt>
      <trkpt lat="47.25062" lon="-2.25965">
        <ele>7</ele>
        <time>2020-10-01T07:59:22.000Z</time>
      </trkpt>
      <trkpt lat="47.25061" lon="-2.25964">
        <ele>7</ele>
        <time>2020-10-01T07:59:23.000Z</time>
      </trkpt>
      <trkpt lat="47.25052" lon="-2.25958">
        <ele>7.5999999046326</ele>
        <time>2020-10-01T07:59:28.000Z</time>
      </trkpt>
      <trkpt lat="47.25051" lon="-2.25958">
        <ele>8</ele>
        <time>2020-10-01T07:59:29.000Z</time>
      </trkpt>
      <trkpt lat="47.25049" lon="-2.25958">
        <ele>8.3999996185303</ele>
        <time>2020-10-01T07:59:30.000Z</time>
      </trkpt>
      <trkpt lat="47.25048" lon="-2.25958">
        <ele>8.8000001907349</ele>
        <time>2020-10-01T07:59:31.000Z</time>
      </trkpt>
      <trkpt lat="47.25046" lon="-2.25958">
        <ele>9.3999996185303</ele>
        <time>2020-10-01T07:59:32.000Z</time>
      </trkpt>
      <trkpt lat="47.25042" lon="-2.25958">
        <ele>9.8000001907349</ele>
        <time>2020-10-01T07:59:34.000Z</time>
      </trkpt>
      <trkpt lat="47.25041" lon="-2.25959">
        <ele>10.199999809265</ele>
        <time>2020-10-01T07:59:35.000Z</time>
      </trkpt>
      <trkpt lat="47.2504" lon="-2.25959">
        <ele>10.60000038147</ele>
        <time>2020-10-01T07:59:36.000Z</time>
      </trkpt>
      <trkpt lat="47.25039" lon="-2.2596">
        <ele>11</ele>
        <time>2020-10-01T07:59:37.000Z</time>
      </trkpt>
      <trkpt lat="47.25037" lon="-2.25959">
        <ele>11.39999961853</ele>
        <time>2020-10-01T07:59:38.000Z</time>
      </trkpt>
      <trkpt lat="47.25035" lon="-2.25959">
        <ele>11.39999961853</ele>
        <time>2020-10-01T07:59:40.000Z</time>
      </trkpt>
      <trkpt lat="47.25033" lon="-2.25958">
        <ele>11.39999961853</ele>
        <time>2020-10-01T07:59:41.000Z</time>
      </trkpt>
      <trkpt lat="47.25031" lon="-2.25956">
        <ele>11.39999961853</ele>
        <time>2020-10-01T07:59:44.000Z</time>
      </trkpt>
      <trkpt lat="47.2503" lon="-2.25951">
        <ele>11.39999961853</ele>
        <time>2020-10-01T07:59:48.000Z</time>
      </trkpt>
      <trkpt lat="47.2503" lon="-2.25947">
        <ele>11.39999961853</ele>
        <time>2020-10-01T07:59:49.000Z</time>
      </trkpt>
      <trkpt lat="47.25033" lon="-2.25921">
        <ele>11.39999961853</ele>
        <time>2020-10-01T07:59:54.000Z</time>
      </trkpt>
      <trkpt lat="47.25037" lon="-2.25899">
        <ele>11</ele>
        <time>2020-10-01T07:59:58.000Z</time>
      </trkpt>
      <trkpt lat="47.25038" lon="-2.25894">
        <ele>10.60000038147</ele>
        <time>2020-10-01T07:59:59.000Z</time>
      </trkpt>
      <trkpt lat="47.2504" lon="-2.25888">
        <ele>10.199999809265</ele>
        <time>2020-10-01T08:00:00.000Z</time>
      </trkpt>
      <trkpt lat="47.25043" lon="-2.25883">
        <ele>9.8000001907349</ele>
        <time>2020-10-01T08:00:01.000Z</time>
      </trkpt>
      <trkpt lat="47.25045" lon="-2.25879">
        <ele>9.1999998092651</ele>
        <time>2020-10-01T08:00:02.000Z</time>
      </trkpt>
      <trkpt lat="47.2505" lon="-2.25875">
        <ele>9.1999998092651</ele>
        <time>2020-10-01T08:00:04.000Z</time>
      </trkpt>
      <trkpt lat="47.25053" lon="-2.25874">
        <ele>9.1999998092651</ele>
        <time>2020-10-01T08:00:05.000Z</time>
      </trkpt>
      <trkpt lat="47.25057" lon="-2.25881">
        <ele>8.3999996185303</ele>
        <time>2020-10-01T08:00:08.000Z</time>
      </trkpt>
      <trkpt lat="47.25058" lon="-2.25885">
        <ele>8</ele>
        <time>2020-10-01T08:00:09.000Z</time>
      </trkpt>
      <trkpt lat="47.25058" lon="-2.25888">
        <ele>7.5999999046326</ele>
        <time>2020-10-01T08:00:10.000Z</time>
      </trkpt>
      <trkpt lat="47.25059" lon="-2.25891">
        <ele>7.1999998092651</ele>
        <time>2020-10-01T08:00:11.000Z</time>
      </trkpt>
      <trkpt lat="47.25058" lon="-2.25897">
        <ele>7.1999998092651</ele>
        <time>2020-10-01T08:00:13.000Z</time>
      </trkpt>
      <trkpt lat="47.25058" lon="-2.25905">
        <ele>7.1999998092651</ele>
        <time>2020-10-01T08:00:15.000Z</time>
      </trkpt>
      <trkpt lat="47.25061" lon="-2.25918">
        <ele>7.1999998092651</ele>
        <time>2020-10-01T08:00:19.000Z</time>
      </trkpt>
      <trkpt lat="47.25062" lon="-2.25918">
        <ele>7.1999998092651</ele>
        <time>2020-10-01T08:00:20.000Z</time>
      </trkpt>
      <trkpt lat="47.25064" lon="-2.25916">
        <ele>6.8000001907349</ele>
        <time>2020-10-01T08:00:21.000Z</time>
      </trkpt>
      <trkpt lat="47.25065" lon="-2.25913">
        <ele>6.4000000953674</ele>
        <time>2020-10-01T08:00:22.000Z</time>
      </trkpt>
      <trkpt lat="47.25066" lon="-2.25909">
        <ele>6</ele>
        <time>2020-10-01T08:00:23.000Z</time>
      </trkpt>
      <trkpt lat="47.25067" lon="-2.25905">
        <ele>5.5999999046326</ele>
        <time>2020-10-01T08:00:24.000Z</time>
      </trkpt>
      <trkpt lat="47.25068" lon="-2.259">
        <ele>5.1999998092651</ele>
        <time>2020-10-01T08:00:25.000Z</time>
      </trkpt>
      <trkpt lat="47.25074" lon="-2.25875">
        <ele>5.1999998092651</ele>
        <time>2020-10-01T08:00:29.000Z</time>
      </trkpt>
      <trkpt lat="47.25079" lon="-2.25845">
        <ele>4.1999998092651</ele>
        <time>2020-10-01T08:00:33.000Z</time>
      </trkpt>
      <trkpt lat="47.2508" lon="-2.25838">
        <ele>3.7999999523163</ele>
        <time>2020-10-01T08:00:34.000Z</time>
      </trkpt>
      <trkpt lat="47.25082" lon="-2.25831">
        <ele>3.4000000953674</ele>
        <time>2020-10-01T08:00:35.000Z</time>
      </trkpt>
      <trkpt lat="47.25084" lon="-2.25825">
        <ele>3</ele>
        <time>2020-10-01T08:00:36.000Z</time>
      </trkpt>
      <trkpt lat="47.25087" lon="-2.25811">
        <ele>3</ele>
        <time>2020-10-01T08:00:39.000Z</time>
      </trkpt>
      <trkpt lat="47.25087" lon="-2.25806">
        <ele>2.5999999046326</ele>
        <time>2020-10-01T08:00:40.000Z</time>
      </trkpt>
      <trkpt lat="47.25087" lon="-2.258">
        <ele>2.2000000476837</ele>
        <time>2020-10-01T08:00:41.000Z</time>
      </trkpt>
      <trkpt lat="47.25087" lon="-2.25794">
        <ele>1.7999999523163</ele>
        <time>2020-10-01T08:00:42.000Z</time>
      </trkpt>
      <trkpt lat="47.25086" lon="-2.25789">
        <ele>1.3999999761581</ele>
        <time>2020-10-01T08:00:43.000Z</time>
      </trkpt>
      <trkpt lat="47.25086" lon="-2.25783">
        <ele>1</ele>
        <time>2020-10-01T08:00:44.000Z</time>
      </trkpt>
      <trkpt lat="47.25085" lon="-2.25752">
        <ele>1</ele>
        <time>2020-10-01T08:00:48.000Z</time>
      </trkpt>
      <trkpt lat="47.25085" lon="-2.25744">
        <ele>0.60000002384186</ele>
        <time>2020-10-01T08:00:49.000Z</time>
      </trkpt>
      <trkpt lat="47.25085" lon="-2.25734">
        <ele>0.20000000298023</ele>
        <time>2020-10-01T08:00:50.000Z</time>
      </trkpt>
      <trkpt lat="47.25085" lon="-2.25727">
        <ele>-0.20000000298023</ele>
        <time>2020-10-01T08:00:51.000Z</time>
      </trkpt>
      <trkpt lat="47.25086" lon="-2.25719">
        <ele>-0.60000002384186</ele>
        <time>2020-10-01T08:00:52.000Z</time>
      </trkpt>
      <trkpt lat="47.25087" lon="-2.25712">
        <ele>-1</ele>
        <time>2020-10-01T08:00:53.000Z</time>
      </trkpt>
      <trkpt lat="47.25087" lon="-2.25705">
        <ele>-1</ele>
        <time>2020-10-01T08:00:54.000Z</time>
      </trkpt>
      <trkpt lat="47.25088" lon="-2.25695">
        <ele>-1.6000000238419</ele>
        <time>2020-10-01T08:00:56.000Z</time>
      </trkpt>
      <trkpt lat="47.25089" lon="-2.25691">
        <ele>-2</ele>
        <time>2020-10-01T08:00:57.000Z</time>
      </trkpt>
      <trkpt lat="47.25089" lon="-2.25688">
        <ele>-2.7999999523163</ele>
        <time>2020-10-01T08:00:58.000Z</time>
      </trkpt>
      <trkpt lat="47.2509" lon="-2.25684">
        <ele>-3.4000000953674</ele>
        <time>2020-10-01T08:00:59.000Z</time>
      </trkpt>
      <trkpt lat="47.2509" lon="-2.25681">
        <ele>-3.4000000953674</ele>
        <time>2020-10-01T08:01:00.000Z</time>
      </trkpt>
      <trkpt lat="47.2509" lon="-2.25674">
        <ele>-3.4000000953674</ele>
        <time>2020-10-01T08:01:03.000Z</time>
      </trkpt>
      <trkpt lat="47.2509" lon="-2.25669">
        <ele>-3.7999999523163</ele>
        <time>2020-10-01T08:01:05.000Z</time>
      </trkpt>
      <trkpt lat="47.2509" lon="-2.25666">
        <ele>-4.1999998092651</ele>
        <time>2020-10-01T08:01:06.000Z</time>
      </trkpt>
      <trkpt lat="47.2509" lon="-2.25664">
        <ele>-4.5999999046326</ele>
        <time>2020-10-01T08:01:07.000Z</time>
      </trkpt>
      <trkpt lat="47.25091" lon="-2.25662">
        <ele>-5</ele>
        <time>2020-10-01T08:01:08.000Z</time>
      </trkpt>
      <trkpt lat="47.25091" lon="-2.2566">
        <ele>-5.4000000953674</ele>
        <time>2020-10-01T08:01:09.000Z</time>
      </trkpt>
      <trkpt lat="47.25091" lon="-2.25657">
        <ele>-5.4000000953674</ele>
        <time>2020-10-01T08:01:11.000Z</time>
      </trkpt>
      <trkpt lat="47.25094" lon="-2.25647">
        <ele>-5.4000000953674</ele>
        <time>2020-10-01T08:01:18.000Z</time>
      </trkpt>
      <trkpt lat="47.25093" lon="-2.2564">
        <ele>-5.4000000953674</ele>
        <time>2020-10-01T08:01:23.000Z</time>
      </trkpt>
      <trkpt lat="47.25092" lon="-2.25631">
        <ele>-7.5999999046326</ele>
        <time>2020-10-01T08:01:31.000Z</time>
      </trkpt>
      <trkpt lat="47.25086" lon="-2.25615">
        <ele>-7.5999999046326</ele>
        <time>2020-10-01T08:01:35.000Z</time>
      </trkpt>
      <trkpt lat="47.25085" lon="-2.2561">
        <ele>-7.5999999046326</ele>
        <time>2020-10-01T08:01:37.000Z</time>
      </trkpt>
      <trkpt lat="47.25085" lon="-2.25607">
        <ele>-7.5999999046326</ele>
        <time>2020-10-01T08:04:01.000Z</time>
      </trkpt>
      <trkpt lat="47.25088" lon="-2.25617">
        <ele>-7.5999999046326</ele>
        <time>2020-10-01T08:04:04.000Z</time>
      </trkpt>
      <trkpt lat="47.25096" lon="-2.25611">
        <ele>-7.5999999046326</ele>
        <time>2020-10-01T08:04:07.000Z</time>
      </trkpt>
      <trkpt lat="47.25099" lon="-2.25607">
        <ele>-7.5999999046326</ele>
        <time>2020-10-01T08:04:08.000Z</time>
      </trkpt>
      <trkpt lat="47.25106" lon="-2.25599">
        <ele>-7.5999999046326</ele>
        <time>2020-10-01T08:04:11.000Z</time>
      </trkpt>
      <trkpt lat="47.25107" lon="-2.25598">
        <ele>-7.5999999046326</ele>
        <time>2020-10-01T08:04:13.000Z</time>
      </trkpt>
      <trkpt lat="47.25123" lon="-2.25596">
        <ele>-5.4000000953674</ele>
        <time>2020-10-01T08:05:17.000Z</time>
      </trkpt>
      <trkpt lat="47.25124" lon="-2.25592">
        <ele>-5.4000000953674</ele>
        <time>2020-10-01T08:05:18.000Z</time>
      </trkpt>
      <trkpt lat="47.25132" lon="-2.25581">
        <ele>-5.4000000953674</ele>
        <time>2020-10-01T08:05:23.000Z</time>
      </trkpt>
      <trkpt lat="47.25135" lon="-2.25579">
        <ele>-5</ele>
        <time>2020-10-01T08:05:25.000Z</time>
      </trkpt>
      <trkpt lat="47.25136" lon="-2.25579">
        <ele>-4.5999999046326</ele>
        <time>2020-10-01T08:05:26.000Z</time>
      </trkpt>
      <trkpt lat="47.25137" lon="-2.25578">
        <ele>-4.1999998092651</ele>
        <time>2020-10-01T08:05:27.000Z</time>
      </trkpt>
      <trkpt lat="47.25139" lon="-2.25577">
        <ele>-3.4000000953674</ele>
        <time>2020-10-01T08:05:28.000Z</time>
      </trkpt>
      <trkpt lat="47.2514" lon="-2.25576">
        <ele>-3.4000000953674</ele>
        <time>2020-10-01T08:05:29.000Z</time>
      </trkpt>
      <trkpt lat="47.25147" lon="-2.25565">
        <ele>-3.4000000953674</ele>
        <time>2020-10-01T08:05:34.000Z</time>
      </trkpt>
      <trkpt lat="47.25152" lon="-2.25541">
        <ele>-3.4000000953674</ele>
        <time>2020-10-01T08:05:39.000Z</time>
      </trkpt>
      <trkpt lat="47.25161" lon="-2.25521">
        <ele>-3.4000000953674</ele>
        <time>2020-10-01T08:05:44.000Z</time>
      </trkpt>
      <trkpt lat="47.25173" lon="-2.25511">
        <ele>-3.4000000953674</ele>
        <time>2020-10-01T08:05:48.000Z</time>
      </trkpt>
      <trkpt lat="47.25177" lon="-2.25512">
        <ele>-3</ele>
        <time>2020-10-01T08:05:49.000Z</time>
      </trkpt>
      <trkpt lat="47.2518" lon="-2.25513">
        <ele>-2.5999999046326</ele>
        <time>2020-10-01T08:05:50.000Z</time>
      </trkpt>
      <trkpt lat="47.25183" lon="-2.25514">
        <ele>-2.2000000476837</ele>
        <time>2020-10-01T08:05:51.000Z</time>
      </trkpt>
      <trkpt lat="47.25186" lon="-2.25515">
        <ele>-1.7999999523163</ele>
        <time>2020-10-01T08:05:52.000Z</time>
      </trkpt>
      <trkpt lat="47.25188" lon="-2.25516">
        <ele>-1.3999999761581</ele>
        <time>2020-10-01T08:05:53.000Z</time>
      </trkpt>
      <trkpt lat="47.25196" lon="-2.25519">
        <ele>-0.80000001192093</ele>
        <time>2020-10-01T08:05:56.000Z</time>
      </trkpt>
      <trkpt lat="47.25198" lon="-2.25519">
        <ele>-0.40000000596046</ele>
        <time>2020-10-01T08:05:57.000Z</time>
      </trkpt>
      <trkpt lat="47.252" lon="-2.25518">
        <ele>13.4</ele>
        <time>2020-10-01T08:05:58.000Z</time>
      </trkpt>
      <trkpt lat="47.25202" lon="-2.25516">
        <ele>0.40000000596046</ele>
        <time>2020-10-01T08:05:59.000Z</time>
      </trkpt>
      <trkpt lat="47.25203" lon="-2.25514">
        <ele>0.80000001192093</ele>
        <time>2020-10-01T08:06:00.000Z</time>
      </trkpt>
      <trkpt lat="47.25205" lon="-2.25511">
        <ele>0.80000001192093</ele>
        <time>2020-10-01T08:06:01.000Z</time>
      </trkpt>
      <trkpt lat="47.25208" lon="-2.25504">
        <ele>0.80000001192093</ele>
        <time>2020-10-01T08:06:03.000Z</time>
      </trkpt>
      <trkpt lat="47.2522" lon="-2.25482">
        <ele>0.80000001192093</ele>
        <time>2020-10-01T08:06:09.000Z</time>
      </trkpt>
      <trkpt lat="47.25235" lon="-2.25463">
        <ele>0.80000001192093</ele>
        <time>2020-10-01T08:06:15.000Z</time>
      </trkpt>
      <trkpt lat="47.25244" lon="-2.25439">
        <ele>0.80000001192093</ele>
        <time>2020-10-01T08:06:20.000Z</time>
      </trkpt>
      <trkpt lat="47.25246" lon="-2.25421">
        <ele>0.80000001192093</ele>
        <time>2020-10-01T08:06:24.000Z</time>
      </trkpt>
      <trkpt lat="47.25249" lon="-2.25418">
        <ele>0.80000001192093</ele>
        <time>2020-10-01T08:06:25.000Z</time>
      </trkpt>
      <trkpt lat="47.25253" lon="-2.2541">
        <ele>0.40000000596046</ele>
        <time>2020-10-01T08:06:27.000Z</time>
      </trkpt>
      <trkpt lat="47.25255" lon="-2.25407">
        <ele>9.5</ele>
        <time>2020-10-01T08:06:28.000Z</time>
      </trkpt>
      <trkpt lat="47.25257" lon="-2.25407">
        <ele>-0.40000000596046</ele>
        <time>2020-10-01T08:06:29.000Z</time>
      </trkpt>
      <trkpt lat="47.25259" lon="-2.25408">
        <ele>-0.80000001192093</ele>
        <time>2020-10-01T08:06:30.000Z</time>
      </trkpt>
      <trkpt lat="47.25261" lon="-2.2541">
        <ele>-1.2000000476837</ele>
        <time>2020-10-01T08:06:31.000Z</time>
      </trkpt>
      <trkpt lat="47.25269" lon="-2.25407">
        <ele>-1.2000000476837</ele>
        <time>2020-10-01T08:06:35.000Z</time>
      </trkpt>
      <trkpt lat="47.25272" lon="-2.25395">
        <ele>-1.2000000476837</ele>
        <time>2020-10-01T08:06:38.000Z</time>
      </trkpt>
      <trkpt lat="47.2527" lon="-2.25379">
        <ele>-2</ele>
        <time>2020-10-01T08:06:42.000Z</time>
      </trkpt>
      <trkpt lat="47.25272" lon="-2.25375">
        <ele>-2.4000000953674</ele>
        <time>2020-10-01T08:06:43.000Z</time>
      </trkpt>
      <trkpt lat="47.25274" lon="-2.25374">
        <ele>-3</ele>
        <time>2020-10-01T08:06:44.000Z</time>
      </trkpt>
      <trkpt lat="47.25276" lon="-2.25374">
        <ele>-3.4000000953674</ele>
        <time>2020-10-01T08:06:45.000Z</time>
      </trkpt>
      <trkpt lat="47.25282" lon="-2.25385">
        <ele>-3.4000000953674</ele>
        <time>2020-10-01T08:06:49.000Z</time>
      </trkpt>
      <trkpt lat="47.25285" lon="-2.25391">
        <ele>-3.4000000953674</ele>
        <time>2020-10-01T08:06:51.000Z</time>
      </trkpt>
      <trkpt lat="47.25295" lon="-2.25399">
        <ele>-3.4000000953674</ele>
        <time>2020-10-01T08:06:55.000Z</time>
      </trkpt>
      <trkpt lat="47.25299" lon="-2.25403">
        <ele>-3.4000000953674</ele>
        <time>2020-10-01T08:06:57.000Z</time>
      </trkpt>
      <trkpt lat="47.25303" lon="-2.25407">
        <ele>-3.4000000953674</ele>
        <time>2020-10-01T08:06:59.000Z</time>
      </trkpt>
      <trkpt lat="47.25314" lon="-2.25418">
        <ele>-3.4000000953674</ele>
        <time>2020-10-01T08:07:03.000Z</time>
      </trkpt>
      <trkpt lat="47.25322" lon="-2.25427">
        <ele>-3.4000000953674</ele>
        <time>2020-10-01T08:07:07.000Z</time>
      </trkpt>
      <trkpt lat="47.25323" lon="-2.2543">
        <ele>-3.4000000953674</ele>
        <time>2020-10-01T08:07:08.000Z</time>
      </trkpt>
      <trkpt lat="47.25328" lon="-2.25453">
        <ele>-3</ele>
        <time>2020-10-01T08:07:15.000Z</time>
      </trkpt>
      <trkpt lat="47.25329" lon="-2.25458">
        <ele>-2.5999999046326</ele>
        <time>2020-10-01T08:07:16.000Z</time>
      </trkpt>
      <trkpt lat="47.25329" lon="-2.25463">
        <ele>-2</ele>
        <time>2020-10-01T08:07:17.000Z</time>
      </trkpt>
      <trkpt lat="47.25328" lon="-2.25467">
        <ele>-1.6000000238419</ele>
        <time>2020-10-01T08:07:18.000Z</time>
      </trkpt>
      <trkpt lat="47.25328" lon="-2.25471">
        <ele>-1.2000000476837</ele>
        <time>2020-10-01T08:07:19.000Z</time>
      </trkpt>
      <trkpt lat="47.25328" lon="-2.25478">
        <ele>-1.2000000476837</ele>
        <time>2020-10-01T08:07:21.000Z</time>
      </trkpt>
      <trkpt lat="47.25329" lon="-2.25489">
        <ele>-0.80000001192093</ele>
        <time>2020-10-01T08:07:24.000Z</time>
      </trkpt>
      <trkpt lat="47.2533" lon="-2.25492">
        <ele>-0.40000000596046</ele>
        <time>2020-10-01T08:07:25.000Z</time>
      </trkpt>
      <trkpt lat="47.2533" lon="-2.25494">
        <ele>13.2</ele>
        <time>2020-10-01T08:07:26.000Z</time>
      </trkpt>
      <trkpt lat="47.25331" lon="-2.25497">
        <ele>0.60000002384186</ele>
        <time>2020-10-01T08:07:27.000Z</time>
      </trkpt>
      <trkpt lat="47.25331" lon="-2.25501">
        <ele>1</ele>
        <time>2020-10-01T08:07:28.000Z</time>
      </trkpt>
      <trkpt lat="47.2533" lon="-2.25505">
        <ele>1</ele>
        <time>2020-10-01T08:07:29.000Z</time>
      </trkpt>
      <trkpt lat="47.2533" lon="-2.25518">
        <ele>1</ele>
        <time>2020-10-01T08:07:33.000Z</time>
      </trkpt>
      <trkpt lat="47.25331" lon="-2.25521">
        <ele>1</ele>
        <time>2020-10-01T08:07:34.000Z</time>
      </trkpt>
      <trkpt lat="47.25331" lon="-2.25528">
        <ele>1.3999999761581</ele>
        <time>2020-10-01T08:07:36.000Z</time>
      </trkpt>
      <trkpt lat="47.25331" lon="-2.25532">
        <ele>1.7999999523163</ele>
        <time>2020-10-01T08:07:37.000Z</time>
      </trkpt>
      <trkpt lat="47.25331" lon="-2.25535">
        <ele>2.2000000476837</ele>
        <time>2020-10-01T08:07:38.000Z</time>
      </trkpt>
      <trkpt lat="47.25332" lon="-2.25539">
        <ele>2.5999999046326</ele>
        <time>2020-10-01T08:07:39.000Z</time>
      </trkpt>
      <trkpt lat="47.25332" lon="-2.25543">
        <ele>3</ele>
        <time>2020-10-01T08:07:40.000Z</time>
      </trkpt>
      <trkpt lat="47.25332" lon="-2.25567">
        <ele>3</ele>
        <time>2020-10-01T08:07:45.000Z</time>
      </trkpt>
      <trkpt lat="47.25334" lon="-2.25589">
        <ele>3.4000000953674</ele>
        <time>2020-10-01T08:07:50.000Z</time>
      </trkpt>
      <trkpt lat="47.25334" lon="-2.25592">
        <ele>3.7999999523163</ele>
        <time>2020-10-01T08:07:51.000Z</time>
      </trkpt>
      <trkpt lat="47.25334" lon="-2.25596">
        <ele>4.1999998092651</ele>
        <time>2020-10-01T08:07:52.000Z</time>
      </trkpt>
      <trkpt lat="47.25335" lon="-2.25599">
        <ele>4.8000001907349</ele>
        <time>2020-10-01T08:07:53.000Z</time>
      </trkpt>
      <trkpt lat="47.25336" lon="-2.25603">
        <ele>5.1999998092651</ele>
        <time>2020-10-01T08:07:54.000Z</time>
      </trkpt>
      <trkpt lat="47.25338" lon="-2.25617">
        <ele>5.1999998092651</ele>
        <time>2020-10-01T08:07:58.000Z</time>
      </trkpt>
      <trkpt lat="47.25346" lon="-2.25654">
        <ele>5.1999998092651</ele>
        <time>2020-10-01T08:08:05.000Z</time>
      </trkpt>
      <trkpt lat="47.25351" lon="-2.25689">
        <ele>5.1999998092651</ele>
        <time>2020-10-01T08:08:12.000Z</time>
      </trkpt>
      <trkpt lat="47.25352" lon="-2.25718">
        <ele>5.1999998092651</ele>
        <time>2020-10-01T08:08:19.000Z</time>
      </trkpt>
      <trkpt lat="47.25353" lon="-2.2575">
        <ele>5.1999998092651</ele>
        <time>2020-10-01T08:08:26.000Z</time>
      </trkpt>
      <trkpt lat="47.25355" lon="-2.25772">
        <ele>5.1999998092651</ele>
        <time>2020-10-01T08:08:33.000Z</time>
      </trkpt>
      <trkpt lat="47.25355" lon="-2.25775">
        <ele>4.5999999046326</ele>
        <time>2020-10-01T08:08:34.000Z</time>
      </trkpt>
      <trkpt lat="47.25355" lon="-2.2578">
        <ele>4.1999998092651</ele>
        <time>2020-10-01T08:08:35.000Z</time>
      </trkpt>
      <trkpt lat="47.25355" lon="-2.25784">
        <ele>3.5999999046326</ele>
        <time>2020-10-01T08:08:36.000Z</time>
      </trkpt>
      <trkpt lat="47.25355" lon="-2.25788">
        <ele>3.2000000476837</ele>
        <time>2020-10-01T08:08:37.000Z</time>
      </trkpt>
      <trkpt lat="47.25355" lon="-2.25793">
        <ele>2.5999999046326</ele>
        <time>2020-10-01T08:08:38.000Z</time>
      </trkpt>
      <trkpt lat="47.25356" lon="-2.25796">
        <ele>2.2000000476837</ele>
        <time>2020-10-01T08:08:39.000Z</time>
      </trkpt>
      <trkpt lat="47.25357" lon="-2.25797">
        <ele>1.6000000238419</ele>
        <time>2020-10-01T08:08:40.000Z</time>
      </trkpt>
      <trkpt lat="47.25359" lon="-2.25798">
        <ele>1</ele>
        <time>2020-10-01T08:08:41.000Z</time>
      </trkpt>
      <trkpt lat="47.2536" lon="-2.25798">
        <ele>0.60000002384186</ele>
        <time>2020-10-01T08:08:42.000Z</time>
      </trkpt>
      <trkpt lat="47.25362" lon="-2.25797">
        <ele>0.60000002384186</ele>
        <time>2020-10-01T08:08:43.000Z</time>
      </trkpt>
      <trkpt lat="47.25364" lon="-2.25794">
        <ele>14</ele>
        <time>2020-10-01T08:08:44.000Z</time>
      </trkpt>
      <trkpt lat="47.25367" lon="-2.25791">
        <ele>-0.40000000596046</ele>
        <time>2020-10-01T08:08:45.000Z</time>
      </trkpt>
      <trkpt lat="47.2537" lon="-2.25788">
        <ele>-1</ele>
        <time>2020-10-01T08:08:46.000Z</time>
      </trkpt>
      <trkpt lat="47.25371" lon="-2.25785">
        <ele>-1.3999999761581</ele>
        <time>2020-10-01T08:08:47.000Z</time>
      </trkpt>
      <trkpt lat="47.25374" lon="-2.25783">
        <ele>-2</ele>
        <time>2020-10-01T08:08:48.000Z</time>
      </trkpt>
      <trkpt lat="47.25376" lon="-2.25781">
        <ele>-2.4000000953674</ele>
        <time>2020-10-01T08:08:49.000Z</time>
      </trkpt>
      <trkpt lat="47.25378" lon="-2.25779">
        <ele>-2.7999999523163</ele>
        <time>2020-10-01T08:08:50.000Z</time>
      </trkpt>
      <trkpt lat="47.25381" lon="-2.25777">
        <ele>-3.2000000476837</ele>
        <time>2020-10-01T08:08:51.000Z</time>
      </trkpt>
      <trkpt lat="47.25383" lon="-2.25775">
        <ele>-3.5999999046326</ele>
        <time>2020-10-01T08:08:52.000Z</time>
      </trkpt>
      <trkpt lat="47.25386" lon="-2.25773">
        <ele>-4</ele>
        <time>2020-10-01T08:08:53.000Z</time>
      </trkpt>
      <trkpt lat="47.25407" lon="-2.25767">
        <ele>-4</ele>
        <time>2020-10-01T08:08:59.000Z</time>
      </trkpt>
      <trkpt lat="47.25411" lon="-2.25766">
        <ele>-4</ele>
        <time>2020-10-01T08:09:00.000Z</time>
      </trkpt>
      <trkpt lat="47.25415" lon="-2.25765">
        <ele>-3.5999999046326</ele>
        <time>2020-10-01T08:09:02.000Z</time>
      </trkpt>
      <trkpt lat="47.25417" lon="-2.25764">
        <ele>-3.2000000476837</ele>
        <time>2020-10-01T08:09:03.000Z</time>
      </trkpt>
      <trkpt lat="47.25419" lon="-2.25763">
        <ele>-2.7999999523163</ele>
        <time>2020-10-01T08:09:04.000Z</time>
      </trkpt>
      <trkpt lat="47.2542" lon="-2.25763">
        <ele>-2.4000000953674</ele>
        <time>2020-10-01T08:09:05.000Z</time>
      </trkpt>
      <trkpt lat="47.25421" lon="-2.25762">
        <ele>-2</ele>
        <time>2020-10-01T08:09:06.000Z</time>
      </trkpt>
      <trkpt lat="47.25423" lon="-2.25762">
        <ele>-2</ele>
        <time>2020-10-01T08:09:07.000Z</time>
      </trkpt>
      <trkpt lat="47.2543" lon="-2.25759">
        <ele>-2</ele>
        <time>2020-10-01T08:10:17.000Z</time>
      </trkpt>
      <trkpt lat="47.2543" lon="-2.25755">
        <ele>-2</ele>
        <time>2020-10-01T08:10:19.000Z</time>
      </trkpt>
      <trkpt lat="47.25429" lon="-2.2575">
        <ele>-2</ele>
        <time>2020-10-01T08:10:21.000Z</time>
      </trkpt>
      <trkpt lat="47.25428" lon="-2.25747">
        <ele>-2</ele>
        <time>2020-10-01T08:10:22.000Z</time>
      </trkpt>
      <trkpt lat="47.25429" lon="-2.25741">
        <ele>-2</ele>
        <time>2020-10-01T08:10:25.000Z</time>
      </trkpt>
      <trkpt lat="47.25439" lon="-2.25726">
        <ele>-2</ele>
        <time>2020-10-01T08:10:32.000Z</time>
      </trkpt>
      <trkpt lat="47.25449" lon="-2.25704">
        <ele>-2</ele>
        <time>2020-10-01T08:10:38.000Z</time>
      </trkpt>
      <trkpt lat="47.25448" lon="-2.25701">
        <ele>-2</ele>
        <time>2020-10-01T08:10:40.000Z</time>
      </trkpt>
      <trkpt lat="47.25446" lon="-2.25699">
        <ele>-2</ele>
        <time>2020-10-01T08:10:42.000Z</time>
      </trkpt>
      <trkpt lat="47.25434" lon="-2.25698">
        <ele>-2</ele>
        <time>2020-10-01T08:10:46.000Z</time>
      </trkpt>
      <trkpt lat="47.25431" lon="-2.25698">
        <ele>-2</ele>
        <time>2020-10-01T08:10:47.000Z</time>
      </trkpt>
      <trkpt lat="47.25424" lon="-2.25699">
        <ele>-2.4000000953674</ele>
        <time>2020-10-01T08:10:49.000Z</time>
      </trkpt>
      <trkpt lat="47.25419" lon="-2.257">
        <ele>-2.7999999523163</ele>
        <time>2020-10-01T08:10:50.000Z</time>
      </trkpt>
      <trkpt lat="47.25412" lon="-2.25701">
        <ele>-3.2000000476837</ele>
        <time>2020-10-01T08:10:51.000Z</time>
      </trkpt>
      <trkpt lat="47.25407" lon="-2.257">
        <ele>-3.7999999523163</ele>
        <time>2020-10-01T08:10:52.000Z</time>
      </trkpt>
      <trkpt lat="47.25403" lon="-2.25698">
        <ele>-4.1999998092651</ele>
        <time>2020-10-01T08:10:53.000Z</time>
      </trkpt>
      <trkpt lat="47.25397" lon="-2.25693">
        <ele>-4.1999998092651</ele>
        <time>2020-10-01T08:10:55.000Z</time>
      </trkpt>
      <trkpt lat="47.25396" lon="-2.25689">
        <ele>-4.1999998092651</ele>
        <time>2020-10-01T08:10:56.000Z</time>
      </trkpt>
      <trkpt lat="47.25397" lon="-2.25678">
        <ele>-4.1999998092651</ele>
        <time>2020-10-01T08:10:58.000Z</time>
      </trkpt>
      <trkpt lat="47.2541" lon="-2.25663">
        <ele>-4.1999998092651</ele>
        <time>2020-10-01T08:11:02.000Z</time>
      </trkpt>
      <trkpt lat="47.25414" lon="-2.2566">
        <ele>-4.1999998092651</ele>
        <time>2020-10-01T08:11:03.000Z</time>
      </trkpt>
      <trkpt lat="47.25429" lon="-2.25643">
        <ele>-4.1999998092651</ele>
        <time>2020-10-01T08:11:08.000Z</time>
      </trkpt>
      <trkpt lat="47.25439" lon="-2.2562">
        <ele>-4.1999998092651</ele>
        <time>2020-10-01T08:11:14.000Z</time>
      </trkpt>
      <trkpt lat="47.2544" lon="-2.25609">
        <ele>-4.1999998092651</ele>
        <time>2020-10-01T08:11:17.000Z</time>
      </trkpt>
      <trkpt lat="47.25438" lon="-2.25607">
        <ele>-4.1999998092651</ele>
        <time>2020-10-01T08:11:18.000Z</time>
      </trkpt>
      <trkpt lat="47.2543" lon="-2.25603">
        <ele>-4.1999998092651</ele>
        <time>2020-10-01T08:11:24.000Z</time>
      </trkpt>
      <trkpt lat="47.25423" lon="-2.25593">
        <ele>-4.1999998092651</ele>
        <time>2020-10-01T08:11:29.000Z</time>
      </trkpt>
      <trkpt lat="47.25415" lon="-2.25579">
        <ele>-4.5999999046326</ele>
        <time>2020-10-01T08:11:33.000Z</time>
      </trkpt>
      <trkpt lat="47.25412" lon="-2.25577">
        <ele>-5</ele>
        <time>2020-10-01T08:11:34.000Z</time>
      </trkpt>
      <trkpt lat="47.25411" lon="-2.25575">
        <ele>-5.5999999046326</ele>
        <time>2020-10-01T08:11:35.000Z</time>
      </trkpt>
      <trkpt lat="47.25409" lon="-2.25572">
        <ele>-6</ele>
        <time>2020-10-01T08:11:36.000Z</time>
      </trkpt>
      <trkpt lat="47.25407" lon="-2.25571">
        <ele>-6.4000000953674</ele>
        <time>2020-10-01T08:11:37.000Z</time>
      </trkpt>
      <trkpt lat="47.25406" lon="-2.25572">
        <ele>-6.4000000953674</ele>
        <time>2020-10-01T08:11:38.000Z</time>
      </trkpt>
      <trkpt lat="47.25402" lon="-2.25573">
        <ele>-6.4000000953674</ele>
        <time>2020-10-01T08:11:40.000Z</time>
      </trkpt>
      <trkpt lat="47.254" lon="-2.25573">
        <ele>-6.4000000953674</ele>
        <time>2020-10-01T08:11:43.000Z</time>
      </trkpt>
      <trkpt lat="47.254" lon="-2.25571">
        <ele>-6.4000000953674</ele>
        <time>2020-10-01T08:11:44.000Z</time>
      </trkpt>
      <trkpt lat="47.25405" lon="-2.25566">
        <ele>-6.4000000953674</ele>
        <time>2020-10-01T08:11:47.000Z</time>
      </trkpt>
      <trkpt lat="47.25422" lon="-2.25553">
        <ele>-6.4000000953674</ele>
        <time>2020-10-01T08:11:52.000Z</time>
      </trkpt>
      <trkpt lat="47.25425" lon="-2.25551">
        <ele>-6</ele>
        <time>2020-10-01T08:11:53.000Z</time>
      </trkpt>
      <trkpt lat="47.25427" lon="-2.25549">
        <ele>-5.5999999046326</ele>
        <time>2020-10-01T08:11:54.000Z</time>
      </trkpt>
      <trkpt lat="47.2543" lon="-2.25548">
        <ele>-5.1999998092651</ele>
        <time>2020-10-01T08:11:55.000Z</time>
      </trkpt>
      <trkpt lat="47.25432" lon="-2.25546">
        <ele>-4.8000001907349</ele>
        <time>2020-10-01T08:11:56.000Z</time>
      </trkpt>
      <trkpt lat="47.25433" lon="-2.25543">
        <ele>-4.4000000953674</ele>
        <time>2020-10-01T08:11:57.000Z</time>
      </trkpt>
      <trkpt lat="47.2544" lon="-2.25535">
        <ele>-4.4000000953674</ele>
        <time>2020-10-01T08:12:02.000Z</time>
      </trkpt>
      <trkpt lat="47.25446" lon="-2.25535">
        <ele>-4</ele>
        <time>2020-10-01T08:12:05.000Z</time>
      </trkpt>
      <trkpt lat="47.25448" lon="-2.25535">
        <ele>-3.5999999046326</ele>
        <time>2020-10-01T08:12:06.000Z</time>
      </trkpt>
      <trkpt lat="47.2545" lon="-2.25535">
        <ele>-3.2000000476837</ele>
        <time>2020-10-01T08:12:07.000Z</time>
      </trkpt>
      <trkpt lat="47.25452" lon="-2.25536">
        <ele>-2.7999999523163</ele>
        <time>2020-10-01T08:12:08.000Z</time>
      </trkpt>
      <trkpt lat="47.25454" lon="-2.25536">
        <ele>-2.4000000953674</ele>
        <time>2020-10-01T08:12:09.000Z</time>
      </trkpt>
      <trkpt lat="47.25456" lon="-2.25537">
        <ele>-2.4000000953674</ele>
        <time>2020-10-01T08:12:10.000Z</time>
      </trkpt>
      <trkpt lat="47.25459" lon="-2.25536">
        <ele>-2.4000000953674</ele>
        <time>2020-10-01T08:12:12.000Z</time>
      </trkpt>
      <trkpt lat="47.25461" lon="-2.25534">
        <ele>-2.4000000953674</ele>
        <time>2020-10-01T08:12:14.000Z</time>
      </trkpt>
      <trkpt lat="47.25463" lon="-2.25533">
        <ele>-2</ele>
        <time>2020-10-01T08:12:15.000Z</time>
      </trkpt>
      <trkpt lat="47.25464" lon="-2.25532">
        <ele>-1.6000000238419</ele>
        <time>2020-10-01T08:12:16.000Z</time>
      </trkpt>
      <trkpt lat="47.25466" lon="-2.25531">
        <ele>-1.2000000476837</ele>
        <time>2020-10-01T08:12:17.000Z</time>
      </trkpt>
      <trkpt lat="47.25467" lon="-2.2553">
        <ele>-0.80000001192093</ele>
        <time>2020-10-01T08:12:18.000Z</time>
      </trkpt>
      <trkpt lat="47.25469" lon="-2.25529">
        <ele>-0.40000000596046</ele>
        <time>2020-10-01T08:12:19.000Z</time>
      </trkpt>
      <trkpt lat="47.25472" lon="-2.25528">
        <ele>-0.40000000596046</ele>
        <time>2020-10-01T08:12:21.000Z</time>
      </trkpt>
      <trkpt lat="47.25479" lon="-2.25523">
        <ele>16.7</ele>
        <time>2020-10-01T08:12:26.000Z</time>
      </trkpt>
      <trkpt lat="47.25481" lon="-2.25521">
        <ele>0.80000001192093</ele>
        <time>2020-10-01T08:12:27.000Z</time>
      </trkpt>
      <trkpt lat="47.25482" lon="-2.25519">
        <ele>1.2000000476837</ele>
        <time>2020-10-01T08:12:28.000Z</time>
      </trkpt>
      <trkpt lat="47.25483" lon="-2.25517">
        <ele>1.6000000238419</ele>
        <time>2020-10-01T08:12:29.000Z</time>
      </trkpt>
      <trkpt lat="47.25493" lon="-2.25492">
        <ele>1.6000000238419</ele>
        <time>2020-10-01T08:12:35.000Z</time>
      </trkpt>
      <trkpt lat="47.255" lon="-2.25485">
        <ele>2</ele>
        <time>2020-10-01T08:12:38.000Z</time>
      </trkpt>
      <trkpt lat="47.25502" lon="-2.25484">
        <ele>2.4000000953674</ele>
        <time>2020-10-01T08:12:39.000Z</time>
      </trkpt>
      <trkpt lat="47.25504" lon="-2.25482">
        <ele>2.7999999523163</ele>
        <time>2020-10-01T08:12:40.000Z</time>
      </trkpt>
      <trkpt lat="47.25506" lon="-2.25481">
        <ele>3.2000000476837</ele>
        <time>2020-10-01T08:12:41.000Z</time>
      </trkpt>
      <trkpt lat="47.25508" lon="-2.2548">
        <ele>3.7999999523163</ele>
        <time>2020-10-01T08:12:42.000Z</time>
      </trkpt>
      <trkpt lat="47.25514" lon="-2.25475">
        <ele>4.1999998092651</ele>
        <time>2020-10-01T08:12:45.000Z</time>
      </trkpt>
      <trkpt lat="47.25517" lon="-2.25475">
        <ele>4.5999999046326</ele>
        <time>2020-10-01T08:12:46.000Z</time>
      </trkpt>
      <trkpt lat="47.25519" lon="-2.25473">
        <ele>5</ele>
        <time>2020-10-01T08:12:47.000Z</time>
      </trkpt>
      <trkpt lat="47.25521" lon="-2.25472">
        <ele>5.4000000953674</ele>
        <time>2020-10-01T08:12:48.000Z</time>
      </trkpt>
      <trkpt lat="47.25523" lon="-2.25471">
        <ele>5.8000001907349</ele>
        <time>2020-10-01T08:12:49.000Z</time>
      </trkpt>
      <trkpt lat="47.2553" lon="-2.25468">
        <ele>6.1999998092651</ele>
        <time>2020-10-01T08:12:52.000Z</time>
      </trkpt>
      <trkpt lat="47.25532" lon="-2.25468">
        <ele>6.5999999046326</ele>
        <time>2020-10-01T08:12:53.000Z</time>
      </trkpt>
      <trkpt lat="47.25534" lon="-2.25468">
        <ele>7</ele>
        <time>2020-10-01T08:12:54.000Z</time>
      </trkpt>
      <trkpt lat="47.25536" lon="-2.25467">
        <ele>7.5999999046326</ele>
        <time>2020-10-01T08:12:55.000Z</time>
      </trkpt>
      <trkpt lat="47.25538" lon="-2.25468">
        <ele>8</ele>
        <time>2020-10-01T08:12:56.000Z</time>
      </trkpt>
      <trkpt lat="47.2554" lon="-2.2547">
        <ele>8</ele>
        <time>2020-10-01T08:12:57.000Z</time>
      </trkpt>
      <trkpt lat="47.25541" lon="-2.25474">
        <ele>8</ele>
        <time>2020-10-01T08:12:59.000Z</time>
      </trkpt>
      <trkpt lat="47.25541" lon="-2.25482">
        <ele>8</ele>
        <time>2020-10-01T08:13:02.000Z</time>
      </trkpt>
      <trkpt lat="47.2554" lon="-2.2549">
        <ele>8</ele>
        <time>2020-10-01T08:13:04.000Z</time>
      </trkpt>
      <trkpt lat="47.25542" lon="-2.2551">
        <ele>8</ele>
        <time>2020-10-01T08:13:09.000Z</time>
      </trkpt>
      <trkpt lat="47.25545" lon="-2.25519">
        <ele>8.3999996185303</ele>
        <time>2020-10-01T08:13:12.000Z</time>
      </trkpt>
      <trkpt lat="47.25546" lon="-2.2552">
        <ele>9</ele>
        <time>2020-10-01T08:13:13.000Z</time>
      </trkpt>
      <trkpt lat="47.25547" lon="-2.25521">
        <ele>9.3999996185303</ele>
        <time>2020-10-01T08:13:14.000Z</time>
      </trkpt>
      <trkpt lat="47.25549" lon="-2.2552">
        <ele>9.8000001907349</ele>
        <time>2020-10-01T08:13:15.000Z</time>
      </trkpt>
      <trkpt lat="47.25551" lon="-2.25519">
        <ele>10.39999961853</ele>
        <time>2020-10-01T08:13:16.000Z</time>
      </trkpt>
      <trkpt lat="47.25553" lon="-2.25517">
        <ele>10.39999961853</ele>
        <time>2020-10-01T08:13:17.000Z</time>
      </trkpt>
      <trkpt lat="47.25558" lon="-2.2551">
        <ele>10.800000190735</ele>
        <time>2020-10-01T08:13:20.000Z</time>
      </trkpt>
      <trkpt lat="47.25559" lon="-2.25508">
        <ele>11.199999809265</ele>
        <time>2020-10-01T08:13:21.000Z</time>
      </trkpt>
      <trkpt lat="47.25561" lon="-2.25506">
        <ele>11.60000038147</ele>
        <time>2020-10-01T08:13:22.000Z</time>
      </trkpt>
      <trkpt lat="47.25563" lon="-2.25504">
        <ele>12</ele>
        <time>2020-10-01T08:13:23.000Z</time>
      </trkpt>
      <trkpt lat="47.25564" lon="-2.25502">
        <ele>12.39999961853</ele>
        <time>2020-10-01T08:13:24.000Z</time>
      </trkpt>
      <trkpt lat="47.2557" lon="-2.25493">
        <ele>12.39999961853</ele>
        <time>2020-10-01T08:13:28.000Z</time>
      </trkpt>
      <trkpt lat="47.25578" lon="-2.2548">
        <ele>12.39999961853</ele>
        <time>2020-10-01T08:13:34.000Z</time>
      </trkpt>
      <trkpt lat="47.25582" lon="-2.2547">
        <ele>12.39999961853</ele>
        <time>2020-10-01T08:13:38.000Z</time>
      </trkpt>
      <trkpt lat="47.25586" lon="-2.25465">
        <ele>12.800000190735</ele>
        <time>2020-10-01T08:13:40.000Z</time>
      </trkpt>
      <trkpt lat="47.25587" lon="-2.25463">
        <ele>13.60000038147</ele>
        <time>2020-10-01T08:13:41.000Z</time>
      </trkpt>
      <trkpt lat="47.25589" lon="-2.25461">
        <ele>14</ele>
        <time>2020-10-01T08:13:42.000Z</time>
      </trkpt>
      <trkpt lat="47.25591" lon="-2.25458">
        <ele>14.39999961853</ele>
        <time>2020-10-01T08:13:43.000Z</time>
      </trkpt>
      <trkpt lat="47.25597" lon="-2.25445">
        <ele>14.39999961853</ele>
        <time>2020-10-01T08:13:48.000Z</time>
      </trkpt>
      <trkpt lat="47.25605" lon="-2.25427">
        <ele>14.39999961853</ele>
        <time>2020-10-01T08:13:54.000Z</time>
      </trkpt>
      <trkpt lat="47.25619" lon="-2.25404">
        <ele>14.39999961853</ele>
        <time>2020-10-01T08:14:01.000Z</time>
      </trkpt>
      <trkpt lat="47.25627" lon="-2.25379">
        <ele>14.39999961853</ele>
        <time>2020-10-01T08:14:07.000Z</time>
      </trkpt>
      <trkpt lat="47.25633" lon="-2.2535">
        <ele>14.39999961853</ele>
        <time>2020-10-01T08:14:14.000Z</time>
      </trkpt>
      <trkpt lat="47.25638" lon="-2.25333">
        <ele>14.39999961853</ele>
        <time>2020-10-01T08:14:20.000Z</time>
      </trkpt>
      <trkpt lat="47.2564" lon="-2.2533">
        <ele>14.39999961853</ele>
        <time>2020-10-01T08:14:22.000Z</time>
      </trkpt>
      <trkpt lat="47.25641" lon="-2.25335">
        <ele>14.39999961853</ele>
        <time>2020-10-01T08:14:24.000Z</time>
      </trkpt>
      <trkpt lat="47.2564" lon="-2.25339">
        <ele>14.800000190735</ele>
        <time>2020-10-01T08:14:25.000Z</time>
      </trkpt>
      <trkpt lat="47.25639" lon="-2.25344">
        <ele>15.199999809265</ele>
        <time>2020-10-01T08:14:26.000Z</time>
      </trkpt>
      <trkpt lat="47.25638" lon="-2.25349">
        <ele>15.60000038147</ele>
        <time>2020-10-01T08:14:27.000Z</time>
      </trkpt>
      <trkpt lat="47.25638" lon="-2.25354">
        <ele>16</ele>
        <time>2020-10-01T08:14:28.000Z</time>
      </trkpt>
      <trkpt lat="47.25637" lon="-2.25358">
        <ele>16.39999961853</ele>
        <time>2020-10-01T08:14:29.000Z</time>
      </trkpt>
      <trkpt lat="47.25636" lon="-2.25369">
        <ele>16.39999961853</ele>
        <time>2020-10-01T08:14:32.000Z</time>
      </trkpt>
      <trkpt lat="47.25635" lon="-2.25371">
        <ele>16.39999961853</ele>
        <time>2020-10-01T08:14:34.000Z</time>
      </trkpt>
      <trkpt lat="47.25634" lon="-2.2537">
        <ele>16.39999961853</ele>
        <time>2020-10-01T08:14:52.000Z</time>
      </trkpt>
      <trkpt lat="47.25634" lon="-2.25367">
        <ele>16.39999961853</ele>
        <time>2020-10-01T08:14:53.000Z</time>
      </trkpt>
      <trkpt lat="47.25633" lon="-2.2535">
        <ele>16.39999961853</ele>
        <time>2020-10-01T08:14:58.000Z</time>
      </trkpt>
      <trkpt lat="47.25639" lon="-2.25316">
        <ele>16.39999961853</ele>
        <time>2020-10-01T08:15:06.000Z</time>
      </trkpt>
      <trkpt lat="47.25644" lon="-2.25285">
        <ele>16.39999961853</ele>
        <time>2020-10-01T08:15:13.000Z</time>
      </trkpt>
      <trkpt lat="47.25646" lon="-2.25258">
        <ele>16.39999961853</ele>
        <time>2020-10-01T08:15:19.000Z</time>
      </trkpt>
      <trkpt lat="47.25654" lon="-2.2522">
        <ele>16.39999961853</ele>
        <time>2020-10-01T08:15:26.000Z</time>
      </trkpt>
      <trkpt lat="47.25662" lon="-2.25187">
        <ele>16.39999961853</ele>
        <time>2020-10-01T08:15:32.000Z</time>
      </trkpt>
      <trkpt lat="47.25666" lon="-2.25156">
        <ele>16.39999961853</ele>
        <time>2020-10-01T08:15:37.000Z</time>
      </trkpt>
      <trkpt lat="47.25666" lon="-2.2515">
        <ele>16.39999961853</ele>
        <time>2020-10-01T08:15:38.000Z</time>
      </trkpt>
      <trkpt lat="47.25674" lon="-2.25101">
        <ele>16.39999961853</ele>
        <time>2020-10-01T08:15:46.000Z</time>
      </trkpt>
      <trkpt lat="47.2568" lon="-2.25058">
        <ele>16.39999961853</ele>
        <time>2020-10-01T08:15:53.000Z</time>
      </trkpt>
      <trkpt lat="47.2568" lon="-2.25046">
        <ele>16.39999961853</ele>
        <time>2020-10-01T08:15:57.000Z</time>
      </trkpt>
      <trkpt lat="47.25682" lon="-2.25035">
        <ele>16</ele>
        <time>2020-10-01T08:16:01.000Z</time>
      </trkpt>
      <trkpt lat="47.25683" lon="-2.2503">
        <ele>15.60000038147</ele>
        <time>2020-10-01T08:16:02.000Z</time>
      </trkpt>
      <trkpt lat="47.25684" lon="-2.25024">
        <ele>15.199999809265</ele>
        <time>2020-10-01T08:16:03.000Z</time>
      </trkpt>
      <trkpt lat="47.25685" lon="-2.25019">
        <ele>14.800000190735</ele>
        <time>2020-10-01T08:16:04.000Z</time>
      </trkpt>
      <trkpt lat="47.25686" lon="-2.25013">
        <ele>14.39999961853</ele>
        <time>2020-10-01T08:16:05.000Z</time>
      </trkpt>
      <trkpt lat="47.25691" lon="-2.24991">
        <ele>14.39999961853</ele>
        <time>2020-10-01T08:16:09.000Z</time>
      </trkpt>
      <trkpt lat="47.25693" lon="-2.2498">
        <ele>14.39999961853</ele>
        <time>2020-10-01T08:16:11.000Z</time>
      </trkpt>
      <trkpt lat="47.25698" lon="-2.24961">
        <ele>14.39999961853</ele>
        <time>2020-10-01T08:16:14.000Z</time>
      </trkpt>
      <trkpt lat="47.25702" lon="-2.2494">
        <ele>14.39999961853</ele>
        <time>2020-10-01T08:16:17.000Z</time>
      </trkpt>
      <trkpt lat="47.25704" lon="-2.24918">
        <ele>14.39999961853</ele>
        <time>2020-10-01T08:16:20.000Z</time>
      </trkpt>
      <trkpt lat="47.25705" lon="-2.24905">
        <ele>14.39999961853</ele>
        <time>2020-10-01T08:16:22.000Z</time>
      </trkpt>
      <trkpt lat="47.25709" lon="-2.24896">
        <ele>14.39999961853</ele>
        <time>2020-10-01T08:16:24.000Z</time>
      </trkpt>
      <trkpt lat="47.25713" lon="-2.24894">
        <ele>14</ele>
        <time>2020-10-01T08:16:26.000Z</time>
      </trkpt>
      <trkpt lat="47.25716" lon="-2.24895">
        <ele>13.60000038147</ele>
        <time>2020-10-01T08:16:27.000Z</time>
      </trkpt>
      <trkpt lat="47.25718" lon="-2.24897">
        <ele>13.199999809265</ele>
        <time>2020-10-01T08:16:28.000Z</time>
      </trkpt>
      <trkpt lat="47.25722" lon="-2.24898">
        <ele>12.60000038147</ele>
        <time>2020-10-01T08:16:29.000Z</time>
      </trkpt>
      <trkpt lat="47.25725" lon="-2.249">
        <ele>12.199999809265</ele>
        <time>2020-10-01T08:16:30.000Z</time>
      </trkpt>
      <trkpt lat="47.25735" lon="-2.24904">
        <ele>12.199999809265</ele>
        <time>2020-10-01T08:16:33.000Z</time>
      </trkpt>
      <trkpt lat="47.25747" lon="-2.2491">
        <ele>12.199999809265</ele>
        <time>2020-10-01T08:16:38.000Z</time>
      </trkpt>
      <trkpt lat="47.25751" lon="-2.24916">
        <ele>12.60000038147</ele>
        <time>2020-10-01T08:16:40.000Z</time>
      </trkpt>
      <trkpt lat="47.25752" lon="-2.24919">
        <ele>13</ele>
        <time>2020-10-01T08:16:41.000Z</time>
      </trkpt>
      <trkpt lat="47.25755" lon="-2.24923">
        <ele>13.39999961853</ele>
        <time>2020-10-01T08:16:42.000Z</time>
      </trkpt>
      <trkpt lat="47.25758" lon="-2.24925">
        <ele>13.800000190735</ele>
        <time>2020-10-01T08:16:43.000Z</time>
      </trkpt>
      <trkpt lat="47.25762" lon="-2.24927">
        <ele>14.199999809265</ele>
        <time>2020-10-01T08:16:44.000Z</time>
      </trkpt>
      <trkpt lat="47.25771" lon="-2.24932">
        <ele>14.199999809265</ele>
        <time>2020-10-01T08:16:46.000Z</time>
      </trkpt>
      <trkpt lat="47.25786" lon="-2.24938">
        <ele>14.199999809265</ele>
        <time>2020-10-01T08:16:49.000Z</time>
      </trkpt>
      <trkpt lat="47.25801" lon="-2.24946">
        <ele>14.199999809265</ele>
        <time>2020-10-01T08:16:52.000Z</time>
      </trkpt>
      <trkpt lat="47.25815" lon="-2.24952">
        <ele>14.199999809265</ele>
        <time>2020-10-01T08:16:55.000Z</time>
      </trkpt>
      <trkpt lat="47.25838" lon="-2.24963">
        <ele>14.199999809265</ele>
        <time>2020-10-01T08:17:00.000Z</time>
      </trkpt>
      <trkpt lat="47.2584" lon="-2.2496">
        <ele>14.199999809265</ele>
        <time>2020-10-01T08:17:01.000Z</time>
      </trkpt>
      <trkpt lat="47.2584" lon="-2.24957">
        <ele>13.800000190735</ele>
        <time>2020-10-01T08:17:02.000Z</time>
      </trkpt>
      <trkpt lat="47.25841" lon="-2.24952">
        <ele>13.39999961853</ele>
        <time>2020-10-01T08:17:03.000Z</time>
      </trkpt>
      <trkpt lat="47.25842" lon="-2.24948">
        <ele>13</ele>
        <time>2020-10-01T08:17:04.000Z</time>
      </trkpt>
      <trkpt lat="47.25843" lon="-2.24942">
        <ele>12.60000038147</ele>
        <time>2020-10-01T08:17:05.000Z</time>
      </trkpt>
      <trkpt lat="47.25845" lon="-2.24936">
        <ele>12.199999809265</ele>
        <time>2020-10-01T08:17:06.000Z</time>
      </trkpt>
      <trkpt lat="47.25847" lon="-2.2493">
        <ele>12.199999809265</ele>
        <time>2020-10-01T08:17:07.000Z</time>
      </trkpt>
      <trkpt lat="47.25848" lon="-2.24923">
        <ele>12.199999809265</ele>
        <time>2020-10-01T08:17:08.000Z</time>
      </trkpt>
      <trkpt lat="47.25858" lon="-2.24878">
        <ele>12.199999809265</ele>
        <time>2020-10-01T08:17:15.000Z</time>
      </trkpt>
      <trkpt lat="47.25858" lon="-2.24875">
        <ele>12.199999809265</ele>
        <time>2020-10-01T08:17:16.000Z</time>
      </trkpt>
      <trkpt lat="47.25854" lon="-2.2487">
        <ele>12.199999809265</ele>
        <time>2020-10-01T08:17:19.000Z</time>
      </trkpt>
      <trkpt lat="47.25843" lon="-2.24866">
        <ele>12.199999809265</ele>
        <time>2020-10-01T08:17:23.000Z</time>
      </trkpt>
      <trkpt lat="47.25836" lon="-2.24863">
        <ele>12.199999809265</ele>
        <time>2020-10-01T08:17:25.000Z</time>
      </trkpt>
      <trkpt lat="47.25814" lon="-2.24855">
        <ele>12.199999809265</ele>
        <time>2020-10-01T08:17:31.000Z</time>
      </trkpt>
      <trkpt lat="47.25794" lon="-2.2485">
        <ele>12.199999809265</ele>
        <time>2020-10-01T08:17:36.000Z</time>
      </trkpt>
      <trkpt lat="47.25781" lon="-2.2484">
        <ele>12.199999809265</ele>
        <time>2020-10-01T08:17:40.000Z</time>
      </trkpt>
      <trkpt lat="47.25779" lon="-2.24836">
        <ele>12.199999809265</ele>
        <time>2020-10-01T08:17:41.000Z</time>
      </trkpt>
      <trkpt lat="47.2578" lon="-2.24825">
        <ele>12.199999809265</ele>
        <time>2020-10-01T08:17:44.000Z</time>
      </trkpt>
      <trkpt lat="47.25781" lon="-2.24816">
        <ele>12.199999809265</ele>
        <time>2020-10-01T08:17:46.000Z</time>
      </trkpt>
      <trkpt lat="47.25786" lon="-2.24785">
        <ele>12.199999809265</ele>
        <time>2020-10-01T08:17:52.000Z</time>
      </trkpt>
      <trkpt lat="47.25791" lon="-2.24748">
        <ele>12.199999809265</ele>
        <time>2020-10-01T08:17:59.000Z</time>
      </trkpt>
      <trkpt lat="47.25793" lon="-2.24717">
        <ele>12.199999809265</ele>
        <time>2020-10-01T08:18:05.000Z</time>
      </trkpt>
      <trkpt lat="47.25794" lon="-2.24694">
        <ele>12.199999809265</ele>
        <time>2020-10-01T08:18:10.000Z</time>
      </trkpt>
      <trkpt lat="47.25794" lon="-2.24658">
        <ele>12.199999809265</ele>
        <time>2020-10-01T08:18:17.000Z</time>
      </trkpt>
      <trkpt lat="47.2579" lon="-2.24613">
        <ele>12.199999809265</ele>
        <time>2020-10-01T08:18:26.000Z</time>
      </trkpt>
      <trkpt lat="47.25784" lon="-2.24578">
        <ele>12.199999809265</ele>
        <time>2020-10-01T08:18:33.000Z</time>
      </trkpt>
      <trkpt lat="47.25779" lon="-2.2454">
        <ele>12.199999809265</ele>
        <time>2020-10-01T08:18:39.000Z</time>
      </trkpt>
      <trkpt lat="47.25778" lon="-2.24534">
        <ele>11.800000190735</ele>
        <time>2020-10-01T08:18:40.000Z</time>
      </trkpt>
      <trkpt lat="47.25777" lon="-2.24528">
        <ele>11.39999961853</ele>
        <time>2020-10-01T08:18:41.000Z</time>
      </trkpt>
      <trkpt lat="47.25776" lon="-2.24521">
        <ele>11</ele>
        <time>2020-10-01T08:18:42.000Z</time>
      </trkpt>
      <trkpt lat="47.25775" lon="-2.24515">
        <ele>10.60000038147</ele>
        <time>2020-10-01T08:18:43.000Z</time>
      </trkpt>
      <trkpt lat="47.25774" lon="-2.24509">
        <ele>10.199999809265</ele>
        <time>2020-10-01T08:18:44.000Z</time>
      </trkpt>
      <trkpt lat="47.25773" lon="-2.24497">
        <ele>10.199999809265</ele>
        <time>2020-10-01T08:18:46.000Z</time>
      </trkpt>
      <trkpt lat="47.25772" lon="-2.24462">
        <ele>10.199999809265</ele>
        <time>2020-10-01T08:18:52.000Z</time>
      </trkpt>
      <trkpt lat="47.25769" lon="-2.24419">
        <ele>10.199999809265</ele>
        <time>2020-10-01T08:18:59.000Z</time>
      </trkpt>
      <trkpt lat="47.25764" lon="-2.24411">
        <ele>10.199999809265</ele>
        <time>2020-10-01T08:19:01.000Z</time>
      </trkpt>
      <trkpt lat="47.2576" lon="-2.2441">
        <ele>10.199999809265</ele>
        <time>2020-10-01T08:19:02.000Z</time>
      </trkpt>
      <trkpt lat="47.25756" lon="-2.2441">
        <ele>9.1999998092651</ele>
        <time>2020-10-01T08:19:03.000Z</time>
      </trkpt>
      <trkpt lat="47.25753" lon="-2.24411">
        <ele>8.8000001907349</ele>
        <time>2020-10-01T08:19:04.000Z</time>
      </trkpt>
      <trkpt lat="47.25752" lon="-2.2441">
        <ele>8.3999996185303</ele>
        <time>2020-10-01T08:19:05.000Z</time>
      </trkpt>
      <trkpt lat="47.25751" lon="-2.2441">
        <ele>8</ele>
        <time>2020-10-01T08:19:06.000Z</time>
      </trkpt>
      <trkpt lat="47.25747" lon="-2.24407">
        <ele>8</ele>
        <time>2020-10-01T08:19:08.000Z</time>
      </trkpt>
      <trkpt lat="47.25745" lon="-2.24398">
        <ele>8</ele>
        <time>2020-10-01T08:19:10.000Z</time>
      </trkpt>
      <trkpt lat="47.25744" lon="-2.24386">
        <ele>8</ele>
        <time>2020-10-01T08:19:12.000Z</time>
      </trkpt>
      <trkpt lat="47.25744" lon="-2.24372">
        <ele>8</ele>
        <time>2020-10-01T08:19:14.000Z</time>
      </trkpt>
      <trkpt lat="47.25743" lon="-2.24337">
        <ele>8</ele>
        <time>2020-10-01T08:19:20.000Z</time>
      </trkpt>
      <trkpt lat="47.25741" lon="-2.24314">
        <ele>8</ele>
        <time>2020-10-01T08:19:26.000Z</time>
      </trkpt>
      <trkpt lat="47.25739" lon="-2.2431">
        <ele>7.1999998092651</ele>
        <time>2020-10-01T08:19:28.000Z</time>
      </trkpt>
      <trkpt lat="47.25738" lon="-2.24307">
        <ele>6.5999999046326</ele>
        <time>2020-10-01T08:19:29.000Z</time>
      </trkpt>
      <trkpt lat="47.25737" lon="-2.24304">
        <ele>6.1999998092651</ele>
        <time>2020-10-01T08:19:30.000Z</time>
      </trkpt>
      <trkpt lat="47.25736" lon="-2.243">
        <ele>5.8000001907349</ele>
        <time>2020-10-01T08:19:31.000Z</time>
      </trkpt>
      <trkpt lat="47.25733" lon="-2.24292">
        <ele>5.8000001907349</ele>
        <time>2020-10-01T08:19:34.000Z</time>
      </trkpt>
      <trkpt lat="47.25731" lon="-2.24291">
        <ele>5.8000001907349</ele>
        <time>2020-10-01T08:19:35.000Z</time>
      </trkpt>
      <trkpt lat="47.25722" lon="-2.24292">
        <ele>5.8000001907349</ele>
        <time>2020-10-01T08:19:38.000Z</time>
      </trkpt>
      <trkpt lat="47.25718" lon="-2.24294">
        <ele>5.8000001907349</ele>
        <time>2020-10-01T08:19:39.000Z</time>
      </trkpt>
      <trkpt lat="47.2569" lon="-2.24302">
        <ele>5.8000001907349</ele>
        <time>2020-10-01T08:19:45.000Z</time>
      </trkpt>
      <trkpt lat="47.25676" lon="-2.24306">
        <ele>5.4000000953674</ele>
        <time>2020-10-01T08:19:48.000Z</time>
      </trkpt>
      <trkpt lat="47.25671" lon="-2.24307">
        <ele>5</ele>
        <time>2020-10-01T08:19:49.000Z</time>
      </trkpt>
      <trkpt lat="47.25666" lon="-2.24308">
        <ele>4.5999999046326</ele>
        <time>2020-10-01T08:19:50.000Z</time>
      </trkpt>
      <trkpt lat="47.2566" lon="-2.24309">
        <ele>4</ele>
        <time>2020-10-01T08:19:51.000Z</time>
      </trkpt>
      <trkpt lat="47.25654" lon="-2.2431">
        <ele>3.5999999046326</ele>
        <time>2020-10-01T08:19:52.000Z</time>
      </trkpt>
      <trkpt lat="47.25642" lon="-2.24314">
        <ele>3.2000000476837</ele>
        <time>2020-10-01T08:19:54.000Z</time>
      </trkpt>
      <trkpt lat="47.25637" lon="-2.24316">
        <ele>2.7999999523163</ele>
        <time>2020-10-01T08:19:55.000Z</time>
      </trkpt>
      <trkpt lat="47.25632" lon="-2.24317">
        <ele>2.4000000953674</ele>
        <time>2020-10-01T08:19:56.000Z</time>
      </trkpt>
      <trkpt lat="47.25627" lon="-2.24318">
        <ele>2</ele>
        <time>2020-10-01T08:19:57.000Z</time>
      </trkpt>
      <trkpt lat="47.25623" lon="-2.24318">
        <ele>1.3999999761581</ele>
        <time>2020-10-01T08:19:58.000Z</time>
      </trkpt>
      <trkpt lat="47.2562" lon="-2.24316">
        <ele>0.80000001192093</ele>
        <time>2020-10-01T08:19:59.000Z</time>
      </trkpt>
      <trkpt lat="47.25618" lon="-2.24312">
        <ele>0.20000000298023</ele>
        <time>2020-10-01T08:20:00.000Z</time>
      </trkpt>
      <trkpt lat="47.25617" lon="-2.24308">
        <ele>-0.20000000298023</ele>
        <time>2020-10-01T08:20:01.000Z</time>
      </trkpt>
      <trkpt lat="47.25616" lon="-2.24303">
        <ele>-0.80000001192093</ele>
        <time>2020-10-01T08:20:02.000Z</time>
      </trkpt>
      <trkpt lat="47.25616" lon="-2.24298">
        <ele>-0.80000001192093</ele>
        <time>2020-10-01T08:20:03.000Z</time>
      </trkpt>
      <trkpt lat="47.25617" lon="-2.24288">
        <ele>-0.80000001192093</ele>
        <time>2020-10-01T08:20:05.000Z</time>
      </trkpt>
      <trkpt lat="47.25618" lon="-2.24273">
        <ele>-0.80000001192093</ele>
        <time>2020-10-01T08:20:08.000Z</time>
      </trkpt>
      <trkpt lat="47.25622" lon="-2.24251">
        <ele>-0.80000001192093</ele>
        <time>2020-10-01T08:20:13.000Z</time>
      </trkpt>
      <trkpt lat="47.25623" lon="-2.24225">
        <ele>-0.80000001192093</ele>
        <time>2020-10-01T08:20:19.000Z</time>
      </trkpt>
      <trkpt lat="47.25627" lon="-2.242">
        <ele>-0.80000001192093</ele>
        <time>2020-10-01T08:20:26.000Z</time>
      </trkpt>
      <trkpt lat="47.25631" lon="-2.2418">
        <ele>-0.80000001192093</ele>
        <time>2020-10-01T08:20:32.000Z</time>
      </trkpt>
      <trkpt lat="47.25632" lon="-2.24165">
        <ele>-0.80000001192093</ele>
        <time>2020-10-01T08:20:36.000Z</time>
      </trkpt>
      <trkpt lat="47.25634" lon="-2.24136">
        <ele>-0.80000001192093</ele>
        <time>2020-10-01T08:20:43.000Z</time>
      </trkpt>
      <trkpt lat="47.25636" lon="-2.24115">
        <ele>-0.80000001192093</ele>
        <time>2020-10-01T08:20:50.000Z</time>
      </trkpt>
      <trkpt lat="47.2564" lon="-2.24095">
        <ele>-0.80000001192093</ele>
        <time>2020-10-01T08:20:56.000Z</time>
      </trkpt>
      <trkpt lat="47.25641" lon="-2.2409">
        <ele>-0.80000001192093</ele>
        <time>2020-10-01T08:20:58.000Z</time>
      </trkpt>
      <trkpt lat="47.25645" lon="-2.24078">
        <ele>-0.80000001192093</ele>
        <time>2020-10-01T08:21:02.000Z</time>
      </trkpt>
      <trkpt lat="47.25646" lon="-2.24056">
        <ele>-0.80000001192093</ele>
        <time>2020-10-01T08:21:08.000Z</time>
      </trkpt>
      <trkpt lat="47.25644" lon="-2.24051">
        <ele>-0.80000001192093</ele>
        <time>2020-10-01T08:21:10.000Z</time>
      </trkpt>
      <trkpt lat="47.25639" lon="-2.24046">
        <ele>-0.80000001192093</ele>
        <time>2020-10-01T08:21:12.000Z</time>
      </trkpt>
      <trkpt lat="47.25632" lon="-2.24042">
        <ele>-0.80000001192093</ele>
        <time>2020-10-01T08:21:14.000Z</time>
      </trkpt>
      <trkpt lat="47.25629" lon="-2.24038">
        <ele>-0.80000001192093</ele>
        <time>2020-10-01T08:21:16.000Z</time>
      </trkpt>
      <trkpt lat="47.25623" lon="-2.24019">
        <ele>-0.80000001192093</ele>
        <time>2020-10-01T08:21:21.000Z</time>
      </trkpt>
      <trkpt lat="47.25624" lon="-2.24008">
        <ele>-0.80000001192093</ele>
        <time>2020-10-01T08:21:25.000Z</time>
      </trkpt>
      <trkpt lat="47.25624" lon="-2.24008">
        <ele>-0.80000001192093</ele>
        <time>2020-10-01T08:21:26.000Z</time>
      </trkpt>
      <trkpt lat="47.25626" lon="-2.24004">
        <ele>-0.80000001192093</ele>
        <time>2020-10-01T08:21:33.000Z</time>
      </trkpt>
      <trkpt lat="47.25628" lon="-2.23999">
        <ele>-0.80000001192093</ele>
        <time>2020-10-01T08:21:35.000Z</time>
      </trkpt>
      <trkpt lat="47.25639" lon="-2.23978">
        <ele>-0.80000001192093</ele>
        <time>2020-10-01T08:21:41.000Z</time>
      </trkpt>
      <trkpt lat="47.25647" lon="-2.23955">
        <ele>-0.80000001192093</ele>
        <time>2020-10-01T08:21:47.000Z</time>
      </trkpt>
      <trkpt lat="47.25649" lon="-2.23925">
        <ele>-0.80000001192093</ele>
        <time>2020-10-01T08:21:52.000Z</time>
      </trkpt>
      <trkpt lat="47.25648" lon="-2.23899">
        <ele>-0.80000001192093</ele>
        <time>2020-10-01T08:21:57.000Z</time>
      </trkpt>
      <trkpt lat="47.25648" lon="-2.23878">
        <ele>-0.80000001192093</ele>
        <time>2020-10-01T08:22:03.000Z</time>
      </trkpt>
      <trkpt lat="47.25649" lon="-2.23876">
        <ele>-0.80000001192093</ele>
        <time>2020-10-01T08:22:05.000Z</time>
      </trkpt>
      <trkpt lat="47.25649" lon="-2.23873">
        <ele>-0.80000001192093</ele>
        <time>2020-10-01T08:22:08.000Z</time>
      </trkpt>
      <trkpt lat="47.2565" lon="-2.23868">
        <ele>-0.80000001192093</ele>
        <time>2020-10-01T08:22:09.000Z</time>
      </trkpt>
      <trkpt lat="47.25649" lon="-2.23848">
        <ele>-0.80000001192093</ele>
        <time>2020-10-01T08:22:14.000Z</time>
      </trkpt>
      <trkpt lat="47.25641" lon="-2.23811">
        <ele>-0.80000001192093</ele>
        <time>2020-10-01T08:22:21.000Z</time>
      </trkpt>
      <trkpt lat="47.25641" lon="-2.23805">
        <ele>-0.80000001192093</ele>
        <time>2020-10-01T08:22:22.000Z</time>
      </trkpt>
      <trkpt lat="47.25644" lon="-2.23774">
        <ele>-0.80000001192093</ele>
        <time>2020-10-01T08:22:27.000Z</time>
      </trkpt>
      <trkpt lat="47.25646" lon="-2.23751">
        <ele>-0.80000001192093</ele>
        <time>2020-10-01T08:22:32.000Z</time>
      </trkpt>
      <trkpt lat="47.25647" lon="-2.23742">
        <ele>-1.2000000476837</ele>
        <time>2020-10-01T08:22:34.000Z</time>
      </trkpt>
      <trkpt lat="47.25648" lon="-2.23737">
        <ele>-1.6000000238419</ele>
        <time>2020-10-01T08:22:35.000Z</time>
      </trkpt>
      <trkpt lat="47.25648" lon="-2.23732">
        <ele>-2</ele>
        <time>2020-10-01T08:22:36.000Z</time>
      </trkpt>
      <trkpt lat="47.25649" lon="-2.23727">
        <ele>-2.4000000953674</ele>
        <time>2020-10-01T08:22:37.000Z</time>
      </trkpt>
      <trkpt lat="47.25649" lon="-2.23722">
        <ele>-2.7999999523163</ele>
        <time>2020-10-01T08:22:38.000Z</time>
      </trkpt>
      <trkpt lat="47.25649" lon="-2.23717">
        <ele>-2.7999999523163</ele>
        <time>2020-10-01T08:22:39.000Z</time>
      </trkpt>
      <trkpt lat="47.25652" lon="-2.23689">
        <ele>-2.7999999523163</ele>
        <time>2020-10-01T08:22:45.000Z</time>
      </trkpt>
      <trkpt lat="47.25649" lon="-2.23669">
        <ele>-2.7999999523163</ele>
        <time>2020-10-01T08:22:50.000Z</time>
      </trkpt>
      <trkpt lat="47.25653" lon="-2.23647">
        <ele>-2.7999999523163</ele>
        <time>2020-10-01T08:22:55.000Z</time>
      </trkpt>
      <trkpt lat="47.2566" lon="-2.23608">
        <ele>-2.7999999523163</ele>
        <time>2020-10-01T08:23:04.000Z</time>
      </trkpt>
      <trkpt lat="47.25656" lon="-2.23584">
        <ele>-2.7999999523163</ele>
        <time>2020-10-01T08:23:10.000Z</time>
      </trkpt>
      <trkpt lat="47.25645" lon="-2.23552">
        <ele>-2.7999999523163</ele>
        <time>2020-10-01T08:23:17.000Z</time>
      </trkpt>
      <trkpt lat="47.25643" lon="-2.23526">
        <ele>-3.2000000476837</ele>
        <time>2020-10-01T08:23:22.000Z</time>
      </trkpt>
      <trkpt lat="47.25643" lon="-2.23521">
        <ele>-3.5999999046326</ele>
        <time>2020-10-01T08:23:23.000Z</time>
      </trkpt>
      <trkpt lat="47.25642" lon="-2.23516">
        <ele>-4</ele>
        <time>2020-10-01T08:23:24.000Z</time>
      </trkpt>
      <trkpt lat="47.25642" lon="-2.2351">
        <ele>-4.4000000953674</ele>
        <time>2020-10-01T08:23:25.000Z</time>
      </trkpt>
      <trkpt lat="47.25642" lon="-2.23506">
        <ele>-4.8000001907349</ele>
        <time>2020-10-01T08:23:26.000Z</time>
      </trkpt>
      <trkpt lat="47.2564" lon="-2.23495">
        <ele>-4.8000001907349</ele>
        <time>2020-10-01T08:23:29.000Z</time>
      </trkpt>
      <trkpt lat="47.25633" lon="-2.23463">
        <ele>-4.8000001907349</ele>
        <time>2020-10-01T08:23:38.000Z</time>
      </trkpt>
      <trkpt lat="47.25632" lon="-2.2344">
        <ele>-4.8000001907349</ele>
        <time>2020-10-01T08:23:45.000Z</time>
      </trkpt>
      <trkpt lat="47.25632" lon="-2.23427">
        <ele>-4.8000001907349</ele>
        <time>2020-10-01T08:23:52.000Z</time>
      </trkpt>
      <trkpt lat="47.25631" lon="-2.23407">
        <ele>-4.8000001907349</ele>
        <time>2020-10-01T08:23:58.000Z</time>
      </trkpt>
      <trkpt lat="47.2563" lon="-2.23373">
        <ele>-4.8000001907349</ele>
        <time>2020-10-01T08:24:06.000Z</time>
      </trkpt>
      <trkpt lat="47.25626" lon="-2.23346">
        <ele>-4.8000001907349</ele>
        <time>2020-10-01T08:24:13.000Z</time>
      </trkpt>
      <trkpt lat="47.2562" lon="-2.23319">
        <ele>-4.8000001907349</ele>
        <time>2020-10-01T08:24:20.000Z</time>
      </trkpt>
      <trkpt lat="47.25611" lon="-2.23283">
        <ele>-4.8000001907349</ele>
        <time>2020-10-01T08:24:28.000Z</time>
      </trkpt>
      <trkpt lat="47.25604" lon="-2.2326">
        <ele>-4.8000001907349</ele>
        <time>2020-10-01T08:24:34.000Z</time>
      </trkpt>
      <trkpt lat="47.25604" lon="-2.23254">
        <ele>-5.1999998092651</ele>
        <time>2020-10-01T08:24:36.000Z</time>
      </trkpt>
      <trkpt lat="47.25604" lon="-2.23251">
        <ele>-5.8000001907349</ele>
        <time>2020-10-01T08:24:37.000Z</time>
      </trkpt>
      <trkpt lat="47.25605" lon="-2.23248">
        <ele>-6.1999998092651</ele>
        <time>2020-10-01T08:24:38.000Z</time>
      </trkpt>
      <trkpt lat="47.25604" lon="-2.23244">
        <ele>-6.5999999046326</ele>
        <time>2020-10-01T08:24:39.000Z</time>
      </trkpt>
      <trkpt lat="47.25603" lon="-2.2324">
        <ele>-7</ele>
        <time>2020-10-01T08:24:40.000Z</time>
      </trkpt>
      <trkpt lat="47.25603" lon="-2.23226">
        <ele>-7</ele>
        <time>2020-10-01T08:24:44.000Z</time>
      </trkpt>
      <trkpt lat="47.25606" lon="-2.23217">
        <ele>-7</ele>
        <time>2020-10-01T08:24:49.000Z</time>
      </trkpt>
      <trkpt lat="47.25607" lon="-2.23214">
        <ele>-7</ele>
        <time>2020-10-01T08:24:50.000Z</time>
      </trkpt>
      <trkpt lat="47.25605" lon="-2.23193">
        <ele>-7</ele>
        <time>2020-10-01T08:24:55.000Z</time>
      </trkpt>
      <trkpt lat="47.25605" lon="-2.23187">
        <ele>-7.4000000953674</ele>
        <time>2020-10-01T08:24:58.000Z</time>
      </trkpt>
      <trkpt lat="47.25607" lon="-2.23185">
        <ele>-7.8000001907349</ele>
        <time>2020-10-01T08:24:59.000Z</time>
      </trkpt>
      <trkpt lat="47.25607" lon="-2.23182">
        <ele>-8.1999998092651</ele>
        <time>2020-10-01T08:25:00.000Z</time>
      </trkpt>
      <trkpt lat="47.25607" lon="-2.23177">
        <ele>-8.6000003814697</ele>
        <time>2020-10-01T08:25:01.000Z</time>
      </trkpt>
      <trkpt lat="47.25607" lon="-2.23172">
        <ele>-9</ele>
        <time>2020-10-01T08:25:02.000Z</time>
      </trkpt>
      <trkpt lat="47.25605" lon="-2.23145">
        <ele>-9</ele>
        <time>2020-10-01T08:25:07.000Z</time>
      </trkpt>
      <trkpt lat="47.25603" lon="-2.23119">
        <ele>-9</ele>
        <time>2020-10-01T08:25:12.000Z</time>
      </trkpt>
      <trkpt lat="47.25601" lon="-2.23103">
        <ele>-9</ele>
        <time>2020-10-01T08:25:17.000Z</time>
      </trkpt>
      <trkpt lat="47.25599" lon="-2.23083">
        <ele>-9.3999996185303</ele>
        <time>2020-10-01T08:25:22.000Z</time>
      </trkpt>
      <trkpt lat="47.25599" lon="-2.23079">
        <ele>-9.8000001907349</ele>
        <time>2020-10-01T08:25:23.000Z</time>
      </trkpt>
      <trkpt lat="47.25599" lon="-2.23075">
        <ele>-10.199999809265</ele>
        <time>2020-10-01T08:25:24.000Z</time>
      </trkpt>
      <trkpt lat="47.256" lon="-2.23071">
        <ele>-10.60000038147</ele>
        <time>2020-10-01T08:25:25.000Z</time>
      </trkpt>
      <trkpt lat="47.25601" lon="-2.23069">
        <ele>-11</ele>
        <time>2020-10-01T08:25:26.000Z</time>
      </trkpt>
      <trkpt lat="47.25603" lon="-2.23069">
        <ele>-11</ele>
        <time>2020-10-01T08:25:27.000Z</time>
      </trkpt>
      <trkpt lat="47.2561" lon="-2.23059">
        <ele>-11</ele>
        <time>2020-10-01T08:25:33.000Z</time>
      </trkpt>
      <trkpt lat="47.25613" lon="-2.23052">
        <ele>-11</ele>
        <time>2020-10-01T08:25:36.000Z</time>
      </trkpt>
      <trkpt lat="47.25616" lon="-2.23047">
        <ele>-11</ele>
        <time>2020-10-01T08:25:38.000Z</time>
      </trkpt>
      <trkpt lat="47.25618" lon="-2.23045">
        <ele>-10.60000038147</ele>
        <time>2020-10-01T08:25:39.000Z</time>
      </trkpt>
      <trkpt lat="47.25619" lon="-2.23042">
        <ele>-9.8000001907349</ele>
        <time>2020-10-01T08:25:40.000Z</time>
      </trkpt>
      <trkpt lat="47.25619" lon="-2.2304">
        <ele>-9.3999996185303</ele>
        <time>2020-10-01T08:25:41.000Z</time>
      </trkpt>
      <trkpt lat="47.25618" lon="-2.23036">
        <ele>-9</ele>
        <time>2020-10-01T08:25:42.000Z</time>
      </trkpt>
      <trkpt lat="47.25618" lon="-2.23033">
        <ele>-9</ele>
        <time>2020-10-01T08:25:43.000Z</time>
      </trkpt>
      <trkpt lat="47.25617" lon="-2.23031">
        <ele>-8.6000003814697</ele>
        <time>2020-10-01T08:25:44.000Z</time>
      </trkpt>
      <trkpt lat="47.25617" lon="-2.23028">
        <ele>-8.1999998092651</ele>
        <time>2020-10-01T08:25:45.000Z</time>
      </trkpt>
      <trkpt lat="47.25617" lon="-2.23026">
        <ele>-7.8000001907349</ele>
        <time>2020-10-01T08:25:46.000Z</time>
      </trkpt>
      <trkpt lat="47.25617" lon="-2.23023">
        <ele>-7.4000000953674</ele>
        <time>2020-10-01T08:25:47.000Z</time>
      </trkpt>
      <trkpt lat="47.25617" lon="-2.2302">
        <ele>-7</ele>
        <time>2020-10-01T08:25:48.000Z</time>
      </trkpt>
      <trkpt lat="47.25615" lon="-2.23014">
        <ele>-7</ele>
        <time>2020-10-01T08:25:50.000Z</time>
      </trkpt>
      <trkpt lat="47.2561" lon="-2.22997">
        <ele>-7</ele>
        <time>2020-10-01T08:25:56.000Z</time>
      </trkpt>
      <trkpt lat="47.25609" lon="-2.22994">
        <ele>-7</ele>
        <time>2020-10-01T08:25:57.000Z</time>
      </trkpt>
      <trkpt lat="47.25607" lon="-2.22982">
        <ele>-7</ele>
        <time>2020-10-01T08:26:01.000Z</time>
      </trkpt>
      <trkpt lat="47.25608" lon="-2.22966">
        <ele>-7</ele>
        <time>2020-10-01T08:26:07.000Z</time>
      </trkpt>
      <trkpt lat="47.25611" lon="-2.22954">
        <ele>-7</ele>
        <time>2020-10-01T08:26:14.000Z</time>
      </trkpt>
      <trkpt lat="47.25616" lon="-2.22947">
        <ele>-7</ele>
        <time>2020-10-01T08:26:18.000Z</time>
      </trkpt>
      <trkpt lat="47.25622" lon="-2.22947">
        <ele>-7</ele>
        <time>2020-10-01T08:26:20.000Z</time>
      </trkpt>
      <trkpt lat="47.25632" lon="-2.22948">
        <ele>-7</ele>
        <time>2020-10-01T08:26:25.000Z</time>
      </trkpt>
      <trkpt lat="47.25639" lon="-2.22946">
        <ele>-7</ele>
        <time>2020-10-01T08:26:31.000Z</time>
      </trkpt>
      <trkpt lat="47.25639" lon="-2.22944">
        <ele>-7</ele>
        <time>2020-10-01T08:26:32.000Z</time>
      </trkpt>
      <trkpt lat="47.25647" lon="-2.22941">
        <ele>-7</ele>
        <time>2020-10-01T08:26:35.000Z</time>
      </trkpt>
      <trkpt lat="47.25652" lon="-2.2294">
        <ele>-7</ele>
        <time>2020-10-01T08:26:38.000Z</time>
      </trkpt>
      <trkpt lat="47.25653" lon="-2.22941">
        <ele>-7</ele>
        <time>2020-10-01T08:26:39.000Z</time>
      </trkpt>
      <trkpt lat="47.25654" lon="-2.22942">
        <ele>-7</ele>
        <time>2020-10-01T08:26:40.000Z</time>
      </trkpt>
      <trkpt lat="47.25655" lon="-2.22957">
        <ele>-7</ele>
        <time>2020-10-01T08:26:45.000Z</time>
      </trkpt>
      <trkpt lat="47.25648" lon="-2.22981">
        <ele>-7.4000000953674</ele>
        <time>2020-10-01T08:26:49.000Z</time>
      </trkpt>
      <trkpt lat="47.25645" lon="-2.22988">
        <ele>-7.8000001907349</ele>
        <time>2020-10-01T08:26:50.000Z</time>
      </trkpt>
      <trkpt lat="47.25644" lon="-2.22994">
        <ele>-8.1999998092651</ele>
        <time>2020-10-01T08:26:51.000Z</time>
      </trkpt>
      <trkpt lat="47.25642" lon="-2.22999">
        <ele>-8.6000003814697</ele>
        <time>2020-10-01T08:26:52.000Z</time>
      </trkpt>
      <trkpt lat="47.25639" lon="-2.23002">
        <ele>-9</ele>
        <time>2020-10-01T08:26:53.000Z</time>
      </trkpt>
      <trkpt lat="47.25636" lon="-2.23003">
        <ele>-9</ele>
        <time>2020-10-01T08:26:54.000Z</time>
      </trkpt>
      <trkpt lat="47.2563" lon="-2.23">
        <ele>-9</ele>
        <time>2020-10-01T08:26:56.000Z</time>
      </trkpt>
      <trkpt lat="47.25625" lon="-2.22988">
        <ele>-9</ele>
        <time>2020-10-01T08:27:01.000Z</time>
      </trkpt>
      <trkpt lat="47.25627" lon="-2.2297">
        <ele>-9</ele>
        <time>2020-10-01T08:27:07.000Z</time>
      </trkpt>
      <trkpt lat="47.25629" lon="-2.22967">
        <ele>-9</ele>
        <time>2020-10-01T08:27:09.000Z</time>
      </trkpt>
      <trkpt lat="47.2563" lon="-2.22966">
        <ele>-9</ele>
        <time>2020-10-01T08:27:11.000Z</time>
      </trkpt>
      <trkpt lat="47.25633" lon="-2.22965">
        <ele>-9</ele>
        <time>2020-10-01T08:27:13.000Z</time>
      </trkpt>
      <trkpt lat="47.25637" lon="-2.22964">
        <ele>-9.3999996185303</ele>
        <time>2020-10-01T08:27:15.000Z</time>
      </trkpt>
      <trkpt lat="47.25641" lon="-2.22965">
        <ele>-9.8000001907349</ele>
        <time>2020-10-01T08:27:16.000Z</time>
      </trkpt>
      <trkpt lat="47.25645" lon="-2.22965">
        <ele>-10.39999961853</ele>
        <time>2020-10-01T08:27:17.000Z</time>
      </trkpt>
      <trkpt lat="47.25648" lon="-2.22964">
        <ele>-11.199999809265</ele>
        <time>2020-10-01T08:27:18.000Z</time>
      </trkpt>
      <trkpt lat="47.25651" lon="-2.22963">
        <ele>-11.199999809265</ele>
        <time>2020-10-01T08:27:19.000Z</time>
      </trkpt>
      <trkpt lat="47.25656" lon="-2.22959">
        <ele>-11.199999809265</ele>
        <time>2020-10-01T08:27:21.000Z</time>
      </trkpt>
      <trkpt lat="47.25657" lon="-2.22956">
        <ele>-11.199999809265</ele>
        <time>2020-10-01T08:27:22.000Z</time>
      </trkpt>
      <trkpt lat="47.25658" lon="-2.22954">
        <ele>-10.800000190735</ele>
        <time>2020-10-01T08:27:23.000Z</time>
      </trkpt>
      <trkpt lat="47.25658" lon="-2.22951">
        <ele>-10.199999809265</ele>
        <time>2020-10-01T08:27:24.000Z</time>
      </trkpt>
      <trkpt lat="47.25659" lon="-2.22948">
        <ele>-9.8000001907349</ele>
        <time>2020-10-01T08:27:25.000Z</time>
      </trkpt>
      <trkpt lat="47.25659" lon="-2.22945">
        <ele>-9.3999996185303</ele>
        <time>2020-10-01T08:27:26.000Z</time>
      </trkpt>
      <trkpt lat="47.2566" lon="-2.22943">
        <ele>-9</ele>
        <time>2020-10-01T08:27:27.000Z</time>
      </trkpt>
      <trkpt lat="47.25662" lon="-2.22938">
        <ele>-9</ele>
        <time>2020-10-01T08:27:30.000Z</time>
      </trkpt>
      <trkpt lat="47.25666" lon="-2.22918">
        <ele>-9</ele>
        <time>2020-10-01T08:27:36.000Z</time>
      </trkpt>
      <trkpt lat="47.25673" lon="-2.22885">
        <ele>-9</ele>
        <time>2020-10-01T08:27:42.000Z</time>
      </trkpt>
      <trkpt lat="47.25678" lon="-2.22873">
        <ele>-9</ele>
        <time>2020-10-01T08:27:44.000Z</time>
      </trkpt>
      <trkpt lat="47.25688" lon="-2.22856">
        <ele>-9</ele>
        <time>2020-10-01T08:27:47.000Z</time>
      </trkpt>
      <trkpt lat="47.25696" lon="-2.22847">
        <ele>-9</ele>
        <time>2020-10-01T08:27:49.000Z</time>
      </trkpt>
      <trkpt lat="47.25712" lon="-2.22834">
        <ele>-9</ele>
        <time>2020-10-01T08:27:52.000Z</time>
      </trkpt>
      <trkpt lat="47.25718" lon="-2.2283">
        <ele>-9.3999996185303</ele>
        <time>2020-10-01T08:27:53.000Z</time>
      </trkpt>
      <trkpt lat="47.25724" lon="-2.22825">
        <ele>-9.8000001907349</ele>
        <time>2020-10-01T08:27:54.000Z</time>
      </trkpt>
      <trkpt lat="47.2573" lon="-2.22821">
        <ele>-10.199999809265</ele>
        <time>2020-10-01T08:27:55.000Z</time>
      </trkpt>
      <trkpt lat="47.25736" lon="-2.22818">
        <ele>-10.60000038147</ele>
        <time>2020-10-01T08:27:56.000Z</time>
      </trkpt>
      <trkpt lat="47.25741" lon="-2.22813">
        <ele>-11</ele>
        <time>2020-10-01T08:27:57.000Z</time>
      </trkpt>
      <trkpt lat="47.25752" lon="-2.22805">
        <ele>-11</ele>
        <time>2020-10-01T08:27:59.000Z</time>
      </trkpt>
      <trkpt lat="47.25761" lon="-2.22797">
        <ele>-11</ele>
        <time>2020-10-01T08:28:02.000Z</time>
      </trkpt>
      <trkpt lat="47.25765" lon="-2.22792">
        <ele>-11</ele>
        <time>2020-10-01T08:28:04.000Z</time>
      </trkpt>
      <trkpt lat="47.25771" lon="-2.22786">
        <ele>-11</ele>
        <time>2020-10-01T08:28:06.000Z</time>
      </trkpt>
      <trkpt lat="47.25783" lon="-2.22762">
        <ele>-11</ele>
        <time>2020-10-01T08:28:12.000Z</time>
      </trkpt>
      <trkpt lat="47.25791" lon="-2.22739">
        <ele>-11</ele>
        <time>2020-10-01T08:28:17.000Z</time>
      </trkpt>
      <trkpt lat="47.25798" lon="-2.22708">
        <ele>-11</ele>
        <time>2020-10-01T08:28:24.000Z</time>
      </trkpt>
      <trkpt lat="47.25798" lon="-2.22692">
        <ele>-11</ele>
        <time>2020-10-01T08:28:29.000Z</time>
      </trkpt>
      <trkpt lat="47.25793" lon="-2.22676">
        <ele>-11</ele>
        <time>2020-10-01T08:28:34.000Z</time>
      </trkpt>
      <trkpt lat="47.25795" lon="-2.2265">
        <ele>-11</ele>
        <time>2020-10-01T08:28:40.000Z</time>
      </trkpt>
      <trkpt lat="47.25797" lon="-2.22623">
        <ele>-11</ele>
        <time>2020-10-01T08:28:47.000Z</time>
      </trkpt>
      <trkpt lat="47.25801" lon="-2.22587">
        <ele>-11</ele>
        <time>2020-10-01T08:28:55.000Z</time>
      </trkpt>
      <trkpt lat="47.25805" lon="-2.22546">
        <ele>-11</ele>
        <time>2020-10-01T08:29:03.000Z</time>
      </trkpt>
      <trkpt lat="47.25811" lon="-2.22507">
        <ele>-11</ele>
        <time>2020-10-01T08:29:10.000Z</time>
      </trkpt>
      <trkpt lat="47.25823" lon="-2.22448">
        <ele>-11</ele>
        <time>2020-10-01T08:29:20.000Z</time>
      </trkpt>
      <trkpt lat="47.25834" lon="-2.22404">
        <ele>-11</ele>
        <time>2020-10-01T08:29:28.000Z</time>
      </trkpt>
      <trkpt lat="47.25844" lon="-2.2236">
        <ele>-11</ele>
        <time>2020-10-01T08:29:36.000Z</time>
      </trkpt>
      <trkpt lat="47.25856" lon="-2.22334">
        <ele>-11</ele>
        <time>2020-10-01T08:29:42.000Z</time>
      </trkpt>
      <trkpt lat="47.25875" lon="-2.22314">
        <ele>-11</ele>
        <time>2020-10-01T08:29:48.000Z</time>
      </trkpt>
      <trkpt lat="47.25891" lon="-2.22317">
        <ele>-11</ele>
        <time>2020-10-01T08:29:52.000Z</time>
      </trkpt>
      <trkpt lat="47.25921" lon="-2.22335">
        <ele>-11</ele>
        <time>2020-10-01T08:30:00.000Z</time>
      </trkpt>
      <trkpt lat="47.25944" lon="-2.22354">
        <ele>-11</ele>
        <time>2020-10-01T08:30:07.000Z</time>
      </trkpt>
      <trkpt lat="47.25964" lon="-2.2237">
        <ele>-11</ele>
        <time>2020-10-01T08:30:14.000Z</time>
      </trkpt>
      <trkpt lat="47.25985" lon="-2.2238">
        <ele>-11</ele>
        <time>2020-10-01T08:30:20.000Z</time>
      </trkpt>
      <trkpt lat="47.2601" lon="-2.22381">
        <ele>-11</ele>
        <time>2020-10-01T08:30:27.000Z</time>
      </trkpt>
      <trkpt lat="47.26033" lon="-2.22389">
        <ele>-11</ele>
        <time>2020-10-01T08:30:35.000Z</time>
      </trkpt>
      <trkpt lat="47.2605" lon="-2.22406">
        <ele>-11</ele>
        <time>2020-10-01T08:30:41.000Z</time>
      </trkpt>
      <trkpt lat="47.26072" lon="-2.2243">
        <ele>-11</ele>
        <time>2020-10-01T08:30:48.000Z</time>
      </trkpt>
      <trkpt lat="47.26086" lon="-2.2244">
        <ele>-11</ele>
        <time>2020-10-01T08:30:52.000Z</time>
      </trkpt>
      <trkpt lat="47.26099" lon="-2.22445">
        <ele>-11</ele>
        <time>2020-10-01T08:30:55.000Z</time>
      </trkpt>
      <trkpt lat="47.26107" lon="-2.22448">
        <ele>-11</ele>
        <time>2020-10-01T08:30:57.000Z</time>
      </trkpt>
      <trkpt lat="47.26127" lon="-2.22455">
        <ele>-11</ele>
        <time>2020-10-01T08:31:02.000Z</time>
      </trkpt>
      <trkpt lat="47.26151" lon="-2.22461">
        <ele>-11</ele>
        <time>2020-10-01T08:31:08.000Z</time>
      </trkpt>
      <trkpt lat="47.26175" lon="-2.22455">
        <ele>-11</ele>
        <time>2020-10-01T08:31:14.000Z</time>
      </trkpt>
      <trkpt lat="47.26196" lon="-2.22457">
        <ele>-11</ele>
        <time>2020-10-01T08:31:20.000Z</time>
      </trkpt>
      <trkpt lat="47.26218" lon="-2.22467">
        <ele>-11</ele>
        <time>2020-10-01T08:31:27.000Z</time>
      </trkpt>
      <trkpt lat="47.26234" lon="-2.22479">
        <ele>-11</ele>
        <time>2020-10-01T08:31:32.000Z</time>
      </trkpt>
      <trkpt lat="47.26259" lon="-2.22497">
        <ele>-11</ele>
        <time>2020-10-01T08:31:39.000Z</time>
      </trkpt>
      <trkpt lat="47.26278" lon="-2.22511">
        <ele>-11</ele>
        <time>2020-10-01T08:31:45.000Z</time>
      </trkpt>
      <trkpt lat="47.26304" lon="-2.22522">
        <ele>-11</ele>
        <time>2020-10-01T08:31:52.000Z</time>
      </trkpt>
      <trkpt lat="47.26336" lon="-2.22533">
        <ele>-11</ele>
        <time>2020-10-01T08:32:00.000Z</time>
      </trkpt>
      <trkpt lat="47.26361" lon="-2.22539">
        <ele>-11</ele>
        <time>2020-10-01T08:32:07.000Z</time>
      </trkpt>
      <trkpt lat="47.26391" lon="-2.22537">
        <ele>-11</ele>
        <time>2020-10-01T08:32:14.000Z</time>
      </trkpt>
      <trkpt lat="47.26414" lon="-2.2253">
        <ele>-11</ele>
        <time>2020-10-01T08:32:20.000Z</time>
      </trkpt>
      <trkpt lat="47.26437" lon="-2.22521">
        <ele>-11</ele>
        <time>2020-10-01T08:32:26.000Z</time>
      </trkpt>
      <trkpt lat="47.26463" lon="-2.22515">
        <ele>-11</ele>
        <time>2020-10-01T08:32:33.000Z</time>
      </trkpt>
      <trkpt lat="47.26481" lon="-2.22509">
        <ele>-11</ele>
        <time>2020-10-01T08:32:38.000Z</time>
      </trkpt>
      <trkpt lat="47.26502" lon="-2.22497">
        <ele>-11</ele>
        <time>2020-10-01T08:32:44.000Z</time>
      </trkpt>
      <trkpt lat="47.26509" lon="-2.22491">
        <ele>-11</ele>
        <time>2020-10-01T08:32:46.000Z</time>
      </trkpt>
      <trkpt lat="47.26525" lon="-2.2247">
        <ele>-11</ele>
        <time>2020-10-01T08:32:52.000Z</time>
      </trkpt>
      <trkpt lat="47.2653" lon="-2.22455">
        <ele>-11</ele>
        <time>2020-10-01T08:32:55.000Z</time>
      </trkpt>
      <trkpt lat="47.2653" lon="-2.2245">
        <ele>-11</ele>
        <time>2020-10-01T08:32:56.000Z</time>
      </trkpt>
      <trkpt lat="47.26537" lon="-2.22439">
        <ele>-11</ele>
        <time>2020-10-01T08:32:59.000Z</time>
      </trkpt>
      <trkpt lat="47.26553" lon="-2.22414">
        <ele>-11</ele>
        <time>2020-10-01T08:33:05.000Z</time>
      </trkpt>
      <trkpt lat="47.26569" lon="-2.22396">
        <ele>-11</ele>
        <time>2020-10-01T08:33:10.000Z</time>
      </trkpt>
      <trkpt lat="47.26592" lon="-2.22357">
        <ele>-11</ele>
        <time>2020-10-01T08:33:18.000Z</time>
      </trkpt>
      <trkpt lat="47.26611" lon="-2.22314">
        <ele>-11</ele>
        <time>2020-10-01T08:33:26.000Z</time>
      </trkpt>
      <trkpt lat="47.26635" lon="-2.22273">
        <ele>-11</ele>
        <time>2020-10-01T08:33:34.000Z</time>
      </trkpt>
      <trkpt lat="47.26652" lon="-2.22243">
        <ele>-11</ele>
        <time>2020-10-01T08:33:40.000Z</time>
      </trkpt>
      <trkpt lat="47.26665" lon="-2.22217">
        <ele>-11</ele>
        <time>2020-10-01T08:33:45.000Z</time>
      </trkpt>
      <trkpt lat="47.2667" lon="-2.2221">
        <ele>-11</ele>
        <time>2020-10-01T08:33:47.000Z</time>
      </trkpt>
      <trkpt lat="47.26677" lon="-2.222">
        <ele>-11</ele>
        <time>2020-10-01T08:33:49.000Z</time>
      </trkpt>
      <trkpt lat="47.26685" lon="-2.22184">
        <ele>-11</ele>
        <time>2020-10-01T08:33:52.000Z</time>
      </trkpt>
      <trkpt lat="47.26694" lon="-2.22169">
        <ele>-11</ele>
        <time>2020-10-01T08:33:55.000Z</time>
      </trkpt>
      <trkpt lat="47.26695" lon="-2.22163">
        <ele>-11.39999961853</ele>
        <time>2020-10-01T08:33:56.000Z</time>
      </trkpt>
      <trkpt lat="47.26697" lon="-2.22158">
        <ele>-11.800000190735</ele>
        <time>2020-10-01T08:33:57.000Z</time>
      </trkpt>
      <trkpt lat="47.26699" lon="-2.22153">
        <ele>-12.39999961853</ele>
        <time>2020-10-01T08:33:58.000Z</time>
      </trkpt>
      <trkpt lat="47.26703" lon="-2.2215">
        <ele>-12.800000190735</ele>
        <time>2020-10-01T08:33:59.000Z</time>
      </trkpt>
      <trkpt lat="47.26707" lon="-2.22148">
        <ele>-13.199999809265</ele>
        <time>2020-10-01T08:34:00.000Z</time>
      </trkpt>
      <trkpt lat="47.26711" lon="-2.22146">
        <ele>-13.199999809265</ele>
        <time>2020-10-01T08:34:01.000Z</time>
      </trkpt>
      <trkpt lat="47.26714" lon="-2.22143">
        <ele>-13.199999809265</ele>
        <time>2020-10-01T08:34:02.000Z</time>
      </trkpt>
      <trkpt lat="47.26722" lon="-2.2213">
        <ele>-13.199999809265</ele>
        <time>2020-10-01T08:34:05.000Z</time>
      </trkpt>
      <trkpt lat="47.26734" lon="-2.22118">
        <ele>-13.199999809265</ele>
        <time>2020-10-01T08:34:10.000Z</time>
      </trkpt>
      <trkpt lat="47.26741" lon="-2.22117">
        <ele>-13.199999809265</ele>
        <time>2020-10-01T08:34:13.000Z</time>
      </trkpt>
      <trkpt lat="47.26746" lon="-2.22096">
        <ele>-13.199999809265</ele>
        <time>2020-10-01T08:34:17.000Z</time>
      </trkpt>
      <trkpt lat="47.26754" lon="-2.22075">
        <ele>-13.199999809265</ele>
        <time>2020-10-01T08:34:21.000Z</time>
      </trkpt>
      <trkpt lat="47.26759" lon="-2.22058">
        <ele>-13.199999809265</ele>
        <time>2020-10-01T08:34:24.000Z</time>
      </trkpt>
      <trkpt lat="47.26758" lon="-2.22035">
        <ele>-13.199999809265</ele>
        <time>2020-10-01T08:34:28.000Z</time>
      </trkpt>
      <trkpt lat="47.26761" lon="-2.22016">
        <ele>-13.199999809265</ele>
        <time>2020-10-01T08:34:31.000Z</time>
      </trkpt>
      <trkpt lat="47.26764" lon="-2.22003">
        <ele>-13.199999809265</ele>
        <time>2020-10-01T08:34:33.000Z</time>
      </trkpt>
      <trkpt lat="47.26766" lon="-2.21996">
        <ele>-13.199999809265</ele>
        <time>2020-10-01T08:34:34.000Z</time>
      </trkpt>
      <trkpt lat="47.26774" lon="-2.21963">
        <ele>-13.199999809265</ele>
        <time>2020-10-01T08:34:39.000Z</time>
      </trkpt>
      <trkpt lat="47.26785" lon="-2.21922">
        <ele>-13.199999809265</ele>
        <time>2020-10-01T08:34:45.000Z</time>
      </trkpt>
      <trkpt lat="47.26799" lon="-2.21869">
        <ele>-13.199999809265</ele>
        <time>2020-10-01T08:34:52.000Z</time>
      </trkpt>
      <trkpt lat="47.26815" lon="-2.21803">
        <ele>-13.199999809265</ele>
        <time>2020-10-01T08:35:00.000Z</time>
      </trkpt>
      <trkpt lat="47.26825" lon="-2.21763">
        <ele>-12.800000190735</ele>
        <time>2020-10-01T08:35:05.000Z</time>
      </trkpt>
      <trkpt lat="47.26827" lon="-2.21755">
        <ele>-12.39999961853</ele>
        <time>2020-10-01T08:35:06.000Z</time>
      </trkpt>
      <trkpt lat="47.26829" lon="-2.21747">
        <ele>-12</ele>
        <time>2020-10-01T08:35:07.000Z</time>
      </trkpt>
      <trkpt lat="47.26831" lon="-2.2174">
        <ele>-11</ele>
        <time>2020-10-01T08:35:08.000Z</time>
      </trkpt>
      <trkpt lat="47.26836" lon="-2.21717">
        <ele>-11</ele>
        <time>2020-10-01T08:35:11.000Z</time>
      </trkpt>
      <trkpt lat="47.26848" lon="-2.21657">
        <ele>-11</ele>
        <time>2020-10-01T08:35:19.000Z</time>
      </trkpt>
      <trkpt lat="47.2685" lon="-2.2165">
        <ele>-11</ele>
        <time>2020-10-01T08:35:20.000Z</time>
      </trkpt>
      <trkpt lat="47.26855" lon="-2.21636">
        <ele>-11</ele>
        <time>2020-10-01T08:35:22.000Z</time>
      </trkpt>
      <trkpt lat="47.26857" lon="-2.21629">
        <ele>-11</ele>
        <time>2020-10-01T08:35:23.000Z</time>
      </trkpt>
      <trkpt lat="47.26857" lon="-2.21622">
        <ele>-11</ele>
        <time>2020-10-01T08:35:24.000Z</time>
      </trkpt>
      <trkpt lat="47.2686" lon="-2.21597">
        <ele>-11</ele>
        <time>2020-10-01T08:35:27.000Z</time>
      </trkpt>
      <trkpt lat="47.26871" lon="-2.21536">
        <ele>-11</ele>
        <time>2020-10-01T08:35:35.000Z</time>
      </trkpt>
      <trkpt lat="47.26877" lon="-2.21493">
        <ele>-11</ele>
        <time>2020-10-01T08:35:41.000Z</time>
      </trkpt>
      <trkpt lat="47.26887" lon="-2.21441">
        <ele>-11</ele>
        <time>2020-10-01T08:35:48.000Z</time>
      </trkpt>
      <trkpt lat="47.26896" lon="-2.21389">
        <ele>-11</ele>
        <time>2020-10-01T08:35:55.000Z</time>
      </trkpt>
      <trkpt lat="47.26896" lon="-2.21381">
        <ele>-11</ele>
        <time>2020-10-01T08:35:56.000Z</time>
      </trkpt>
      <trkpt lat="47.26902" lon="-2.21348">
        <ele>-11</ele>
        <time>2020-10-01T08:36:00.000Z</time>
      </trkpt>
      <trkpt lat="47.26912" lon="-2.21305">
        <ele>-11</ele>
        <time>2020-10-01T08:36:05.000Z</time>
      </trkpt>
      <trkpt lat="47.26915" lon="-2.21297">
        <ele>-11</ele>
        <time>2020-10-01T08:36:06.000Z</time>
      </trkpt>
      <trkpt lat="47.26937" lon="-2.21264">
        <ele>-11</ele>
        <time>2020-10-01T08:36:11.000Z</time>
      </trkpt>
      <trkpt lat="47.26947" lon="-2.2125">
        <ele>-11</ele>
        <time>2020-10-01T08:36:13.000Z</time>
      </trkpt>
      <trkpt lat="47.26966" lon="-2.21222">
        <ele>-11</ele>
        <time>2020-10-01T08:36:17.000Z</time>
      </trkpt>
      <trkpt lat="47.26993" lon="-2.21183">
        <ele>-11</ele>
        <time>2020-10-01T08:36:23.000Z</time>
      </trkpt>
      <trkpt lat="47.27018" lon="-2.21144">
        <ele>-11</ele>
        <time>2020-10-01T08:36:29.000Z</time>
      </trkpt>
      <trkpt lat="47.27021" lon="-2.21137">
        <ele>-11</ele>
        <time>2020-10-01T08:36:30.000Z</time>
      </trkpt>
      <trkpt lat="47.27033" lon="-2.21105">
        <ele>-11</ele>
        <time>2020-10-01T08:36:34.000Z</time>
      </trkpt>
      <trkpt lat="47.2705" lon="-2.21059">
        <ele>-11</ele>
        <time>2020-10-01T08:36:40.000Z</time>
      </trkpt>
      <trkpt lat="47.27053" lon="-2.21053">
        <ele>-11</ele>
        <time>2020-10-01T08:36:41.000Z</time>
      </trkpt>
      <trkpt lat="47.27064" lon="-2.21027">
        <ele>-11</ele>
        <time>2020-10-01T08:36:45.000Z</time>
      </trkpt>
      <trkpt lat="47.27064" lon="-2.21019">
        <ele>-11</ele>
        <time>2020-10-01T08:36:46.000Z</time>
      </trkpt>
      <trkpt lat="47.27068" lon="-2.20995">
        <ele>-11</ele>
        <time>2020-10-01T08:36:49.000Z</time>
      </trkpt>
      <trkpt lat="47.27072" lon="-2.20981">
        <ele>-11</ele>
        <time>2020-10-01T08:36:51.000Z</time>
      </trkpt>
      <trkpt lat="47.27091" lon="-2.20921">
        <ele>-11</ele>
        <time>2020-10-01T08:36:59.000Z</time>
      </trkpt>
      <trkpt lat="47.27104" lon="-2.20875">
        <ele>-11</ele>
        <time>2020-10-01T08:37:05.000Z</time>
      </trkpt>
      <trkpt lat="47.27113" lon="-2.20816">
        <ele>-11</ele>
        <time>2020-10-01T08:37:12.000Z</time>
      </trkpt>
      <trkpt lat="47.27123" lon="-2.20732">
        <ele>-11</ele>
        <time>2020-10-01T08:37:22.000Z</time>
      </trkpt>
      <trkpt lat="47.27134" lon="-2.20666">
        <ele>-11</ele>
        <time>2020-10-01T08:37:30.000Z</time>
      </trkpt>
      <trkpt lat="47.27142" lon="-2.20598">
        <ele>-11</ele>
        <time>2020-10-01T08:37:38.000Z</time>
      </trkpt>
      <trkpt lat="47.27149" lon="-2.20544">
        <ele>-11.60000038147</ele>
        <time>2020-10-01T08:37:45.000Z</time>
      </trkpt>
      <trkpt lat="47.2715" lon="-2.20538">
        <ele>-12</ele>
        <time>2020-10-01T08:37:46.000Z</time>
      </trkpt>
      <trkpt lat="47.2715" lon="-2.20532">
        <ele>-12.39999961853</ele>
        <time>2020-10-01T08:37:47.000Z</time>
      </trkpt>
      <trkpt lat="47.27149" lon="-2.20528">
        <ele>-12.800000190735</ele>
        <time>2020-10-01T08:37:48.000Z</time>
      </trkpt>
      <trkpt lat="47.27147" lon="-2.20525">
        <ele>-13.199999809265</ele>
        <time>2020-10-01T08:37:49.000Z</time>
      </trkpt>
      <trkpt lat="47.27134" lon="-2.20501">
        <ele>-13.199999809265</ele>
        <time>2020-10-01T08:37:55.000Z</time>
      </trkpt>
      <trkpt lat="47.27109" lon="-2.20466">
        <ele>-13.199999809265</ele>
        <time>2020-10-01T08:38:03.000Z</time>
      </trkpt>
      <trkpt lat="47.271" lon="-2.20455">
        <ele>-13.199999809265</ele>
        <time>2020-10-01T08:38:07.000Z</time>
      </trkpt>
      <trkpt lat="47.27083" lon="-2.20445">
        <ele>-13.199999809265</ele>
        <time>2020-10-01T08:38:15.000Z</time>
      </trkpt>
      <trkpt lat="47.27064" lon="-2.20436">
        <ele>-13.199999809265</ele>
        <time>2020-10-01T08:38:23.000Z</time>
      </trkpt>
      <trkpt lat="47.27057" lon="-2.20423">
        <ele>-13.199999809265</ele>
        <time>2020-10-01T08:38:29.000Z</time>
      </trkpt>
      <trkpt lat="47.27053" lon="-2.2041">
        <ele>-13.199999809265</ele>
        <time>2020-10-01T08:38:34.000Z</time>
      </trkpt>
      <trkpt lat="47.27053" lon="-2.20407">
        <ele>-13.199999809265</ele>
        <time>2020-10-01T08:38:35.000Z</time>
      </trkpt>
      <trkpt lat="47.27057" lon="-2.2039">
        <ele>-13.199999809265</ele>
        <time>2020-10-01T08:38:41.000Z</time>
      </trkpt>
      <trkpt lat="47.27068" lon="-2.20387">
        <ele>-13.199999809265</ele>
        <time>2020-10-01T08:38:46.000Z</time>
      </trkpt>
      <trkpt lat="47.27074" lon="-2.20381">
        <ele>-13.199999809265</ele>
        <time>2020-10-01T08:38:48.000Z</time>
      </trkpt>
      <trkpt lat="47.2708" lon="-2.20373">
        <ele>-13.199999809265</ele>
        <time>2020-10-01T08:38:51.000Z</time>
      </trkpt>
      <trkpt lat="47.2708" lon="-2.20368">
        <ele>-13.199999809265</ele>
        <time>2020-10-01T08:38:52.000Z</time>
      </trkpt>
      <trkpt lat="47.27075" lon="-2.20347">
        <ele>-13.199999809265</ele>
        <time>2020-10-01T08:38:56.000Z</time>
      </trkpt>
      <trkpt lat="47.27073" lon="-2.20341">
        <ele>-13.199999809265</ele>
        <time>2020-10-01T08:38:57.000Z</time>
      </trkpt>
      <trkpt lat="47.27065" lon="-2.20302">
        <ele>-13.199999809265</ele>
        <time>2020-10-01T08:39:04.000Z</time>
      </trkpt>
      <trkpt lat="47.27063" lon="-2.20278">
        <ele>-13.199999809265</ele>
        <time>2020-10-01T08:39:09.000Z</time>
      </trkpt>
      <trkpt lat="47.27065" lon="-2.20274">
        <ele>-13.199999809265</ele>
        <time>2020-10-01T08:39:10.000Z</time>
      </trkpt>
      <trkpt lat="47.27074" lon="-2.20269">
        <ele>-13.199999809265</ele>
        <time>2020-10-01T08:39:13.000Z</time>
      </trkpt>
      <trkpt lat="47.27077" lon="-2.20267">
        <ele>-13.199999809265</ele>
        <time>2020-10-01T08:39:14.000Z</time>
      </trkpt>
      <trkpt lat="47.27095" lon="-2.2026">
        <ele>-13.199999809265</ele>
        <time>2020-10-01T08:39:21.000Z</time>
      </trkpt>
      <trkpt lat="47.27103" lon="-2.20253">
        <ele>-13.199999809265</ele>
        <time>2020-10-01T08:39:25.000Z</time>
      </trkpt>
      <trkpt lat="47.27103" lon="-2.20236">
        <ele>-13.199999809265</ele>
        <time>2020-10-01T08:39:29.000Z</time>
      </trkpt>
      <trkpt lat="47.27099" lon="-2.20204">
        <ele>-13.199999809265</ele>
        <time>2020-10-01T08:39:35.000Z</time>
      </trkpt>
      <trkpt lat="47.27093" lon="-2.20164">
        <ele>-13.199999809265</ele>
        <time>2020-10-01T08:39:42.000Z</time>
      </trkpt>
      <trkpt lat="47.27089" lon="-2.2014">
        <ele>-13.199999809265</ele>
        <time>2020-10-01T08:39:46.000Z</time>
      </trkpt>
      <trkpt lat="47.27089" lon="-2.20134">
        <ele>-13.199999809265</ele>
        <time>2020-10-01T08:39:47.000Z</time>
      </trkpt>
      <trkpt lat="47.27088" lon="-2.20074">
        <ele>-13.199999809265</ele>
        <time>2020-10-01T08:39:56.000Z</time>
      </trkpt>
      <trkpt lat="47.27088" lon="-2.20068">
        <ele>-13.199999809265</ele>
        <time>2020-10-01T08:39:57.000Z</time>
      </trkpt>
      <trkpt lat="47.27086" lon="-2.20033">
        <ele>-13.199999809265</ele>
        <time>2020-10-01T08:40:02.000Z</time>
      </trkpt>
      <trkpt lat="47.27084" lon="-2.19988">
        <ele>-13.199999809265</ele>
        <time>2020-10-01T08:40:09.000Z</time>
      </trkpt>
      <trkpt lat="47.27081" lon="-2.19966">
        <ele>-13.199999809265</ele>
        <time>2020-10-01T08:40:13.000Z</time>
      </trkpt>
      <trkpt lat="47.27078" lon="-2.19966">
        <ele>-13.199999809265</ele>
        <time>2020-10-01T08:40:14.000Z</time>
      </trkpt>
      <trkpt lat="47.27059" lon="-2.19978">
        <ele>-13.199999809265</ele>
        <time>2020-10-01T08:40:19.000Z</time>
      </trkpt>
      <trkpt lat="47.27035" lon="-2.19984">
        <ele>-13.199999809265</ele>
        <time>2020-10-01T08:40:25.000Z</time>
      </trkpt>
      <trkpt lat="47.27007" lon="-2.19981">
        <ele>-13.199999809265</ele>
        <time>2020-10-01T08:40:33.000Z</time>
      </trkpt>
      <trkpt lat="47.26988" lon="-2.19977">
        <ele>-13.199999809265</ele>
        <time>2020-10-01T08:40:39.000Z</time>
      </trkpt>
      <trkpt lat="47.26972" lon="-2.1998">
        <ele>-13.199999809265</ele>
        <time>2020-10-01T08:40:43.000Z</time>
      </trkpt>
      <trkpt lat="47.26968" lon="-2.19983">
        <ele>-13.199999809265</ele>
        <time>2020-10-01T08:40:44.000Z</time>
      </trkpt>
      <trkpt lat="47.26941" lon="-2.2">
        <ele>-13.199999809265</ele>
        <time>2020-10-01T08:40:51.000Z</time>
      </trkpt>
      <trkpt lat="47.26905" lon="-2.20025">
        <ele>-13.199999809265</ele>
        <time>2020-10-01T08:41:01.000Z</time>
      </trkpt>
      <trkpt lat="47.26882" lon="-2.20045">
        <ele>-13.199999809265</ele>
        <time>2020-10-01T08:41:08.000Z</time>
      </trkpt>
      <trkpt lat="47.26879" lon="-2.20047">
        <ele>-13.60000038147</ele>
        <time>2020-10-01T08:41:09.000Z</time>
      </trkpt>
      <trkpt lat="47.26877" lon="-2.2005">
        <ele>-14</ele>
        <time>2020-10-01T08:41:10.000Z</time>
      </trkpt>
      <trkpt lat="47.26875" lon="-2.20052">
        <ele>-14.39999961853</ele>
        <time>2020-10-01T08:41:11.000Z</time>
      </trkpt>
      <trkpt lat="47.26873" lon="-2.20054">
        <ele>-14.800000190735</ele>
        <time>2020-10-01T08:41:12.000Z</time>
      </trkpt>
      <trkpt lat="47.26871" lon="-2.20056">
        <ele>-15.39999961853</ele>
        <time>2020-10-01T08:41:13.000Z</time>
      </trkpt>
      <trkpt lat="47.26869" lon="-2.20057">
        <ele>-15.39999961853</ele>
        <time>2020-10-01T08:41:14.000Z</time>
      </trkpt>
      <trkpt lat="47.26859" lon="-2.20062">
        <ele>-15.39999961853</ele>
        <time>2020-10-01T08:41:20.000Z</time>
      </trkpt>
      <trkpt lat="47.26852" lon="-2.20067">
        <ele>-15.39999961853</ele>
        <time>2020-10-01T08:41:25.000Z</time>
      </trkpt>
      <trkpt lat="47.2685" lon="-2.20067">
        <ele>-15.39999961853</ele>
        <time>2020-10-01T08:41:26.000Z</time>
      </trkpt>
      <trkpt lat="47.26841" lon="-2.20074">
        <ele>-15.39999961853</ele>
        <time>2020-10-01T08:41:33.000Z</time>
      </trkpt>
      <trkpt lat="47.26832" lon="-2.2008">
        <ele>-15.39999961853</ele>
        <time>2020-10-01T08:41:40.000Z</time>
      </trkpt>
      <trkpt lat="47.26821" lon="-2.20087">
        <ele>-15.39999961853</ele>
        <time>2020-10-01T08:41:48.000Z</time>
      </trkpt>
      <trkpt lat="47.26809" lon="-2.20095">
        <ele>-15.39999961853</ele>
        <time>2020-10-01T08:41:55.000Z</time>
      </trkpt>
      <trkpt lat="47.26796" lon="-2.20105">
        <ele>-15.39999961853</ele>
        <time>2020-10-01T08:42:02.000Z</time>
      </trkpt>
      <trkpt lat="47.2678" lon="-2.20115">
        <ele>-15.39999961853</ele>
        <time>2020-10-01T08:42:09.000Z</time>
      </trkpt>
      <trkpt lat="47.26766" lon="-2.20126">
        <ele>-15.39999961853</ele>
        <time>2020-10-01T08:42:16.000Z</time>
      </trkpt>
      <trkpt lat="47.26751" lon="-2.20135">
        <ele>-15.39999961853</ele>
        <time>2020-10-01T08:42:23.000Z</time>
      </trkpt>
      <trkpt lat="47.26733" lon="-2.20147">
        <ele>-15.39999961853</ele>
        <time>2020-10-01T08:42:31.000Z</time>
      </trkpt>
      <trkpt lat="47.26715" lon="-2.20159">
        <ele>-15.39999961853</ele>
        <time>2020-10-01T08:42:39.000Z</time>
      </trkpt>
      <trkpt lat="47.26698" lon="-2.20166">
        <ele>-15.39999961853</ele>
        <time>2020-10-01T08:42:46.000Z</time>
      </trkpt>
      <trkpt lat="47.26685" lon="-2.20175">
        <ele>-15.39999961853</ele>
        <time>2020-10-01T08:42:52.000Z</time>
      </trkpt>
      <trkpt lat="47.26676" lon="-2.20187">
        <ele>-15.39999961853</ele>
        <time>2020-10-01T08:42:58.000Z</time>
      </trkpt>
      <trkpt lat="47.26666" lon="-2.20202">
        <ele>-15.39999961853</ele>
        <time>2020-10-01T08:43:05.000Z</time>
      </trkpt>
      <trkpt lat="47.26659" lon="-2.20221">
        <ele>-15.39999961853</ele>
        <time>2020-10-01T08:43:12.000Z</time>
      </trkpt>
      <trkpt lat="47.26658" lon="-2.2023">
        <ele>-15.39999961853</ele>
        <time>2020-10-01T08:43:17.000Z</time>
      </trkpt>
      <trkpt lat="47.2666" lon="-2.20224">
        <ele>-15.39999961853</ele>
        <time>2020-10-01T08:44:04.000Z</time>
      </trkpt>
      <trkpt lat="47.26662" lon="-2.2021">
        <ele>-15.39999961853</ele>
        <time>2020-10-01T08:44:10.000Z</time>
      </trkpt>
      <trkpt lat="47.26671" lon="-2.20192">
        <ele>-15.39999961853</ele>
        <time>2020-10-01T08:44:16.000Z</time>
      </trkpt>
      <trkpt lat="47.26691" lon="-2.20166">
        <ele>-15.39999961853</ele>
        <time>2020-10-01T08:44:24.000Z</time>
      </trkpt>
      <trkpt lat="47.26713" lon="-2.20152">
        <ele>-15.39999961853</ele>
        <time>2020-10-01T08:44:31.000Z</time>
      </trkpt>
      <trkpt lat="47.26721" lon="-2.20147">
        <ele>-15.39999961853</ele>
        <time>2020-10-01T08:44:33.000Z</time>
      </trkpt>
      <trkpt lat="47.26732" lon="-2.20142">
        <ele>-15.39999961853</ele>
        <time>2020-10-01T08:44:36.000Z</time>
      </trkpt>
      <trkpt lat="47.2674" lon="-2.20138">
        <ele>-15.39999961853</ele>
        <time>2020-10-01T08:44:38.000Z</time>
      </trkpt>
      <trkpt lat="47.26755" lon="-2.20131">
        <ele>-15.39999961853</ele>
        <time>2020-10-01T08:44:42.000Z</time>
      </trkpt>
      <trkpt lat="47.26759" lon="-2.20129">
        <ele>-15.39999961853</ele>
        <time>2020-10-01T08:44:43.000Z</time>
      </trkpt>
      <trkpt lat="47.26778" lon="-2.20115">
        <ele>-15.39999961853</ele>
        <time>2020-10-01T08:44:48.000Z</time>
      </trkpt>
      <trkpt lat="47.26806" lon="-2.20094">
        <ele>-15.39999961853</ele>
        <time>2020-10-01T08:44:57.000Z</time>
      </trkpt>
      <trkpt lat="47.26822" lon="-2.20081">
        <ele>-15.39999961853</ele>
        <time>2020-10-01T08:45:02.000Z</time>
      </trkpt>
      <trkpt lat="47.26829" lon="-2.20076">
        <ele>-15.39999961853</ele>
        <time>2020-10-01T08:45:04.000Z</time>
      </trkpt>
      <trkpt lat="47.2686" lon="-2.20055">
        <ele>-15.39999961853</ele>
        <time>2020-10-01T08:45:12.000Z</time>
      </trkpt>
      <trkpt lat="47.26892" lon="-2.20035">
        <ele>-15.39999961853</ele>
        <time>2020-10-01T08:45:21.000Z</time>
      </trkpt>
      <trkpt lat="47.26913" lon="-2.20021">
        <ele>-15.39999961853</ele>
        <time>2020-10-01T08:45:28.000Z</time>
      </trkpt>
      <trkpt lat="47.26933" lon="-2.20003">
        <ele>-15.39999961853</ele>
        <time>2020-10-01T08:45:36.000Z</time>
      </trkpt>
      <trkpt lat="47.26946" lon="-2.19995">
        <ele>-15.39999961853</ele>
        <time>2020-10-01T08:45:41.000Z</time>
      </trkpt>
      <trkpt lat="47.26969" lon="-2.19982">
        <ele>-15.39999961853</ele>
        <time>2020-10-01T08:45:48.000Z</time>
      </trkpt>
      <trkpt lat="47.26992" lon="-2.19972">
        <ele>-15.39999961853</ele>
        <time>2020-10-01T08:45:55.000Z</time>
      </trkpt>
      <trkpt lat="47.27022" lon="-2.1995">
        <ele>-15.39999961853</ele>
        <time>2020-10-01T08:46:04.000Z</time>
      </trkpt>
      <trkpt lat="47.27056" lon="-2.19927">
        <ele>-15.39999961853</ele>
        <time>2020-10-01T08:46:13.000Z</time>
      </trkpt>
      <trkpt lat="47.27081" lon="-2.19908">
        <ele>-15.39999961853</ele>
        <time>2020-10-01T08:46:21.000Z</time>
      </trkpt>
      <trkpt lat="47.27104" lon="-2.19898">
        <ele>-15.39999961853</ele>
        <time>2020-10-01T08:46:28.000Z</time>
      </trkpt>
      <trkpt lat="47.27128" lon="-2.19883">
        <ele>-15.39999961853</ele>
        <time>2020-10-01T08:46:35.000Z</time>
      </trkpt>
      <trkpt lat="47.27139" lon="-2.19865">
        <ele>-15.39999961853</ele>
        <time>2020-10-01T08:46:40.000Z</time>
      </trkpt>
      <trkpt lat="47.27151" lon="-2.1986">
        <ele>-15.39999961853</ele>
        <time>2020-10-01T08:46:45.000Z</time>
      </trkpt>
      <trkpt lat="47.27153" lon="-2.19861">
        <ele>-15.39999961853</ele>
        <time>2020-10-01T08:46:48.000Z</time>
      </trkpt>
      <trkpt lat="47.27153" lon="-2.19861">
        <ele>-15.39999961853</ele>
        <time>2020-10-01T08:46:49.000Z</time>
      </trkpt>
      <trkpt lat="47.27172" lon="-2.19874">
        <ele>-15.39999961853</ele>
        <time>2020-10-01T09:04:50.000Z</time>
      </trkpt>
      <trkpt lat="47.27174" lon="-2.19878">
        <ele>-15.39999961853</ele>
        <time>2020-10-01T09:04:53.000Z</time>
      </trkpt>
      <trkpt lat="47.27178" lon="-2.19882">
        <ele>-15.39999961853</ele>
        <time>2020-10-01T09:04:55.000Z</time>
      </trkpt>
      <trkpt lat="47.27185" lon="-2.19885">
        <ele>-15.39999961853</ele>
        <time>2020-10-01T09:04:58.000Z</time>
      </trkpt>
      <trkpt lat="47.27191" lon="-2.19888">
        <ele>-15.39999961853</ele>
        <time>2020-10-01T09:05:01.000Z</time>
      </trkpt>
      <trkpt lat="47.27201" lon="-2.19892">
        <ele>-15.39999961853</ele>
        <time>2020-10-01T09:05:05.000Z</time>
      </trkpt>
      <trkpt lat="47.27216" lon="-2.19898">
        <ele>-15.39999961853</ele>
        <time>2020-10-01T09:05:12.000Z</time>
      </trkpt>
      <trkpt lat="47.27226" lon="-2.19904">
        <ele>-15.39999961853</ele>
        <time>2020-10-01T09:05:19.000Z</time>
      </trkpt>
      <trkpt lat="47.27236" lon="-2.1992">
        <ele>-15.39999961853</ele>
        <time>2020-10-01T09:05:25.000Z</time>
      </trkpt>
      <trkpt lat="47.2724" lon="-2.19929">
        <ele>-15.39999961853</ele>
        <time>2020-10-01T09:05:28.000Z</time>
      </trkpt>
      <trkpt lat="47.27242" lon="-2.19936">
        <ele>-15.39999961853</ele>
        <time>2020-10-01T09:05:30.000Z</time>
      </trkpt>
      <trkpt lat="47.27242" lon="-2.19944">
        <ele>-15.39999961853</ele>
        <time>2020-10-01T09:05:32.000Z</time>
      </trkpt>
      <trkpt lat="47.27245" lon="-2.19964">
        <ele>-15.39999961853</ele>
        <time>2020-10-01T09:05:38.000Z</time>
      </trkpt>
      <trkpt lat="47.27247" lon="-2.19986">
        <ele>-15.39999961853</ele>
        <time>2020-10-01T09:05:44.000Z</time>
      </trkpt>
      <trkpt lat="47.27254" lon="-2.20011">
        <ele>-15.39999961853</ele>
        <time>2020-10-01T09:05:51.000Z</time>
      </trkpt>
      <trkpt lat="47.27257" lon="-2.20013">
        <ele>-15.39999961853</ele>
        <time>2020-10-01T09:05:52.000Z</time>
      </trkpt>
      <trkpt lat="47.27265" lon="-2.20012">
        <ele>-15.39999961853</ele>
        <time>2020-10-01T09:05:55.000Z</time>
      </trkpt>
      <trkpt lat="47.27269" lon="-2.20011">
        <ele>-15.39999961853</ele>
        <time>2020-10-01T09:05:56.000Z</time>
      </trkpt>
      <trkpt lat="47.27285" lon="-2.20006">
        <ele>-15.39999961853</ele>
        <time>2020-10-01T09:06:01.000Z</time>
      </trkpt>
      <trkpt lat="47.27304" lon="-2.20004">
        <ele>-15.39999961853</ele>
        <time>2020-10-01T09:06:07.000Z</time>
      </trkpt>
      <trkpt lat="47.27315" lon="-2.20001">
        <ele>-15.39999961853</ele>
        <time>2020-10-01T09:06:11.000Z</time>
      </trkpt>
      <trkpt lat="47.27322" lon="-2.19998">
        <ele>-15.39999961853</ele>
        <time>2020-10-01T09:06:14.000Z</time>
      </trkpt>
      <trkpt lat="47.2734" lon="-2.19992">
        <ele>-15.39999961853</ele>
        <time>2020-10-01T09:06:20.000Z</time>
      </trkpt>
      <trkpt lat="47.27365" lon="-2.19987">
        <ele>-15.39999961853</ele>
        <time>2020-10-01T09:06:27.000Z</time>
      </trkpt>
      <trkpt lat="47.27395" lon="-2.19977">
        <ele>-15.39999961853</ele>
        <time>2020-10-01T09:06:35.000Z</time>
      </trkpt>
      <trkpt lat="47.27421" lon="-2.19971">
        <ele>-15.39999961853</ele>
        <time>2020-10-01T09:06:43.000Z</time>
      </trkpt>
      <trkpt lat="47.27442" lon="-2.19967">
        <ele>-15.39999961853</ele>
        <time>2020-10-01T09:06:50.000Z</time>
      </trkpt>
      <trkpt lat="47.27469" lon="-2.1996">
        <ele>-15.39999961853</ele>
        <time>2020-10-01T09:06:58.000Z</time>
      </trkpt>
      <trkpt lat="47.27493" lon="-2.19953">
        <ele>-15.39999961853</ele>
        <time>2020-10-01T09:07:05.000Z</time>
      </trkpt>
      <trkpt lat="47.27511" lon="-2.19949">
        <ele>-15.39999961853</ele>
        <time>2020-10-01T09:07:10.000Z</time>
      </trkpt>
      <trkpt lat="47.27528" lon="-2.19945">
        <ele>-15.39999961853</ele>
        <time>2020-10-01T09:07:16.000Z</time>
      </trkpt>
      <trkpt lat="47.27535" lon="-2.1994">
        <ele>-15.39999961853</ele>
        <time>2020-10-01T09:07:20.000Z</time>
      </trkpt>
      <trkpt lat="47.27548" lon="-2.19934">
        <ele>-15.39999961853</ele>
        <time>2020-10-01T09:07:25.000Z</time>
      </trkpt>
      <trkpt lat="47.27552" lon="-2.19931">
        <ele>-15.39999961853</ele>
        <time>2020-10-01T09:07:26.000Z</time>
      </trkpt>
      <trkpt lat="47.27579" lon="-2.19925">
        <ele>-15.39999961853</ele>
        <time>2020-10-01T09:07:32.000Z</time>
      </trkpt>
      <trkpt lat="47.27612" lon="-2.19914">
        <ele>-15.39999961853</ele>
        <time>2020-10-01T09:07:40.000Z</time>
      </trkpt>
      <trkpt lat="47.27636" lon="-2.19907">
        <ele>-15.39999961853</ele>
        <time>2020-10-01T09:07:46.000Z</time>
      </trkpt>
      <trkpt lat="47.2764" lon="-2.19906">
        <ele>-15.39999961853</ele>
        <time>2020-10-01T09:07:47.000Z</time>
      </trkpt>
      <trkpt lat="47.27669" lon="-2.19898">
        <ele>-15.39999961853</ele>
        <time>2020-10-01T09:07:54.000Z</time>
      </trkpt>
      <trkpt lat="47.27694" lon="-2.19891">
        <ele>-15.39999961853</ele>
        <time>2020-10-01T09:08:00.000Z</time>
      </trkpt>
      <trkpt lat="47.27728" lon="-2.19882">
        <ele>-15.39999961853</ele>
        <time>2020-10-01T09:08:08.000Z</time>
      </trkpt>
      <trkpt lat="47.27759" lon="-2.19873">
        <ele>-15.39999961853</ele>
        <time>2020-10-01T09:08:15.000Z</time>
      </trkpt>
      <trkpt lat="47.27763" lon="-2.19872">
        <ele>-15.39999961853</ele>
        <time>2020-10-01T09:08:16.000Z</time>
      </trkpt>
      <trkpt lat="47.27778" lon="-2.19862">
        <ele>-15.39999961853</ele>
        <time>2020-10-01T09:08:20.000Z</time>
      </trkpt>
      <trkpt lat="47.2781" lon="-2.19851">
        <ele>-15.39999961853</ele>
        <time>2020-10-01T09:08:28.000Z</time>
      </trkpt>
      <trkpt lat="47.27827" lon="-2.19849">
        <ele>-15.39999961853</ele>
        <time>2020-10-01T09:08:32.000Z</time>
      </trkpt>
      <trkpt lat="47.27838" lon="-2.19851">
        <ele>-15.39999961853</ele>
        <time>2020-10-01T09:08:35.000Z</time>
      </trkpt>
      <trkpt lat="47.27866" lon="-2.19852">
        <ele>-15.39999961853</ele>
        <time>2020-10-01T09:08:43.000Z</time>
      </trkpt>
      <trkpt lat="47.27884" lon="-2.19852">
        <ele>-15.39999961853</ele>
        <time>2020-10-01T09:08:48.000Z</time>
      </trkpt>
      <trkpt lat="47.27902" lon="-2.19869">
        <ele>-15.39999961853</ele>
        <time>2020-10-01T09:08:55.000Z</time>
      </trkpt>
      <trkpt lat="47.27918" lon="-2.19886">
        <ele>-15.39999961853</ele>
        <time>2020-10-01T09:09:03.000Z</time>
      </trkpt>
      <trkpt lat="47.27929" lon="-2.19901">
        <ele>-15.39999961853</ele>
        <time>2020-10-01T09:09:11.000Z</time>
      </trkpt>
      <trkpt lat="47.27935" lon="-2.19918">
        <ele>-15.39999961853</ele>
        <time>2020-10-01T09:09:19.000Z</time>
      </trkpt>
      <trkpt lat="47.27936" lon="-2.19923">
        <ele>-15.39999961853</ele>
        <time>2020-10-01T09:09:21.000Z</time>
      </trkpt>
      <trkpt lat="47.27939" lon="-2.19932">
        <ele>-15.39999961853</ele>
        <time>2020-10-01T09:09:24.000Z</time>
      </trkpt>
      <trkpt lat="47.27939" lon="-2.19937">
        <ele>-15.39999961853</ele>
        <time>2020-10-01T09:09:26.000Z</time>
      </trkpt>
      <trkpt lat="47.27935" lon="-2.19939">
        <ele>-15.39999961853</ele>
        <time>2020-10-01T09:09:28.000Z</time>
      </trkpt>
      <trkpt lat="47.27929" lon="-2.19925">
        <ele>-15.39999961853</ele>
        <time>2020-10-01T09:09:32.000Z</time>
      </trkpt>
      <trkpt lat="47.27924" lon="-2.19913">
        <ele>-15.39999961853</ele>
        <time>2020-10-01T09:09:35.000Z</time>
      </trkpt>
      <trkpt lat="47.2792" lon="-2.19904">
        <ele>-15.39999961853</ele>
        <time>2020-10-01T09:09:37.000Z</time>
      </trkpt>
      <trkpt lat="47.27901" lon="-2.1988">
        <ele>-15.39999961853</ele>
        <time>2020-10-01T09:09:44.000Z</time>
      </trkpt>
      <trkpt lat="47.27879" lon="-2.19863">
        <ele>-15.39999961853</ele>
        <time>2020-10-01T09:09:51.000Z</time>
      </trkpt>
      <trkpt lat="47.27878" lon="-2.19852">
        <ele>-15.39999961853</ele>
        <time>2020-10-01T09:09:53.000Z</time>
      </trkpt>
      <trkpt lat="47.27878" lon="-2.1984">
        <ele>-15.39999961853</ele>
        <time>2020-10-01T09:09:55.000Z</time>
      </trkpt>
      <trkpt lat="47.2788" lon="-2.19828">
        <ele>-15.39999961853</ele>
        <time>2020-10-01T09:09:57.000Z</time>
      </trkpt>
      <trkpt lat="47.27884" lon="-2.19804">
        <ele>-15.39999961853</ele>
        <time>2020-10-01T09:10:01.000Z</time>
      </trkpt>
      <trkpt lat="47.27893" lon="-2.19764">
        <ele>-15.39999961853</ele>
        <time>2020-10-01T09:10:09.000Z</time>
      </trkpt>
      <trkpt lat="47.27896" lon="-2.19739">
        <ele>-15.39999961853</ele>
        <time>2020-10-01T09:10:13.000Z</time>
      </trkpt>
      <trkpt lat="47.279" lon="-2.19712">
        <ele>-15.39999961853</ele>
        <time>2020-10-01T09:10:17.000Z</time>
      </trkpt>
      <trkpt lat="47.27901" lon="-2.19699">
        <ele>-15.39999961853</ele>
        <time>2020-10-01T09:10:19.000Z</time>
      </trkpt>
      <trkpt lat="47.2791" lon="-2.19678">
        <ele>-15.39999961853</ele>
        <time>2020-10-01T09:10:23.000Z</time>
      </trkpt>
      <trkpt lat="47.27923" lon="-2.19673">
        <ele>-15.39999961853</ele>
        <time>2020-10-01T09:10:26.000Z</time>
      </trkpt>
      <trkpt lat="47.27928" lon="-2.19673">
        <ele>-15.39999961853</ele>
        <time>2020-10-01T09:10:27.000Z</time>
      </trkpt>
      <trkpt lat="47.27961" lon="-2.19662">
        <ele>-15.39999961853</ele>
        <time>2020-10-01T09:10:34.000Z</time>
      </trkpt>
      <trkpt lat="47.2799" lon="-2.19651">
        <ele>-15.39999961853</ele>
        <time>2020-10-01T09:10:40.000Z</time>
      </trkpt>
      <trkpt lat="47.28023" lon="-2.19643">
        <ele>-15.39999961853</ele>
        <time>2020-10-01T09:10:47.000Z</time>
      </trkpt>
      <trkpt lat="47.28027" lon="-2.19641">
        <ele>-15.800000190735</ele>
        <time>2020-10-01T09:10:48.000Z</time>
      </trkpt>
      <trkpt lat="47.28032" lon="-2.1964">
        <ele>-16.200000762939</ele>
        <time>2020-10-01T09:10:49.000Z</time>
      </trkpt>
      <trkpt lat="47.28037" lon="-2.19637">
        <ele>-17</ele>
        <time>2020-10-01T09:10:50.000Z</time>
      </trkpt>
      <trkpt lat="47.28042" lon="-2.19635">
        <ele>-17.39999961853</ele>
        <time>2020-10-01T09:10:51.000Z</time>
      </trkpt>
      <trkpt lat="47.28051" lon="-2.19632">
        <ele>-17.39999961853</ele>
        <time>2020-10-01T09:10:53.000Z</time>
      </trkpt>
      <trkpt lat="47.28056" lon="-2.1963">
        <ele>-17.39999961853</ele>
        <time>2020-10-01T09:10:54.000Z</time>
      </trkpt>
      <trkpt lat="47.28092" lon="-2.19621">
        <ele>-17.39999961853</ele>
        <time>2020-10-01T09:11:01.000Z</time>
      </trkpt>
      <trkpt lat="47.2813" lon="-2.19603">
        <ele>-17.39999961853</ele>
        <time>2020-10-01T09:11:08.000Z</time>
      </trkpt>
      <trkpt lat="47.28168" lon="-2.19581">
        <ele>-17.39999961853</ele>
        <time>2020-10-01T09:11:15.000Z</time>
      </trkpt>
      <trkpt lat="47.28199" lon="-2.1957">
        <ele>-17.39999961853</ele>
        <time>2020-10-01T09:11:21.000Z</time>
      </trkpt>
      <trkpt lat="47.28205" lon="-2.19568">
        <ele>-17.39999961853</ele>
        <time>2020-10-01T09:11:22.000Z</time>
      </trkpt>
      <trkpt lat="47.28223" lon="-2.19564">
        <ele>-17.39999961853</ele>
        <time>2020-10-01T09:11:25.000Z</time>
      </trkpt>
      <trkpt lat="47.28264" lon="-2.19548">
        <ele>-17.39999961853</ele>
        <time>2020-10-01T09:11:32.000Z</time>
      </trkpt>
      <trkpt lat="47.28295" lon="-2.19538">
        <ele>-17.39999961853</ele>
        <time>2020-10-01T09:11:38.000Z</time>
      </trkpt>
      <trkpt lat="47.28311" lon="-2.19532">
        <ele>-17.39999961853</ele>
        <time>2020-10-01T09:11:42.000Z</time>
      </trkpt>
      <trkpt lat="47.28315" lon="-2.19532">
        <ele>-17.39999961853</ele>
        <time>2020-10-01T09:11:43.000Z</time>
      </trkpt>
      <trkpt lat="47.28326" lon="-2.19533">
        <ele>-17.39999961853</ele>
        <time>2020-10-01T09:11:45.000Z</time>
      </trkpt>
      <trkpt lat="47.28353" lon="-2.19539">
        <ele>-17.39999961853</ele>
        <time>2020-10-01T09:11:50.000Z</time>
      </trkpt>
      <trkpt lat="47.28358" lon="-2.19538">
        <ele>-17.39999961853</ele>
        <time>2020-10-01T09:11:51.000Z</time>
      </trkpt>
      <trkpt lat="47.28362" lon="-2.19536">
        <ele>-17.39999961853</ele>
        <time>2020-10-01T09:11:52.000Z</time>
      </trkpt>
      <trkpt lat="47.28388" lon="-2.19526">
        <ele>-17.39999961853</ele>
        <time>2020-10-01T09:11:57.000Z</time>
      </trkpt>
      <trkpt lat="47.28424" lon="-2.19521">
        <ele>-17.39999961853</ele>
        <time>2020-10-01T09:12:04.000Z</time>
      </trkpt>
      <trkpt lat="47.2844" lon="-2.1952">
        <ele>-17.39999961853</ele>
        <time>2020-10-01T09:12:07.000Z</time>
      </trkpt>
      <trkpt lat="47.28451" lon="-2.19519">
        <ele>-17.39999961853</ele>
        <time>2020-10-01T09:12:09.000Z</time>
      </trkpt>
      <trkpt lat="47.28476" lon="-2.19515">
        <ele>-17.39999961853</ele>
        <time>2020-10-01T09:12:14.000Z</time>
      </trkpt>
      <trkpt lat="47.2848" lon="-2.19516">
        <ele>-17.39999961853</ele>
        <time>2020-10-01T09:12:15.000Z</time>
      </trkpt>
      <trkpt lat="47.28489" lon="-2.19522">
        <ele>-17.39999961853</ele>
        <time>2020-10-01T09:12:17.000Z</time>
      </trkpt>
      <trkpt lat="47.285" lon="-2.19537">
        <ele>-17</ele>
        <time>2020-10-01T09:12:20.000Z</time>
      </trkpt>
      <trkpt lat="47.28504" lon="-2.19543">
        <ele>-16.60000038147</ele>
        <time>2020-10-01T09:12:21.000Z</time>
      </trkpt>
      <trkpt lat="47.28507" lon="-2.19548">
        <ele>-16.200000762939</ele>
        <time>2020-10-01T09:12:22.000Z</time>
      </trkpt>
      <trkpt lat="47.28511" lon="-2.19554">
        <ele>-15.800000190735</ele>
        <time>2020-10-01T09:12:23.000Z</time>
      </trkpt>
      <trkpt lat="47.28514" lon="-2.19559">
        <ele>-15.39999961853</ele>
        <time>2020-10-01T09:12:24.000Z</time>
      </trkpt>
      <trkpt lat="47.28521" lon="-2.19568">
        <ele>-15.39999961853</ele>
        <time>2020-10-01T09:12:26.000Z</time>
      </trkpt>
      <trkpt lat="47.28529" lon="-2.19575">
        <ele>-15.39999961853</ele>
        <time>2020-10-01T09:12:28.000Z</time>
      </trkpt>
      <trkpt lat="47.28542" lon="-2.19577">
        <ele>-15.39999961853</ele>
        <time>2020-10-01T09:12:32.000Z</time>
      </trkpt>
      <trkpt lat="47.28559" lon="-2.19574">
        <ele>-15.39999961853</ele>
        <time>2020-10-01T09:12:36.000Z</time>
      </trkpt>
      <trkpt lat="47.28574" lon="-2.19572">
        <ele>-15.39999961853</ele>
        <time>2020-10-01T09:12:40.000Z</time>
      </trkpt>
      <trkpt lat="47.28578" lon="-2.19571">
        <ele>-15.39999961853</ele>
        <time>2020-10-01T09:12:41.000Z</time>
      </trkpt>
      <trkpt lat="47.28585" lon="-2.1957">
        <ele>-15.39999961853</ele>
        <time>2020-10-01T09:12:43.000Z</time>
      </trkpt>
      <trkpt lat="47.28591" lon="-2.19567">
        <ele>-15.39999961853</ele>
        <time>2020-10-01T09:12:45.000Z</time>
      </trkpt>
      <trkpt lat="47.28607" lon="-2.19563">
        <ele>-15.39999961853</ele>
        <time>2020-10-01T09:12:50.000Z</time>
      </trkpt>
      <trkpt lat="47.28624" lon="-2.19549">
        <ele>-15.39999961853</ele>
        <time>2020-10-01T09:12:54.000Z</time>
      </trkpt>
      <trkpt lat="47.28629" lon="-2.19545">
        <ele>-15.39999961853</ele>
        <time>2020-10-01T09:12:55.000Z</time>
      </trkpt>
      <trkpt lat="47.28646" lon="-2.19532">
        <ele>-15.39999961853</ele>
        <time>2020-10-01T09:13:00.000Z</time>
      </trkpt>
      <trkpt lat="47.28651" lon="-2.1953">
        <ele>-15.39999961853</ele>
        <time>2020-10-01T09:13:03.000Z</time>
      </trkpt>
      <trkpt lat="47.28653" lon="-2.19527">
        <ele>-15.39999961853</ele>
        <time>2020-10-01T09:14:06.000Z</time>
      </trkpt>
      <trkpt lat="47.28666" lon="-2.19515">
        <ele>-15.39999961853</ele>
        <time>2020-10-01T09:14:12.000Z</time>
      </trkpt>
      <trkpt lat="47.28683" lon="-2.19491">
        <ele>-15.39999961853</ele>
        <time>2020-10-01T09:14:20.000Z</time>
      </trkpt>
      <trkpt lat="47.28687" lon="-2.19483">
        <ele>-15</ele>
        <time>2020-10-01T09:14:22.000Z</time>
      </trkpt>
      <trkpt lat="47.28689" lon="-2.19479">
        <ele>-14.60000038147</ele>
        <time>2020-10-01T09:14:23.000Z</time>
      </trkpt>
      <trkpt lat="47.28691" lon="-2.19475">
        <ele>-14.199999809265</ele>
        <time>2020-10-01T09:14:24.000Z</time>
      </trkpt>
      <trkpt lat="47.28692" lon="-2.1947">
        <ele>-13.800000190735</ele>
        <time>2020-10-01T09:14:25.000Z</time>
      </trkpt>
      <trkpt lat="47.28693" lon="-2.19466">
        <ele>-13.39999961853</ele>
        <time>2020-10-01T09:14:26.000Z</time>
      </trkpt>
      <trkpt lat="47.28698" lon="-2.19447">
        <ele>-13.39999961853</ele>
        <time>2020-10-01T09:14:30.000Z</time>
      </trkpt>
      <trkpt lat="47.28702" lon="-2.19417">
        <ele>-13.39999961853</ele>
        <time>2020-10-01T09:14:35.000Z</time>
      </trkpt>
      <trkpt lat="47.28709" lon="-2.19398">
        <ele>-13.39999961853</ele>
        <time>2020-10-01T09:14:39.000Z</time>
      </trkpt>
      <trkpt lat="47.28722" lon="-2.19384">
        <ele>-13.39999961853</ele>
        <time>2020-10-01T09:14:43.000Z</time>
      </trkpt>
      <trkpt lat="47.28727" lon="-2.19374">
        <ele>-13.39999961853</ele>
        <time>2020-10-01T09:14:45.000Z</time>
      </trkpt>
      <trkpt lat="47.28733" lon="-2.19361">
        <ele>-13.39999961853</ele>
        <time>2020-10-01T09:14:48.000Z</time>
      </trkpt>
      <trkpt lat="47.28735" lon="-2.19355">
        <ele>-13.39999961853</ele>
        <time>2020-10-01T09:14:49.000Z</time>
      </trkpt>
      <trkpt lat="47.28749" lon="-2.19327">
        <ele>-13.39999961853</ele>
        <time>2020-10-01T09:14:55.000Z</time>
      </trkpt>
      <trkpt lat="47.28762" lon="-2.19307">
        <ele>-13.39999961853</ele>
        <time>2020-10-01T09:15:00.000Z</time>
      </trkpt>
      <trkpt lat="47.28782" lon="-2.19272">
        <ele>-13.39999961853</ele>
        <time>2020-10-01T09:15:07.000Z</time>
      </trkpt>
      <trkpt lat="47.28795" lon="-2.1925">
        <ele>-13.39999961853</ele>
        <time>2020-10-01T09:15:12.000Z</time>
      </trkpt>
      <trkpt lat="47.28797" lon="-2.19241">
        <ele>-13.39999961853</ele>
        <time>2020-10-01T09:15:15.000Z</time>
      </trkpt>
      <trkpt lat="47.28803" lon="-2.19232">
        <ele>-13.39999961853</ele>
        <time>2020-10-01T09:15:18.000Z</time>
      </trkpt>
      <trkpt lat="47.2881" lon="-2.19227">
        <ele>-13.39999961853</ele>
        <time>2020-10-01T09:15:20.000Z</time>
      </trkpt>
      <trkpt lat="47.28823" lon="-2.1923">
        <ele>-13.39999961853</ele>
        <time>2020-10-01T09:15:23.000Z</time>
      </trkpt>
      <trkpt lat="47.28842" lon="-2.19232">
        <ele>-13.39999961853</ele>
        <time>2020-10-01T09:15:27.000Z</time>
      </trkpt>
      <trkpt lat="47.28855" lon="-2.1923">
        <ele>-13.39999961853</ele>
        <time>2020-10-01T09:15:30.000Z</time>
      </trkpt>
      <trkpt lat="47.28859" lon="-2.19229">
        <ele>-13.39999961853</ele>
        <time>2020-10-01T09:15:31.000Z</time>
      </trkpt>
      <trkpt lat="47.28871" lon="-2.19227">
        <ele>-13.39999961853</ele>
        <time>2020-10-01T09:15:34.000Z</time>
      </trkpt>
      <trkpt lat="47.28875" lon="-2.19227">
        <ele>-13.39999961853</ele>
        <time>2020-10-01T09:15:35.000Z</time>
      </trkpt>
      <trkpt lat="47.28883" lon="-2.19227">
        <ele>-13.39999961853</ele>
        <time>2020-10-01T09:15:37.000Z</time>
      </trkpt>
      <trkpt lat="47.28896" lon="-2.19227">
        <ele>-13.39999961853</ele>
        <time>2020-10-01T09:15:40.000Z</time>
      </trkpt>
      <trkpt lat="47.28918" lon="-2.19233">
        <ele>-13.39999961853</ele>
        <time>2020-10-01T09:15:46.000Z</time>
      </trkpt>
      <trkpt lat="47.28936" lon="-2.19241">
        <ele>-13.39999961853</ele>
        <time>2020-10-01T09:15:52.000Z</time>
      </trkpt>
      <trkpt lat="47.28939" lon="-2.19248">
        <ele>-13.39999961853</ele>
        <time>2020-10-01T09:15:54.000Z</time>
      </trkpt>
      <trkpt lat="47.2894" lon="-2.19257">
        <ele>-13.39999961853</ele>
        <time>2020-10-01T09:15:56.000Z</time>
      </trkpt>
      <trkpt lat="47.28948" lon="-2.19267">
        <ele>-13.39999961853</ele>
        <time>2020-10-01T09:15:59.000Z</time>
      </trkpt>
      <trkpt lat="47.28951" lon="-2.1927">
        <ele>-13.39999961853</ele>
        <time>2020-10-01T09:16:00.000Z</time>
      </trkpt>
      <trkpt lat="47.28968" lon="-2.19301">
        <ele>-13.39999961853</ele>
        <time>2020-10-01T09:16:06.000Z</time>
      </trkpt>
      <trkpt lat="47.2897" lon="-2.19307">
        <ele>-13.39999961853</ele>
        <time>2020-10-01T09:16:07.000Z</time>
      </trkpt>
      <trkpt lat="47.28974" lon="-2.19319">
        <ele>-13.39999961853</ele>
        <time>2020-10-01T09:16:09.000Z</time>
      </trkpt>
      <trkpt lat="47.28977" lon="-2.19339">
        <ele>-13.39999961853</ele>
        <time>2020-10-01T09:16:12.000Z</time>
      </trkpt>
      <trkpt lat="47.28977" lon="-2.19346">
        <ele>-13.39999961853</ele>
        <time>2020-10-01T09:16:13.000Z</time>
      </trkpt>
      <trkpt lat="47.28983" lon="-2.19393">
        <ele>-13.39999961853</ele>
        <time>2020-10-01T09:16:20.000Z</time>
      </trkpt>
      <trkpt lat="47.28989" lon="-2.19441">
        <ele>-13.39999961853</ele>
        <time>2020-10-01T09:16:28.000Z</time>
      </trkpt>
      <trkpt lat="47.28995" lon="-2.19484">
        <ele>-13.39999961853</ele>
        <time>2020-10-01T09:16:35.000Z</time>
      </trkpt>
      <trkpt lat="47.28996" lon="-2.1949">
        <ele>-13.39999961853</ele>
        <time>2020-10-01T09:16:36.000Z</time>
      </trkpt>
      <trkpt lat="47.29003" lon="-2.19542">
        <ele>-13.39999961853</ele>
        <time>2020-10-01T09:16:45.000Z</time>
      </trkpt>
      <trkpt lat="47.29009" lon="-2.19594">
        <ele>-13.39999961853</ele>
        <time>2020-10-01T09:16:54.000Z</time>
      </trkpt>
      <trkpt lat="47.29016" lon="-2.19656">
        <ele>-13.39999961853</ele>
        <time>2020-10-01T09:17:04.000Z</time>
      </trkpt>
      <trkpt lat="47.29023" lon="-2.19712">
        <ele>-13.39999961853</ele>
        <time>2020-10-01T09:17:12.000Z</time>
      </trkpt>
      <trkpt lat="47.29029" lon="-2.19758">
        <ele>-13.39999961853</ele>
        <time>2020-10-01T09:17:19.000Z</time>
      </trkpt>
      <trkpt lat="47.29036" lon="-2.19823">
        <ele>-13.39999961853</ele>
        <time>2020-10-01T09:17:29.000Z</time>
      </trkpt>
      <trkpt lat="47.29037" lon="-2.19829">
        <ele>-13.39999961853</ele>
        <time>2020-10-01T09:17:30.000Z</time>
      </trkpt>
      <trkpt lat="47.29043" lon="-2.19872">
        <ele>-13.39999961853</ele>
        <time>2020-10-01T09:17:37.000Z</time>
      </trkpt>
      <trkpt lat="47.29047" lon="-2.19904">
        <ele>-13.39999961853</ele>
        <time>2020-10-01T09:17:42.000Z</time>
      </trkpt>
      <trkpt lat="47.29048" lon="-2.19916">
        <ele>-13.39999961853</ele>
        <time>2020-10-01T09:17:44.000Z</time>
      </trkpt>
      <trkpt lat="47.29051" lon="-2.19935">
        <ele>-13.39999961853</ele>
        <time>2020-10-01T09:17:49.000Z</time>
      </trkpt>
      <trkpt lat="47.2905" lon="-2.1994">
        <ele>-13.39999961853</ele>
        <time>2020-10-01T09:17:51.000Z</time>
      </trkpt>
      <trkpt lat="47.29046" lon="-2.19943">
        <ele>-13.39999961853</ele>
        <time>2020-10-01T09:17:53.000Z</time>
      </trkpt>
      <trkpt lat="47.2903" lon="-2.19947">
        <ele>-13.39999961853</ele>
        <time>2020-10-01T09:17:59.000Z</time>
      </trkpt>
      <trkpt lat="47.29023" lon="-2.19949">
        <ele>-12.800000190735</ele>
        <time>2020-10-01T09:18:02.000Z</time>
      </trkpt>
      <trkpt lat="47.2902" lon="-2.19949">
        <ele>-12.39999961853</ele>
        <time>2020-10-01T09:18:03.000Z</time>
      </trkpt>
      <trkpt lat="47.29018" lon="-2.1995">
        <ele>-11.800000190735</ele>
        <time>2020-10-01T09:18:04.000Z</time>
      </trkpt>
      <trkpt lat="47.29016" lon="-2.19951">
        <ele>-11.39999961853</ele>
        <time>2020-10-01T09:18:05.000Z</time>
      </trkpt>
      <trkpt lat="47.29014" lon="-2.19951">
        <ele>-10.800000190735</ele>
        <time>2020-10-01T09:18:06.000Z</time>
      </trkpt>
      <trkpt lat="47.29012" lon="-2.19951">
        <ele>-10.39999961853</ele>
        <time>2020-10-01T09:18:07.000Z</time>
      </trkpt>
      <trkpt lat="47.29011" lon="-2.19952">
        <ele>-10</ele>
        <time>2020-10-01T09:18:08.000Z</time>
      </trkpt>
      <trkpt lat="47.2901" lon="-2.19952">
        <ele>-9.6000003814697</ele>
        <time>2020-10-01T09:18:09.000Z</time>
      </trkpt>
      <trkpt lat="47.29011" lon="-2.19955">
        <ele>-9.1999998092651</ele>
        <time>2020-10-01T09:18:10.000Z</time>
      </trkpt>
      <trkpt lat="47.29012" lon="-2.19957">
        <ele>-8.8000001907349</ele>
        <time>2020-10-01T09:18:11.000Z</time>
      </trkpt>
      <trkpt lat="47.29014" lon="-2.19974">
        <ele>-8.8000001907349</ele>
        <time>2020-10-01T09:18:15.000Z</time>
      </trkpt>
      <trkpt lat="47.2902" lon="-2.2002">
        <ele>-8.8000001907349</ele>
        <time>2020-10-01T09:18:24.000Z</time>
      </trkpt>
      <trkpt lat="47.29023" lon="-2.20045">
        <ele>-8.3999996185303</ele>
        <time>2020-10-01T09:18:29.000Z</time>
      </trkpt>
      <trkpt lat="47.29024" lon="-2.2005">
        <ele>-8</ele>
        <time>2020-10-01T09:18:30.000Z</time>
      </trkpt>
      <trkpt lat="47.29024" lon="-2.20055">
        <ele>-7.5999999046326</ele>
        <time>2020-10-01T09:18:31.000Z</time>
      </trkpt>
      <trkpt lat="47.29025" lon="-2.2006">
        <ele>-7.1999998092651</ele>
        <time>2020-10-01T09:18:32.000Z</time>
      </trkpt>
      <trkpt lat="47.29026" lon="-2.20064">
        <ele>-6.8000001907349</ele>
        <time>2020-10-01T09:18:33.000Z</time>
      </trkpt>
      <trkpt lat="47.29029" lon="-2.20084">
        <ele>-6.8000001907349</ele>
        <time>2020-10-01T09:18:38.000Z</time>
      </trkpt>
      <trkpt lat="47.29031" lon="-2.20102">
        <ele>-6.8000001907349</ele>
        <time>2020-10-01T09:18:44.000Z</time>
      </trkpt>
      <trkpt lat="47.29034" lon="-2.2012">
        <ele>-6.8000001907349</ele>
        <time>2020-10-01T09:18:51.000Z</time>
      </trkpt>
      <trkpt lat="47.29034" lon="-2.20123">
        <ele>-7.1999998092651</ele>
        <time>2020-10-01T09:18:52.000Z</time>
      </trkpt>
      <trkpt lat="47.29035" lon="-2.20125">
        <ele>-7.5999999046326</ele>
        <time>2020-10-01T09:18:53.000Z</time>
      </trkpt>
      <trkpt lat="47.29035" lon="-2.20128">
        <ele>-8</ele>
        <time>2020-10-01T09:18:54.000Z</time>
      </trkpt>
      <trkpt lat="47.29035" lon="-2.20131">
        <ele>-8.6000003814697</ele>
        <time>2020-10-01T09:18:55.000Z</time>
      </trkpt>
      <trkpt lat="47.29035" lon="-2.20134">
        <ele>-9</ele>
        <time>2020-10-01T09:18:56.000Z</time>
      </trkpt>
      <trkpt lat="47.29036" lon="-2.2014">
        <ele>-9</ele>
        <time>2020-10-01T09:18:58.000Z</time>
      </trkpt>
      <trkpt lat="47.29036" lon="-2.20146">
        <ele>-9.3999996185303</ele>
        <time>2020-10-01T09:19:00.000Z</time>
      </trkpt>
      <trkpt lat="47.29037" lon="-2.20148">
        <ele>-10</ele>
        <time>2020-10-01T09:19:01.000Z</time>
      </trkpt>
      <trkpt lat="47.29037" lon="-2.2015">
        <ele>-10.39999961853</ele>
        <time>2020-10-01T09:19:02.000Z</time>
      </trkpt>
      <trkpt lat="47.29037" lon="-2.20153">
        <ele>-10.800000190735</ele>
        <time>2020-10-01T09:19:03.000Z</time>
      </trkpt>
      <trkpt lat="47.29037" lon="-2.20155">
        <ele>-11.39999961853</ele>
        <time>2020-10-01T09:19:04.000Z</time>
      </trkpt>
      <trkpt lat="47.29038" lon="-2.20157">
        <ele>-11.39999961853</ele>
        <time>2020-10-01T09:19:05.000Z</time>
      </trkpt>
      <trkpt lat="47.29037" lon="-2.20158">
        <ele>-11.800000190735</ele>
        <time>2020-10-01T09:19:06.000Z</time>
      </trkpt>
      <trkpt lat="47.29037" lon="-2.20159">
        <ele>-12.199999809265</ele>
        <time>2020-10-01T09:19:07.000Z</time>
      </trkpt>
      <trkpt lat="47.29037" lon="-2.2016">
        <ele>-12.800000190735</ele>
        <time>2020-10-01T09:19:08.000Z</time>
      </trkpt>
      <trkpt lat="47.29035" lon="-2.2016">
        <ele>-13.60000038147</ele>
        <time>2020-10-01T09:19:10.000Z</time>
      </trkpt>
      <trkpt lat="47.2903" lon="-2.2017">
        <ele>-13.60000038147</ele>
        <time>2020-10-01T09:19:13.000Z</time>
      </trkpt>
      <trkpt lat="47.29022" lon="-2.20177">
        <ele>-13.60000038147</ele>
        <time>2020-10-01T09:19:16.000Z</time>
      </trkpt>
      <trkpt lat="47.29018" lon="-2.20178">
        <ele>-13.60000038147</ele>
        <time>2020-10-01T09:19:17.000Z</time>
      </trkpt>
      <trkpt lat="47.28989" lon="-2.20187">
        <ele>-13.60000038147</ele>
        <time>2020-10-01T09:19:24.000Z</time>
      </trkpt>
      <trkpt lat="47.28956" lon="-2.20195">
        <ele>-13.60000038147</ele>
        <time>2020-10-01T09:19:32.000Z</time>
      </trkpt>
      <trkpt lat="47.28942" lon="-2.20195">
        <ele>-13.60000038147</ele>
        <time>2020-10-01T09:19:37.000Z</time>
      </trkpt>
      <trkpt lat="47.28935" lon="-2.20191">
        <ele>-13.60000038147</ele>
        <time>2020-10-01T09:19:40.000Z</time>
      </trkpt>
      <trkpt lat="47.28929" lon="-2.20194">
        <ele>-13.60000038147</ele>
        <time>2020-10-01T09:19:42.000Z</time>
      </trkpt>
      <trkpt lat="47.28907" lon="-2.20206">
        <ele>-13.60000038147</ele>
        <time>2020-10-01T09:19:48.000Z</time>
      </trkpt>
      <trkpt lat="47.2888" lon="-2.20218">
        <ele>-13.60000038147</ele>
        <time>2020-10-01T09:19:54.000Z</time>
      </trkpt>
      <trkpt lat="47.28866" lon="-2.20227">
        <ele>-13.60000038147</ele>
        <time>2020-10-01T09:19:57.000Z</time>
      </trkpt>
      <trkpt lat="47.28858" lon="-2.20236">
        <ele>-13.60000038147</ele>
        <time>2020-10-01T09:19:59.000Z</time>
      </trkpt>
      <trkpt lat="47.28836" lon="-2.20271">
        <ele>-13.60000038147</ele>
        <time>2020-10-01T09:20:06.000Z</time>
      </trkpt>
      <trkpt lat="47.28825" lon="-2.20289">
        <ele>-13.60000038147</ele>
        <time>2020-10-01T09:20:11.000Z</time>
      </trkpt>
      <trkpt lat="47.28812" lon="-2.20299">
        <ele>-13.60000038147</ele>
        <time>2020-10-01T09:20:15.000Z</time>
      </trkpt>
      <trkpt lat="47.28806" lon="-2.20307">
        <ele>-13.60000038147</ele>
        <time>2020-10-01T09:20:17.000Z</time>
      </trkpt>
      <trkpt lat="47.28801" lon="-2.20318">
        <ele>-13.60000038147</ele>
        <time>2020-10-01T09:20:19.000Z</time>
      </trkpt>
      <trkpt lat="47.28791" lon="-2.20342">
        <ele>-13.60000038147</ele>
        <time>2020-10-01T09:20:23.000Z</time>
      </trkpt>
      <trkpt lat="47.28788" lon="-2.20356">
        <ele>-13.60000038147</ele>
        <time>2020-10-01T09:20:25.000Z</time>
      </trkpt>
      <trkpt lat="47.28791" lon="-2.20377">
        <ele>-13.60000038147</ele>
        <time>2020-10-01T09:20:28.000Z</time>
      </trkpt>
      <trkpt lat="47.28792" lon="-2.20384">
        <ele>-13.60000038147</ele>
        <time>2020-10-01T09:20:29.000Z</time>
      </trkpt>
      <trkpt lat="47.288" lon="-2.20443">
        <ele>-13.60000038147</ele>
        <time>2020-10-01T09:20:37.000Z</time>
      </trkpt>
      <trkpt lat="47.28805" lon="-2.20482">
        <ele>-13.60000038147</ele>
        <time>2020-10-01T09:20:42.000Z</time>
      </trkpt>
      <trkpt lat="47.28808" lon="-2.20506">
        <ele>-13.60000038147</ele>
        <time>2020-10-01T09:20:45.000Z</time>
      </trkpt>
      <trkpt lat="47.28812" lon="-2.20528">
        <ele>-13.60000038147</ele>
        <time>2020-10-01T09:20:48.000Z</time>
      </trkpt>
      <trkpt lat="47.28816" lon="-2.20548">
        <ele>-13.60000038147</ele>
        <time>2020-10-01T09:20:51.000Z</time>
      </trkpt>
      <trkpt lat="47.28824" lon="-2.20587">
        <ele>-13.60000038147</ele>
        <time>2020-10-01T09:20:58.000Z</time>
      </trkpt>
      <trkpt lat="47.28817" lon="-2.20598">
        <ele>-13.60000038147</ele>
        <time>2020-10-01T09:21:01.000Z</time>
      </trkpt>
      <trkpt lat="47.28814" lon="-2.20602">
        <ele>-13.60000038147</ele>
        <time>2020-10-01T09:21:02.000Z</time>
      </trkpt>
      <trkpt lat="47.28795" lon="-2.20623">
        <ele>-13.60000038147</ele>
        <time>2020-10-01T09:21:07.000Z</time>
      </trkpt>
      <trkpt lat="47.28763" lon="-2.20654">
        <ele>-13.60000038147</ele>
        <time>2020-10-01T09:21:15.000Z</time>
      </trkpt>
      <trkpt lat="47.2874" lon="-2.20671">
        <ele>-13.60000038147</ele>
        <time>2020-10-01T09:21:21.000Z</time>
      </trkpt>
      <trkpt lat="47.28736" lon="-2.2067">
        <ele>-13.60000038147</ele>
        <time>2020-10-01T09:21:22.000Z</time>
      </trkpt>
      <trkpt lat="47.28723" lon="-2.20675">
        <ele>-13.60000038147</ele>
        <time>2020-10-01T09:21:25.000Z</time>
      </trkpt>
      <trkpt lat="47.28717" lon="-2.20685">
        <ele>-13.60000038147</ele>
        <time>2020-10-01T09:21:27.000Z</time>
      </trkpt>
      <trkpt lat="47.28711" lon="-2.20694">
        <ele>-13.60000038147</ele>
        <time>2020-10-01T09:21:29.000Z</time>
      </trkpt>
      <trkpt lat="47.28699" lon="-2.20715">
        <ele>-13.60000038147</ele>
        <time>2020-10-01T09:21:33.000Z</time>
      </trkpt>
      <trkpt lat="47.28698" lon="-2.20722">
        <ele>-13.60000038147</ele>
        <time>2020-10-01T09:21:34.000Z</time>
      </trkpt>
      <trkpt lat="47.28688" lon="-2.20777">
        <ele>-13.60000038147</ele>
        <time>2020-10-01T09:21:42.000Z</time>
      </trkpt>
      <trkpt lat="47.28687" lon="-2.20785">
        <ele>-13.60000038147</ele>
        <time>2020-10-01T09:21:43.000Z</time>
      </trkpt>
      <trkpt lat="47.28686" lon="-2.20826">
        <ele>-13.60000038147</ele>
        <time>2020-10-01T09:21:48.000Z</time>
      </trkpt>
      <trkpt lat="47.28682" lon="-2.20896">
        <ele>-13.60000038147</ele>
        <time>2020-10-01T09:21:57.000Z</time>
      </trkpt>
      <trkpt lat="47.28686" lon="-2.20948">
        <ele>-13.60000038147</ele>
        <time>2020-10-01T09:22:04.000Z</time>
      </trkpt>
      <trkpt lat="47.28687" lon="-2.20968">
        <ele>-13.60000038147</ele>
        <time>2020-10-01T09:22:07.000Z</time>
      </trkpt>
      <trkpt lat="47.28692" lon="-2.20979">
        <ele>-13.60000038147</ele>
        <time>2020-10-01T09:22:09.000Z</time>
      </trkpt>
      <trkpt lat="47.28696" lon="-2.20989">
        <ele>-13.60000038147</ele>
        <time>2020-10-01T09:22:12.000Z</time>
      </trkpt>
      <trkpt lat="47.28697" lon="-2.20992">
        <ele>-13.199999809265</ele>
        <time>2020-10-01T09:22:13.000Z</time>
      </trkpt>
      <trkpt lat="47.28697" lon="-2.20994">
        <ele>-12.800000190735</ele>
        <time>2020-10-01T09:22:14.000Z</time>
      </trkpt>
      <trkpt lat="47.28698" lon="-2.20996">
        <ele>-12.39999961853</ele>
        <time>2020-10-01T09:22:15.000Z</time>
      </trkpt>
      <trkpt lat="47.28698" lon="-2.20997">
        <ele>-11.800000190735</ele>
        <time>2020-10-01T09:22:17.000Z</time>
      </trkpt>
      <trkpt lat="47.28698" lon="-2.20997">
        <ele>-11.199999809265</ele>
        <time>2020-10-01T09:22:18.000Z</time>
      </trkpt>
      <trkpt lat="47.28698" lon="-2.20998">
        <ele>-10.800000190735</ele>
        <time>2020-10-01T09:22:19.000Z</time>
      </trkpt>
      <trkpt lat="47.28698" lon="-2.20999">
        <ele>-10.199999809265</ele>
        <time>2020-10-01T09:22:20.000Z</time>
      </trkpt>
      <trkpt lat="47.28698" lon="-2.21">
        <ele>-9.6000003814697</ele>
        <time>2020-10-01T09:22:21.000Z</time>
      </trkpt>
      <trkpt lat="47.28698" lon="-2.21">
        <ele>-9</ele>
        <time>2020-10-01T09:22:22.000Z</time>
      </trkpt>
      <trkpt lat="47.28698" lon="-2.21003">
        <ele>-6.8000001907349</ele>
        <time>2020-10-01T09:22:43.000Z</time>
      </trkpt>
      <trkpt lat="47.28698" lon="-2.21002">
        <ele>-6.8000001907349</ele>
        <time>2020-10-01T09:22:44.000Z</time>
      </trkpt>
      <trkpt lat="47.28699" lon="-2.21001">
        <ele>-6.8000001907349</ele>
        <time>2020-10-01T09:22:46.000Z</time>
      </trkpt>
      <trkpt lat="47.28698" lon="-2.20998">
        <ele>-6.8000001907349</ele>
        <time>2020-10-01T09:23:15.000Z</time>
      </trkpt>
      <trkpt lat="47.28696" lon="-2.20994">
        <ele>-6.8000001907349</ele>
        <time>2020-10-01T09:23:17.000Z</time>
      </trkpt>
      <trkpt lat="47.28695" lon="-2.2099">
        <ele>-7.1999998092651</ele>
        <time>2020-10-01T09:23:18.000Z</time>
      </trkpt>
      <trkpt lat="47.28694" lon="-2.20987">
        <ele>-7.5999999046326</ele>
        <time>2020-10-01T09:23:19.000Z</time>
      </trkpt>
      <trkpt lat="47.28693" lon="-2.20984">
        <ele>-8</ele>
        <time>2020-10-01T09:23:20.000Z</time>
      </trkpt>
      <trkpt lat="47.28691" lon="-2.2098">
        <ele>-8.6000003814697</ele>
        <time>2020-10-01T09:23:21.000Z</time>
      </trkpt>
      <trkpt lat="47.2869" lon="-2.20976">
        <ele>-9.1999998092651</ele>
        <time>2020-10-01T09:23:22.000Z</time>
      </trkpt>
      <trkpt lat="47.28689" lon="-2.20974">
        <ele>-9.8000001907349</ele>
        <time>2020-10-01T09:23:23.000Z</time>
      </trkpt>
      <trkpt lat="47.28687" lon="-2.20972">
        <ele>-10.39999961853</ele>
        <time>2020-10-01T09:23:24.000Z</time>
      </trkpt>
      <trkpt lat="47.28687" lon="-2.20971">
        <ele>-11</ele>
        <time>2020-10-01T09:23:25.000Z</time>
      </trkpt>
      <trkpt lat="47.28686" lon="-2.2097">
        <ele>-11.60000038147</ele>
        <time>2020-10-01T09:23:26.000Z</time>
      </trkpt>
      <trkpt lat="47.28685" lon="-2.20972">
        <ele>-12.199999809265</ele>
        <time>2020-10-01T09:23:27.000Z</time>
      </trkpt>
      <trkpt lat="47.28685" lon="-2.20973">
        <ele>-12.800000190735</ele>
        <time>2020-10-01T09:23:28.000Z</time>
      </trkpt>
      <trkpt lat="47.28685" lon="-2.20974">
        <ele>-13.39999961853</ele>
        <time>2020-10-01T09:23:29.000Z</time>
      </trkpt>
      <trkpt lat="47.28685" lon="-2.20974">
        <ele>-14</ele>
        <time>2020-10-01T09:23:30.000Z</time>
      </trkpt>
      <trkpt lat="47.28685" lon="-2.20975">
        <ele>-14</ele>
        <time>2020-10-01T09:23:31.000Z</time>
      </trkpt>
      <trkpt lat="47.28686" lon="-2.20977">
        <ele>-14</ele>
        <time>2020-10-01T09:24:17.000Z</time>
      </trkpt>
      <trkpt lat="47.28686" lon="-2.20981">
        <ele>-14</ele>
        <time>2020-10-01T09:24:19.000Z</time>
      </trkpt>
      <trkpt lat="47.28688" lon="-2.20998">
        <ele>-14</ele>
        <time>2020-10-01T09:24:25.000Z</time>
      </trkpt>
      <trkpt lat="47.28691" lon="-2.21014">
        <ele>-14</ele>
        <time>2020-10-01T09:24:31.000Z</time>
      </trkpt>
      <trkpt lat="47.28696" lon="-2.21038">
        <ele>-14</ele>
        <time>2020-10-01T09:24:36.000Z</time>
      </trkpt>
      <trkpt lat="47.28702" lon="-2.21063">
        <ele>-14</ele>
        <time>2020-10-01T09:24:41.000Z</time>
      </trkpt>
      <trkpt lat="47.2871" lon="-2.2109">
        <ele>-14</ele>
        <time>2020-10-01T09:24:46.000Z</time>
      </trkpt>
      <trkpt lat="47.28722" lon="-2.21139">
        <ele>-14</ele>
        <time>2020-10-01T09:24:54.000Z</time>
      </trkpt>
      <trkpt lat="47.28735" lon="-2.2119">
        <ele>-14</ele>
        <time>2020-10-01T09:25:04.000Z</time>
      </trkpt>
      <trkpt lat="47.28741" lon="-2.21228">
        <ele>-14</ele>
        <time>2020-10-01T09:25:11.000Z</time>
      </trkpt>
      <trkpt lat="47.28746" lon="-2.21273">
        <ele>-14</ele>
        <time>2020-10-01T09:25:18.000Z</time>
      </trkpt>
      <trkpt lat="47.28753" lon="-2.21328">
        <ele>-14</ele>
        <time>2020-10-01T09:25:26.000Z</time>
      </trkpt>
      <trkpt lat="47.28761" lon="-2.2139">
        <ele>-14</ele>
        <time>2020-10-01T09:25:35.000Z</time>
      </trkpt>
      <trkpt lat="47.2877" lon="-2.21458">
        <ele>-14</ele>
        <time>2020-10-01T09:25:44.000Z</time>
      </trkpt>
      <trkpt lat="47.28779" lon="-2.21531">
        <ele>-14</ele>
        <time>2020-10-01T09:25:53.000Z</time>
      </trkpt>
      <trkpt lat="47.28786" lon="-2.21594">
        <ele>-14</ele>
        <time>2020-10-01T09:26:01.000Z</time>
      </trkpt>
      <trkpt lat="47.28791" lon="-2.21624">
        <ele>-14</ele>
        <time>2020-10-01T09:26:05.000Z</time>
      </trkpt>
      <trkpt lat="47.28793" lon="-2.21638">
        <ele>-14</ele>
        <time>2020-10-01T09:26:07.000Z</time>
      </trkpt>
      <trkpt lat="47.28797" lon="-2.21672">
        <ele>-14</ele>
        <time>2020-10-01T09:26:13.000Z</time>
      </trkpt>
      <trkpt lat="47.28796" lon="-2.21709">
        <ele>-14</ele>
        <time>2020-10-01T09:26:19.000Z</time>
      </trkpt>
      <trkpt lat="47.28793" lon="-2.21759">
        <ele>-14</ele>
        <time>2020-10-01T09:26:27.000Z</time>
      </trkpt>
      <trkpt lat="47.2879" lon="-2.21813">
        <ele>-14</ele>
        <time>2020-10-01T09:26:36.000Z</time>
      </trkpt>
      <trkpt lat="47.2879" lon="-2.2185">
        <ele>-14</ele>
        <time>2020-10-01T09:26:43.000Z</time>
      </trkpt>
      <trkpt lat="47.28789" lon="-2.21882">
        <ele>-14</ele>
        <time>2020-10-01T09:26:49.000Z</time>
      </trkpt>
      <trkpt lat="47.28791" lon="-2.21906">
        <ele>-14</ele>
        <time>2020-10-01T09:26:55.000Z</time>
      </trkpt>
      <trkpt lat="47.28791" lon="-2.21925">
        <ele>-14</ele>
        <time>2020-10-01T09:27:00.000Z</time>
      </trkpt>
      <trkpt lat="47.28792" lon="-2.21938">
        <ele>-13.39999961853</ele>
        <time>2020-10-01T09:27:04.000Z</time>
      </trkpt>
      <trkpt lat="47.28792" lon="-2.2194">
        <ele>-13</ele>
        <time>2020-10-01T09:27:05.000Z</time>
      </trkpt>
      <trkpt lat="47.28792" lon="-2.21943">
        <ele>-12.60000038147</ele>
        <time>2020-10-01T09:27:06.000Z</time>
      </trkpt>
      <trkpt lat="47.28792" lon="-2.21946">
        <ele>-12.199999809265</ele>
        <time>2020-10-01T09:27:07.000Z</time>
      </trkpt>
      <trkpt lat="47.28793" lon="-2.21948">
        <ele>-11.800000190735</ele>
        <time>2020-10-01T09:27:08.000Z</time>
      </trkpt>
      <trkpt lat="47.28794" lon="-2.21956">
        <ele>-11.39999961853</ele>
        <time>2020-10-01T09:27:11.000Z</time>
      </trkpt>
      <trkpt lat="47.28794" lon="-2.21958">
        <ele>-11</ele>
        <time>2020-10-01T09:27:12.000Z</time>
      </trkpt>
      <trkpt lat="47.28794" lon="-2.2196">
        <ele>-10.39999961853</ele>
        <time>2020-10-01T09:27:13.000Z</time>
      </trkpt>
      <trkpt lat="47.28795" lon="-2.21962">
        <ele>-10</ele>
        <time>2020-10-01T09:27:14.000Z</time>
      </trkpt>
      <trkpt lat="47.28794" lon="-2.21963">
        <ele>-9.6000003814697</ele>
        <time>2020-10-01T09:27:15.000Z</time>
      </trkpt>
      <trkpt lat="47.28791" lon="-2.21965">
        <ele>-9.6000003814697</ele>
        <time>2020-10-01T09:27:17.000Z</time>
      </trkpt>
      <trkpt lat="47.28783" lon="-2.21974">
        <ele>-9.6000003814697</ele>
        <time>2020-10-01T09:27:21.000Z</time>
      </trkpt>
      <trkpt lat="47.2877" lon="-2.2198">
        <ele>-9.6000003814697</ele>
        <time>2020-10-01T09:27:26.000Z</time>
      </trkpt>
      <trkpt lat="47.28761" lon="-2.21989">
        <ele>-9.6000003814697</ele>
        <time>2020-10-01T09:27:30.000Z</time>
      </trkpt>
      <trkpt lat="47.2875" lon="-2.21996">
        <ele>-9.6000003814697</ele>
        <time>2020-10-01T09:27:35.000Z</time>
      </trkpt>
      <trkpt lat="47.28738" lon="-2.21996">
        <ele>-9.6000003814697</ele>
        <time>2020-10-01T09:27:40.000Z</time>
      </trkpt>
      <trkpt lat="47.28729" lon="-2.21978">
        <ele>-9.6000003814697</ele>
        <time>2020-10-01T09:27:44.000Z</time>
      </trkpt>
      <trkpt lat="47.28718" lon="-2.2195">
        <ele>-10</ele>
        <time>2020-10-01T09:27:49.000Z</time>
      </trkpt>
      <trkpt lat="47.28716" lon="-2.21945">
        <ele>-10.60000038147</ele>
        <time>2020-10-01T09:27:50.000Z</time>
      </trkpt>
      <trkpt lat="47.28714" lon="-2.21941">
        <ele>-11</ele>
        <time>2020-10-01T09:27:51.000Z</time>
      </trkpt>
      <trkpt lat="47.28712" lon="-2.21936">
        <ele>-11.60000038147</ele>
        <time>2020-10-01T09:27:52.000Z</time>
      </trkpt>
      <trkpt lat="47.2871" lon="-2.21931">
        <ele>-12.199999809265</ele>
        <time>2020-10-01T09:27:53.000Z</time>
      </trkpt>
      <trkpt lat="47.28708" lon="-2.21928">
        <ele>-12.60000038147</ele>
        <time>2020-10-01T09:27:54.000Z</time>
      </trkpt>
      <trkpt lat="47.28707" lon="-2.21925">
        <ele>-13</ele>
        <time>2020-10-01T09:27:55.000Z</time>
      </trkpt>
      <trkpt lat="47.28705" lon="-2.21924">
        <ele>-13.60000038147</ele>
        <time>2020-10-01T09:27:56.000Z</time>
      </trkpt>
      <trkpt lat="47.28704" lon="-2.21926">
        <ele>-14</ele>
        <time>2020-10-01T09:27:57.000Z</time>
      </trkpt>
      <trkpt lat="47.28703" lon="-2.2193">
        <ele>-14.39999961853</ele>
        <time>2020-10-01T09:27:58.000Z</time>
      </trkpt>
      <trkpt lat="47.28709" lon="-2.21944">
        <ele>-14.39999961853</ele>
        <time>2020-10-01T09:28:01.000Z</time>
      </trkpt>
      <trkpt lat="47.28711" lon="-2.21949">
        <ele>-14.39999961853</ele>
        <time>2020-10-01T09:28:02.000Z</time>
      </trkpt>
      <trkpt lat="47.28721" lon="-2.21982">
        <ele>-14.39999961853</ele>
        <time>2020-10-01T09:28:07.000Z</time>
      </trkpt>
      <trkpt lat="47.2874" lon="-2.22035">
        <ele>-14.39999961853</ele>
        <time>2020-10-01T09:28:15.000Z</time>
      </trkpt>
      <trkpt lat="47.28759" lon="-2.2209">
        <ele>-14.39999961853</ele>
        <time>2020-10-01T09:28:23.000Z</time>
      </trkpt>
      <trkpt lat="47.28778" lon="-2.22142">
        <ele>-14.39999961853</ele>
        <time>2020-10-01T09:28:30.000Z</time>
      </trkpt>
      <trkpt lat="47.28795" lon="-2.22194">
        <ele>-14.39999961853</ele>
        <time>2020-10-01T09:28:37.000Z</time>
      </trkpt>
      <trkpt lat="47.28806" lon="-2.22249">
        <ele>-14.39999961853</ele>
        <time>2020-10-01T09:28:44.000Z</time>
      </trkpt>
      <trkpt lat="47.28813" lon="-2.22306">
        <ele>-14.39999961853</ele>
        <time>2020-10-01T09:28:51.000Z</time>
      </trkpt>
      <trkpt lat="47.28814" lon="-2.22314">
        <ele>-14.39999961853</ele>
        <time>2020-10-01T09:28:52.000Z</time>
      </trkpt>
      <trkpt lat="47.28819" lon="-2.22355">
        <ele>-14.39999961853</ele>
        <time>2020-10-01T09:28:57.000Z</time>
      </trkpt>
      <trkpt lat="47.28822" lon="-2.224">
        <ele>-14.39999961853</ele>
        <time>2020-10-01T09:29:03.000Z</time>
      </trkpt>
      <trkpt lat="47.28824" lon="-2.22416">
        <ele>-14.39999961853</ele>
        <time>2020-10-01T09:29:05.000Z</time>
      </trkpt>
      <trkpt lat="47.28828" lon="-2.2243">
        <ele>-14.39999961853</ele>
        <time>2020-10-01T09:29:07.000Z</time>
      </trkpt>
      <trkpt lat="47.2883" lon="-2.22437">
        <ele>-14.39999961853</ele>
        <time>2020-10-01T09:29:08.000Z</time>
      </trkpt>
      <trkpt lat="47.2883" lon="-2.22461">
        <ele>-14.39999961853</ele>
        <time>2020-10-01T09:29:11.000Z</time>
      </trkpt>
      <trkpt lat="47.2883" lon="-2.2247">
        <ele>-14.39999961853</ele>
        <time>2020-10-01T09:29:12.000Z</time>
      </trkpt>
      <trkpt lat="47.28836" lon="-2.22493">
        <ele>-14.39999961853</ele>
        <time>2020-10-01T09:29:15.000Z</time>
      </trkpt>
      <trkpt lat="47.28848" lon="-2.22548">
        <ele>-14.39999961853</ele>
        <time>2020-10-01T09:29:22.000Z</time>
      </trkpt>
      <trkpt lat="47.2886" lon="-2.22604">
        <ele>-14.39999961853</ele>
        <time>2020-10-01T09:29:29.000Z</time>
      </trkpt>
      <trkpt lat="47.28875" lon="-2.2266">
        <ele>-14.39999961853</ele>
        <time>2020-10-01T09:29:36.000Z</time>
      </trkpt>
      <trkpt lat="47.28878" lon="-2.22667">
        <ele>-14.39999961853</ele>
        <time>2020-10-01T09:29:37.000Z</time>
      </trkpt>
      <trkpt lat="47.28889" lon="-2.22697">
        <ele>-14.39999961853</ele>
        <time>2020-10-01T09:29:41.000Z</time>
      </trkpt>
      <trkpt lat="47.2891" lon="-2.22759">
        <ele>-14.39999961853</ele>
        <time>2020-10-01T09:29:49.000Z</time>
      </trkpt>
      <trkpt lat="47.28913" lon="-2.22766">
        <ele>-14.39999961853</ele>
        <time>2020-10-01T09:29:50.000Z</time>
      </trkpt>
      <trkpt lat="47.28924" lon="-2.22786">
        <ele>-14.39999961853</ele>
        <time>2020-10-01T09:29:53.000Z</time>
      </trkpt>
      <trkpt lat="47.28949" lon="-2.22837">
        <ele>-14.39999961853</ele>
        <time>2020-10-01T09:30:00.000Z</time>
      </trkpt>
      <trkpt lat="47.28978" lon="-2.2289">
        <ele>-14.39999961853</ele>
        <time>2020-10-01T09:30:08.000Z</time>
      </trkpt>
      <trkpt lat="47.29001" lon="-2.22928">
        <ele>-14.39999961853</ele>
        <time>2020-10-01T09:30:15.000Z</time>
      </trkpt>
      <trkpt lat="47.29016" lon="-2.22953">
        <ele>-14.39999961853</ele>
        <time>2020-10-01T09:30:22.000Z</time>
      </trkpt>
      <trkpt lat="47.29023" lon="-2.22968">
        <ele>-14.39999961853</ele>
        <time>2020-10-01T09:30:26.000Z</time>
      </trkpt>
      <trkpt lat="47.29022" lon="-2.22971">
        <ele>-14.39999961853</ele>
        <time>2020-10-01T09:30:27.000Z</time>
      </trkpt>
      <trkpt lat="47.29018" lon="-2.22975">
        <ele>-14.800000190735</ele>
        <time>2020-10-01T09:30:29.000Z</time>
      </trkpt>
      <trkpt lat="47.29016" lon="-2.22978">
        <ele>-15.199999809265</ele>
        <time>2020-10-01T09:30:30.000Z</time>
      </trkpt>
      <trkpt lat="47.29015" lon="-2.22983">
        <ele>-15.60000038147</ele>
        <time>2020-10-01T09:30:31.000Z</time>
      </trkpt>
      <trkpt lat="47.29017" lon="-2.22987">
        <ele>-16.200000762939</ele>
        <time>2020-10-01T09:30:32.000Z</time>
      </trkpt>
      <trkpt lat="47.29019" lon="-2.22991">
        <ele>-16.60000038147</ele>
        <time>2020-10-01T09:30:33.000Z</time>
      </trkpt>
      <trkpt lat="47.29021" lon="-2.22996">
        <ele>-16.60000038147</ele>
        <time>2020-10-01T09:30:34.000Z</time>
      </trkpt>
      <trkpt lat="47.29017" lon="-2.23016">
        <ele>-16.60000038147</ele>
        <time>2020-10-01T09:30:37.000Z</time>
      </trkpt>
      <trkpt lat="47.29012" lon="-2.23039">
        <ele>-16.60000038147</ele>
        <time>2020-10-01T09:30:41.000Z</time>
      </trkpt>
      <trkpt lat="47.29009" lon="-2.23046">
        <ele>-16.60000038147</ele>
        <time>2020-10-01T09:30:42.000Z</time>
      </trkpt>
      <trkpt lat="47.28998" lon="-2.23094">
        <ele>-16.60000038147</ele>
        <time>2020-10-01T09:30:49.000Z</time>
      </trkpt>
      <trkpt lat="47.28995" lon="-2.23117">
        <ele>-16</ele>
        <time>2020-10-01T09:30:52.000Z</time>
      </trkpt>
      <trkpt lat="47.28994" lon="-2.23124">
        <ele>-15.60000038147</ele>
        <time>2020-10-01T09:30:53.000Z</time>
      </trkpt>
      <trkpt lat="47.28993" lon="-2.23131">
        <ele>-15.199999809265</ele>
        <time>2020-10-01T09:30:54.000Z</time>
      </trkpt>
      <trkpt lat="47.28992" lon="-2.23138">
        <ele>-14.800000190735</ele>
        <time>2020-10-01T09:30:55.000Z</time>
      </trkpt>
      <trkpt lat="47.28991" lon="-2.23146">
        <ele>-14.39999961853</ele>
        <time>2020-10-01T09:30:56.000Z</time>
      </trkpt>
      <trkpt lat="47.2899" lon="-2.23153">
        <ele>-14.39999961853</ele>
        <time>2020-10-01T09:30:57.000Z</time>
      </trkpt>
      <trkpt lat="47.28988" lon="-2.23168">
        <ele>-14</ele>
        <time>2020-10-01T09:30:59.000Z</time>
      </trkpt>
      <trkpt lat="47.28987" lon="-2.23175">
        <ele>-13</ele>
        <time>2020-10-01T09:31:00.000Z</time>
      </trkpt>
      <trkpt lat="47.28986" lon="-2.23182">
        <ele>-12.60000038147</ele>
        <time>2020-10-01T09:31:01.000Z</time>
      </trkpt>
      <trkpt lat="47.28985" lon="-2.23189">
        <ele>-12</ele>
        <time>2020-10-01T09:31:02.000Z</time>
      </trkpt>
      <trkpt lat="47.28984" lon="-2.23203">
        <ele>-12</ele>
        <time>2020-10-01T09:31:04.000Z</time>
      </trkpt>
      <trkpt lat="47.2898" lon="-2.23238">
        <ele>-12</ele>
        <time>2020-10-01T09:31:09.000Z</time>
      </trkpt>
      <trkpt lat="47.2898" lon="-2.23245">
        <ele>-12</ele>
        <time>2020-10-01T09:31:10.000Z</time>
      </trkpt>
      <trkpt lat="47.28978" lon="-2.23258">
        <ele>-11.60000038147</ele>
        <time>2020-10-01T09:31:12.000Z</time>
      </trkpt>
      <trkpt lat="47.28978" lon="-2.23266">
        <ele>-11.199999809265</ele>
        <time>2020-10-01T09:31:13.000Z</time>
      </trkpt>
      <trkpt lat="47.28978" lon="-2.23273">
        <ele>-10.800000190735</ele>
        <time>2020-10-01T09:31:14.000Z</time>
      </trkpt>
      <trkpt lat="47.28977" lon="-2.23279">
        <ele>-10.39999961853</ele>
        <time>2020-10-01T09:31:15.000Z</time>
      </trkpt>
      <trkpt lat="47.28977" lon="-2.23286">
        <ele>-10</ele>
        <time>2020-10-01T09:31:16.000Z</time>
      </trkpt>
      <trkpt lat="47.28976" lon="-2.23319">
        <ele>-9.6000003814697</ele>
        <time>2020-10-01T09:31:21.000Z</time>
      </trkpt>
      <trkpt lat="47.28976" lon="-2.23326">
        <ele>-9.1999998092651</ele>
        <time>2020-10-01T09:31:22.000Z</time>
      </trkpt>
      <trkpt lat="47.28975" lon="-2.23333">
        <ele>-8.8000001907349</ele>
        <time>2020-10-01T09:31:23.000Z</time>
      </trkpt>
      <trkpt lat="47.28974" lon="-2.2334">
        <ele>-8.3999996185303</ele>
        <time>2020-10-01T09:31:24.000Z</time>
      </trkpt>
      <trkpt lat="47.28974" lon="-2.23346">
        <ele>-8</ele>
        <time>2020-10-01T09:31:25.000Z</time>
      </trkpt>
      <trkpt lat="47.28973" lon="-2.23366">
        <ele>-7.5999999046326</ele>
        <time>2020-10-01T09:31:28.000Z</time>
      </trkpt>
      <trkpt lat="47.28972" lon="-2.23373">
        <ele>-7.1999998092651</ele>
        <time>2020-10-01T09:31:29.000Z</time>
      </trkpt>
      <trkpt lat="47.28972" lon="-2.2338">
        <ele>-6.8000001907349</ele>
        <time>2020-10-01T09:31:30.000Z</time>
      </trkpt>
      <trkpt lat="47.28972" lon="-2.23386">
        <ele>-6.4000000953674</ele>
        <time>2020-10-01T09:31:31.000Z</time>
      </trkpt>
      <trkpt lat="47.28972" lon="-2.23393">
        <ele>-6</ele>
        <time>2020-10-01T09:31:32.000Z</time>
      </trkpt>
      <trkpt lat="47.28967" lon="-2.23447">
        <ele>-6</ele>
        <time>2020-10-01T09:31:40.000Z</time>
      </trkpt>
      <trkpt lat="47.28963" lon="-2.23485">
        <ele>-6</ele>
        <time>2020-10-01T09:31:46.000Z</time>
      </trkpt>
      <trkpt lat="47.28962" lon="-2.23494">
        <ele>-6</ele>
        <time>2020-10-01T09:31:48.000Z</time>
      </trkpt>
      <trkpt lat="47.2896" lon="-2.23496">
        <ele>-6</ele>
        <time>2020-10-01T09:31:49.000Z</time>
      </trkpt>
      <trkpt lat="47.28954" lon="-2.23497">
        <ele>-6</ele>
        <time>2020-10-01T09:31:51.000Z</time>
      </trkpt>
      <trkpt lat="47.28938" lon="-2.23497">
        <ele>-6</ele>
        <time>2020-10-01T09:31:55.000Z</time>
      </trkpt>
      <trkpt lat="47.28933" lon="-2.23498">
        <ele>-6</ele>
        <time>2020-10-01T09:31:56.000Z</time>
      </trkpt>
      <trkpt lat="47.28919" lon="-2.23502">
        <ele>-6</ele>
        <time>2020-10-01T09:31:59.000Z</time>
      </trkpt>
      <trkpt lat="47.2891" lon="-2.23504">
        <ele>-6</ele>
        <time>2020-10-01T09:32:01.000Z</time>
      </trkpt>
      <trkpt lat="47.28905" lon="-2.23505">
        <ele>-6</ele>
        <time>2020-10-01T09:32:02.000Z</time>
      </trkpt>
      <trkpt lat="47.28871" lon="-2.23505">
        <ele>-6</ele>
        <time>2020-10-01T09:32:08.000Z</time>
      </trkpt>
      <trkpt lat="47.28852" lon="-2.23507">
        <ele>-6.4000000953674</ele>
        <time>2020-10-01T09:32:11.000Z</time>
      </trkpt>
      <trkpt lat="47.28845" lon="-2.23507">
        <ele>-6.8000001907349</ele>
        <time>2020-10-01T09:32:12.000Z</time>
      </trkpt>
      <trkpt lat="47.28839" lon="-2.23507">
        <ele>-7.1999998092651</ele>
        <time>2020-10-01T09:32:13.000Z</time>
      </trkpt>
      <trkpt lat="47.28832" lon="-2.23507">
        <ele>-8</ele>
        <time>2020-10-01T09:32:14.000Z</time>
      </trkpt>
      <trkpt lat="47.28787" lon="-2.23514">
        <ele>-8</ele>
        <time>2020-10-01T09:32:21.000Z</time>
      </trkpt>
      <trkpt lat="47.2878" lon="-2.23517">
        <ele>-8.3999996185303</ele>
        <time>2020-10-01T09:32:22.000Z</time>
      </trkpt>
      <trkpt lat="47.28773" lon="-2.23519">
        <ele>-8.8000001907349</ele>
        <time>2020-10-01T09:32:23.000Z</time>
      </trkpt>
      <trkpt lat="47.28767" lon="-2.23523">
        <ele>-9.1999998092651</ele>
        <time>2020-10-01T09:32:24.000Z</time>
      </trkpt>
      <trkpt lat="47.28761" lon="-2.23526">
        <ele>-9.6000003814697</ele>
        <time>2020-10-01T09:32:25.000Z</time>
      </trkpt>
      <trkpt lat="47.28755" lon="-2.2353">
        <ele>-10</ele>
        <time>2020-10-01T09:32:26.000Z</time>
      </trkpt>
      <trkpt lat="47.28739" lon="-2.23544">
        <ele>-10.60000038147</ele>
        <time>2020-10-01T09:32:29.000Z</time>
      </trkpt>
      <trkpt lat="47.28734" lon="-2.2355">
        <ele>-11</ele>
        <time>2020-10-01T09:32:30.000Z</time>
      </trkpt>
      <trkpt lat="47.28731" lon="-2.23555">
        <ele>-11.60000038147</ele>
        <time>2020-10-01T09:32:31.000Z</time>
      </trkpt>
      <trkpt lat="47.28728" lon="-2.23562">
        <ele>-12</ele>
        <time>2020-10-01T09:32:32.000Z</time>
      </trkpt>
      <trkpt lat="47.28725" lon="-2.23569">
        <ele>-12.60000038147</ele>
        <time>2020-10-01T09:32:33.000Z</time>
      </trkpt>
      <trkpt lat="47.28722" lon="-2.23576">
        <ele>-13</ele>
        <time>2020-10-01T09:32:34.000Z</time>
      </trkpt>
      <trkpt lat="47.28719" lon="-2.23582">
        <ele>-13.39999961853</ele>
        <time>2020-10-01T09:32:35.000Z</time>
      </trkpt>
      <trkpt lat="47.28716" lon="-2.23587">
        <ele>-13.800000190735</ele>
        <time>2020-10-01T09:32:36.000Z</time>
      </trkpt>
      <trkpt lat="47.28712" lon="-2.23591">
        <ele>-14.199999809265</ele>
        <time>2020-10-01T09:32:37.000Z</time>
      </trkpt>
      <trkpt lat="47.28708" lon="-2.23593">
        <ele>-14.800000190735</ele>
        <time>2020-10-01T09:32:38.000Z</time>
      </trkpt>
      <trkpt lat="47.28694" lon="-2.23589">
        <ele>-14.800000190735</ele>
        <time>2020-10-01T09:32:41.000Z</time>
      </trkpt>
      <trkpt lat="47.28688" lon="-2.2358">
        <ele>-14.800000190735</ele>
        <time>2020-10-01T09:32:43.000Z</time>
      </trkpt>
      <trkpt lat="47.28684" lon="-2.23576">
        <ele>-14.800000190735</ele>
        <time>2020-10-01T09:32:44.000Z</time>
      </trkpt>
      <trkpt lat="47.2868" lon="-2.23572">
        <ele>-14.800000190735</ele>
        <time>2020-10-01T09:32:45.000Z</time>
      </trkpt>
      <trkpt lat="47.28658" lon="-2.23553">
        <ele>-14.800000190735</ele>
        <time>2020-10-01T09:32:51.000Z</time>
      </trkpt>
      <trkpt lat="47.28653" lon="-2.23536">
        <ele>-14.800000190735</ele>
        <time>2020-10-01T09:32:55.000Z</time>
      </trkpt>
      <trkpt lat="47.28652" lon="-2.23531">
        <ele>-14.800000190735</ele>
        <time>2020-10-01T09:32:56.000Z</time>
      </trkpt>
      <trkpt lat="47.28653" lon="-2.23502">
        <ele>-14.800000190735</ele>
        <time>2020-10-01T09:33:01.000Z</time>
      </trkpt>
      <trkpt lat="47.28656" lon="-2.23464">
        <ele>-14.800000190735</ele>
        <time>2020-10-01T09:33:07.000Z</time>
      </trkpt>
      <trkpt lat="47.28655" lon="-2.23445">
        <ele>-14.800000190735</ele>
        <time>2020-10-01T09:33:10.000Z</time>
      </trkpt>
      <trkpt lat="47.28651" lon="-2.23432">
        <ele>-14.800000190735</ele>
        <time>2020-10-01T09:33:12.000Z</time>
      </trkpt>
      <trkpt lat="47.28644" lon="-2.23399">
        <ele>-14.800000190735</ele>
        <time>2020-10-01T09:33:16.000Z</time>
      </trkpt>
      <trkpt lat="47.28648" lon="-2.23368">
        <ele>-14.800000190735</ele>
        <time>2020-10-01T09:33:20.000Z</time>
      </trkpt>
      <trkpt lat="47.28655" lon="-2.23361">
        <ele>-15.199999809265</ele>
        <time>2020-10-01T09:33:22.000Z</time>
      </trkpt>
      <trkpt lat="47.28658" lon="-2.2336">
        <ele>-15.60000038147</ele>
        <time>2020-10-01T09:33:23.000Z</time>
      </trkpt>
      <trkpt lat="47.28661" lon="-2.23361">
        <ele>-16</ele>
        <time>2020-10-01T09:33:24.000Z</time>
      </trkpt>
      <trkpt lat="47.28664" lon="-2.23362">
        <ele>-16.39999961853</ele>
        <time>2020-10-01T09:33:25.000Z</time>
      </trkpt>
      <trkpt lat="47.28667" lon="-2.2336">
        <ele>-16.799999237061</ele>
        <time>2020-10-01T09:33:26.000Z</time>
      </trkpt>
      <trkpt lat="47.28669" lon="-2.23357">
        <ele>-16.799999237061</ele>
        <time>2020-10-01T09:33:27.000Z</time>
      </trkpt>
      <trkpt lat="47.2867" lon="-2.23344">
        <ele>-16.799999237061</ele>
        <time>2020-10-01T09:33:30.000Z</time>
      </trkpt>
      <trkpt lat="47.28672" lon="-2.23321">
        <ele>-16.39999961853</ele>
        <time>2020-10-01T09:33:34.000Z</time>
      </trkpt>
      <trkpt lat="47.28673" lon="-2.23317">
        <ele>-16</ele>
        <time>2020-10-01T09:33:35.000Z</time>
      </trkpt>
      <trkpt lat="47.28674" lon="-2.23312">
        <ele>-15.60000038147</ele>
        <time>2020-10-01T09:33:36.000Z</time>
      </trkpt>
      <trkpt lat="47.28675" lon="-2.23308">
        <ele>-15.199999809265</ele>
        <time>2020-10-01T09:33:37.000Z</time>
      </trkpt>
      <trkpt lat="47.28675" lon="-2.23302">
        <ele>-14.800000190735</ele>
        <time>2020-10-01T09:33:38.000Z</time>
      </trkpt>
      <trkpt lat="47.28677" lon="-2.23292">
        <ele>-14.800000190735</ele>
        <time>2020-10-01T09:33:41.000Z</time>
      </trkpt>
      <trkpt lat="47.28683" lon="-2.23278">
        <ele>-14.800000190735</ele>
        <time>2020-10-01T09:33:45.000Z</time>
      </trkpt>
      <trkpt lat="47.28684" lon="-2.23273">
        <ele>-14.800000190735</ele>
        <time>2020-10-01T09:33:46.000Z</time>
      </trkpt>
      <trkpt lat="47.28689" lon="-2.23259">
        <ele>-14.800000190735</ele>
        <time>2020-10-01T09:33:49.000Z</time>
      </trkpt>
      <trkpt lat="47.28692" lon="-2.23254">
        <ele>-14.800000190735</ele>
        <time>2020-10-01T09:33:51.000Z</time>
      </trkpt>
      <trkpt lat="47.28692" lon="-2.2325">
        <ele>-14.39999961853</ele>
        <time>2020-10-01T09:33:53.000Z</time>
      </trkpt>
      <trkpt lat="47.2869" lon="-2.23248">
        <ele>-14</ele>
        <time>2020-10-01T09:33:54.000Z</time>
      </trkpt>
      <trkpt lat="47.28688" lon="-2.23246">
        <ele>-13.60000038147</ele>
        <time>2020-10-01T09:33:55.000Z</time>
      </trkpt>
      <trkpt lat="47.28687" lon="-2.23243">
        <ele>-13.199999809265</ele>
        <time>2020-10-01T09:33:56.000Z</time>
      </trkpt>
      <trkpt lat="47.28686" lon="-2.2324">
        <ele>-12.60000038147</ele>
        <time>2020-10-01T09:33:57.000Z</time>
      </trkpt>
      <trkpt lat="47.28682" lon="-2.23228">
        <ele>-12.60000038147</ele>
        <time>2020-10-01T09:33:59.000Z</time>
      </trkpt>
      <trkpt lat="47.28677" lon="-2.23214">
        <ele>-13.199999809265</ele>
        <time>2020-10-01T09:34:01.000Z</time>
      </trkpt>
      <trkpt lat="47.28673" lon="-2.23205">
        <ele>-13.60000038147</ele>
        <time>2020-10-01T09:34:02.000Z</time>
      </trkpt>
      <trkpt lat="47.28669" lon="-2.23199">
        <ele>-14</ele>
        <time>2020-10-01T09:34:03.000Z</time>
      </trkpt>
      <trkpt lat="47.28664" lon="-2.23193">
        <ele>-14.60000038147</ele>
        <time>2020-10-01T09:34:04.000Z</time>
      </trkpt>
      <trkpt lat="47.2866" lon="-2.2319">
        <ele>-15.39999961853</ele>
        <time>2020-10-01T09:34:05.000Z</time>
      </trkpt>
      <trkpt lat="47.28655" lon="-2.23188">
        <ele>-16</ele>
        <time>2020-10-01T09:34:06.000Z</time>
      </trkpt>
      <trkpt lat="47.28651" lon="-2.23187">
        <ele>-16.60000038147</ele>
        <time>2020-10-01T09:34:07.000Z</time>
      </trkpt>
      <trkpt lat="47.28645" lon="-2.23187">
        <ele>-17.200000762939</ele>
        <time>2020-10-01T09:34:08.000Z</time>
      </trkpt>
      <trkpt lat="47.28636" lon="-2.23191">
        <ele>-17.200000762939</ele>
        <time>2020-10-01T09:34:10.000Z</time>
      </trkpt>
      <trkpt lat="47.28627" lon="-2.23194">
        <ele>-17.200000762939</ele>
        <time>2020-10-01T09:34:12.000Z</time>
      </trkpt>
      <trkpt lat="47.28614" lon="-2.23202">
        <ele>-17.200000762939</ele>
        <time>2020-10-01T09:34:15.000Z</time>
      </trkpt>
      <trkpt lat="47.28606" lon="-2.23207">
        <ele>-17.200000762939</ele>
        <time>2020-10-01T09:34:17.000Z</time>
      </trkpt>
      <trkpt lat="47.28602" lon="-2.23213">
        <ele>-17.200000762939</ele>
        <time>2020-10-01T09:34:19.000Z</time>
      </trkpt>
      <trkpt lat="47.28594" lon="-2.23239">
        <ele>-17.200000762939</ele>
        <time>2020-10-01T09:34:24.000Z</time>
      </trkpt>
      <trkpt lat="47.28594" lon="-2.23275">
        <ele>-17.200000762939</ele>
        <time>2020-10-01T09:34:30.000Z</time>
      </trkpt>
      <trkpt lat="47.28595" lon="-2.23292">
        <ele>-17.200000762939</ele>
        <time>2020-10-01T09:34:34.000Z</time>
      </trkpt>
      <trkpt lat="47.28593" lon="-2.23293">
        <ele>-17.200000762939</ele>
        <time>2020-10-01T09:34:35.000Z</time>
      </trkpt>
      <trkpt lat="47.28589" lon="-2.23296">
        <ele>-17.200000762939</ele>
        <time>2020-10-01T09:34:38.000Z</time>
      </trkpt>
      <trkpt lat="47.28588" lon="-2.23298">
        <ele>-17.200000762939</ele>
        <time>2020-10-01T09:34:39.000Z</time>
      </trkpt>
      <trkpt lat="47.28589" lon="-2.23309">
        <ele>-17.200000762939</ele>
        <time>2020-10-01T09:34:42.000Z</time>
      </trkpt>
      <trkpt lat="47.28589" lon="-2.23322">
        <ele>-17.200000762939</ele>
        <time>2020-10-01T09:34:46.000Z</time>
      </trkpt>
      <trkpt lat="47.28589" lon="-2.23328">
        <ele>-17.200000762939</ele>
        <time>2020-10-01T09:34:48.000Z</time>
      </trkpt>
      <trkpt lat="47.28587" lon="-2.23345">
        <ele>-17.200000762939</ele>
        <time>2020-10-01T09:34:54.000Z</time>
      </trkpt>
      <trkpt lat="47.28586" lon="-2.23365">
        <ele>-17.200000762939</ele>
        <time>2020-10-01T09:35:01.000Z</time>
      </trkpt>
      <trkpt lat="47.28584" lon="-2.23382">
        <ele>-17.200000762939</ele>
        <time>2020-10-01T09:35:08.000Z</time>
      </trkpt>
      <trkpt lat="47.28584" lon="-2.23384">
        <ele>-17.200000762939</ele>
        <time>2020-10-01T09:35:09.000Z</time>
      </trkpt>
      <trkpt lat="47.28581" lon="-2.234">
        <ele>-17.200000762939</ele>
        <time>2020-10-01T09:35:14.000Z</time>
      </trkpt>
      <trkpt lat="47.2858" lon="-2.23408">
        <ele>-17.200000762939</ele>
        <time>2020-10-01T09:35:18.000Z</time>
      </trkpt>
      <trkpt lat="47.28579" lon="-2.23413">
        <ele>-17.200000762939</ele>
        <time>2020-10-01T09:35:40.000Z</time>
      </trkpt>
      <trkpt lat="47.28578" lon="-2.23437">
        <ele>-17.200000762939</ele>
        <time>2020-10-01T09:35:46.000Z</time>
      </trkpt>
      <trkpt lat="47.28577" lon="-2.23469">
        <ele>-17.200000762939</ele>
        <time>2020-10-01T09:35:51.000Z</time>
      </trkpt>
      <trkpt lat="47.28577" lon="-2.23475">
        <ele>-17.200000762939</ele>
        <time>2020-10-01T09:35:52.000Z</time>
      </trkpt>
      <trkpt lat="47.28577" lon="-2.23504">
        <ele>-17.200000762939</ele>
        <time>2020-10-01T09:35:57.000Z</time>
      </trkpt>
      <trkpt lat="47.28578" lon="-2.23526">
        <ele>-17.200000762939</ele>
        <time>2020-10-01T09:36:01.000Z</time>
      </trkpt>
      <trkpt lat="47.28583" lon="-2.23542">
        <ele>-17.200000762939</ele>
        <time>2020-10-01T09:36:05.000Z</time>
      </trkpt>
      <trkpt lat="47.286" lon="-2.23557">
        <ele>-17.200000762939</ele>
        <time>2020-10-01T09:36:10.000Z</time>
      </trkpt>
      <trkpt lat="47.28624" lon="-2.23568">
        <ele>-17.200000762939</ele>
        <time>2020-10-01T09:36:15.000Z</time>
      </trkpt>
      <trkpt lat="47.28629" lon="-2.23582">
        <ele>-17.200000762939</ele>
        <time>2020-10-01T09:36:18.000Z</time>
      </trkpt>
      <trkpt lat="47.28628" lon="-2.23596">
        <ele>-17.200000762939</ele>
        <time>2020-10-01T09:36:23.000Z</time>
      </trkpt>
      <trkpt lat="47.28629" lon="-2.23606">
        <ele>-17.200000762939</ele>
        <time>2020-10-01T09:36:25.000Z</time>
      </trkpt>
      <trkpt lat="47.28629" lon="-2.2362">
        <ele>-17.200000762939</ele>
        <time>2020-10-01T09:36:27.000Z</time>
      </trkpt>
      <trkpt lat="47.28629" lon="-2.23663">
        <ele>-17.200000762939</ele>
        <time>2020-10-01T09:36:32.000Z</time>
      </trkpt>
      <trkpt lat="47.28633" lon="-2.23717">
        <ele>-17.200000762939</ele>
        <time>2020-10-01T09:36:39.000Z</time>
      </trkpt>
      <trkpt lat="47.28638" lon="-2.23769">
        <ele>-17.200000762939</ele>
        <time>2020-10-01T09:36:46.000Z</time>
      </trkpt>
      <trkpt lat="47.28639" lon="-2.23777">
        <ele>-17.200000762939</ele>
        <time>2020-10-01T09:36:47.000Z</time>
      </trkpt>
      <trkpt lat="47.2864" lon="-2.23792">
        <ele>-17.200000762939</ele>
        <time>2020-10-01T09:36:49.000Z</time>
      </trkpt>
      <trkpt lat="47.28642" lon="-2.23808">
        <ele>-17.200000762939</ele>
        <time>2020-10-01T09:36:51.000Z</time>
      </trkpt>
      <trkpt lat="47.28643" lon="-2.23817">
        <ele>-17.200000762939</ele>
        <time>2020-10-01T09:36:52.000Z</time>
      </trkpt>
      <trkpt lat="47.28647" lon="-2.2385">
        <ele>-17.200000762939</ele>
        <time>2020-10-01T09:36:56.000Z</time>
      </trkpt>
      <trkpt lat="47.2865" lon="-2.23882">
        <ele>-16.799999237061</ele>
        <time>2020-10-01T09:37:00.000Z</time>
      </trkpt>
      <trkpt lat="47.28651" lon="-2.2389">
        <ele>-16.39999961853</ele>
        <time>2020-10-01T09:37:01.000Z</time>
      </trkpt>
      <trkpt lat="47.28652" lon="-2.23897">
        <ele>-15.800000190735</ele>
        <time>2020-10-01T09:37:02.000Z</time>
      </trkpt>
      <trkpt lat="47.28653" lon="-2.23904">
        <ele>-15.39999961853</ele>
        <time>2020-10-01T09:37:03.000Z</time>
      </trkpt>
      <trkpt lat="47.28654" lon="-2.23911">
        <ele>-15</ele>
        <time>2020-10-01T09:37:04.000Z</time>
      </trkpt>
      <trkpt lat="47.28658" lon="-2.23946">
        <ele>-15</ele>
        <time>2020-10-01T09:37:09.000Z</time>
      </trkpt>
      <trkpt lat="47.28665" lon="-2.23996">
        <ele>-15</ele>
        <time>2020-10-01T09:37:15.000Z</time>
      </trkpt>
      <trkpt lat="47.28671" lon="-2.24055">
        <ele>-15</ele>
        <time>2020-10-01T09:37:22.000Z</time>
      </trkpt>
      <trkpt lat="47.28675" lon="-2.24111">
        <ele>-15</ele>
        <time>2020-10-01T09:37:29.000Z</time>
      </trkpt>
      <trkpt lat="47.28682" lon="-2.24166">
        <ele>-15</ele>
        <time>2020-10-01T09:37:36.000Z</time>
      </trkpt>
      <trkpt lat="47.28685" lon="-2.2422">
        <ele>-15</ele>
        <time>2020-10-01T09:37:43.000Z</time>
      </trkpt>
      <trkpt lat="47.28693" lon="-2.24249">
        <ele>-15</ele>
        <time>2020-10-01T09:37:48.000Z</time>
      </trkpt>
      <trkpt lat="47.2871" lon="-2.24255">
        <ele>-15</ele>
        <time>2020-10-01T09:37:52.000Z</time>
      </trkpt>
      <trkpt lat="47.28737" lon="-2.24256">
        <ele>-15</ele>
        <time>2020-10-01T09:37:58.000Z</time>
      </trkpt>
      <trkpt lat="47.28767" lon="-2.24255">
        <ele>-15</ele>
        <time>2020-10-01T09:38:04.000Z</time>
      </trkpt>
      <trkpt lat="47.28778" lon="-2.24258">
        <ele>-15</ele>
        <time>2020-10-01T09:38:08.000Z</time>
      </trkpt>
      <trkpt lat="47.28783" lon="-2.24264">
        <ele>-15.39999961853</ele>
        <time>2020-10-01T09:38:10.000Z</time>
      </trkpt>
      <trkpt lat="47.28784" lon="-2.24268">
        <ele>-15.800000190735</ele>
        <time>2020-10-01T09:38:11.000Z</time>
      </trkpt>
      <trkpt lat="47.28783" lon="-2.24271">
        <ele>-16.200000762939</ele>
        <time>2020-10-01T09:38:12.000Z</time>
      </trkpt>
      <trkpt lat="47.28782" lon="-2.24276">
        <ele>-16.60000038147</ele>
        <time>2020-10-01T09:38:13.000Z</time>
      </trkpt>
      <trkpt lat="47.28782" lon="-2.24281">
        <ele>-17.200000762939</ele>
        <time>2020-10-01T09:38:14.000Z</time>
      </trkpt>
      <trkpt lat="47.28781" lon="-2.24287">
        <ele>-17.200000762939</ele>
        <time>2020-10-01T09:38:15.000Z</time>
      </trkpt>
      <trkpt lat="47.2878" lon="-2.24295">
        <ele>-17.200000762939</ele>
        <time>2020-10-01T09:38:16.000Z</time>
      </trkpt>
      <trkpt lat="47.2878" lon="-2.24313">
        <ele>-17.200000762939</ele>
        <time>2020-10-01T09:38:19.000Z</time>
      </trkpt>
      <trkpt lat="47.28779" lon="-2.24319">
        <ele>-17.200000762939</ele>
        <time>2020-10-01T09:38:20.000Z</time>
      </trkpt>
      <trkpt lat="47.28774" lon="-2.24353">
        <ele>-17.200000762939</ele>
        <time>2020-10-01T09:38:24.000Z</time>
      </trkpt>
      <trkpt lat="47.28762" lon="-2.24404">
        <ele>-17.200000762939</ele>
        <time>2020-10-01T09:38:30.000Z</time>
      </trkpt>
      <trkpt lat="47.28756" lon="-2.2444">
        <ele>-17.200000762939</ele>
        <time>2020-10-01T09:38:35.000Z</time>
      </trkpt>
      <trkpt lat="47.28752" lon="-2.24469">
        <ele>-17.200000762939</ele>
        <time>2020-10-01T09:38:39.000Z</time>
      </trkpt>
      <trkpt lat="47.28752" lon="-2.24475">
        <ele>-17.200000762939</ele>
        <time>2020-10-01T09:38:40.000Z</time>
      </trkpt>
      <trkpt lat="47.28753" lon="-2.2449">
        <ele>-17.200000762939</ele>
        <time>2020-10-01T09:38:42.000Z</time>
      </trkpt>
      <trkpt lat="47.28757" lon="-2.24511">
        <ele>-17.200000762939</ele>
        <time>2020-10-01T09:38:45.000Z</time>
      </trkpt>
      <trkpt lat="47.28758" lon="-2.24517">
        <ele>-17.200000762939</ele>
        <time>2020-10-01T09:38:46.000Z</time>
      </trkpt>
      <trkpt lat="47.28755" lon="-2.24543">
        <ele>-17.200000762939</ele>
        <time>2020-10-01T09:38:50.000Z</time>
      </trkpt>
      <trkpt lat="47.2875" lon="-2.24559">
        <ele>-17.200000762939</ele>
        <time>2020-10-01T09:38:53.000Z</time>
      </trkpt>
      <trkpt lat="47.28744" lon="-2.24578">
        <ele>-17.200000762939</ele>
        <time>2020-10-01T09:38:56.000Z</time>
      </trkpt>
      <trkpt lat="47.28727" lon="-2.24622">
        <ele>-17.200000762939</ele>
        <time>2020-10-01T09:39:04.000Z</time>
      </trkpt>
      <trkpt lat="47.2871" lon="-2.24648">
        <ele>-17.200000762939</ele>
        <time>2020-10-01T09:39:10.000Z</time>
      </trkpt>
      <trkpt lat="47.28691" lon="-2.24669">
        <ele>-17.200000762939</ele>
        <time>2020-10-01T09:39:15.000Z</time>
      </trkpt>
      <trkpt lat="47.28683" lon="-2.24676">
        <ele>-17.200000762939</ele>
        <time>2020-10-01T09:39:17.000Z</time>
      </trkpt>
      <trkpt lat="47.28674" lon="-2.24687">
        <ele>-17.200000762939</ele>
        <time>2020-10-01T09:39:20.000Z</time>
      </trkpt>
      <trkpt lat="47.28672" lon="-2.24697">
        <ele>-17.200000762939</ele>
        <time>2020-10-01T09:39:23.000Z</time>
      </trkpt>
      <trkpt lat="47.28672" lon="-2.24699">
        <ele>-17.200000762939</ele>
        <time>2020-10-01T09:39:24.000Z</time>
      </trkpt>
      <trkpt lat="47.28674" lon="-2.24711">
        <ele>-17.200000762939</ele>
        <time>2020-10-01T09:39:30.000Z</time>
      </trkpt>
      <trkpt lat="47.28676" lon="-2.24711">
        <ele>-17.200000762939</ele>
        <time>2020-10-01T09:39:31.000Z</time>
      </trkpt>
      <trkpt lat="47.2868" lon="-2.24708">
        <ele>-17.200000762939</ele>
        <time>2020-10-01T09:39:34.000Z</time>
      </trkpt>
      <trkpt lat="47.2868" lon="-2.24715">
        <ele>-17.200000762939</ele>
        <time>2020-10-01T09:39:38.000Z</time>
      </trkpt>
      <trkpt lat="47.28675" lon="-2.24709">
        <ele>-17.200000762939</ele>
        <time>2020-10-01T09:39:41.000Z</time>
      </trkpt>
      <trkpt lat="47.28674" lon="-2.24706">
        <ele>-17.200000762939</ele>
        <time>2020-10-01T09:39:42.000Z</time>
      </trkpt>
      <trkpt lat="47.28668" lon="-2.24695">
        <ele>-17.200000762939</ele>
        <time>2020-10-01T09:39:46.000Z</time>
      </trkpt>
      <trkpt lat="47.28667" lon="-2.24693">
        <ele>-17.200000762939</ele>
        <time>2020-10-01T09:39:49.000Z</time>
      </trkpt>
      <trkpt lat="47.28661" lon="-2.2471">
        <ele>-17.200000762939</ele>
        <time>2020-10-01T09:40:14.000Z</time>
      </trkpt>
      <trkpt lat="47.28658" lon="-2.2471">
        <ele>-17.200000762939</ele>
        <time>2020-10-01T09:40:15.000Z</time>
      </trkpt>
      <trkpt lat="47.28643" lon="-2.24721">
        <ele>-17.200000762939</ele>
        <time>2020-10-01T09:40:21.000Z</time>
      </trkpt>
      <trkpt lat="47.2863" lon="-2.24728">
        <ele>-17.200000762939</ele>
        <time>2020-10-01T09:40:25.000Z</time>
      </trkpt>
      <trkpt lat="47.28625" lon="-2.24729">
        <ele>-17.200000762939</ele>
        <time>2020-10-01T09:40:26.000Z</time>
      </trkpt>
      <trkpt lat="47.28604" lon="-2.24731">
        <ele>-17.200000762939</ele>
        <time>2020-10-01T09:40:30.000Z</time>
      </trkpt>
      <trkpt lat="47.28595" lon="-2.24734">
        <ele>-17.200000762939</ele>
        <time>2020-10-01T09:40:32.000Z</time>
      </trkpt>
      <trkpt lat="47.28574" lon="-2.24738">
        <ele>-17.200000762939</ele>
        <time>2020-10-01T09:40:36.000Z</time>
      </trkpt>
      <trkpt lat="47.28563" lon="-2.24741">
        <ele>-17.200000762939</ele>
        <time>2020-10-01T09:40:38.000Z</time>
      </trkpt>
      <trkpt lat="47.28557" lon="-2.24745">
        <ele>-17.200000762939</ele>
        <time>2020-10-01T09:40:39.000Z</time>
      </trkpt>
      <trkpt lat="47.28536" lon="-2.24755">
        <ele>-17.200000762939</ele>
        <time>2020-10-01T09:40:43.000Z</time>
      </trkpt>
      <trkpt lat="47.28531" lon="-2.24757">
        <ele>-17.200000762939</ele>
        <time>2020-10-01T09:40:44.000Z</time>
      </trkpt>
      <trkpt lat="47.28521" lon="-2.24764">
        <ele>-17.200000762939</ele>
        <time>2020-10-01T09:40:46.000Z</time>
      </trkpt>
      <trkpt lat="47.28512" lon="-2.2477">
        <ele>-17.200000762939</ele>
        <time>2020-10-01T09:40:48.000Z</time>
      </trkpt>
      <trkpt lat="47.28503" lon="-2.24776">
        <ele>-17.200000762939</ele>
        <time>2020-10-01T09:40:50.000Z</time>
      </trkpt>
      <trkpt lat="47.28489" lon="-2.24784">
        <ele>-17.200000762939</ele>
        <time>2020-10-01T09:40:53.000Z</time>
      </trkpt>
      <trkpt lat="47.28465" lon="-2.24795">
        <ele>-17.200000762939</ele>
        <time>2020-10-01T09:40:58.000Z</time>
      </trkpt>
      <trkpt lat="47.28461" lon="-2.24796">
        <ele>-17.200000762939</ele>
        <time>2020-10-01T09:40:59.000Z</time>
      </trkpt>
      <trkpt lat="47.28457" lon="-2.24797">
        <ele>-17.200000762939</ele>
        <time>2020-10-01T09:41:00.000Z</time>
      </trkpt>
      <trkpt lat="47.28449" lon="-2.24802">
        <ele>-16.60000038147</ele>
        <time>2020-10-01T09:41:02.000Z</time>
      </trkpt>
      <trkpt lat="47.28446" lon="-2.24804">
        <ele>-16.200000762939</ele>
        <time>2020-10-01T09:41:03.000Z</time>
      </trkpt>
      <trkpt lat="47.28443" lon="-2.24806">
        <ele>-15.800000190735</ele>
        <time>2020-10-01T09:41:04.000Z</time>
      </trkpt>
      <trkpt lat="47.2844" lon="-2.24808">
        <ele>-15.39999961853</ele>
        <time>2020-10-01T09:41:05.000Z</time>
      </trkpt>
      <trkpt lat="47.28438" lon="-2.2481">
        <ele>-15</ele>
        <time>2020-10-01T09:41:06.000Z</time>
      </trkpt>
      <trkpt lat="47.28415" lon="-2.24821">
        <ele>-15</ele>
        <time>2020-10-01T09:41:12.000Z</time>
      </trkpt>
      <trkpt lat="47.2841" lon="-2.24822">
        <ele>-15</ele>
        <time>2020-10-01T09:41:14.000Z</time>
      </trkpt>
      <trkpt lat="47.28408" lon="-2.2482">
        <ele>-15</ele>
        <time>2020-10-01T09:41:15.000Z</time>
      </trkpt>
      <trkpt lat="47.28397" lon="-2.24806">
        <ele>-15</ele>
        <time>2020-10-01T09:41:19.000Z</time>
      </trkpt>
      <trkpt lat="47.28383" lon="-2.24778">
        <ele>-15</ele>
        <time>2020-10-01T09:41:26.000Z</time>
      </trkpt>
      <trkpt lat="47.28367" lon="-2.24768">
        <ele>-15</ele>
        <time>2020-10-01T09:41:31.000Z</time>
      </trkpt>
      <trkpt lat="47.28341" lon="-2.24757">
        <ele>-15</ele>
        <time>2020-10-01T09:41:38.000Z</time>
      </trkpt>
      <trkpt lat="47.28328" lon="-2.24759">
        <ele>-15</ele>
        <time>2020-10-01T09:41:41.000Z</time>
      </trkpt>
      <trkpt lat="47.2832" lon="-2.24763">
        <ele>-15</ele>
        <time>2020-10-01T09:41:43.000Z</time>
      </trkpt>
      <trkpt lat="47.283" lon="-2.24776">
        <ele>-14.60000038147</ele>
        <time>2020-10-01T09:41:48.000Z</time>
      </trkpt>
      <trkpt lat="47.28295" lon="-2.24779">
        <ele>-14.199999809265</ele>
        <time>2020-10-01T09:41:49.000Z</time>
      </trkpt>
      <trkpt lat="47.28291" lon="-2.24781">
        <ele>-13.800000190735</ele>
        <time>2020-10-01T09:41:50.000Z</time>
      </trkpt>
      <trkpt lat="47.28288" lon="-2.24784">
        <ele>-13.39999961853</ele>
        <time>2020-10-01T09:41:51.000Z</time>
      </trkpt>
      <trkpt lat="47.28284" lon="-2.24787">
        <ele>-13</ele>
        <time>2020-10-01T09:41:52.000Z</time>
      </trkpt>
      <trkpt lat="47.28268" lon="-2.24798">
        <ele>-13</ele>
        <time>2020-10-01T09:41:56.000Z</time>
      </trkpt>
      <trkpt lat="47.28252" lon="-2.24809">
        <ele>-12.60000038147</ele>
        <time>2020-10-01T09:42:00.000Z</time>
      </trkpt>
      <trkpt lat="47.28248" lon="-2.24812">
        <ele>-12.199999809265</ele>
        <time>2020-10-01T09:42:01.000Z</time>
      </trkpt>
      <trkpt lat="47.28244" lon="-2.24814">
        <ele>-11.800000190735</ele>
        <time>2020-10-01T09:42:02.000Z</time>
      </trkpt>
      <trkpt lat="47.2824" lon="-2.24817">
        <ele>-11.39999961853</ele>
        <time>2020-10-01T09:42:03.000Z</time>
      </trkpt>
      <trkpt lat="47.28236" lon="-2.24819">
        <ele>-11</ele>
        <time>2020-10-01T09:42:04.000Z</time>
      </trkpt>
      <trkpt lat="47.28223" lon="-2.24819">
        <ele>-11</ele>
        <time>2020-10-01T09:42:07.000Z</time>
      </trkpt>
      <trkpt lat="47.28205" lon="-2.24814">
        <ele>-10.60000038147</ele>
        <time>2020-10-01T09:42:12.000Z</time>
      </trkpt>
      <trkpt lat="47.28202" lon="-2.24814">
        <ele>-10.199999809265</ele>
        <time>2020-10-01T09:42:13.000Z</time>
      </trkpt>
      <trkpt lat="47.28198" lon="-2.24813">
        <ele>-9.8000001907349</ele>
        <time>2020-10-01T09:42:14.000Z</time>
      </trkpt>
      <trkpt lat="47.28195" lon="-2.24813">
        <ele>-9.1999998092651</ele>
        <time>2020-10-01T09:42:15.000Z</time>
      </trkpt>
      <trkpt lat="47.28192" lon="-2.24812">
        <ele>-8.8000001907349</ele>
        <time>2020-10-01T09:42:16.000Z</time>
      </trkpt>
      <trkpt lat="47.28187" lon="-2.24811">
        <ele>-8.3999996185303</ele>
        <time>2020-10-01T09:42:18.000Z</time>
      </trkpt>
      <trkpt lat="47.28185" lon="-2.24811">
        <ele>-7.8000001907349</ele>
        <time>2020-10-01T09:42:19.000Z</time>
      </trkpt>
      <trkpt lat="47.28182" lon="-2.24811">
        <ele>-7.4000000953674</ele>
        <time>2020-10-01T09:42:20.000Z</time>
      </trkpt>
      <trkpt lat="47.28179" lon="-2.24811">
        <ele>-7</ele>
        <time>2020-10-01T09:42:21.000Z</time>
      </trkpt>
      <trkpt lat="47.28176" lon="-2.2481">
        <ele>-6.4000000953674</ele>
        <time>2020-10-01T09:42:22.000Z</time>
      </trkpt>
      <trkpt lat="47.2817" lon="-2.24809">
        <ele>-6</ele>
        <time>2020-10-01T09:42:24.000Z</time>
      </trkpt>
      <trkpt lat="47.28168" lon="-2.24809">
        <ele>-5.5999999046326</ele>
        <time>2020-10-01T09:42:25.000Z</time>
      </trkpt>
      <trkpt lat="47.28165" lon="-2.2481">
        <ele>-5.1999998092651</ele>
        <time>2020-10-01T09:42:26.000Z</time>
      </trkpt>
      <trkpt lat="47.28164" lon="-2.24812">
        <ele>-4.5999999046326</ele>
        <time>2020-10-01T09:42:27.000Z</time>
      </trkpt>
      <trkpt lat="47.28163" lon="-2.24814">
        <ele>-4.1999998092651</ele>
        <time>2020-10-01T09:42:28.000Z</time>
      </trkpt>
      <trkpt lat="47.28163" lon="-2.24818">
        <ele>-4.1999998092651</ele>
        <time>2020-10-01T09:42:29.000Z</time>
      </trkpt>
      <trkpt lat="47.28163" lon="-2.24824">
        <ele>-4.1999998092651</ele>
        <time>2020-10-01T09:42:31.000Z</time>
      </trkpt>
      <trkpt lat="47.28162" lon="-2.24827">
        <ele>-3.7999999523163</ele>
        <time>2020-10-01T09:42:32.000Z</time>
      </trkpt>
      <trkpt lat="47.28161" lon="-2.24831">
        <ele>-3.4000000953674</ele>
        <time>2020-10-01T09:42:33.000Z</time>
      </trkpt>
      <trkpt lat="47.2816" lon="-2.24834">
        <ele>-3</ele>
        <time>2020-10-01T09:42:34.000Z</time>
      </trkpt>
      <trkpt lat="47.2816" lon="-2.24837">
        <ele>-2.5999999046326</ele>
        <time>2020-10-01T09:42:35.000Z</time>
      </trkpt>
      <trkpt lat="47.28159" lon="-2.24841">
        <ele>-2.2000000476837</ele>
        <time>2020-10-01T09:42:36.000Z</time>
      </trkpt>
      <trkpt lat="47.28154" lon="-2.24849">
        <ele>-2.2000000476837</ele>
        <time>2020-10-01T09:42:39.000Z</time>
      </trkpt>
      <trkpt lat="47.28152" lon="-2.2485">
        <ele>-2.2000000476837</ele>
        <time>2020-10-01T09:42:40.000Z</time>
      </trkpt>
      <trkpt lat="47.28133" lon="-2.24855">
        <ele>-2.2000000476837</ele>
        <time>2020-10-01T09:42:47.000Z</time>
      </trkpt>
      <trkpt lat="47.28118" lon="-2.24853">
        <ele>-1.7999999523163</ele>
        <time>2020-10-01T09:42:52.000Z</time>
      </trkpt>
      <trkpt lat="47.28115" lon="-2.24852">
        <ele>-1.3999999761581</ele>
        <time>2020-10-01T09:42:53.000Z</time>
      </trkpt>
      <trkpt lat="47.28112" lon="-2.24851">
        <ele>-1</ele>
        <time>2020-10-01T09:42:54.000Z</time>
      </trkpt>
      <trkpt lat="47.2811" lon="-2.2485">
        <ele>-0.20000000298023</ele>
        <time>2020-10-01T09:42:55.000Z</time>
      </trkpt>
      <trkpt lat="47.28102" lon="-2.24847">
        <ele>-0.20000000298023</ele>
        <time>2020-10-01T09:42:58.000Z</time>
      </trkpt>
      <trkpt lat="47.28086" lon="-2.24843">
        <ele>0.20000000298023</ele>
        <time>2020-10-01T09:43:04.000Z</time>
      </trkpt>
      <trkpt lat="47.28083" lon="-2.24843">
        <ele>0.80000001192093</ele>
        <time>2020-10-01T09:43:05.000Z</time>
      </trkpt>
      <trkpt lat="47.28081" lon="-2.24844">
        <ele>1.2000000476837</ele>
        <time>2020-10-01T09:43:06.000Z</time>
      </trkpt>
      <trkpt lat="47.28077" lon="-2.24844">
        <ele>1.6000000238419</ele>
        <time>2020-10-01T09:43:07.000Z</time>
      </trkpt>
      <trkpt lat="47.28074" lon="-2.24845">
        <ele>2</ele>
        <time>2020-10-01T09:43:08.000Z</time>
      </trkpt>
      <trkpt lat="47.28068" lon="-2.24847">
        <ele>2</ele>
        <time>2020-10-01T09:43:10.000Z</time>
      </trkpt>
      <trkpt lat="47.28055" lon="-2.24843">
        <ele>2</ele>
        <time>2020-10-01T09:43:14.000Z</time>
      </trkpt>
      <trkpt lat="47.28036" lon="-2.2484">
        <ele>2</ele>
        <time>2020-10-01T09:43:19.000Z</time>
      </trkpt>
      <trkpt lat="47.28009" lon="-2.24836">
        <ele>2</ele>
        <time>2020-10-01T09:43:26.000Z</time>
      </trkpt>
      <trkpt lat="47.2798" lon="-2.2483">
        <ele>2</ele>
        <time>2020-10-01T09:43:33.000Z</time>
      </trkpt>
      <trkpt lat="47.27951" lon="-2.24823">
        <ele>2</ele>
        <time>2020-10-01T09:43:40.000Z</time>
      </trkpt>
      <trkpt lat="47.27939" lon="-2.24821">
        <ele>2</ele>
        <time>2020-10-01T09:43:44.000Z</time>
      </trkpt>
      <trkpt lat="47.27932" lon="-2.24816">
        <ele>2</ele>
        <time>2020-10-01T09:43:46.000Z</time>
      </trkpt>
      <trkpt lat="47.27923" lon="-2.24816">
        <ele>2</ele>
        <time>2020-10-01T09:43:48.000Z</time>
      </trkpt>
      <trkpt lat="47.27912" lon="-2.2481">
        <ele>2</ele>
        <time>2020-10-01T09:43:51.000Z</time>
      </trkpt>
      <trkpt lat="47.27909" lon="-2.24808">
        <ele>2</ele>
        <time>2020-10-01T09:43:52.000Z</time>
      </trkpt>
      <trkpt lat="47.27895" lon="-2.24797">
        <ele>2</ele>
        <time>2020-10-01T09:43:57.000Z</time>
      </trkpt>
      <trkpt lat="47.27893" lon="-2.24792">
        <ele>2</ele>
        <time>2020-10-01T09:44:00.000Z</time>
      </trkpt>
      <trkpt lat="47.2789" lon="-2.24791">
        <ele>2</ele>
        <time>2020-10-01T09:44:02.000Z</time>
      </trkpt>
      <trkpt lat="47.27886" lon="-2.24792">
        <ele>2</ele>
        <time>2020-10-01T09:44:04.000Z</time>
      </trkpt>
      <trkpt lat="47.2788" lon="-2.24791">
        <ele>2</ele>
        <time>2020-10-01T09:44:07.000Z</time>
      </trkpt>
      <trkpt lat="47.27872" lon="-2.24785">
        <ele>2</ele>
        <time>2020-10-01T09:44:11.000Z</time>
      </trkpt>
      <trkpt lat="47.2787" lon="-2.24783">
        <ele>1.6000000238419</ele>
        <time>2020-10-01T09:44:12.000Z</time>
      </trkpt>
      <trkpt lat="47.27868" lon="-2.24781">
        <ele>1</ele>
        <time>2020-10-01T09:44:13.000Z</time>
      </trkpt>
      <trkpt lat="47.27868" lon="-2.24778">
        <ele>0.60000002384186</ele>
        <time>2020-10-01T09:44:14.000Z</time>
      </trkpt>
      <trkpt lat="47.27866" lon="-2.24774">
        <ele>22.6</ele>
        <time>2020-10-01T09:44:15.000Z</time>
      </trkpt>
      <trkpt lat="47.27864" lon="-2.24773">
        <ele>-0.40000000596046</ele>
        <time>2020-10-01T09:44:16.000Z</time>
      </trkpt>
      <trkpt lat="47.27858" lon="-2.24776">
        <ele>-0.40000000596046</ele>
        <time>2020-10-01T09:44:18.000Z</time>
      </trkpt>
      <trkpt lat="47.27854" lon="-2.24791">
        <ele>-0.40000000596046</ele>
        <time>2020-10-01T09:44:22.000Z</time>
      </trkpt>
      <trkpt lat="47.27853" lon="-2.24795">
        <ele>-0.40000000596046</ele>
        <time>2020-10-01T09:44:23.000Z</time>
      </trkpt>
      <trkpt lat="47.27854" lon="-2.24821">
        <ele>-0.40000000596046</ele>
        <time>2020-10-01T09:44:28.000Z</time>
      </trkpt>
      <trkpt lat="47.27853" lon="-2.24849">
        <ele>-0.40000000596046</ele>
        <time>2020-10-01T09:44:33.000Z</time>
      </trkpt>
      <trkpt lat="47.27852" lon="-2.24855">
        <ele>-0.80000001192093</ele>
        <time>2020-10-01T09:44:34.000Z</time>
      </trkpt>
      <trkpt lat="47.27852" lon="-2.24861">
        <ele>-1.2000000476837</ele>
        <time>2020-10-01T09:44:35.000Z</time>
      </trkpt>
      <trkpt lat="47.2785" lon="-2.24867">
        <ele>-1.6000000238419</ele>
        <time>2020-10-01T09:44:36.000Z</time>
      </trkpt>
      <trkpt lat="47.27849" lon="-2.24873">
        <ele>-2.2000000476837</ele>
        <time>2020-10-01T09:44:37.000Z</time>
      </trkpt>
      <trkpt lat="47.27848" lon="-2.24878">
        <ele>-2.5999999046326</ele>
        <time>2020-10-01T09:44:38.000Z</time>
      </trkpt>
      <trkpt lat="47.27846" lon="-2.24889">
        <ele>-2.5999999046326</ele>
        <time>2020-10-01T09:44:40.000Z</time>
      </trkpt>
      <trkpt lat="47.27841" lon="-2.249">
        <ele>-2.5999999046326</ele>
        <time>2020-10-01T09:44:43.000Z</time>
      </trkpt>
      <trkpt lat="47.27838" lon="-2.24902">
        <ele>-2.5999999046326</ele>
        <time>2020-10-01T09:44:44.000Z</time>
      </trkpt>
      <trkpt lat="47.27835" lon="-2.24913">
        <ele>-2.5999999046326</ele>
        <time>2020-10-01T09:44:47.000Z</time>
      </trkpt>
      <trkpt lat="47.27841" lon="-2.24933">
        <ele>-2.5999999046326</ele>
        <time>2020-10-01T09:44:51.000Z</time>
      </trkpt>
      <trkpt lat="47.2784" lon="-2.24946">
        <ele>-2.5999999046326</ele>
        <time>2020-10-01T09:44:53.000Z</time>
      </trkpt>
      <trkpt lat="47.27839" lon="-2.24961">
        <ele>-2.5999999046326</ele>
        <time>2020-10-01T09:44:55.000Z</time>
      </trkpt>
      <trkpt lat="47.27839" lon="-2.24969">
        <ele>-3</ele>
        <time>2020-10-01T09:44:56.000Z</time>
      </trkpt>
      <trkpt lat="47.27839" lon="-2.24976">
        <ele>-3.4000000953674</ele>
        <time>2020-10-01T09:44:57.000Z</time>
      </trkpt>
      <trkpt lat="47.2784" lon="-2.24983">
        <ele>-4.1999998092651</ele>
        <time>2020-10-01T09:44:58.000Z</time>
      </trkpt>
      <trkpt lat="47.27841" lon="-2.24991">
        <ele>-4.5999999046326</ele>
        <time>2020-10-01T09:44:59.000Z</time>
      </trkpt>
      <trkpt lat="47.27841" lon="-2.24998">
        <ele>-4.5999999046326</ele>
        <time>2020-10-01T09:45:00.000Z</time>
      </trkpt>
      <trkpt lat="47.27835" lon="-2.25015">
        <ele>-4.5999999046326</ele>
        <time>2020-10-01T09:45:03.000Z</time>
      </trkpt>
      <trkpt lat="47.27823" lon="-2.2502">
        <ele>-4.5999999046326</ele>
        <time>2020-10-01T09:45:06.000Z</time>
      </trkpt>
      <trkpt lat="47.27819" lon="-2.25021">
        <ele>-5.1999998092651</ele>
        <time>2020-10-01T09:45:07.000Z</time>
      </trkpt>
      <trkpt lat="47.27814" lon="-2.25023">
        <ele>-5.5999999046326</ele>
        <time>2020-10-01T09:45:08.000Z</time>
      </trkpt>
      <trkpt lat="47.27809" lon="-2.25024">
        <ele>-6</ele>
        <time>2020-10-01T09:45:09.000Z</time>
      </trkpt>
      <trkpt lat="47.27804" lon="-2.25024">
        <ele>-6.4000000953674</ele>
        <time>2020-10-01T09:45:10.000Z</time>
      </trkpt>
      <trkpt lat="47.278" lon="-2.25022">
        <ele>-7</ele>
        <time>2020-10-01T09:45:11.000Z</time>
      </trkpt>
      <trkpt lat="47.27795" lon="-2.25022">
        <ele>-7</ele>
        <time>2020-10-01T09:45:12.000Z</time>
      </trkpt>
      <trkpt lat="47.27785" lon="-2.25022">
        <ele>-7</ele>
        <time>2020-10-01T09:45:14.000Z</time>
      </trkpt>
      <trkpt lat="47.27771" lon="-2.25026">
        <ele>-7.4000000953674</ele>
        <time>2020-10-01T09:45:17.000Z</time>
      </trkpt>
      <trkpt lat="47.27767" lon="-2.25028">
        <ele>-7.8000001907349</ele>
        <time>2020-10-01T09:45:18.000Z</time>
      </trkpt>
      <trkpt lat="47.27763" lon="-2.2503">
        <ele>-8.1999998092651</ele>
        <time>2020-10-01T09:45:19.000Z</time>
      </trkpt>
      <trkpt lat="47.27759" lon="-2.25032">
        <ele>-8.6000003814697</ele>
        <time>2020-10-01T09:45:20.000Z</time>
      </trkpt>
      <trkpt lat="47.27755" lon="-2.25035">
        <ele>-9</ele>
        <time>2020-10-01T09:45:21.000Z</time>
      </trkpt>
      <trkpt lat="47.27746" lon="-2.25041">
        <ele>-9</ele>
        <time>2020-10-01T09:45:23.000Z</time>
      </trkpt>
      <trkpt lat="47.27723" lon="-2.2506">
        <ele>-9</ele>
        <time>2020-10-01T09:45:28.000Z</time>
      </trkpt>
      <trkpt lat="47.27705" lon="-2.25075">
        <ele>-9</ele>
        <time>2020-10-01T09:45:32.000Z</time>
      </trkpt>
      <trkpt lat="47.27695" lon="-2.2508">
        <ele>-9</ele>
        <time>2020-10-01T09:45:34.000Z</time>
      </trkpt>
      <trkpt lat="47.27674" lon="-2.25088">
        <ele>-9</ele>
        <time>2020-10-01T09:45:38.000Z</time>
      </trkpt>
      <trkpt lat="47.27669" lon="-2.2509">
        <ele>-9</ele>
        <time>2020-10-01T09:45:39.000Z</time>
      </trkpt>
      <trkpt lat="47.27655" lon="-2.25096">
        <ele>-9</ele>
        <time>2020-10-01T09:45:42.000Z</time>
      </trkpt>
      <trkpt lat="47.27641" lon="-2.251">
        <ele>-9</ele>
        <time>2020-10-01T09:45:45.000Z</time>
      </trkpt>
      <trkpt lat="47.27629" lon="-2.25099">
        <ele>-9</ele>
        <time>2020-10-01T09:45:48.000Z</time>
      </trkpt>
      <trkpt lat="47.27624" lon="-2.25097">
        <ele>-9</ele>
        <time>2020-10-01T09:45:49.000Z</time>
      </trkpt>
      <trkpt lat="47.27606" lon="-2.25089">
        <ele>-9</ele>
        <time>2020-10-01T09:45:53.000Z</time>
      </trkpt>
      <trkpt lat="47.27581" lon="-2.25076">
        <ele>-9</ele>
        <time>2020-10-01T09:45:58.000Z</time>
      </trkpt>
      <trkpt lat="47.27575" lon="-2.25074">
        <ele>-9</ele>
        <time>2020-10-01T09:45:59.000Z</time>
      </trkpt>
      <trkpt lat="47.27563" lon="-2.25068">
        <ele>-9</ele>
        <time>2020-10-01T09:46:01.000Z</time>
      </trkpt>
      <trkpt lat="47.27548" lon="-2.25053">
        <ele>-9</ele>
        <time>2020-10-01T09:46:04.000Z</time>
      </trkpt>
      <trkpt lat="47.27524" lon="-2.25018">
        <ele>-9</ele>
        <time>2020-10-01T09:46:10.000Z</time>
      </trkpt>
      <trkpt lat="47.27519" lon="-2.25014">
        <ele>-9</ele>
        <time>2020-10-01T09:46:11.000Z</time>
      </trkpt>
      <trkpt lat="47.27491" lon="-2.24989">
        <ele>-9</ele>
        <time>2020-10-01T09:46:17.000Z</time>
      </trkpt>
      <trkpt lat="47.27481" lon="-2.2498">
        <ele>-9</ele>
        <time>2020-10-01T09:46:19.000Z</time>
      </trkpt>
      <trkpt lat="47.27465" lon="-2.24966">
        <ele>-9</ele>
        <time>2020-10-01T09:46:22.000Z</time>
      </trkpt>
      <trkpt lat="47.27459" lon="-2.24963">
        <ele>-9</ele>
        <time>2020-10-01T09:46:23.000Z</time>
      </trkpt>
      <trkpt lat="47.27442" lon="-2.24955">
        <ele>-9</ele>
        <time>2020-10-01T09:46:26.000Z</time>
      </trkpt>
      <trkpt lat="47.27436" lon="-2.24954">
        <ele>-9</ele>
        <time>2020-10-01T09:46:27.000Z</time>
      </trkpt>
      <trkpt lat="47.2742" lon="-2.24959">
        <ele>-9</ele>
        <time>2020-10-01T09:46:30.000Z</time>
      </trkpt>
      <trkpt lat="47.27415" lon="-2.24962">
        <ele>-9</ele>
        <time>2020-10-01T09:46:31.000Z</time>
      </trkpt>
      <trkpt lat="47.2741" lon="-2.24964">
        <ele>-9</ele>
        <time>2020-10-01T09:46:32.000Z</time>
      </trkpt>
      <trkpt lat="47.27394" lon="-2.2497">
        <ele>-9</ele>
        <time>2020-10-01T09:46:35.000Z</time>
      </trkpt>
      <trkpt lat="47.27384" lon="-2.24975">
        <ele>-9</ele>
        <time>2020-10-01T09:46:37.000Z</time>
      </trkpt>
      <trkpt lat="47.27373" lon="-2.24988">
        <ele>-9</ele>
        <time>2020-10-01T09:46:40.000Z</time>
      </trkpt>
      <trkpt lat="47.27362" lon="-2.25004">
        <ele>-9</ele>
        <time>2020-10-01T09:46:43.000Z</time>
      </trkpt>
      <trkpt lat="47.27353" lon="-2.25022">
        <ele>-9</ele>
        <time>2020-10-01T09:46:46.000Z</time>
      </trkpt>
      <trkpt lat="47.27348" lon="-2.25036">
        <ele>-9</ele>
        <time>2020-10-01T09:46:48.000Z</time>
      </trkpt>
      <trkpt lat="47.27345" lon="-2.25051">
        <ele>-9</ele>
        <time>2020-10-01T09:46:50.000Z</time>
      </trkpt>
      <trkpt lat="47.27346" lon="-2.25058">
        <ele>-9</ele>
        <time>2020-10-01T09:46:51.000Z</time>
      </trkpt>
      <trkpt lat="47.27353" lon="-2.25086">
        <ele>-9</ele>
        <time>2020-10-01T09:46:55.000Z</time>
      </trkpt>
      <trkpt lat="47.27355" lon="-2.25093">
        <ele>-9</ele>
        <time>2020-10-01T09:46:56.000Z</time>
      </trkpt>
      <trkpt lat="47.27366" lon="-2.2512">
        <ele>-9</ele>
        <time>2020-10-01T09:47:00.000Z</time>
      </trkpt>
      <trkpt lat="47.27388" lon="-2.25168">
        <ele>-9</ele>
        <time>2020-10-01T09:47:07.000Z</time>
      </trkpt>
      <trkpt lat="47.2739" lon="-2.25174">
        <ele>-9</ele>
        <time>2020-10-01T09:47:08.000Z</time>
      </trkpt>
      <trkpt lat="47.2739" lon="-2.25186">
        <ele>-9</ele>
        <time>2020-10-01T09:47:10.000Z</time>
      </trkpt>
      <trkpt lat="47.27388" lon="-2.25213">
        <ele>-9</ele>
        <time>2020-10-01T09:47:15.000Z</time>
      </trkpt>
      <trkpt lat="47.2739" lon="-2.25231">
        <ele>-9</ele>
        <time>2020-10-01T09:47:18.000Z</time>
      </trkpt>
      <trkpt lat="47.27392" lon="-2.25242">
        <ele>-9</ele>
        <time>2020-10-01T09:47:20.000Z</time>
      </trkpt>
      <trkpt lat="47.27401" lon="-2.25261">
        <ele>-9</ele>
        <time>2020-10-01T09:47:25.000Z</time>
      </trkpt>
      <trkpt lat="47.27409" lon="-2.25282">
        <ele>-9</ele>
        <time>2020-10-01T09:47:30.000Z</time>
      </trkpt>
      <trkpt lat="47.27411" lon="-2.25285">
        <ele>-9</ele>
        <time>2020-10-01T09:47:31.000Z</time>
      </trkpt>
      <trkpt lat="47.27417" lon="-2.25293">
        <ele>-9</ele>
        <time>2020-10-01T09:47:34.000Z</time>
      </trkpt>
      <trkpt lat="47.2742" lon="-2.25298">
        <ele>-9</ele>
        <time>2020-10-01T09:47:36.000Z</time>
      </trkpt>
      <trkpt lat="47.27424" lon="-2.25307">
        <ele>-9</ele>
        <time>2020-10-01T09:47:40.000Z</time>
      </trkpt>
      <trkpt lat="47.27425" lon="-2.25309">
        <ele>-9</ele>
        <time>2020-10-01T09:47:41.000Z</time>
      </trkpt>
      <trkpt lat="47.27429" lon="-2.25307">
        <ele>-9</ele>
        <time>2020-10-01T09:47:44.000Z</time>
      </trkpt>
      <trkpt lat="47.27433" lon="-2.2531">
        <ele>-9</ele>
        <time>2020-10-01T09:47:47.000Z</time>
      </trkpt>
      <trkpt lat="47.27434" lon="-2.25312">
        <ele>-9</ele>
        <time>2020-10-01T09:47:48.000Z</time>
      </trkpt>
      <trkpt lat="47.27437" lon="-2.25324">
        <ele>-9</ele>
        <time>2020-10-01T09:47:55.000Z</time>
      </trkpt>
      <trkpt lat="47.27437" lon="-2.25322">
        <ele>-9</ele>
        <time>2020-10-01T09:47:58.000Z</time>
      </trkpt>
      <trkpt lat="47.27438" lon="-2.25318">
        <ele>-9</ele>
        <time>2020-10-01T09:48:00.000Z</time>
      </trkpt>
      <trkpt lat="47.27435" lon="-2.25317">
        <ele>-9</ele>
        <time>2020-10-01T09:48:04.000Z</time>
      </trkpt>
      <trkpt lat="47.27433" lon="-2.25319">
        <ele>-9</ele>
        <time>2020-10-01T09:48:06.000Z</time>
      </trkpt>
      <trkpt lat="47.27433" lon="-2.25321">
        <ele>-9</ele>
        <time>2020-10-01T09:48:07.000Z</time>
      </trkpt>
      <trkpt lat="47.27434" lon="-2.25326">
        <ele>-9</ele>
        <time>2020-10-01T09:48:09.000Z</time>
      </trkpt>
      <trkpt lat="47.27438" lon="-2.25351">
        <ele>-9</ele>
        <time>2020-10-01T09:48:15.000Z</time>
      </trkpt>
      <trkpt lat="47.27435" lon="-2.25366">
        <ele>-9</ele>
        <time>2020-10-01T09:48:19.000Z</time>
      </trkpt>
      <trkpt lat="47.27435" lon="-2.2538">
        <ele>-9</ele>
        <time>2020-10-01T09:48:23.000Z</time>
      </trkpt>
      <trkpt lat="47.27442" lon="-2.25394">
        <ele>-9</ele>
        <time>2020-10-01T09:48:27.000Z</time>
      </trkpt>
      <trkpt lat="47.27439" lon="-2.25406">
        <ele>-9</ele>
        <time>2020-10-01T09:48:30.000Z</time>
      </trkpt>
      <trkpt lat="47.2743" lon="-2.25406">
        <ele>-9</ele>
        <time>2020-10-01T09:48:33.000Z</time>
      </trkpt>
      <trkpt lat="47.27422" lon="-2.254">
        <ele>-9</ele>
        <time>2020-10-01T09:48:37.000Z</time>
      </trkpt>
      <trkpt lat="47.27422" lon="-2.254">
        <ele>-9</ele>
        <time>2020-10-01T09:48:38.000Z</time>
      </trkpt>
      <trkpt lat="47.27421" lon="-2.25403">
        <ele>-9</ele>
        <time>2020-10-01T09:48:39.000Z</time>
      </trkpt>
      <trkpt lat="47.27425" lon="-2.25412">
        <ele>-9</ele>
        <time>2020-10-01T09:48:42.000Z</time>
      </trkpt>
      <trkpt lat="47.27428" lon="-2.25416">
        <ele>-9</ele>
        <time>2020-10-01T09:48:43.000Z</time>
      </trkpt>
      <trkpt lat="47.27444" lon="-2.25435">
        <ele>-9</ele>
        <time>2020-10-01T09:48:48.000Z</time>
      </trkpt>
      <trkpt lat="47.27449" lon="-2.25438">
        <ele>-9</ele>
        <time>2020-10-01T09:48:49.000Z</time>
      </trkpt>
      <trkpt lat="47.27467" lon="-2.25445">
        <ele>-9</ele>
        <time>2020-10-01T09:48:52.000Z</time>
      </trkpt>
      <trkpt lat="47.27472" lon="-2.25445">
        <ele>-9</ele>
        <time>2020-10-01T09:48:53.000Z</time>
      </trkpt>
      <trkpt lat="47.27488" lon="-2.25443">
        <ele>-9</ele>
        <time>2020-10-01T09:48:56.000Z</time>
      </trkpt>
      <trkpt lat="47.27497" lon="-2.25445">
        <ele>-9</ele>
        <time>2020-10-01T09:48:58.000Z</time>
      </trkpt>
      <trkpt lat="47.27512" lon="-2.25459">
        <ele>-9</ele>
        <time>2020-10-01T09:49:02.000Z</time>
      </trkpt>
      <trkpt lat="47.27515" lon="-2.25463">
        <ele>-9</ele>
        <time>2020-10-01T09:49:03.000Z</time>
      </trkpt>
      <trkpt lat="47.27526" lon="-2.25476">
        <ele>-9</ele>
        <time>2020-10-01T09:49:06.000Z</time>
      </trkpt>
      <trkpt lat="47.27532" lon="-2.25485">
        <ele>-9</ele>
        <time>2020-10-01T09:49:08.000Z</time>
      </trkpt>
      <trkpt lat="47.27542" lon="-2.25507">
        <ele>-9</ele>
        <time>2020-10-01T09:49:13.000Z</time>
      </trkpt>
      <trkpt lat="47.27544" lon="-2.25512">
        <ele>-9</ele>
        <time>2020-10-01T09:49:14.000Z</time>
      </trkpt>
      <trkpt lat="47.27554" lon="-2.25536">
        <ele>-9</ele>
        <time>2020-10-01T09:49:19.000Z</time>
      </trkpt>
      <trkpt lat="47.27558" lon="-2.25551">
        <ele>-9</ele>
        <time>2020-10-01T09:49:23.000Z</time>
      </trkpt>
      <trkpt lat="47.2756" lon="-2.25577">
        <ele>-9</ele>
        <time>2020-10-01T09:49:28.000Z</time>
      </trkpt>
      <trkpt lat="47.27564" lon="-2.25616">
        <ele>-9</ele>
        <time>2020-10-01T09:49:35.000Z</time>
      </trkpt>
      <trkpt lat="47.27567" lon="-2.25633">
        <ele>-9</ele>
        <time>2020-10-01T09:49:40.000Z</time>
      </trkpt>
      <trkpt lat="47.27568" lon="-2.25639">
        <ele>-9</ele>
        <time>2020-10-01T09:49:43.000Z</time>
      </trkpt>
      <trkpt lat="47.27569" lon="-2.25646">
        <ele>-9</ele>
        <time>2020-10-01T09:52:04.000Z</time>
      </trkpt>
      <trkpt lat="47.27574" lon="-2.25667">
        <ele>-9</ele>
        <time>2020-10-01T09:52:10.000Z</time>
      </trkpt>
      <trkpt lat="47.27575" lon="-2.2567">
        <ele>-9</ele>
        <time>2020-10-01T09:52:11.000Z</time>
      </trkpt>
      <trkpt lat="47.27585" lon="-2.25696">
        <ele>-9</ele>
        <time>2020-10-01T09:52:17.000Z</time>
      </trkpt>
      <trkpt lat="47.27595" lon="-2.25725">
        <ele>-9</ele>
        <time>2020-10-01T09:52:23.000Z</time>
      </trkpt>
      <trkpt lat="47.27598" lon="-2.25746">
        <ele>-9</ele>
        <time>2020-10-01T09:52:28.000Z</time>
      </trkpt>
      <trkpt lat="47.27594" lon="-2.25781">
        <ele>-9</ele>
        <time>2020-10-01T09:52:35.000Z</time>
      </trkpt>
      <trkpt lat="47.27593" lon="-2.25803">
        <ele>-9</ele>
        <time>2020-10-01T09:52:40.000Z</time>
      </trkpt>
      <trkpt lat="47.27595" lon="-2.25808">
        <ele>-9</ele>
        <time>2020-10-01T09:52:41.000Z</time>
      </trkpt>
      <trkpt lat="47.27604" lon="-2.25831">
        <ele>-9</ele>
        <time>2020-10-01T09:52:46.000Z</time>
      </trkpt>
      <trkpt lat="47.27606" lon="-2.25835">
        <ele>-9</ele>
        <time>2020-10-01T09:52:47.000Z</time>
      </trkpt>
      <trkpt lat="47.27623" lon="-2.25867">
        <ele>-9</ele>
        <time>2020-10-01T09:52:54.000Z</time>
      </trkpt>
      <trkpt lat="47.2762" lon="-2.25884">
        <ele>-9</ele>
        <time>2020-10-01T09:52:57.000Z</time>
      </trkpt>
      <trkpt lat="47.2761" lon="-2.25895">
        <ele>-9</ele>
        <time>2020-10-01T09:53:00.000Z</time>
      </trkpt>
      <trkpt lat="47.27603" lon="-2.25901">
        <ele>-9</ele>
        <time>2020-10-01T09:53:02.000Z</time>
      </trkpt>
      <trkpt lat="47.27581" lon="-2.25921">
        <ele>-9</ele>
        <time>2020-10-01T09:53:08.000Z</time>
      </trkpt>
      <trkpt lat="47.27569" lon="-2.25931">
        <ele>-8.6000003814697</ele>
        <time>2020-10-01T09:53:11.000Z</time>
      </trkpt>
      <trkpt lat="47.27566" lon="-2.25934">
        <ele>-8</ele>
        <time>2020-10-01T09:53:12.000Z</time>
      </trkpt>
      <trkpt lat="47.27563" lon="-2.25936">
        <ele>-7.1999998092651</ele>
        <time>2020-10-01T09:53:13.000Z</time>
      </trkpt>
      <trkpt lat="47.2756" lon="-2.25938">
        <ele>-6.8000001907349</ele>
        <time>2020-10-01T09:53:14.000Z</time>
      </trkpt>
      <trkpt lat="47.27538" lon="-2.25958">
        <ele>-6.8000001907349</ele>
        <time>2020-10-01T09:53:20.000Z</time>
      </trkpt>
      <trkpt lat="47.27517" lon="-2.25982">
        <ele>-6.8000001907349</ele>
        <time>2020-10-01T09:53:26.000Z</time>
      </trkpt>
      <trkpt lat="47.27501" lon="-2.26006">
        <ele>-6.4000000953674</ele>
        <time>2020-10-01T09:53:31.000Z</time>
      </trkpt>
      <trkpt lat="47.27498" lon="-2.2601">
        <ele>-6</ele>
        <time>2020-10-01T09:53:32.000Z</time>
      </trkpt>
      <trkpt lat="47.27495" lon="-2.26015">
        <ele>-5.5999999046326</ele>
        <time>2020-10-01T09:53:33.000Z</time>
      </trkpt>
      <trkpt lat="47.27493" lon="-2.26019">
        <ele>-5.1999998092651</ele>
        <time>2020-10-01T09:53:34.000Z</time>
      </trkpt>
      <trkpt lat="47.2749" lon="-2.26024">
        <ele>-4.8000001907349</ele>
        <time>2020-10-01T09:53:35.000Z</time>
      </trkpt>
      <trkpt lat="47.27477" lon="-2.26043">
        <ele>-4.8000001907349</ele>
        <time>2020-10-01T09:53:39.000Z</time>
      </trkpt>
      <trkpt lat="47.27457" lon="-2.26067">
        <ele>-4.8000001907349</ele>
        <time>2020-10-01T09:53:45.000Z</time>
      </trkpt>
      <trkpt lat="47.27429" lon="-2.26091">
        <ele>-4.8000001907349</ele>
        <time>2020-10-01T09:53:52.000Z</time>
      </trkpt>
      <trkpt lat="47.27411" lon="-2.26101">
        <ele>-4.8000001907349</ele>
        <time>2020-10-01T09:53:56.000Z</time>
      </trkpt>
      <trkpt lat="47.27402" lon="-2.26105">
        <ele>-4.8000001907349</ele>
        <time>2020-10-01T09:53:58.000Z</time>
      </trkpt>
      <trkpt lat="47.27376" lon="-2.26114">
        <ele>-4.8000001907349</ele>
        <time>2020-10-01T09:54:04.000Z</time>
      </trkpt>
      <trkpt lat="47.27361" lon="-2.26121">
        <ele>-4.8000001907349</ele>
        <time>2020-10-01T09:54:09.000Z</time>
      </trkpt>
      <trkpt lat="47.27342" lon="-2.26126">
        <ele>-4.8000001907349</ele>
        <time>2020-10-01T09:54:14.000Z</time>
      </trkpt>
      <trkpt lat="47.27311" lon="-2.26138">
        <ele>-4.8000001907349</ele>
        <time>2020-10-01T09:54:21.000Z</time>
      </trkpt>
      <trkpt lat="47.27273" lon="-2.26153">
        <ele>-4.8000001907349</ele>
        <time>2020-10-01T09:54:29.000Z</time>
      </trkpt>
      <trkpt lat="47.27242" lon="-2.26167">
        <ele>-4.8000001907349</ele>
        <time>2020-10-01T09:54:36.000Z</time>
      </trkpt>
      <trkpt lat="47.27214" lon="-2.26186">
        <ele>-4.8000001907349</ele>
        <time>2020-10-01T09:54:43.000Z</time>
      </trkpt>
      <trkpt lat="47.27189" lon="-2.26208">
        <ele>-4.4000000953674</ele>
        <time>2020-10-01T09:54:49.000Z</time>
      </trkpt>
      <trkpt lat="47.27185" lon="-2.26212">
        <ele>-4</ele>
        <time>2020-10-01T09:54:50.000Z</time>
      </trkpt>
      <trkpt lat="47.27181" lon="-2.26217">
        <ele>-3.5999999046326</ele>
        <time>2020-10-01T09:54:51.000Z</time>
      </trkpt>
      <trkpt lat="47.27176" lon="-2.26222">
        <ele>-2.7999999523163</ele>
        <time>2020-10-01T09:54:52.000Z</time>
      </trkpt>
      <trkpt lat="47.27152" lon="-2.26252">
        <ele>-2.7999999523163</ele>
        <time>2020-10-01T09:54:58.000Z</time>
      </trkpt>
      <trkpt lat="47.27148" lon="-2.26257">
        <ele>-2.7999999523163</ele>
        <time>2020-10-01T09:54:59.000Z</time>
      </trkpt>
      <trkpt lat="47.2714" lon="-2.26268">
        <ele>-2.4000000953674</ele>
        <time>2020-10-01T09:55:01.000Z</time>
      </trkpt>
      <trkpt lat="47.27136" lon="-2.26273">
        <ele>-2</ele>
        <time>2020-10-01T09:55:02.000Z</time>
      </trkpt>
      <trkpt lat="47.27132" lon="-2.26278">
        <ele>-1.6000000238419</ele>
        <time>2020-10-01T09:55:03.000Z</time>
      </trkpt>
      <trkpt lat="47.27129" lon="-2.26283">
        <ele>-1.2000000476837</ele>
        <time>2020-10-01T09:55:04.000Z</time>
      </trkpt>
      <trkpt lat="47.27125" lon="-2.26289">
        <ele>-0.80000001192093</ele>
        <time>2020-10-01T09:55:05.000Z</time>
      </trkpt>
      <trkpt lat="47.27105" lon="-2.26317">
        <ele>-0.80000001192093</ele>
        <time>2020-10-01T09:55:10.000Z</time>
      </trkpt>
      <trkpt lat="47.27085" lon="-2.26346">
        <ele>-0.80000001192093</ele>
        <time>2020-10-01T09:55:16.000Z</time>
      </trkpt>
      <trkpt lat="47.27063" lon="-2.26378">
        <ele>-0.80000001192093</ele>
        <time>2020-10-01T09:55:22.000Z</time>
      </trkpt>
      <trkpt lat="47.27045" lon="-2.26405">
        <ele>-0.80000001192093</ele>
        <time>2020-10-01T09:55:27.000Z</time>
      </trkpt>
      <trkpt lat="47.27021" lon="-2.26441">
        <ele>-0.80000001192093</ele>
        <time>2020-10-01T09:55:34.000Z</time>
      </trkpt>
      <trkpt lat="47.27017" lon="-2.26447">
        <ele>-0.80000001192093</ele>
        <time>2020-10-01T09:55:35.000Z</time>
      </trkpt>
      <trkpt lat="47.27001" lon="-2.26468">
        <ele>-0.80000001192093</ele>
        <time>2020-10-01T09:55:39.000Z</time>
      </trkpt>
      <trkpt lat="47.26996" lon="-2.26472">
        <ele>-0.80000001192093</ele>
        <time>2020-10-01T09:55:40.000Z</time>
      </trkpt>
      <trkpt lat="47.26987" lon="-2.26482">
        <ele>-0.40000000596046</ele>
        <time>2020-10-01T09:55:42.000Z</time>
      </trkpt>
      <trkpt lat="47.26982" lon="-2.26487">
        <ele>24.3</ele>
        <time>2020-10-01T09:55:43.000Z</time>
      </trkpt>
      <trkpt lat="47.26977" lon="-2.26491">
        <ele>0.40000000596046</ele>
        <time>2020-10-01T09:55:44.000Z</time>
      </trkpt>
      <trkpt lat="47.26971" lon="-2.26496">
        <ele>0.80000001192093</ele>
        <time>2020-10-01T09:55:45.000Z</time>
      </trkpt>
      <trkpt lat="47.26966" lon="-2.26499">
        <ele>1.2000000476837</ele>
        <time>2020-10-01T09:55:46.000Z</time>
      </trkpt>
      <trkpt lat="47.26933" lon="-2.26517">
        <ele>1.2000000476837</ele>
        <time>2020-10-01T09:55:52.000Z</time>
      </trkpt>
      <trkpt lat="47.26896" lon="-2.26532">
        <ele>1.2000000476837</ele>
        <time>2020-10-01T09:55:59.000Z</time>
      </trkpt>
      <trkpt lat="47.2687" lon="-2.26546">
        <ele>1.2000000476837</ele>
        <time>2020-10-01T09:56:05.000Z</time>
      </trkpt>
      <trkpt lat="47.26869" lon="-2.26561">
        <ele>1.2000000476837</ele>
        <time>2020-10-01T09:56:08.000Z</time>
      </trkpt>
      <trkpt lat="47.26874" lon="-2.26578">
        <ele>1.2000000476837</ele>
        <time>2020-10-01T09:56:11.000Z</time>
      </trkpt>
      <trkpt lat="47.26878" lon="-2.26589">
        <ele>1.2000000476837</ele>
        <time>2020-10-01T09:56:13.000Z</time>
      </trkpt>
      <trkpt lat="47.26888" lon="-2.26612">
        <ele>1.2000000476837</ele>
        <time>2020-10-01T09:56:19.000Z</time>
      </trkpt>
      <trkpt lat="47.26896" lon="-2.26639">
        <ele>1.2000000476837</ele>
        <time>2020-10-01T09:56:25.000Z</time>
      </trkpt>
      <trkpt lat="47.26907" lon="-2.26672">
        <ele>1.2000000476837</ele>
        <time>2020-10-01T09:56:31.000Z</time>
      </trkpt>
      <trkpt lat="47.26913" lon="-2.26691">
        <ele>1.2000000476837</ele>
        <time>2020-10-01T09:56:34.000Z</time>
      </trkpt>
      <trkpt lat="47.2692" lon="-2.26714">
        <ele>1.2000000476837</ele>
        <time>2020-10-01T09:56:37.000Z</time>
      </trkpt>
      <trkpt lat="47.26933" lon="-2.26763">
        <ele>1.2000000476837</ele>
        <time>2020-10-01T09:56:43.000Z</time>
      </trkpt>
      <trkpt lat="47.26938" lon="-2.26781">
        <ele>1.2000000476837</ele>
        <time>2020-10-01T09:56:45.000Z</time>
      </trkpt>
      <trkpt lat="47.26944" lon="-2.26799">
        <ele>0.80000001192093</ele>
        <time>2020-10-01T09:56:47.000Z</time>
      </trkpt>
      <trkpt lat="47.26946" lon="-2.26807">
        <ele>0.40000000596046</ele>
        <time>2020-10-01T09:56:48.000Z</time>
      </trkpt>
      <trkpt lat="47.26949" lon="-2.26815">
        <ele>21.2</ele>
        <time>2020-10-01T09:56:49.000Z</time>
      </trkpt>
      <trkpt lat="47.26952" lon="-2.26824">
        <ele>-0.40000000596046</ele>
        <time>2020-10-01T09:56:50.000Z</time>
      </trkpt>
      <trkpt lat="47.26954" lon="-2.26832">
        <ele>-0.80000001192093</ele>
        <time>2020-10-01T09:56:51.000Z</time>
      </trkpt>
      <trkpt lat="47.26957" lon="-2.26848">
        <ele>-0.80000001192093</ele>
        <time>2020-10-01T09:56:53.000Z</time>
      </trkpt>
      <trkpt lat="47.26958" lon="-2.26856">
        <ele>-0.80000001192093</ele>
        <time>2020-10-01T09:56:54.000Z</time>
      </trkpt>
      <trkpt lat="47.26965" lon="-2.26905">
        <ele>-0.80000001192093</ele>
        <time>2020-10-01T09:57:00.000Z</time>
      </trkpt>
      <trkpt lat="47.26966" lon="-2.26913">
        <ele>-0.80000001192093</ele>
        <time>2020-10-01T09:57:01.000Z</time>
      </trkpt>
      <trkpt lat="47.26966" lon="-2.26927">
        <ele>-0.80000001192093</ele>
        <time>2020-10-01T09:57:03.000Z</time>
      </trkpt>
      <trkpt lat="47.26964" lon="-2.26942">
        <ele>-0.80000001192093</ele>
        <time>2020-10-01T09:57:05.000Z</time>
      </trkpt>
      <trkpt lat="47.2696" lon="-2.2697">
        <ele>-0.80000001192093</ele>
        <time>2020-10-01T09:57:09.000Z</time>
      </trkpt>
      <trkpt lat="47.26958" lon="-2.26977">
        <ele>-0.80000001192093</ele>
        <time>2020-10-01T09:57:10.000Z</time>
      </trkpt>
      <trkpt lat="47.2695" lon="-2.27001">
        <ele>-0.80000001192093</ele>
        <time>2020-10-01T09:57:14.000Z</time>
      </trkpt>
      <trkpt lat="47.2694" lon="-2.27026">
        <ele>-0.80000001192093</ele>
        <time>2020-10-01T09:57:19.000Z</time>
      </trkpt>
      <trkpt lat="47.26923" lon="-2.27048">
        <ele>-0.40000000596046</ele>
        <time>2020-10-01T09:57:25.000Z</time>
      </trkpt>
      <trkpt lat="47.26919" lon="-2.27051">
        <ele>26</ele>
        <time>2020-10-01T09:57:26.000Z</time>
      </trkpt>
      <trkpt lat="47.26915" lon="-2.27055">
        <ele>0.40000000596046</ele>
        <time>2020-10-01T09:57:27.000Z</time>
      </trkpt>
      <trkpt lat="47.26912" lon="-2.27059">
        <ele>0.80000001192093</ele>
        <time>2020-10-01T09:57:28.000Z</time>
      </trkpt>
      <trkpt lat="47.26908" lon="-2.27064">
        <ele>1.2000000476837</ele>
        <time>2020-10-01T09:57:29.000Z</time>
      </trkpt>
      <trkpt lat="47.26904" lon="-2.27069">
        <ele>1.2000000476837</ele>
        <time>2020-10-01T09:57:30.000Z</time>
      </trkpt>
      <trkpt lat="47.26901" lon="-2.27074">
        <ele>1.2000000476837</ele>
        <time>2020-10-01T09:57:31.000Z</time>
      </trkpt>
      <trkpt lat="47.26897" lon="-2.27078">
        <ele>1.7999999523163</ele>
        <time>2020-10-01T09:57:32.000Z</time>
      </trkpt>
      <trkpt lat="47.26893" lon="-2.27082">
        <ele>2.2000000476837</ele>
        <time>2020-10-01T09:57:33.000Z</time>
      </trkpt>
      <trkpt lat="47.26889" lon="-2.27087">
        <ele>2.5999999046326</ele>
        <time>2020-10-01T09:57:34.000Z</time>
      </trkpt>
      <trkpt lat="47.26884" lon="-2.27092">
        <ele>3</ele>
        <time>2020-10-01T09:57:35.000Z</time>
      </trkpt>
      <trkpt lat="47.2688" lon="-2.27096">
        <ele>3.5999999046326</ele>
        <time>2020-10-01T09:57:36.000Z</time>
      </trkpt>
      <trkpt lat="47.26863" lon="-2.27109">
        <ele>4</ele>
        <time>2020-10-01T09:57:40.000Z</time>
      </trkpt>
      <trkpt lat="47.26858" lon="-2.27112">
        <ele>4.4000000953674</ele>
        <time>2020-10-01T09:57:41.000Z</time>
      </trkpt>
      <trkpt lat="47.26851" lon="-2.27114">
        <ele>4.8000001907349</ele>
        <time>2020-10-01T09:57:42.000Z</time>
      </trkpt>
      <trkpt lat="47.26846" lon="-2.27117">
        <ele>5.1999998092651</ele>
        <time>2020-10-01T09:57:43.000Z</time>
      </trkpt>
      <trkpt lat="47.26841" lon="-2.27119">
        <ele>5.5999999046326</ele>
        <time>2020-10-01T09:57:44.000Z</time>
      </trkpt>
      <trkpt lat="47.26831" lon="-2.27121">
        <ele>5.5999999046326</ele>
        <time>2020-10-01T09:57:46.000Z</time>
      </trkpt>
      <trkpt lat="47.26821" lon="-2.27124">
        <ele>5.5999999046326</ele>
        <time>2020-10-01T09:57:48.000Z</time>
      </trkpt>
      <trkpt lat="47.26816" lon="-2.27126">
        <ele>5.5999999046326</ele>
        <time>2020-10-01T09:57:49.000Z</time>
      </trkpt>
      <trkpt lat="47.26807" lon="-2.27129">
        <ele>5.5999999046326</ele>
        <time>2020-10-01T09:57:51.000Z</time>
      </trkpt>
      <trkpt lat="47.26794" lon="-2.27133">
        <ele>5.5999999046326</ele>
        <time>2020-10-01T09:57:54.000Z</time>
      </trkpt>
      <trkpt lat="47.2678" lon="-2.27139">
        <ele>5.5999999046326</ele>
        <time>2020-10-01T09:57:58.000Z</time>
      </trkpt>
      <trkpt lat="47.26775" lon="-2.27141">
        <ele>5.5999999046326</ele>
        <time>2020-10-01T09:57:59.000Z</time>
      </trkpt>
      <trkpt lat="47.26763" lon="-2.27151">
        <ele>5.5999999046326</ele>
        <time>2020-10-01T09:58:02.000Z</time>
      </trkpt>
      <trkpt lat="47.26759" lon="-2.27154">
        <ele>5.5999999046326</ele>
        <time>2020-10-01T09:58:03.000Z</time>
      </trkpt>
      <trkpt lat="47.26756" lon="-2.27158">
        <ele>6</ele>
        <time>2020-10-01T09:58:04.000Z</time>
      </trkpt>
      <trkpt lat="47.26752" lon="-2.27162">
        <ele>6.4000000953674</ele>
        <time>2020-10-01T09:58:05.000Z</time>
      </trkpt>
      <trkpt lat="47.26747" lon="-2.27166">
        <ele>6.8000001907349</ele>
        <time>2020-10-01T09:58:06.000Z</time>
      </trkpt>
      <trkpt lat="47.26743" lon="-2.2717">
        <ele>7.4000000953674</ele>
        <time>2020-10-01T09:58:07.000Z</time>
      </trkpt>
      <trkpt lat="47.26739" lon="-2.27173">
        <ele>7.8000001907349</ele>
        <time>2020-10-01T09:58:08.000Z</time>
      </trkpt>
      <trkpt lat="47.26736" lon="-2.27176">
        <ele>7.8000001907349</ele>
        <time>2020-10-01T09:58:09.000Z</time>
      </trkpt>
      <trkpt lat="47.26725" lon="-2.27192">
        <ele>7.8000001907349</ele>
        <time>2020-10-01T09:58:13.000Z</time>
      </trkpt>
      <trkpt lat="47.26723" lon="-2.27195">
        <ele>7.8000001907349</ele>
        <time>2020-10-01T09:58:14.000Z</time>
      </trkpt>
      <trkpt lat="47.26722" lon="-2.272">
        <ele>8.1999998092651</ele>
        <time>2020-10-01T09:58:15.000Z</time>
      </trkpt>
      <trkpt lat="47.26722" lon="-2.27204">
        <ele>8.6000003814697</ele>
        <time>2020-10-01T09:58:16.000Z</time>
      </trkpt>
      <trkpt lat="47.26721" lon="-2.27208">
        <ele>9</ele>
        <time>2020-10-01T09:58:17.000Z</time>
      </trkpt>
      <trkpt lat="47.26722" lon="-2.27213">
        <ele>9.3999996185303</ele>
        <time>2020-10-01T09:58:18.000Z</time>
      </trkpt>
      <trkpt lat="47.26723" lon="-2.27218">
        <ele>9.8000001907349</ele>
        <time>2020-10-01T09:58:19.000Z</time>
      </trkpt>
      <trkpt lat="47.26727" lon="-2.27248">
        <ele>9.8000001907349</ele>
        <time>2020-10-01T09:58:24.000Z</time>
      </trkpt>
      <trkpt lat="47.26735" lon="-2.2729">
        <ele>9.8000001907349</ele>
        <time>2020-10-01T09:58:30.000Z</time>
      </trkpt>
      <trkpt lat="47.2674" lon="-2.27345">
        <ele>9.8000001907349</ele>
        <time>2020-10-01T09:58:37.000Z</time>
      </trkpt>
      <trkpt lat="47.2673" lon="-2.27357">
        <ele>9.8000001907349</ele>
        <time>2020-10-01T09:58:40.000Z</time>
      </trkpt>
      <trkpt lat="47.26721" lon="-2.2736">
        <ele>9.8000001907349</ele>
        <time>2020-10-01T09:58:42.000Z</time>
      </trkpt>
      <trkpt lat="47.26707" lon="-2.27366">
        <ele>9.8000001907349</ele>
        <time>2020-10-01T09:58:45.000Z</time>
      </trkpt>
      <trkpt lat="47.26685" lon="-2.27378">
        <ele>9.8000001907349</ele>
        <time>2020-10-01T09:58:51.000Z</time>
      </trkpt>
      <trkpt lat="47.26675" lon="-2.27386">
        <ele>9.8000001907349</ele>
        <time>2020-10-01T09:58:55.000Z</time>
      </trkpt>
      <trkpt lat="47.26656" lon="-2.27403">
        <ele>9.8000001907349</ele>
        <time>2020-10-01T09:59:00.000Z</time>
      </trkpt>
      <trkpt lat="47.26627" lon="-2.27429">
        <ele>9.8000001907349</ele>
        <time>2020-10-01T09:59:07.000Z</time>
      </trkpt>
      <trkpt lat="47.26604" lon="-2.27455">
        <ele>9.8000001907349</ele>
        <time>2020-10-01T09:59:14.000Z</time>
      </trkpt>
      <trkpt lat="47.26579" lon="-2.27487">
        <ele>9.8000001907349</ele>
        <time>2020-10-01T09:59:20.000Z</time>
      </trkpt>
      <trkpt lat="47.26568" lon="-2.27521">
        <ele>9.8000001907349</ele>
        <time>2020-10-01T09:59:24.000Z</time>
      </trkpt>
      <trkpt lat="47.26551" lon="-2.27551">
        <ele>9.8000001907349</ele>
        <time>2020-10-01T09:59:28.000Z</time>
      </trkpt>
      <trkpt lat="47.26539" lon="-2.27563">
        <ele>9.8000001907349</ele>
        <time>2020-10-01T09:59:30.000Z</time>
      </trkpt>
      <trkpt lat="47.26532" lon="-2.27569">
        <ele>9.8000001907349</ele>
        <time>2020-10-01T09:59:31.000Z</time>
      </trkpt>
      <trkpt lat="47.26525" lon="-2.27572">
        <ele>9.8000001907349</ele>
        <time>2020-10-01T09:59:32.000Z</time>
      </trkpt>
      <trkpt lat="47.26518" lon="-2.27575">
        <ele>9.3999996185303</ele>
        <time>2020-10-01T09:59:33.000Z</time>
      </trkpt>
      <trkpt lat="47.26511" lon="-2.27576">
        <ele>9</ele>
        <time>2020-10-01T09:59:34.000Z</time>
      </trkpt>
      <trkpt lat="47.26505" lon="-2.27576">
        <ele>8.6000003814697</ele>
        <time>2020-10-01T09:59:35.000Z</time>
      </trkpt>
      <trkpt lat="47.26499" lon="-2.27576">
        <ele>8.1999998092651</ele>
        <time>2020-10-01T09:59:36.000Z</time>
      </trkpt>
      <trkpt lat="47.26495" lon="-2.27574">
        <ele>7.8000001907349</ele>
        <time>2020-10-01T09:59:37.000Z</time>
      </trkpt>
      <trkpt lat="47.26489" lon="-2.27564">
        <ele>7.8000001907349</ele>
        <time>2020-10-01T09:59:39.000Z</time>
      </trkpt>
      <trkpt lat="47.26488" lon="-2.27552">
        <ele>7.8000001907349</ele>
        <time>2020-10-01T09:59:41.000Z</time>
      </trkpt>
      <trkpt lat="47.26487" lon="-2.27546">
        <ele>7.8000001907349</ele>
        <time>2020-10-01T09:59:42.000Z</time>
      </trkpt>
      <trkpt lat="47.26482" lon="-2.27513">
        <ele>7.8000001907349</ele>
        <time>2020-10-01T09:59:47.000Z</time>
      </trkpt>
      <trkpt lat="47.26478" lon="-2.275">
        <ele>7.8000001907349</ele>
        <time>2020-10-01T09:59:49.000Z</time>
      </trkpt>
      <trkpt lat="47.26468" lon="-2.27468">
        <ele>7.8000001907349</ele>
        <time>2020-10-01T09:59:54.000Z</time>
      </trkpt>
      <trkpt lat="47.26466" lon="-2.27461">
        <ele>8.1999998092651</ele>
        <time>2020-10-01T09:59:55.000Z</time>
      </trkpt>
      <trkpt lat="47.26464" lon="-2.27454">
        <ele>8.6000003814697</ele>
        <time>2020-10-01T09:59:56.000Z</time>
      </trkpt>
      <trkpt lat="47.26462" lon="-2.27448">
        <ele>9</ele>
        <time>2020-10-01T09:59:57.000Z</time>
      </trkpt>
      <trkpt lat="47.2646" lon="-2.27441">
        <ele>9.3999996185303</ele>
        <time>2020-10-01T09:59:58.000Z</time>
      </trkpt>
      <trkpt lat="47.26458" lon="-2.27434">
        <ele>9.8000001907349</ele>
        <time>2020-10-01T09:59:59.000Z</time>
      </trkpt>
      <trkpt lat="47.26455" lon="-2.27427">
        <ele>9.8000001907349</ele>
        <time>2020-10-01T10:00:00.000Z</time>
      </trkpt>
      <trkpt lat="47.26442" lon="-2.27387">
        <ele>9.8000001907349</ele>
        <time>2020-10-01T10:00:06.000Z</time>
      </trkpt>
      <trkpt lat="47.26432" lon="-2.27363">
        <ele>10.199999809265</ele>
        <time>2020-10-01T10:00:10.000Z</time>
      </trkpt>
      <trkpt lat="47.2643" lon="-2.27357">
        <ele>10.60000038147</ele>
        <time>2020-10-01T10:00:11.000Z</time>
      </trkpt>
      <trkpt lat="47.26428" lon="-2.27351">
        <ele>11</ele>
        <time>2020-10-01T10:00:12.000Z</time>
      </trkpt>
      <trkpt lat="47.26426" lon="-2.27346">
        <ele>12</ele>
        <time>2020-10-01T10:00:13.000Z</time>
      </trkpt>
      <trkpt lat="47.26418" lon="-2.27339">
        <ele>12</ele>
        <time>2020-10-01T10:00:15.000Z</time>
      </trkpt>
      <trkpt lat="47.26403" lon="-2.27334">
        <ele>12</ele>
        <time>2020-10-01T10:00:18.000Z</time>
      </trkpt>
      <trkpt lat="47.26398" lon="-2.27334">
        <ele>12</ele>
        <time>2020-10-01T10:00:19.000Z</time>
      </trkpt>
      <trkpt lat="47.26367" lon="-2.27333">
        <ele>12</ele>
        <time>2020-10-01T10:00:25.000Z</time>
      </trkpt>
      <trkpt lat="47.26352" lon="-2.27332">
        <ele>12</ele>
        <time>2020-10-01T10:00:28.000Z</time>
      </trkpt>
      <trkpt lat="47.26343" lon="-2.27331">
        <ele>12.39999961853</ele>
        <time>2020-10-01T10:00:30.000Z</time>
      </trkpt>
      <trkpt lat="47.26338" lon="-2.27331">
        <ele>12.800000190735</ele>
        <time>2020-10-01T10:00:31.000Z</time>
      </trkpt>
      <trkpt lat="47.26332" lon="-2.27329">
        <ele>13.199999809265</ele>
        <time>2020-10-01T10:00:32.000Z</time>
      </trkpt>
      <trkpt lat="47.26327" lon="-2.27328">
        <ele>13.60000038147</ele>
        <time>2020-10-01T10:00:33.000Z</time>
      </trkpt>
      <trkpt lat="47.26322" lon="-2.27328">
        <ele>14</ele>
        <time>2020-10-01T10:00:34.000Z</time>
      </trkpt>
      <trkpt lat="47.26312" lon="-2.27328">
        <ele>14</ele>
        <time>2020-10-01T10:00:36.000Z</time>
      </trkpt>
      <trkpt lat="47.26281" lon="-2.27323">
        <ele>14</ele>
        <time>2020-10-01T10:00:42.000Z</time>
      </trkpt>
      <trkpt lat="47.26251" lon="-2.27321">
        <ele>14</ele>
        <time>2020-10-01T10:00:48.000Z</time>
      </trkpt>
      <trkpt lat="47.26241" lon="-2.27319">
        <ele>14</ele>
        <time>2020-10-01T10:00:50.000Z</time>
      </trkpt>
      <trkpt lat="47.26218" lon="-2.27314">
        <ele>14</ele>
        <time>2020-10-01T10:00:55.000Z</time>
      </trkpt>
      <trkpt lat="47.26192" lon="-2.27314">
        <ele>14</ele>
        <time>2020-10-01T10:01:00.000Z</time>
      </trkpt>
      <trkpt lat="47.26187" lon="-2.27316">
        <ele>14</ele>
        <time>2020-10-01T10:01:01.000Z</time>
      </trkpt>
      <trkpt lat="47.26176" lon="-2.27317">
        <ele>14</ele>
        <time>2020-10-01T10:01:03.000Z</time>
      </trkpt>
      <trkpt lat="47.26161" lon="-2.27319">
        <ele>14</ele>
        <time>2020-10-01T10:01:06.000Z</time>
      </trkpt>
      <trkpt lat="47.26151" lon="-2.27318">
        <ele>14</ele>
        <time>2020-10-01T10:01:08.000Z</time>
      </trkpt>
      <trkpt lat="47.26142" lon="-2.27319">
        <ele>14</ele>
        <time>2020-10-01T10:01:10.000Z</time>
      </trkpt>
      <trkpt lat="47.26138" lon="-2.27322">
        <ele>14</ele>
        <time>2020-10-01T10:01:11.000Z</time>
      </trkpt>
      <trkpt lat="47.26126" lon="-2.27334">
        <ele>14</ele>
        <time>2020-10-01T10:01:14.000Z</time>
      </trkpt>
      <trkpt lat="47.26122" lon="-2.27338">
        <ele>14</ele>
        <time>2020-10-01T10:01:15.000Z</time>
      </trkpt>
      <trkpt lat="47.26099" lon="-2.27362">
        <ele>14.39999961853</ele>
        <time>2020-10-01T10:01:20.000Z</time>
      </trkpt>
      <trkpt lat="47.26094" lon="-2.27367">
        <ele>14.800000190735</ele>
        <time>2020-10-01T10:01:21.000Z</time>
      </trkpt>
      <trkpt lat="47.26091" lon="-2.27372">
        <ele>15.199999809265</ele>
        <time>2020-10-01T10:01:22.000Z</time>
      </trkpt>
      <trkpt lat="47.26087" lon="-2.27378">
        <ele>15.60000038147</ele>
        <time>2020-10-01T10:01:23.000Z</time>
      </trkpt>
      <trkpt lat="47.26083" lon="-2.27382">
        <ele>16</ele>
        <time>2020-10-01T10:01:24.000Z</time>
      </trkpt>
      <trkpt lat="47.26072" lon="-2.27399">
        <ele>16</ele>
        <time>2020-10-01T10:01:27.000Z</time>
      </trkpt>
      <trkpt lat="47.26069" lon="-2.27405">
        <ele>16</ele>
        <time>2020-10-01T10:01:28.000Z</time>
      </trkpt>
      <trkpt lat="47.2606" lon="-2.27425">
        <ele>16</ele>
        <time>2020-10-01T10:01:31.000Z</time>
      </trkpt>
      <trkpt lat="47.26057" lon="-2.27431">
        <ele>16</ele>
        <time>2020-10-01T10:01:32.000Z</time>
      </trkpt>
      <trkpt lat="47.26049" lon="-2.2745">
        <ele>16</ele>
        <time>2020-10-01T10:01:35.000Z</time>
      </trkpt>
      <trkpt lat="47.26044" lon="-2.27461">
        <ele>16</ele>
        <time>2020-10-01T10:01:37.000Z</time>
      </trkpt>
      <trkpt lat="47.26032" lon="-2.2749">
        <ele>16</ele>
        <time>2020-10-01T10:01:42.000Z</time>
      </trkpt>
      <trkpt lat="47.26019" lon="-2.27525">
        <ele>16</ele>
        <time>2020-10-01T10:01:48.000Z</time>
      </trkpt>
      <trkpt lat="47.26" lon="-2.27541">
        <ele>16</ele>
        <time>2020-10-01T10:01:52.000Z</time>
      </trkpt>
      <trkpt lat="47.25992" lon="-2.27548">
        <ele>16</ele>
        <time>2020-10-01T10:01:54.000Z</time>
      </trkpt>
      <trkpt lat="47.2598" lon="-2.27559">
        <ele>16</ele>
        <time>2020-10-01T10:01:57.000Z</time>
      </trkpt>
      <trkpt lat="47.25968" lon="-2.27571">
        <ele>16</ele>
        <time>2020-10-01T10:02:01.000Z</time>
      </trkpt>
      <trkpt lat="47.25962" lon="-2.27578">
        <ele>16</ele>
        <time>2020-10-01T10:02:06.000Z</time>
      </trkpt>
      <trkpt lat="47.25957" lon="-2.27585">
        <ele>16</ele>
        <time>2020-10-01T10:03:48.000Z</time>
      </trkpt>
      <trkpt lat="47.25952" lon="-2.27591">
        <ele>16</ele>
        <time>2020-10-01T10:03:51.000Z</time>
      </trkpt>
      <trkpt lat="47.25938" lon="-2.27603">
        <ele>16</ele>
        <time>2020-10-01T10:03:56.000Z</time>
      </trkpt>
      <trkpt lat="47.25935" lon="-2.27605">
        <ele>16.39999961853</ele>
        <time>2020-10-01T10:03:57.000Z</time>
      </trkpt>
      <trkpt lat="47.25932" lon="-2.27608">
        <ele>16.799999237061</ele>
        <time>2020-10-01T10:03:58.000Z</time>
      </trkpt>
      <trkpt lat="47.25929" lon="-2.27611">
        <ele>17.200000762939</ele>
        <time>2020-10-01T10:03:59.000Z</time>
      </trkpt>
      <trkpt lat="47.25926" lon="-2.27614">
        <ele>17.60000038147</ele>
        <time>2020-10-01T10:04:00.000Z</time>
      </trkpt>
      <trkpt lat="47.25923" lon="-2.27617">
        <ele>18</ele>
        <time>2020-10-01T10:04:01.000Z</time>
      </trkpt>
      <trkpt lat="47.2592" lon="-2.2762">
        <ele>18</ele>
        <time>2020-10-01T10:04:02.000Z</time>
      </trkpt>
      <trkpt lat="47.25903" lon="-2.27643">
        <ele>18</ele>
        <time>2020-10-01T10:04:09.000Z</time>
      </trkpt>
      <trkpt lat="47.25893" lon="-2.27672">
        <ele>18</ele>
        <time>2020-10-01T10:04:15.000Z</time>
      </trkpt>
      <trkpt lat="47.25893" lon="-2.27702">
        <ele>18</ele>
        <time>2020-10-01T10:04:21.000Z</time>
      </trkpt>
      <trkpt lat="47.25894" lon="-2.2773">
        <ele>18</ele>
        <time>2020-10-01T10:04:27.000Z</time>
      </trkpt>
      <trkpt lat="47.25896" lon="-2.27754">
        <ele>18</ele>
        <time>2020-10-01T10:04:34.000Z</time>
      </trkpt>
      <trkpt lat="47.25894" lon="-2.27756">
        <ele>18</ele>
        <time>2020-10-01T10:04:35.000Z</time>
      </trkpt>
      <trkpt lat="47.25886" lon="-2.27761">
        <ele>18</ele>
        <time>2020-10-01T10:04:38.000Z</time>
      </trkpt>
      <trkpt lat="47.2588" lon="-2.27765">
        <ele>18</ele>
        <time>2020-10-01T10:04:41.000Z</time>
      </trkpt>
      <trkpt lat="47.2588" lon="-2.27769">
        <ele>18</ele>
        <time>2020-10-01T10:04:42.000Z</time>
      </trkpt>
      <trkpt lat="47.25881" lon="-2.27782">
        <ele>18</ele>
        <time>2020-10-01T10:04:45.000Z</time>
      </trkpt>
      <trkpt lat="47.25882" lon="-2.27792">
        <ele>18</ele>
        <time>2020-10-01T10:04:47.000Z</time>
      </trkpt>
      <trkpt lat="47.25884" lon="-2.27808">
        <ele>18.60000038147</ele>
        <time>2020-10-01T10:04:50.000Z</time>
      </trkpt>
      <trkpt lat="47.25884" lon="-2.27813">
        <ele>19</ele>
        <time>2020-10-01T10:04:51.000Z</time>
      </trkpt>
      <trkpt lat="47.25885" lon="-2.27819">
        <ele>19.39999961853</ele>
        <time>2020-10-01T10:04:52.000Z</time>
      </trkpt>
      <trkpt lat="47.25886" lon="-2.27823">
        <ele>19.799999237061</ele>
        <time>2020-10-01T10:04:53.000Z</time>
      </trkpt>
      <trkpt lat="47.25887" lon="-2.27829">
        <ele>20.200000762939</ele>
        <time>2020-10-01T10:04:54.000Z</time>
      </trkpt>
      <trkpt lat="47.25892" lon="-2.27868">
        <ele>20.200000762939</ele>
        <time>2020-10-01T10:05:01.000Z</time>
      </trkpt>
      <trkpt lat="47.25902" lon="-2.27932">
        <ele>20.200000762939</ele>
        <time>2020-10-01T10:05:12.000Z</time>
      </trkpt>
      <trkpt lat="47.25912" lon="-2.27993">
        <ele>20.200000762939</ele>
        <time>2020-10-01T10:05:22.000Z</time>
      </trkpt>
      <trkpt lat="47.25919" lon="-2.28049">
        <ele>20.200000762939</ele>
        <time>2020-10-01T10:05:30.000Z</time>
      </trkpt>
      <trkpt lat="47.25922" lon="-2.28108">
        <ele>20.200000762939</ele>
        <time>2020-10-01T10:05:38.000Z</time>
      </trkpt>
      <trkpt lat="47.25924" lon="-2.28152">
        <ele>20.200000762939</ele>
        <time>2020-10-01T10:05:44.000Z</time>
      </trkpt>
      <trkpt lat="47.25923" lon="-2.28159">
        <ele>20.200000762939</ele>
        <time>2020-10-01T10:05:45.000Z</time>
      </trkpt>
      <trkpt lat="47.25922" lon="-2.28166">
        <ele>20.60000038147</ele>
        <time>2020-10-01T10:05:46.000Z</time>
      </trkpt>
      <trkpt lat="47.25919" lon="-2.28172">
        <ele>21</ele>
        <time>2020-10-01T10:05:47.000Z</time>
      </trkpt>
      <trkpt lat="47.25917" lon="-2.28178">
        <ele>21.60000038147</ele>
        <time>2020-10-01T10:05:48.000Z</time>
      </trkpt>
      <trkpt lat="47.25915" lon="-2.28184">
        <ele>22</ele>
        <time>2020-10-01T10:05:49.000Z</time>
      </trkpt>
      <trkpt lat="47.25912" lon="-2.2819">
        <ele>22.39999961853</ele>
        <time>2020-10-01T10:05:50.000Z</time>
      </trkpt>
      <trkpt lat="47.25908" lon="-2.28204">
        <ele>22.39999961853</ele>
        <time>2020-10-01T10:05:52.000Z</time>
      </trkpt>
      <trkpt lat="47.25907" lon="-2.28212">
        <ele>22.39999961853</ele>
        <time>2020-10-01T10:05:53.000Z</time>
      </trkpt>
      <trkpt lat="47.25907" lon="-2.28236">
        <ele>22.39999961853</ele>
        <time>2020-10-01T10:05:57.000Z</time>
      </trkpt>
      <trkpt lat="47.25904" lon="-2.28239">
        <ele>22.39999961853</ele>
        <time>2020-10-01T10:05:58.000Z</time>
      </trkpt>
      <trkpt lat="47.25897" lon="-2.28242">
        <ele>22.39999961853</ele>
        <time>2020-10-01T10:06:00.000Z</time>
      </trkpt>
      <trkpt lat="47.25887" lon="-2.28245">
        <ele>22.39999961853</ele>
        <time>2020-10-01T10:06:02.000Z</time>
      </trkpt>
      <trkpt lat="47.25882" lon="-2.28245">
        <ele>22</ele>
        <time>2020-10-01T10:06:03.000Z</time>
      </trkpt>
      <trkpt lat="47.25877" lon="-2.28245">
        <ele>21.60000038147</ele>
        <time>2020-10-01T10:06:04.000Z</time>
      </trkpt>
      <trkpt lat="47.25872" lon="-2.28245">
        <ele>21.200000762939</ele>
        <time>2020-10-01T10:06:05.000Z</time>
      </trkpt>
      <trkpt lat="47.25867" lon="-2.28246">
        <ele>20.799999237061</ele>
        <time>2020-10-01T10:06:06.000Z</time>
      </trkpt>
      <trkpt lat="47.25862" lon="-2.28247">
        <ele>20.39999961853</ele>
        <time>2020-10-01T10:06:07.000Z</time>
      </trkpt>
      <trkpt lat="47.25841" lon="-2.2825">
        <ele>20.39999961853</ele>
        <time>2020-10-01T10:06:11.000Z</time>
      </trkpt>
      <trkpt lat="47.25804" lon="-2.28254">
        <ele>20.39999961853</ele>
        <time>2020-10-01T10:06:18.000Z</time>
      </trkpt>
      <trkpt lat="47.25771" lon="-2.28254">
        <ele>20.39999961853</ele>
        <time>2020-10-01T10:06:25.000Z</time>
      </trkpt>
      <trkpt lat="47.25738" lon="-2.28255">
        <ele>20.39999961853</ele>
        <time>2020-10-01T10:06:31.000Z</time>
      </trkpt>
      <trkpt lat="47.25697" lon="-2.28265">
        <ele>20.39999961853</ele>
        <time>2020-10-01T10:06:38.000Z</time>
      </trkpt>
      <trkpt lat="47.25657" lon="-2.28282">
        <ele>20.39999961853</ele>
        <time>2020-10-01T10:06:45.000Z</time>
      </trkpt>
      <trkpt lat="47.25623" lon="-2.28304">
        <ele>20.39999961853</ele>
        <time>2020-10-01T10:06:51.000Z</time>
      </trkpt>
      <trkpt lat="47.25618" lon="-2.28307">
        <ele>20.39999961853</ele>
        <time>2020-10-01T10:06:52.000Z</time>
      </trkpt>
      <trkpt lat="47.25612" lon="-2.2831">
        <ele>19.799999237061</ele>
        <time>2020-10-01T10:06:53.000Z</time>
      </trkpt>
      <trkpt lat="47.25607" lon="-2.28313">
        <ele>19.39999961853</ele>
        <time>2020-10-01T10:06:54.000Z</time>
      </trkpt>
      <trkpt lat="47.25602" lon="-2.28317">
        <ele>19</ele>
        <time>2020-10-01T10:06:55.000Z</time>
      </trkpt>
      <trkpt lat="47.25596" lon="-2.2832">
        <ele>18.39999961853</ele>
        <time>2020-10-01T10:06:56.000Z</time>
      </trkpt>
      <trkpt lat="47.25591" lon="-2.28324">
        <ele>18</ele>
        <time>2020-10-01T10:06:57.000Z</time>
      </trkpt>
      <trkpt lat="47.25581" lon="-2.2833">
        <ele>18</ele>
        <time>2020-10-01T10:06:59.000Z</time>
      </trkpt>
      <trkpt lat="47.25565" lon="-2.28336">
        <ele>18</ele>
        <time>2020-10-01T10:07:02.000Z</time>
      </trkpt>
      <trkpt lat="47.25545" lon="-2.28342">
        <ele>18</ele>
        <time>2020-10-01T10:07:06.000Z</time>
      </trkpt>
      <trkpt lat="47.25531" lon="-2.28346">
        <ele>18</ele>
        <time>2020-10-01T10:07:09.000Z</time>
      </trkpt>
      <trkpt lat="47.25523" lon="-2.28352">
        <ele>18</ele>
        <time>2020-10-01T10:07:11.000Z</time>
      </trkpt>
      <trkpt lat="47.2552" lon="-2.28358">
        <ele>17.60000038147</ele>
        <time>2020-10-01T10:07:12.000Z</time>
      </trkpt>
      <trkpt lat="47.25518" lon="-2.28366">
        <ele>16.799999237061</ele>
        <time>2020-10-01T10:07:13.000Z</time>
      </trkpt>
      <trkpt lat="47.25517" lon="-2.28374">
        <ele>16.39999961853</ele>
        <time>2020-10-01T10:07:14.000Z</time>
      </trkpt>
      <trkpt lat="47.25517" lon="-2.28383">
        <ele>16</ele>
        <time>2020-10-01T10:07:15.000Z</time>
      </trkpt>
      <trkpt lat="47.25518" lon="-2.28393">
        <ele>16</ele>
        <time>2020-10-01T10:07:16.000Z</time>
      </trkpt>
      <trkpt lat="47.25519" lon="-2.28402">
        <ele>16</ele>
        <time>2020-10-01T10:07:17.000Z</time>
      </trkpt>
      <trkpt lat="47.25517" lon="-2.28461">
        <ele>16</ele>
        <time>2020-10-01T10:07:23.000Z</time>
      </trkpt>
      <trkpt lat="47.25516" lon="-2.28509">
        <ele>16</ele>
        <time>2020-10-01T10:07:28.000Z</time>
      </trkpt>
      <trkpt lat="47.25518" lon="-2.28573">
        <ele>16</ele>
        <time>2020-10-01T10:07:35.000Z</time>
      </trkpt>
      <trkpt lat="47.2552" lon="-2.2863">
        <ele>16</ele>
        <time>2020-10-01T10:07:41.000Z</time>
      </trkpt>
      <trkpt lat="47.25523" lon="-2.28659">
        <ele>15.60000038147</ele>
        <time>2020-10-01T10:07:44.000Z</time>
      </trkpt>
      <trkpt lat="47.25524" lon="-2.2867">
        <ele>15</ele>
        <time>2020-10-01T10:07:45.000Z</time>
      </trkpt>
      <trkpt lat="47.25526" lon="-2.2868">
        <ele>14.60000038147</ele>
        <time>2020-10-01T10:07:46.000Z</time>
      </trkpt>
      <trkpt lat="47.25528" lon="-2.2869">
        <ele>14.199999809265</ele>
        <time>2020-10-01T10:07:47.000Z</time>
      </trkpt>
      <trkpt lat="47.2553" lon="-2.287">
        <ele>13.60000038147</ele>
        <time>2020-10-01T10:07:48.000Z</time>
      </trkpt>
      <trkpt lat="47.2554" lon="-2.28746">
        <ele>13.60000038147</ele>
        <time>2020-10-01T10:07:53.000Z</time>
      </trkpt>
      <trkpt lat="47.25545" lon="-2.28772">
        <ele>13.199999809265</ele>
        <time>2020-10-01T10:07:56.000Z</time>
      </trkpt>
      <trkpt lat="47.25548" lon="-2.2878">
        <ele>12.800000190735</ele>
        <time>2020-10-01T10:07:57.000Z</time>
      </trkpt>
      <trkpt lat="47.2555" lon="-2.28789">
        <ele>12.39999961853</ele>
        <time>2020-10-01T10:07:58.000Z</time>
      </trkpt>
      <trkpt lat="47.25552" lon="-2.28798">
        <ele>12</ele>
        <time>2020-10-01T10:07:59.000Z</time>
      </trkpt>
      <trkpt lat="47.25554" lon="-2.28808">
        <ele>11.39999961853</ele>
        <time>2020-10-01T10:08:00.000Z</time>
      </trkpt>
      <trkpt lat="47.25571" lon="-2.28869">
        <ele>11.39999961853</ele>
        <time>2020-10-01T10:08:07.000Z</time>
      </trkpt>
      <trkpt lat="47.25577" lon="-2.28904">
        <ele>11.39999961853</ele>
        <time>2020-10-01T10:08:11.000Z</time>
      </trkpt>
      <trkpt lat="47.25584" lon="-2.28936">
        <ele>11.39999961853</ele>
        <time>2020-10-01T10:08:15.000Z</time>
      </trkpt>
      <trkpt lat="47.25587" lon="-2.28951">
        <ele>11.39999961853</ele>
        <time>2020-10-01T10:08:17.000Z</time>
      </trkpt>
      <trkpt lat="47.25588" lon="-2.28965">
        <ele>11.39999961853</ele>
        <time>2020-10-01T10:08:19.000Z</time>
      </trkpt>
      <trkpt lat="47.25588" lon="-2.28972">
        <ele>11.39999961853</ele>
        <time>2020-10-01T10:08:20.000Z</time>
      </trkpt>
      <trkpt lat="47.25585" lon="-2.28984">
        <ele>11.39999961853</ele>
        <time>2020-10-01T10:08:22.000Z</time>
      </trkpt>
      <trkpt lat="47.2558" lon="-2.28988">
        <ele>11</ele>
        <time>2020-10-01T10:08:23.000Z</time>
      </trkpt>
      <trkpt lat="47.25576" lon="-2.28991">
        <ele>10.60000038147</ele>
        <time>2020-10-01T10:08:24.000Z</time>
      </trkpt>
      <trkpt lat="47.25571" lon="-2.28993">
        <ele>10.199999809265</ele>
        <time>2020-10-01T10:08:25.000Z</time>
      </trkpt>
      <trkpt lat="47.25566" lon="-2.28994">
        <ele>9.8000001907349</ele>
        <time>2020-10-01T10:08:26.000Z</time>
      </trkpt>
      <trkpt lat="47.25561" lon="-2.28996">
        <ele>9.3999996185303</ele>
        <time>2020-10-01T10:08:27.000Z</time>
      </trkpt>
      <trkpt lat="47.25551" lon="-2.29001">
        <ele>9.3999996185303</ele>
        <time>2020-10-01T10:08:29.000Z</time>
      </trkpt>
      <trkpt lat="47.25547" lon="-2.29005">
        <ele>9.3999996185303</ele>
        <time>2020-10-01T10:08:30.000Z</time>
      </trkpt>
      <trkpt lat="47.25535" lon="-2.2903">
        <ele>9.3999996185303</ele>
        <time>2020-10-01T10:08:34.000Z</time>
      </trkpt>
      <trkpt lat="47.25539" lon="-2.29057">
        <ele>9.3999996185303</ele>
        <time>2020-10-01T10:08:37.000Z</time>
      </trkpt>
      <trkpt lat="47.2554" lon="-2.29067">
        <ele>9.8000001907349</ele>
        <time>2020-10-01T10:08:38.000Z</time>
      </trkpt>
      <trkpt lat="47.25541" lon="-2.29075">
        <ele>10.199999809265</ele>
        <time>2020-10-01T10:08:39.000Z</time>
      </trkpt>
      <trkpt lat="47.25541" lon="-2.29085">
        <ele>10.60000038147</ele>
        <time>2020-10-01T10:08:40.000Z</time>
      </trkpt>
      <trkpt lat="47.25538" lon="-2.29093">
        <ele>11.199999809265</ele>
        <time>2020-10-01T10:08:41.000Z</time>
      </trkpt>
      <trkpt lat="47.25534" lon="-2.291">
        <ele>11.60000038147</ele>
        <time>2020-10-01T10:08:42.000Z</time>
      </trkpt>
      <trkpt lat="47.25523" lon="-2.2911">
        <ele>11.60000038147</ele>
        <time>2020-10-01T10:08:44.000Z</time>
      </trkpt>
      <trkpt lat="47.25498" lon="-2.29121">
        <ele>11.60000038147</ele>
        <time>2020-10-01T10:08:48.000Z</time>
      </trkpt>
      <trkpt lat="47.25468" lon="-2.29136">
        <ele>11.60000038147</ele>
        <time>2020-10-01T10:08:53.000Z</time>
      </trkpt>
      <trkpt lat="47.25463" lon="-2.2914">
        <ele>11.60000038147</ele>
        <time>2020-10-01T10:08:54.000Z</time>
      </trkpt>
      <trkpt lat="47.25444" lon="-2.29157">
        <ele>12</ele>
        <time>2020-10-01T10:08:58.000Z</time>
      </trkpt>
      <trkpt lat="47.25441" lon="-2.29162">
        <ele>12.39999961853</ele>
        <time>2020-10-01T10:08:59.000Z</time>
      </trkpt>
      <trkpt lat="47.25437" lon="-2.29167">
        <ele>12.800000190735</ele>
        <time>2020-10-01T10:09:00.000Z</time>
      </trkpt>
      <trkpt lat="47.25433" lon="-2.29171">
        <ele>13.199999809265</ele>
        <time>2020-10-01T10:09:01.000Z</time>
      </trkpt>
      <trkpt lat="47.25429" lon="-2.29176">
        <ele>13.60000038147</ele>
        <time>2020-10-01T10:09:02.000Z</time>
      </trkpt>
      <trkpt lat="47.2542" lon="-2.29183">
        <ele>13.60000038147</ele>
        <time>2020-10-01T10:09:05.000Z</time>
      </trkpt>
      <trkpt lat="47.25416" lon="-2.29186">
        <ele>13.60000038147</ele>
        <time>2020-10-01T10:09:06.000Z</time>
      </trkpt>
      <trkpt lat="47.25404" lon="-2.29196">
        <ele>13.60000038147</ele>
        <time>2020-10-01T10:09:09.000Z</time>
      </trkpt>
      <trkpt lat="47.25399" lon="-2.29201">
        <ele>13.60000038147</ele>
        <time>2020-10-01T10:09:10.000Z</time>
      </trkpt>
      <trkpt lat="47.25383" lon="-2.29223">
        <ele>13.60000038147</ele>
        <time>2020-10-01T10:09:14.000Z</time>
      </trkpt>
      <trkpt lat="47.25375" lon="-2.29236">
        <ele>13.60000038147</ele>
        <time>2020-10-01T10:09:16.000Z</time>
      </trkpt>
      <trkpt lat="47.25371" lon="-2.29244">
        <ele>13.60000038147</ele>
        <time>2020-10-01T10:09:17.000Z</time>
      </trkpt>
      <trkpt lat="47.25365" lon="-2.29269">
        <ele>13.60000038147</ele>
        <time>2020-10-01T10:09:20.000Z</time>
      </trkpt>
      <trkpt lat="47.25363" lon="-2.29278">
        <ele>13.60000038147</ele>
        <time>2020-10-01T10:09:21.000Z</time>
      </trkpt>
      <trkpt lat="47.25363" lon="-2.29285">
        <ele>13.60000038147</ele>
        <time>2020-10-01T10:09:22.000Z</time>
      </trkpt>
      <trkpt lat="47.25361" lon="-2.29304">
        <ele>13.60000038147</ele>
        <time>2020-10-01T10:09:24.000Z</time>
      </trkpt>
      <trkpt lat="47.25358" lon="-2.29322">
        <ele>13.60000038147</ele>
        <time>2020-10-01T10:09:26.000Z</time>
      </trkpt>
      <trkpt lat="47.25354" lon="-2.29348">
        <ele>13.60000038147</ele>
        <time>2020-10-01T10:09:29.000Z</time>
      </trkpt>
      <trkpt lat="47.25345" lon="-2.29393">
        <ele>13.60000038147</ele>
        <time>2020-10-01T10:09:34.000Z</time>
      </trkpt>
      <trkpt lat="47.25344" lon="-2.29402">
        <ele>13.60000038147</ele>
        <time>2020-10-01T10:09:35.000Z</time>
      </trkpt>
      <trkpt lat="47.25343" lon="-2.29412">
        <ele>13.60000038147</ele>
        <time>2020-10-01T10:09:36.000Z</time>
      </trkpt>
      <trkpt lat="47.25344" lon="-2.2944">
        <ele>13.60000038147</ele>
        <time>2020-10-01T10:09:39.000Z</time>
      </trkpt>
      <trkpt lat="47.25342" lon="-2.29484">
        <ele>13.60000038147</ele>
        <time>2020-10-01T10:09:44.000Z</time>
      </trkpt>
      <trkpt lat="47.25339" lon="-2.29492">
        <ele>13.60000038147</ele>
        <time>2020-10-01T10:09:45.000Z</time>
      </trkpt>
      <trkpt lat="47.25333" lon="-2.29507">
        <ele>13.60000038147</ele>
        <time>2020-10-01T10:09:47.000Z</time>
      </trkpt>
      <trkpt lat="47.25312" lon="-2.29525">
        <ele>13.60000038147</ele>
        <time>2020-10-01T10:09:51.000Z</time>
      </trkpt>
      <trkpt lat="47.25294" lon="-2.29531">
        <ele>13.60000038147</ele>
        <time>2020-10-01T10:09:54.000Z</time>
      </trkpt>
      <trkpt lat="47.25281" lon="-2.29536">
        <ele>13.60000038147</ele>
        <time>2020-10-01T10:09:56.000Z</time>
      </trkpt>
      <trkpt lat="47.25263" lon="-2.29547">
        <ele>13.60000038147</ele>
        <time>2020-10-01T10:09:59.000Z</time>
      </trkpt>
      <trkpt lat="47.25252" lon="-2.29556">
        <ele>13.60000038147</ele>
        <time>2020-10-01T10:10:01.000Z</time>
      </trkpt>
      <trkpt lat="47.25223" lon="-2.29578">
        <ele>13.60000038147</ele>
        <time>2020-10-01T10:10:06.000Z</time>
      </trkpt>
      <trkpt lat="47.2521" lon="-2.29583">
        <ele>13.60000038147</ele>
        <time>2020-10-01T10:10:08.000Z</time>
      </trkpt>
      <trkpt lat="47.25199" lon="-2.29604">
        <ele>13.60000038147</ele>
        <time>2020-10-01T10:10:11.000Z</time>
      </trkpt>
      <trkpt lat="47.25186" lon="-2.29631">
        <ele>13.60000038147</ele>
        <time>2020-10-01T10:10:15.000Z</time>
      </trkpt>
      <trkpt lat="47.25183" lon="-2.29656">
        <ele>13.60000038147</ele>
        <time>2020-10-01T10:10:18.000Z</time>
      </trkpt>
      <trkpt lat="47.25187" lon="-2.29681">
        <ele>13.60000038147</ele>
        <time>2020-10-01T10:10:21.000Z</time>
      </trkpt>
      <trkpt lat="47.25189" lon="-2.29698">
        <ele>13.60000038147</ele>
        <time>2020-10-01T10:10:23.000Z</time>
      </trkpt>
      <trkpt lat="47.25191" lon="-2.29739">
        <ele>13.60000038147</ele>
        <time>2020-10-01T10:10:29.000Z</time>
      </trkpt>
      <trkpt lat="47.2519" lon="-2.29744">
        <ele>12.800000190735</ele>
        <time>2020-10-01T10:10:31.000Z</time>
      </trkpt>
      <trkpt lat="47.2519" lon="-2.29745">
        <ele>12.199999809265</ele>
        <time>2020-10-01T10:10:32.000Z</time>
      </trkpt>
      <trkpt lat="47.2519" lon="-2.29746">
        <ele>11.800000190735</ele>
        <time>2020-10-01T10:10:33.000Z</time>
      </trkpt>
      <trkpt lat="47.2519" lon="-2.29746">
        <ele>11.39999961853</ele>
        <time>2020-10-01T10:10:34.000Z</time>
      </trkpt>
      <trkpt lat="47.25186" lon="-2.29747">
        <ele>11.39999961853</ele>
        <time>2020-10-01T10:10:47.000Z</time>
      </trkpt>
      <trkpt lat="47.25182" lon="-2.29747">
        <ele>11.39999961853</ele>
        <time>2020-10-01T10:10:49.000Z</time>
      </trkpt>
      <trkpt lat="47.25165" lon="-2.29741">
        <ele>11.39999961853</ele>
        <time>2020-10-01T10:10:54.000Z</time>
      </trkpt>
      <trkpt lat="47.25139" lon="-2.29728">
        <ele>11.39999961853</ele>
        <time>2020-10-01T10:11:00.000Z</time>
      </trkpt>
      <trkpt lat="47.25134" lon="-2.29726">
        <ele>11.39999961853</ele>
        <time>2020-10-01T10:11:01.000Z</time>
      </trkpt>
      <trkpt lat="47.25109" lon="-2.29716">
        <ele>11.39999961853</ele>
        <time>2020-10-01T10:11:06.000Z</time>
      </trkpt>
      <trkpt lat="47.25074" lon="-2.29711">
        <ele>11.39999961853</ele>
        <time>2020-10-01T10:11:12.000Z</time>
      </trkpt>
      <trkpt lat="47.25057" lon="-2.29712">
        <ele>11.800000190735</ele>
        <time>2020-10-01T10:11:15.000Z</time>
      </trkpt>
      <trkpt lat="47.25051" lon="-2.29713">
        <ele>12.199999809265</ele>
        <time>2020-10-01T10:11:16.000Z</time>
      </trkpt>
      <trkpt lat="47.25046" lon="-2.29714">
        <ele>12.60000038147</ele>
        <time>2020-10-01T10:11:17.000Z</time>
      </trkpt>
      <trkpt lat="47.25039" lon="-2.29715">
        <ele>13</ele>
        <time>2020-10-01T10:11:18.000Z</time>
      </trkpt>
      <trkpt lat="47.25034" lon="-2.29717">
        <ele>13.39999961853</ele>
        <time>2020-10-01T10:11:19.000Z</time>
      </trkpt>
      <trkpt lat="47.25028" lon="-2.29718">
        <ele>13.39999961853</ele>
        <time>2020-10-01T10:11:20.000Z</time>
      </trkpt>
      <trkpt lat="47.24988" lon="-2.29727">
        <ele>13.39999961853</ele>
        <time>2020-10-01T10:11:27.000Z</time>
      </trkpt>
      <trkpt lat="47.24976" lon="-2.2973">
        <ele>13.39999961853</ele>
        <time>2020-10-01T10:11:29.000Z</time>
      </trkpt>
      <trkpt lat="47.24948" lon="-2.29739">
        <ele>13.39999961853</ele>
        <time>2020-10-01T10:11:34.000Z</time>
      </trkpt>
      <trkpt lat="47.24904" lon="-2.29756">
        <ele>13.39999961853</ele>
        <time>2020-10-01T10:11:42.000Z</time>
      </trkpt>
      <trkpt lat="47.24882" lon="-2.2977">
        <ele>13.800000190735</ele>
        <time>2020-10-01T10:11:46.000Z</time>
      </trkpt>
      <trkpt lat="47.24877" lon="-2.29775">
        <ele>14.199999809265</ele>
        <time>2020-10-01T10:11:47.000Z</time>
      </trkpt>
      <trkpt lat="47.24872" lon="-2.29781">
        <ele>14.60000038147</ele>
        <time>2020-10-01T10:11:48.000Z</time>
      </trkpt>
      <trkpt lat="47.24868" lon="-2.29788">
        <ele>15</ele>
        <time>2020-10-01T10:11:49.000Z</time>
      </trkpt>
      <trkpt lat="47.24866" lon="-2.29795">
        <ele>15.39999961853</ele>
        <time>2020-10-01T10:11:50.000Z</time>
      </trkpt>
      <trkpt lat="47.24865" lon="-2.29801">
        <ele>15.39999961853</ele>
        <time>2020-10-01T10:11:51.000Z</time>
      </trkpt>
      <trkpt lat="47.24863" lon="-2.29815">
        <ele>15.39999961853</ele>
        <time>2020-10-01T10:11:53.000Z</time>
      </trkpt>
      <trkpt lat="47.24857" lon="-2.29828">
        <ele>15.39999961853</ele>
        <time>2020-10-01T10:11:56.000Z</time>
      </trkpt>
      <trkpt lat="47.24853" lon="-2.29833">
        <ele>15.39999961853</ele>
        <time>2020-10-01T10:12:00.000Z</time>
      </trkpt>
      <trkpt lat="47.24853" lon="-2.29833">
        <ele>15.39999961853</ele>
        <time>2020-10-01T10:12:01.000Z</time>
      </trkpt>
      <trkpt lat="47.24856" lon="-2.29827">
        <ele>15.39999961853</ele>
        <time>2020-10-01T10:12:06.000Z</time>
      </trkpt>
      <trkpt lat="47.24861" lon="-2.29827">
        <ele>15.39999961853</ele>
        <time>2020-10-01T10:12:08.000Z</time>
      </trkpt>
      <trkpt lat="47.24867" lon="-2.29839">
        <ele>15.39999961853</ele>
        <time>2020-10-01T10:12:11.000Z</time>
      </trkpt>
      <trkpt lat="47.2487" lon="-2.29855">
        <ele>15.39999961853</ele>
        <time>2020-10-01T10:12:14.000Z</time>
      </trkpt>
      <trkpt lat="47.24872" lon="-2.29867">
        <ele>15.39999961853</ele>
        <time>2020-10-01T10:12:16.000Z</time>
      </trkpt>
      <trkpt lat="47.24879" lon="-2.29903">
        <ele>15.39999961853</ele>
        <time>2020-10-01T10:12:22.000Z</time>
      </trkpt>
      <trkpt lat="47.24883" lon="-2.29938">
        <ele>15.39999961853</ele>
        <time>2020-10-01T10:12:28.000Z</time>
      </trkpt>
      <trkpt lat="47.24891" lon="-2.29972">
        <ele>15.39999961853</ele>
        <time>2020-10-01T10:12:34.000Z</time>
      </trkpt>
      <trkpt lat="47.24894" lon="-2.29985">
        <ele>15</ele>
        <time>2020-10-01T10:12:36.000Z</time>
      </trkpt>
      <trkpt lat="47.24896" lon="-2.29991">
        <ele>14.60000038147</ele>
        <time>2020-10-01T10:12:37.000Z</time>
      </trkpt>
      <trkpt lat="47.24898" lon="-2.29997">
        <ele>14.199999809265</ele>
        <time>2020-10-01T10:12:38.000Z</time>
      </trkpt>
      <trkpt lat="47.249" lon="-2.30004">
        <ele>13.800000190735</ele>
        <time>2020-10-01T10:12:39.000Z</time>
      </trkpt>
      <trkpt lat="47.24901" lon="-2.3001">
        <ele>13.39999961853</ele>
        <time>2020-10-01T10:12:40.000Z</time>
      </trkpt>
      <trkpt lat="47.24903" lon="-2.30023">
        <ele>13.39999961853</ele>
        <time>2020-10-01T10:12:42.000Z</time>
      </trkpt>
      <trkpt lat="47.24904" lon="-2.30029">
        <ele>13.39999961853</ele>
        <time>2020-10-01T10:12:43.000Z</time>
      </trkpt>
      <trkpt lat="47.24903" lon="-2.3005">
        <ele>13.39999961853</ele>
        <time>2020-10-01T10:12:47.000Z</time>
      </trkpt>
      <trkpt lat="47.24912" lon="-2.30056">
        <ele>13.39999961853</ele>
        <time>2020-10-01T10:12:50.000Z</time>
      </trkpt>
      <trkpt lat="47.24921" lon="-2.30055">
        <ele>13.39999961853</ele>
        <time>2020-10-01T10:12:52.000Z</time>
      </trkpt>
      <trkpt lat="47.24936" lon="-2.30054">
        <ele>13.39999961853</ele>
        <time>2020-10-01T10:12:55.000Z</time>
      </trkpt>
      <trkpt lat="47.24979" lon="-2.30054">
        <ele>13.39999961853</ele>
        <time>2020-10-01T10:13:03.000Z</time>
      </trkpt>
      <trkpt lat="47.25007" lon="-2.30051">
        <ele>13.39999961853</ele>
        <time>2020-10-01T10:13:08.000Z</time>
      </trkpt>
      <trkpt lat="47.25049" lon="-2.30053">
        <ele>13.39999961853</ele>
        <time>2020-10-01T10:13:16.000Z</time>
      </trkpt>
      <trkpt lat="47.25072" lon="-2.30063">
        <ele>13.39999961853</ele>
        <time>2020-10-01T10:13:22.000Z</time>
      </trkpt>
      <trkpt lat="47.25071" lon="-2.30079">
        <ele>13.39999961853</ele>
        <time>2020-10-01T10:13:25.000Z</time>
      </trkpt>
      <trkpt lat="47.25068" lon="-2.30117">
        <ele>13.39999961853</ele>
        <time>2020-10-01T10:13:30.000Z</time>
      </trkpt>
      <trkpt lat="47.25065" lon="-2.30148">
        <ele>13.39999961853</ele>
        <time>2020-10-01T10:13:35.000Z</time>
      </trkpt>
      <trkpt lat="47.25061" lon="-2.30177">
        <ele>13.39999961853</ele>
        <time>2020-10-01T10:13:40.000Z</time>
      </trkpt>
      <trkpt lat="47.25058" lon="-2.30217">
        <ele>13.39999961853</ele>
        <time>2020-10-01T10:13:47.000Z</time>
      </trkpt>
      <trkpt lat="47.25059" lon="-2.30236">
        <ele>13</ele>
        <time>2020-10-01T10:13:50.000Z</time>
      </trkpt>
      <trkpt lat="47.25061" lon="-2.30243">
        <ele>12.60000038147</ele>
        <time>2020-10-01T10:13:51.000Z</time>
      </trkpt>
      <trkpt lat="47.25063" lon="-2.3025">
        <ele>12.199999809265</ele>
        <time>2020-10-01T10:13:52.000Z</time>
      </trkpt>
      <trkpt lat="47.25066" lon="-2.30257">
        <ele>11.800000190735</ele>
        <time>2020-10-01T10:13:53.000Z</time>
      </trkpt>
      <trkpt lat="47.25068" lon="-2.30264">
        <ele>11.199999809265</ele>
        <time>2020-10-01T10:13:54.000Z</time>
      </trkpt>
      <trkpt lat="47.25079" lon="-2.30284">
        <ele>11.199999809265</ele>
        <time>2020-10-01T10:13:57.000Z</time>
      </trkpt>
      <trkpt lat="47.25095" lon="-2.30318">
        <ele>11.199999809265</ele>
        <time>2020-10-01T10:14:02.000Z</time>
      </trkpt>
      <trkpt lat="47.25098" lon="-2.30326">
        <ele>11.199999809265</ele>
        <time>2020-10-01T10:14:03.000Z</time>
      </trkpt>
      <trkpt lat="47.25108" lon="-2.30365">
        <ele>11.199999809265</ele>
        <time>2020-10-01T10:14:08.000Z</time>
      </trkpt>
      <trkpt lat="47.25114" lon="-2.30392">
        <ele>11.199999809265</ele>
        <time>2020-10-01T10:14:12.000Z</time>
      </trkpt>
      <trkpt lat="47.25116" lon="-2.30399">
        <ele>11.199999809265</ele>
        <time>2020-10-01T10:14:13.000Z</time>
      </trkpt>
      <trkpt lat="47.25118" lon="-2.30405">
        <ele>11.199999809265</ele>
        <time>2020-10-01T10:14:14.000Z</time>
      </trkpt>
      <trkpt lat="47.25132" lon="-2.30437">
        <ele>11.199999809265</ele>
        <time>2020-10-01T10:14:19.000Z</time>
      </trkpt>
      <trkpt lat="47.25148" lon="-2.30476">
        <ele>10.800000190735</ele>
        <time>2020-10-01T10:14:25.000Z</time>
      </trkpt>
      <trkpt lat="47.2515" lon="-2.30483">
        <ele>10.39999961853</ele>
        <time>2020-10-01T10:14:26.000Z</time>
      </trkpt>
      <trkpt lat="47.25153" lon="-2.30489">
        <ele>10</ele>
        <time>2020-10-01T10:14:27.000Z</time>
      </trkpt>
      <trkpt lat="47.25156" lon="-2.30495">
        <ele>9.6000003814697</ele>
        <time>2020-10-01T10:14:28.000Z</time>
      </trkpt>
      <trkpt lat="47.25158" lon="-2.30501">
        <ele>9.1999998092651</ele>
        <time>2020-10-01T10:14:29.000Z</time>
      </trkpt>
      <trkpt lat="47.25174" lon="-2.30555">
        <ele>9.1999998092651</ele>
        <time>2020-10-01T10:14:37.000Z</time>
      </trkpt>
      <trkpt lat="47.25187" lon="-2.30599">
        <ele>8.8000001907349</ele>
        <time>2020-10-01T10:14:43.000Z</time>
      </trkpt>
      <trkpt lat="47.2519" lon="-2.30606">
        <ele>8.3999996185303</ele>
        <time>2020-10-01T10:14:44.000Z</time>
      </trkpt>
      <trkpt lat="47.25193" lon="-2.30613">
        <ele>8</ele>
        <time>2020-10-01T10:14:45.000Z</time>
      </trkpt>
      <trkpt lat="47.25196" lon="-2.3062">
        <ele>7.5999999046326</ele>
        <time>2020-10-01T10:14:46.000Z</time>
      </trkpt>
      <trkpt lat="47.25199" lon="-2.30627">
        <ele>7.1999998092651</ele>
        <time>2020-10-01T10:14:47.000Z</time>
      </trkpt>
      <trkpt lat="47.25215" lon="-2.30667">
        <ele>6.5999999046326</ele>
        <time>2020-10-01T10:14:53.000Z</time>
      </trkpt>
      <trkpt lat="47.25218" lon="-2.30671">
        <ele>6.1999998092651</ele>
        <time>2020-10-01T10:14:54.000Z</time>
      </trkpt>
      <trkpt lat="47.2522" lon="-2.30674">
        <ele>5.8000001907349</ele>
        <time>2020-10-01T10:14:55.000Z</time>
      </trkpt>
      <trkpt lat="47.25222" lon="-2.30676">
        <ele>5.4000000953674</ele>
        <time>2020-10-01T10:14:56.000Z</time>
      </trkpt>
      <trkpt lat="47.25224" lon="-2.30676">
        <ele>5</ele>
        <time>2020-10-01T10:14:57.000Z</time>
      </trkpt>
      <trkpt lat="47.25226" lon="-2.30679">
        <ele>4.4000000953674</ele>
        <time>2020-10-01T10:14:59.000Z</time>
      </trkpt>
      <trkpt lat="47.25229" lon="-2.30682">
        <ele>4</ele>
        <time>2020-10-01T10:15:00.000Z</time>
      </trkpt>
      <trkpt lat="47.25232" lon="-2.30683">
        <ele>3.5999999046326</ele>
        <time>2020-10-01T10:15:01.000Z</time>
      </trkpt>
      <trkpt lat="47.25236" lon="-2.30684">
        <ele>3.2000000476837</ele>
        <time>2020-10-01T10:15:02.000Z</time>
      </trkpt>
      <trkpt lat="47.25238" lon="-2.30688">
        <ele>2.5999999046326</ele>
        <time>2020-10-01T10:15:03.000Z</time>
      </trkpt>
      <trkpt lat="47.25241" lon="-2.30692">
        <ele>2.5999999046326</ele>
        <time>2020-10-01T10:15:04.000Z</time>
      </trkpt>
      <trkpt lat="47.25244" lon="-2.30697">
        <ele>2.5999999046326</ele>
        <time>2020-10-01T10:15:05.000Z</time>
      </trkpt>
      <trkpt lat="47.25251" lon="-2.3072">
        <ele>2.5999999046326</ele>
        <time>2020-10-01T10:15:09.000Z</time>
      </trkpt>
      <trkpt lat="47.25252" lon="-2.30739">
        <ele>2.5999999046326</ele>
        <time>2020-10-01T10:15:12.000Z</time>
      </trkpt>
      <trkpt lat="47.25254" lon="-2.30758">
        <ele>2.5999999046326</ele>
        <time>2020-10-01T10:15:15.000Z</time>
      </trkpt>
      <trkpt lat="47.2526" lon="-2.30812">
        <ele>2.5999999046326</ele>
        <time>2020-10-01T10:15:23.000Z</time>
      </trkpt>
      <trkpt lat="47.25263" lon="-2.30833">
        <ele>2.5999999046326</ele>
        <time>2020-10-01T10:15:26.000Z</time>
      </trkpt>
      <trkpt lat="47.25265" lon="-2.30841">
        <ele>1.7999999523163</ele>
        <time>2020-10-01T10:15:27.000Z</time>
      </trkpt>
      <trkpt lat="47.25267" lon="-2.30848">
        <ele>1.3999999761581</ele>
        <time>2020-10-01T10:15:28.000Z</time>
      </trkpt>
      <trkpt lat="47.25269" lon="-2.30855">
        <ele>1</ele>
        <time>2020-10-01T10:15:29.000Z</time>
      </trkpt>
      <trkpt lat="47.25271" lon="-2.30862">
        <ele>0.60000002384186</ele>
        <time>2020-10-01T10:15:30.000Z</time>
      </trkpt>
      <trkpt lat="47.25285" lon="-2.30906">
        <ele>0.60000002384186</ele>
        <time>2020-10-01T10:15:36.000Z</time>
      </trkpt>
      <trkpt lat="47.25294" lon="-2.30935">
        <ele>0.20000000298023</ele>
        <time>2020-10-01T10:15:40.000Z</time>
      </trkpt>
      <trkpt lat="47.25296" lon="-2.30943">
        <ele>-0.20000000298023</ele>
        <time>2020-10-01T10:15:41.000Z</time>
      </trkpt>
      <trkpt lat="47.25299" lon="-2.3095">
        <ele>-0.60000002384186</ele>
        <time>2020-10-01T10:15:42.000Z</time>
      </trkpt>
      <trkpt lat="47.25301" lon="-2.30957">
        <ele>-1</ele>
        <time>2020-10-01T10:15:43.000Z</time>
      </trkpt>
      <trkpt lat="47.25303" lon="-2.30964">
        <ele>-1.3999999761581</ele>
        <time>2020-10-01T10:15:44.000Z</time>
      </trkpt>
      <trkpt lat="47.25307" lon="-2.30979">
        <ele>-1.3999999761581</ele>
        <time>2020-10-01T10:15:46.000Z</time>
      </trkpt>
      <trkpt lat="47.25313" lon="-2.31002">
        <ele>-1.7999999523163</ele>
        <time>2020-10-01T10:15:49.000Z</time>
      </trkpt>
      <trkpt lat="47.25314" lon="-2.3101">
        <ele>-2.2000000476837</ele>
        <time>2020-10-01T10:15:50.000Z</time>
      </trkpt>
      <trkpt lat="47.25316" lon="-2.31017">
        <ele>-2.5999999046326</ele>
        <time>2020-10-01T10:15:51.000Z</time>
      </trkpt>
      <trkpt lat="47.25317" lon="-2.31024">
        <ele>-3.4000000953674</ele>
        <time>2020-10-01T10:15:52.000Z</time>
      </trkpt>
      <trkpt lat="47.25319" lon="-2.31032">
        <ele>-3.4000000953674</ele>
        <time>2020-10-01T10:15:53.000Z</time>
      </trkpt>
      <trkpt lat="47.2533" lon="-2.31085">
        <ele>-3.4000000953674</ele>
        <time>2020-10-01T10:16:00.000Z</time>
      </trkpt>
      <trkpt lat="47.25338" lon="-2.31114">
        <ele>-3.4000000953674</ele>
        <time>2020-10-01T10:16:04.000Z</time>
      </trkpt>
      <trkpt lat="47.25344" lon="-2.31129">
        <ele>-3.7999999523163</ele>
        <time>2020-10-01T10:16:06.000Z</time>
      </trkpt>
      <trkpt lat="47.25346" lon="-2.31138">
        <ele>-4.1999998092651</ele>
        <time>2020-10-01T10:16:07.000Z</time>
      </trkpt>
      <trkpt lat="47.25347" lon="-2.31147">
        <ele>-4.8000001907349</ele>
        <time>2020-10-01T10:16:08.000Z</time>
      </trkpt>
      <trkpt lat="47.25347" lon="-2.31157">
        <ele>-5.1999998092651</ele>
        <time>2020-10-01T10:16:09.000Z</time>
      </trkpt>
      <trkpt lat="47.25347" lon="-2.31167">
        <ele>-5.5999999046326</ele>
        <time>2020-10-01T10:16:10.000Z</time>
      </trkpt>
      <trkpt lat="47.25348" lon="-2.3124">
        <ele>-5.5999999046326</ele>
        <time>2020-10-01T10:16:18.000Z</time>
      </trkpt>
      <trkpt lat="47.25347" lon="-2.31247">
        <ele>-5.5999999046326</ele>
        <time>2020-10-01T10:16:19.000Z</time>
      </trkpt>
      <trkpt lat="47.25346" lon="-2.31284">
        <ele>-5.5999999046326</ele>
        <time>2020-10-01T10:16:24.000Z</time>
      </trkpt>
      <trkpt lat="47.25342" lon="-2.31334">
        <ele>-5.5999999046326</ele>
        <time>2020-10-01T10:16:31.000Z</time>
      </trkpt>
      <trkpt lat="47.25341" lon="-2.31349">
        <ele>-5</ele>
        <time>2020-10-01T10:16:33.000Z</time>
      </trkpt>
      <trkpt lat="47.2534" lon="-2.31355">
        <ele>-4.5999999046326</ele>
        <time>2020-10-01T10:16:34.000Z</time>
      </trkpt>
      <trkpt lat="47.25339" lon="-2.31361">
        <ele>-4.1999998092651</ele>
        <time>2020-10-01T10:16:35.000Z</time>
      </trkpt>
      <trkpt lat="47.25339" lon="-2.31365">
        <ele>-3.7999999523163</ele>
        <time>2020-10-01T10:16:36.000Z</time>
      </trkpt>
      <trkpt lat="47.25338" lon="-2.31369">
        <ele>-3.2000000476837</ele>
        <time>2020-10-01T10:16:37.000Z</time>
      </trkpt>
      <trkpt lat="47.25338" lon="-2.3138">
        <ele>-3.2000000476837</ele>
        <time>2020-10-01T10:16:41.000Z</time>
      </trkpt>
      <trkpt lat="47.25342" lon="-2.31398">
        <ele>-3.2000000476837</ele>
        <time>2020-10-01T10:16:47.000Z</time>
      </trkpt>
      <trkpt lat="47.25338" lon="-2.3142">
        <ele>-3.2000000476837</ele>
        <time>2020-10-01T10:16:53.000Z</time>
      </trkpt>
      <trkpt lat="47.25336" lon="-2.31424">
        <ele>-2.7999999523163</ele>
        <time>2020-10-01T10:16:54.000Z</time>
      </trkpt>
      <trkpt lat="47.25335" lon="-2.31428">
        <ele>-2.4000000953674</ele>
        <time>2020-10-01T10:16:55.000Z</time>
      </trkpt>
      <trkpt lat="47.25333" lon="-2.31432">
        <ele>-2</ele>
        <time>2020-10-01T10:16:56.000Z</time>
      </trkpt>
      <trkpt lat="47.25331" lon="-2.31437">
        <ele>-1.6000000238419</ele>
        <time>2020-10-01T10:16:57.000Z</time>
      </trkpt>
      <trkpt lat="47.25329" lon="-2.31442">
        <ele>-1.2000000476837</ele>
        <time>2020-10-01T10:16:58.000Z</time>
      </trkpt>
      <trkpt lat="47.25328" lon="-2.31446">
        <ele>-1.2000000476837</ele>
        <time>2020-10-01T10:16:59.000Z</time>
      </trkpt>
      <trkpt lat="47.25329" lon="-2.31474">
        <ele>-1.2000000476837</ele>
        <time>2020-10-01T10:17:04.000Z</time>
      </trkpt>
      <trkpt lat="47.25331" lon="-2.31487">
        <ele>-1.2000000476837</ele>
        <time>2020-10-01T10:17:06.000Z</time>
      </trkpt>
      <trkpt lat="47.25338" lon="-2.31528">
        <ele>-1.2000000476837</ele>
        <time>2020-10-01T10:17:12.000Z</time>
      </trkpt>
      <trkpt lat="47.25349" lon="-2.31561">
        <ele>-1.2000000476837</ele>
        <time>2020-10-01T10:17:17.000Z</time>
      </trkpt>
      <trkpt lat="47.25352" lon="-2.31568">
        <ele>-1.2000000476837</ele>
        <time>2020-10-01T10:17:18.000Z</time>
      </trkpt>
      <trkpt lat="47.25382" lon="-2.31618">
        <ele>-1.2000000476837</ele>
        <time>2020-10-01T10:17:26.000Z</time>
      </trkpt>
      <trkpt lat="47.25397" lon="-2.31649">
        <ele>-1.6000000238419</ele>
        <time>2020-10-01T10:17:30.000Z</time>
      </trkpt>
      <trkpt lat="47.25401" lon="-2.31656">
        <ele>-2</ele>
        <time>2020-10-01T10:17:31.000Z</time>
      </trkpt>
      <trkpt lat="47.25404" lon="-2.31664">
        <ele>-2.4000000953674</ele>
        <time>2020-10-01T10:17:32.000Z</time>
      </trkpt>
      <trkpt lat="47.25408" lon="-2.31671">
        <ele>-2.7999999523163</ele>
        <time>2020-10-01T10:17:33.000Z</time>
      </trkpt>
      <trkpt lat="47.25412" lon="-2.31679">
        <ele>-3.4000000953674</ele>
        <time>2020-10-01T10:17:34.000Z</time>
      </trkpt>
      <trkpt lat="47.25415" lon="-2.31686">
        <ele>-3.4000000953674</ele>
        <time>2020-10-01T10:17:35.000Z</time>
      </trkpt>
      <trkpt lat="47.25436" lon="-2.31741">
        <ele>-3.4000000953674</ele>
        <time>2020-10-01T10:17:43.000Z</time>
      </trkpt>
      <trkpt lat="47.25449" lon="-2.31792">
        <ele>-3.4000000953674</ele>
        <time>2020-10-01T10:17:50.000Z</time>
      </trkpt>
      <trkpt lat="47.25456" lon="-2.31819">
        <ele>-3.7999999523163</ele>
        <time>2020-10-01T10:17:54.000Z</time>
      </trkpt>
      <trkpt lat="47.25458" lon="-2.31824">
        <ele>-4.1999998092651</ele>
        <time>2020-10-01T10:17:55.000Z</time>
      </trkpt>
      <trkpt lat="47.25461" lon="-2.31829">
        <ele>-4.5999999046326</ele>
        <time>2020-10-01T10:17:56.000Z</time>
      </trkpt>
      <trkpt lat="47.25466" lon="-2.31831">
        <ele>-5</ele>
        <time>2020-10-01T10:17:57.000Z</time>
      </trkpt>
      <trkpt lat="47.25472" lon="-2.31832">
        <ele>-5.4000000953674</ele>
        <time>2020-10-01T10:17:58.000Z</time>
      </trkpt>
      <trkpt lat="47.25476" lon="-2.31832">
        <ele>-5.4000000953674</ele>
        <time>2020-10-01T10:17:59.000Z</time>
      </trkpt>
      <trkpt lat="47.25493" lon="-2.31824">
        <ele>-5.4000000953674</ele>
        <time>2020-10-01T10:18:03.000Z</time>
      </trkpt>
      <trkpt lat="47.25505" lon="-2.31828">
        <ele>-5.4000000953674</ele>
        <time>2020-10-01T10:18:07.000Z</time>
      </trkpt>
      <trkpt lat="47.25506" lon="-2.31834">
        <ele>-5.4000000953674</ele>
        <time>2020-10-01T10:18:10.000Z</time>
      </trkpt>
      <trkpt lat="47.25508" lon="-2.31834">
        <ele>-5.4000000953674</ele>
        <time>2020-10-01T10:37:07.000Z</time>
      </trkpt>
      <trkpt lat="47.25511" lon="-2.31826">
        <ele>-5.4000000953674</ele>
        <time>2020-10-01T10:37:11.000Z</time>
      </trkpt>
      <trkpt lat="47.2551" lon="-2.31821">
        <ele>-5.4000000953674</ele>
        <time>2020-10-01T10:37:13.000Z</time>
      </trkpt>
      <trkpt lat="47.2551" lon="-2.31813">
        <ele>-5.4000000953674</ele>
        <time>2020-10-01T10:37:16.000Z</time>
      </trkpt>
      <trkpt lat="47.25512" lon="-2.31812">
        <ele>-5.4000000953674</ele>
        <time>2020-10-01T10:37:17.000Z</time>
      </trkpt>
      <trkpt lat="47.25524" lon="-2.31807">
        <ele>-5.4000000953674</ele>
        <time>2020-10-01T10:37:22.000Z</time>
      </trkpt>
      <trkpt lat="47.25547" lon="-2.31799">
        <ele>-5.4000000953674</ele>
        <time>2020-10-01T10:37:28.000Z</time>
      </trkpt>
      <trkpt lat="47.25562" lon="-2.31791">
        <ele>-5.4000000953674</ele>
        <time>2020-10-01T10:37:33.000Z</time>
      </trkpt>
      <trkpt lat="47.25569" lon="-2.31772">
        <ele>-5.8000001907349</ele>
        <time>2020-10-01T10:37:37.000Z</time>
      </trkpt>
      <trkpt lat="47.25572" lon="-2.31768">
        <ele>-6.1999998092651</ele>
        <time>2020-10-01T10:37:38.000Z</time>
      </trkpt>
      <trkpt lat="47.25576" lon="-2.31764">
        <ele>-7</ele>
        <time>2020-10-01T10:37:39.000Z</time>
      </trkpt>
      <trkpt lat="47.25581" lon="-2.3176">
        <ele>-7.4000000953674</ele>
        <time>2020-10-01T10:37:40.000Z</time>
      </trkpt>
      <trkpt lat="47.25585" lon="-2.31753">
        <ele>-7.4000000953674</ele>
        <time>2020-10-01T10:37:41.000Z</time>
      </trkpt>
      <trkpt lat="47.25593" lon="-2.31728">
        <ele>-7.4000000953674</ele>
        <time>2020-10-01T10:37:44.000Z</time>
      </trkpt>
      <trkpt lat="47.25597" lon="-2.31721">
        <ele>-7.4000000953674</ele>
        <time>2020-10-01T10:37:45.000Z</time>
      </trkpt>
      <trkpt lat="47.25607" lon="-2.31711">
        <ele>-7.4000000953674</ele>
        <time>2020-10-01T10:37:47.000Z</time>
      </trkpt>
      <trkpt lat="47.25628" lon="-2.31705">
        <ele>-7.4000000953674</ele>
        <time>2020-10-01T10:37:50.000Z</time>
      </trkpt>
      <trkpt lat="47.25635" lon="-2.31703">
        <ele>-7.4000000953674</ele>
        <time>2020-10-01T10:37:51.000Z</time>
      </trkpt>
      <trkpt lat="47.25648" lon="-2.31691">
        <ele>-7.4000000953674</ele>
        <time>2020-10-01T10:37:53.000Z</time>
      </trkpt>
      <trkpt lat="47.25656" lon="-2.31672">
        <ele>-7.8000001907349</ele>
        <time>2020-10-01T10:37:55.000Z</time>
      </trkpt>
      <trkpt lat="47.25659" lon="-2.31665">
        <ele>-8.1999998092651</ele>
        <time>2020-10-01T10:37:56.000Z</time>
      </trkpt>
      <trkpt lat="47.25664" lon="-2.31661">
        <ele>-8.6000003814697</ele>
        <time>2020-10-01T10:37:57.000Z</time>
      </trkpt>
      <trkpt lat="47.25669" lon="-2.31661">
        <ele>-9</ele>
        <time>2020-10-01T10:37:58.000Z</time>
      </trkpt>
      <trkpt lat="47.25673" lon="-2.31663">
        <ele>-9.3999996185303</ele>
        <time>2020-10-01T10:37:59.000Z</time>
      </trkpt>
      <trkpt lat="47.25682" lon="-2.31671">
        <ele>-9.3999996185303</ele>
        <time>2020-10-01T10:38:01.000Z</time>
      </trkpt>
      <trkpt lat="47.25688" lon="-2.31674">
        <ele>-9.8000001907349</ele>
        <time>2020-10-01T10:38:02.000Z</time>
      </trkpt>
      <trkpt lat="47.25694" lon="-2.31678">
        <ele>-10.199999809265</ele>
        <time>2020-10-01T10:38:03.000Z</time>
      </trkpt>
      <trkpt lat="47.257" lon="-2.31681">
        <ele>-11</ele>
        <time>2020-10-01T10:38:04.000Z</time>
      </trkpt>
      <trkpt lat="47.25707" lon="-2.31685">
        <ele>-11.39999961853</ele>
        <time>2020-10-01T10:38:05.000Z</time>
      </trkpt>
      <trkpt lat="47.25713" lon="-2.31691">
        <ele>-11.39999961853</ele>
        <time>2020-10-01T10:38:06.000Z</time>
      </trkpt>
      <trkpt lat="47.25726" lon="-2.31697">
        <ele>-11.39999961853</ele>
        <time>2020-10-01T10:38:09.000Z</time>
      </trkpt>
      <trkpt lat="47.25746" lon="-2.31687">
        <ele>-11.39999961853</ele>
        <time>2020-10-01T10:38:12.000Z</time>
      </trkpt>
      <trkpt lat="47.25751" lon="-2.31682">
        <ele>-11.39999961853</ele>
        <time>2020-10-01T10:38:13.000Z</time>
      </trkpt>
      <trkpt lat="47.25773" lon="-2.31666">
        <ele>-11.39999961853</ele>
        <time>2020-10-01T10:38:17.000Z</time>
      </trkpt>
      <trkpt lat="47.25778" lon="-2.31662">
        <ele>-11.39999961853</ele>
        <time>2020-10-01T10:38:18.000Z</time>
      </trkpt>
      <trkpt lat="47.25815" lon="-2.31631">
        <ele>-11.39999961853</ele>
        <time>2020-10-01T10:38:26.000Z</time>
      </trkpt>
      <trkpt lat="47.25849" lon="-2.31601">
        <ele>-11.39999961853</ele>
        <time>2020-10-01T10:38:34.000Z</time>
      </trkpt>
      <trkpt lat="47.25881" lon="-2.31569">
        <ele>-11.39999961853</ele>
        <time>2020-10-01T10:38:40.000Z</time>
      </trkpt>
      <trkpt lat="47.25886" lon="-2.31561">
        <ele>-11.39999961853</ele>
        <time>2020-10-01T10:38:41.000Z</time>
      </trkpt>
      <trkpt lat="47.25892" lon="-2.31543">
        <ele>-11.39999961853</ele>
        <time>2020-10-01T10:38:43.000Z</time>
      </trkpt>
      <trkpt lat="47.25895" lon="-2.31535">
        <ele>-12</ele>
        <time>2020-10-01T10:38:44.000Z</time>
      </trkpt>
      <trkpt lat="47.25898" lon="-2.31526">
        <ele>-12.39999961853</ele>
        <time>2020-10-01T10:38:45.000Z</time>
      </trkpt>
      <trkpt lat="47.25901" lon="-2.3152">
        <ele>-12.800000190735</ele>
        <time>2020-10-01T10:38:46.000Z</time>
      </trkpt>
      <trkpt lat="47.25905" lon="-2.31516">
        <ele>-13.199999809265</ele>
        <time>2020-10-01T10:38:47.000Z</time>
      </trkpt>
      <trkpt lat="47.25908" lon="-2.31512">
        <ele>-13.60000038147</ele>
        <time>2020-10-01T10:38:48.000Z</time>
      </trkpt>
      <trkpt lat="47.2591" lon="-2.31504">
        <ele>-13.60000038147</ele>
        <time>2020-10-01T10:38:51.000Z</time>
      </trkpt>
      <trkpt lat="47.2591" lon="-2.31504">
        <ele>-14</ele>
        <time>2020-10-01T10:38:52.000Z</time>
      </trkpt>
      <trkpt lat="47.2591" lon="-2.31503">
        <ele>-14.800000190735</ele>
        <time>2020-10-01T10:38:53.000Z</time>
      </trkpt>
      <trkpt lat="47.25911" lon="-2.31502">
        <ele>-15.199999809265</ele>
        <time>2020-10-01T10:38:54.000Z</time>
      </trkpt>
      <trkpt lat="47.25912" lon="-2.315">
        <ele>-15.60000038147</ele>
        <time>2020-10-01T10:38:55.000Z</time>
      </trkpt>
      <trkpt lat="47.25919" lon="-2.31481">
        <ele>-15.60000038147</ele>
        <time>2020-10-01T10:38:59.000Z</time>
      </trkpt>
      <trkpt lat="47.25929" lon="-2.31458">
        <ele>-15.60000038147</ele>
        <time>2020-10-01T10:39:03.000Z</time>
      </trkpt>
      <trkpt lat="47.25932" lon="-2.31456">
        <ele>-15.60000038147</ele>
        <time>2020-10-01T10:39:04.000Z</time>
      </trkpt>
      <trkpt lat="47.25945" lon="-2.31463">
        <ele>-15.60000038147</ele>
        <time>2020-10-01T10:39:07.000Z</time>
      </trkpt>
      <trkpt lat="47.25957" lon="-2.31454">
        <ele>-15.60000038147</ele>
        <time>2020-10-01T10:39:10.000Z</time>
      </trkpt>
      <trkpt lat="47.2596" lon="-2.31448">
        <ele>-15.60000038147</ele>
        <time>2020-10-01T10:39:11.000Z</time>
      </trkpt>
      <trkpt lat="47.25972" lon="-2.31428">
        <ele>-15.60000038147</ele>
        <time>2020-10-01T10:39:15.000Z</time>
      </trkpt>
      <trkpt lat="47.25977" lon="-2.31425">
        <ele>-15.60000038147</ele>
        <time>2020-10-01T10:39:16.000Z</time>
      </trkpt>
      <trkpt lat="47.25992" lon="-2.3143">
        <ele>-15.60000038147</ele>
        <time>2020-10-01T10:39:19.000Z</time>
      </trkpt>
      <trkpt lat="47.26002" lon="-2.31437">
        <ele>-15.60000038147</ele>
        <time>2020-10-01T10:39:21.000Z</time>
      </trkpt>
      <trkpt lat="47.2602" lon="-2.31452">
        <ele>-15.60000038147</ele>
        <time>2020-10-01T10:39:25.000Z</time>
      </trkpt>
      <trkpt lat="47.26051" lon="-2.31472">
        <ele>-15.60000038147</ele>
        <time>2020-10-01T10:39:32.000Z</time>
      </trkpt>
      <trkpt lat="47.26061" lon="-2.31483">
        <ele>-15.60000038147</ele>
        <time>2020-10-01T10:39:35.000Z</time>
      </trkpt>
      <trkpt lat="47.26061" lon="-2.31487">
        <ele>-15.60000038147</ele>
        <time>2020-10-01T10:39:36.000Z</time>
      </trkpt>
      <trkpt lat="47.26051" lon="-2.31497">
        <ele>-15.60000038147</ele>
        <time>2020-10-01T10:39:39.000Z</time>
      </trkpt>
      <trkpt lat="47.26044" lon="-2.31504">
        <ele>-15.60000038147</ele>
        <time>2020-10-01T10:39:41.000Z</time>
      </trkpt>
      <trkpt lat="47.26042" lon="-2.31508">
        <ele>-15.60000038147</ele>
        <time>2020-10-01T10:39:42.000Z</time>
      </trkpt>
      <trkpt lat="47.26043" lon="-2.31513">
        <ele>-15.60000038147</ele>
        <time>2020-10-01T10:39:43.000Z</time>
      </trkpt>
      <trkpt lat="47.26052" lon="-2.31528">
        <ele>-15.60000038147</ele>
        <time>2020-10-01T10:39:46.000Z</time>
      </trkpt>
      <trkpt lat="47.26069" lon="-2.31563">
        <ele>-15.60000038147</ele>
        <time>2020-10-01T10:39:52.000Z</time>
      </trkpt>
      <trkpt lat="47.26071" lon="-2.31569">
        <ele>-16.200000762939</ele>
        <time>2020-10-01T10:39:53.000Z</time>
      </trkpt>
      <trkpt lat="47.26074" lon="-2.31573">
        <ele>-16.60000038147</ele>
        <time>2020-10-01T10:39:54.000Z</time>
      </trkpt>
      <trkpt lat="47.26076" lon="-2.31575">
        <ele>-17</ele>
        <time>2020-10-01T10:39:55.000Z</time>
      </trkpt>
      <trkpt lat="47.26077" lon="-2.31575">
        <ele>-17.39999961853</ele>
        <time>2020-10-01T10:39:56.000Z</time>
      </trkpt>
      <trkpt lat="47.26079" lon="-2.31575">
        <ele>-17.799999237061</ele>
        <time>2020-10-01T10:39:57.000Z</time>
      </trkpt>
      <trkpt lat="47.26087" lon="-2.31583">
        <ele>-17.799999237061</ele>
        <time>2020-10-01T10:40:00.000Z</time>
      </trkpt>
      <trkpt lat="47.2609" lon="-2.31588">
        <ele>-17.799999237061</ele>
        <time>2020-10-01T10:40:01.000Z</time>
      </trkpt>
      <trkpt lat="47.26105" lon="-2.31611">
        <ele>-17.799999237061</ele>
        <time>2020-10-01T10:40:05.000Z</time>
      </trkpt>
      <trkpt lat="47.26121" lon="-2.31615">
        <ele>-17.799999237061</ele>
        <time>2020-10-01T10:40:08.000Z</time>
      </trkpt>
      <trkpt lat="47.26126" lon="-2.31614">
        <ele>-17.799999237061</ele>
        <time>2020-10-01T10:40:09.000Z</time>
      </trkpt>
      <trkpt lat="47.26148" lon="-2.31609">
        <ele>-17.799999237061</ele>
        <time>2020-10-01T10:40:13.000Z</time>
      </trkpt>
      <trkpt lat="47.26153" lon="-2.31606">
        <ele>-17.799999237061</ele>
        <time>2020-10-01T10:40:14.000Z</time>
      </trkpt>
      <trkpt lat="47.26181" lon="-2.31596">
        <ele>-17.799999237061</ele>
        <time>2020-10-01T10:40:20.000Z</time>
      </trkpt>
      <trkpt lat="47.26211" lon="-2.31589">
        <ele>-17.799999237061</ele>
        <time>2020-10-01T10:40:26.000Z</time>
      </trkpt>
      <trkpt lat="47.26215" lon="-2.3159">
        <ele>-17.799999237061</ele>
        <time>2020-10-01T10:40:27.000Z</time>
      </trkpt>
      <trkpt lat="47.26228" lon="-2.31597">
        <ele>-17.799999237061</ele>
        <time>2020-10-01T10:40:30.000Z</time>
      </trkpt>
      <trkpt lat="47.26232" lon="-2.31598">
        <ele>-17.799999237061</ele>
        <time>2020-10-01T10:40:31.000Z</time>
      </trkpt>
      <trkpt lat="47.26247" lon="-2.31616">
        <ele>-17.799999237061</ele>
        <time>2020-10-01T10:40:35.000Z</time>
      </trkpt>
      <trkpt lat="47.2625" lon="-2.31621">
        <ele>-17.799999237061</ele>
        <time>2020-10-01T10:40:36.000Z</time>
      </trkpt>
      <trkpt lat="47.2626" lon="-2.31642">
        <ele>-17.799999237061</ele>
        <time>2020-10-01T10:40:40.000Z</time>
      </trkpt>
      <trkpt lat="47.26267" lon="-2.31658">
        <ele>-17.799999237061</ele>
        <time>2020-10-01T10:40:43.000Z</time>
      </trkpt>
      <trkpt lat="47.26278" lon="-2.31678">
        <ele>-17.799999237061</ele>
        <time>2020-10-01T10:40:47.000Z</time>
      </trkpt>
      <trkpt lat="47.26289" lon="-2.31698">
        <ele>-17.799999237061</ele>
        <time>2020-10-01T10:40:51.000Z</time>
      </trkpt>
      <trkpt lat="47.26296" lon="-2.31707">
        <ele>-17.799999237061</ele>
        <time>2020-10-01T10:40:53.000Z</time>
      </trkpt>
      <trkpt lat="47.26308" lon="-2.31709">
        <ele>-17.799999237061</ele>
        <time>2020-10-01T10:40:56.000Z</time>
      </trkpt>
      <trkpt lat="47.26316" lon="-2.31705">
        <ele>-17.799999237061</ele>
        <time>2020-10-01T10:40:58.000Z</time>
      </trkpt>
      <trkpt lat="47.26326" lon="-2.31698">
        <ele>-17.799999237061</ele>
        <time>2020-10-01T10:41:01.000Z</time>
      </trkpt>
      <trkpt lat="47.26328" lon="-2.31693">
        <ele>-17.799999237061</ele>
        <time>2020-10-01T10:41:02.000Z</time>
      </trkpt>
      <trkpt lat="47.26332" lon="-2.31685">
        <ele>-17.799999237061</ele>
        <time>2020-10-01T10:41:04.000Z</time>
      </trkpt>
      <trkpt lat="47.26339" lon="-2.31682">
        <ele>-17.799999237061</ele>
        <time>2020-10-01T10:41:06.000Z</time>
      </trkpt>
      <trkpt lat="47.2635" lon="-2.31676">
        <ele>-17.799999237061</ele>
        <time>2020-10-01T10:41:09.000Z</time>
      </trkpt>
      <trkpt lat="47.26365" lon="-2.31671">
        <ele>-17.39999961853</ele>
        <time>2020-10-01T10:41:13.000Z</time>
      </trkpt>
      <trkpt lat="47.26369" lon="-2.31669">
        <ele>-17</ele>
        <time>2020-10-01T10:41:14.000Z</time>
      </trkpt>
      <trkpt lat="47.26372" lon="-2.31668">
        <ele>-16.60000038147</ele>
        <time>2020-10-01T10:41:15.000Z</time>
      </trkpt>
      <trkpt lat="47.26375" lon="-2.31666">
        <ele>-16.200000762939</ele>
        <time>2020-10-01T10:41:16.000Z</time>
      </trkpt>
      <trkpt lat="47.26379" lon="-2.31664">
        <ele>-15.60000038147</ele>
        <time>2020-10-01T10:41:17.000Z</time>
      </trkpt>
      <trkpt lat="47.26392" lon="-2.31657">
        <ele>-15.60000038147</ele>
        <time>2020-10-01T10:41:21.000Z</time>
      </trkpt>
      <trkpt lat="47.26407" lon="-2.31647">
        <ele>-15.60000038147</ele>
        <time>2020-10-01T10:41:26.000Z</time>
      </trkpt>
      <trkpt lat="47.26408" lon="-2.31643">
        <ele>-15.60000038147</ele>
        <time>2020-10-01T10:41:27.000Z</time>
      </trkpt>
      <trkpt lat="47.26408" lon="-2.31625">
        <ele>-15.60000038147</ele>
        <time>2020-10-01T10:41:31.000Z</time>
      </trkpt>
      <trkpt lat="47.26409" lon="-2.31595">
        <ele>-15.60000038147</ele>
        <time>2020-10-01T10:41:37.000Z</time>
      </trkpt>
      <trkpt lat="47.26408" lon="-2.31571">
        <ele>-15.60000038147</ele>
        <time>2020-10-01T10:41:42.000Z</time>
      </trkpt>
      <trkpt lat="47.26411" lon="-2.31553">
        <ele>-15.60000038147</ele>
        <time>2020-10-01T10:41:47.000Z</time>
      </trkpt>
      <trkpt lat="47.26415" lon="-2.31552">
        <ele>-15.199999809265</ele>
        <time>2020-10-01T10:41:50.000Z</time>
      </trkpt>
      <trkpt lat="47.26415" lon="-2.31552">
        <ele>-14.800000190735</ele>
        <time>2020-10-01T10:41:51.000Z</time>
      </trkpt>
    </trkseg>
  </trk>
</gpx>